<?xml version="1.0" encoding="UTF-8" standalone="no" ?>
<gpx xmlns="http://www.topografix.com/GPX/1/1" xmlns:xsi="http://www.w3.org/2001/XMLSchema-instance" xsi:schemaLocation="http://www.topografix.com/GPX/1/1 http://www.topografix.com/GPX/1/1/gpx.xsd" version="1.1" creator="VisuGPX - https://www.visugpx.com">
  <metadata>
    <name>Test</name>
  </metadata>
  <trk>
    <name><![CDATA[Test_1]]></name>
    <trkseg>
      <trkpt lat="45.73645" lon="6.30027">
        <ele>554.4</ele>
        <time>2011-10-18T09:08:04Z</time>
      </trkpt>
      <trkpt lat="45.73601" lon="6.30069">
        <ele>555.8</ele>
        <time>2011-10-18T09:08:19Z</time>
      </trkpt>
      <trkpt lat="45.73568" lon="6.30076">
        <ele>556.2</ele>
        <time>2011-10-18T09:08:56Z</time>
      </trkpt>
      <trkpt lat="45.73557" lon="6.3008">
        <ele>556.6</ele>
        <time>2011-10-18T09:09:03Z</time>
      </trkpt>
      <trkpt lat="45.73518" lon="6.3013">
        <ele>560.2</ele>
        <time>2011-10-18T09:09:25Z</time>
      </trkpt>
      <trkpt lat="45.73504" lon="6.30144">
        <ele>560.9</ele>
        <time>2011-10-18T09:09:36Z</time>
      </trkpt>
      <trkpt lat="45.73497" lon="6.30141">
        <ele>560.9</ele>
        <time>2011-10-18T09:09:42Z</time>
      </trkpt>
      <trkpt lat="45.73494" lon="6.30127">
        <ele>560.4</ele>
        <time>2011-10-18T09:09:50Z</time>
      </trkpt>
      <trkpt lat="45.7349" lon="6.3012">
        <ele>560.4</ele>
        <time>2011-10-18T09:09:54Z</time>
      </trkpt>
      <trkpt lat="45.73484" lon="6.3012">
        <ele>560.8</ele>
        <time>2011-10-18T09:09:58Z</time>
      </trkpt>
      <trkpt lat="45.73473" lon="6.30132">
        <ele>561.8</ele>
        <time>2011-10-18T09:10:06Z</time>
      </trkpt>
      <trkpt lat="45.73466" lon="6.30132">
        <ele>562.2</ele>
        <time>2011-10-18T09:10:10Z</time>
      </trkpt>
      <trkpt lat="45.73463" lon="6.30127">
        <ele>562.3</ele>
        <time>2011-10-18T09:10:13Z</time>
      </trkpt>
      <trkpt lat="45.7346" lon="6.30113">
        <ele>562.1</ele>
        <time>2011-10-18T09:10:22Z</time>
      </trkpt>
      <trkpt lat="45.73453" lon="6.30106">
        <ele>562.4</ele>
        <time>2011-10-18T09:10:31Z</time>
      </trkpt>
      <trkpt lat="45.73407" lon="6.30102">
        <ele>566.1</ele>
        <time>2011-10-18T09:11:04Z</time>
      </trkpt>
      <trkpt lat="45.734" lon="6.30107">
        <ele>567</ele>
        <time>2011-10-18T09:11:11Z</time>
      </trkpt>
      <trkpt lat="45.73388" lon="6.30109">
        <ele>568.4</ele>
        <time>2011-10-18T09:11:19Z</time>
      </trkpt>
      <trkpt lat="45.7336" lon="6.30104">
        <ele>571.8</ele>
        <time>2011-10-18T09:11:39Z</time>
      </trkpt>
      <trkpt lat="45.73303" lon="6.30139">
        <ele>578.4</ele>
        <time>2011-10-18T09:12:21Z</time>
      </trkpt>
      <trkpt lat="45.73296" lon="6.30151">
        <ele>579.1</ele>
        <time>2011-10-18T09:12:29Z</time>
      </trkpt>
      <trkpt lat="45.73266" lon="6.30177">
        <ele>582.9</ele>
        <time>2011-10-18T09:12:56Z</time>
      </trkpt>
      <trkpt lat="45.73252" lon="6.30183">
        <ele>584.8</ele>
        <time>2011-10-18T09:13:09Z</time>
      </trkpt>
      <trkpt lat="45.73233" lon="6.30175">
        <ele>587.6</ele>
        <time>2011-10-18T09:13:24Z</time>
      </trkpt>
      <trkpt lat="45.7322" lon="6.30175">
        <ele>589.9</ele>
        <time>2011-10-18T09:13:33Z</time>
      </trkpt>
      <trkpt lat="45.73183" lon="6.30188">
        <ele>597.2</ele>
        <time>2011-10-18T09:13:59Z</time>
      </trkpt>
      <trkpt lat="45.73109" lon="6.30281">
        <ele>612.3</ele>
        <time>2011-10-18T09:14:54Z</time>
      </trkpt>
      <trkpt lat="45.73082" lon="6.3035">
        <ele>620.3</ele>
        <time>2011-10-18T09:15:18Z</time>
      </trkpt>
      <trkpt lat="45.73072" lon="6.30358">
        <ele>621.6</ele>
        <time>2011-10-18T09:15:27Z</time>
      </trkpt>
      <trkpt lat="45.73005" lon="6.30512">
        <ele>633</ele>
        <time>2011-10-18T09:16:19Z</time>
      </trkpt>
      <trkpt lat="45.73" lon="6.30516">
        <ele>633.3</ele>
        <time>2011-10-18T09:16:21Z</time>
      </trkpt>
      <trkpt lat="45.72992" lon="6.30517">
        <ele>633.5</ele>
        <time>2011-10-18T09:16:24Z</time>
      </trkpt>
      <trkpt lat="45.7298" lon="6.30507">
        <ele>633.3</ele>
        <time>2011-10-18T09:16:30Z</time>
      </trkpt>
      <trkpt lat="45.72973" lon="6.3051">
        <ele>633.4</ele>
        <time>2011-10-18T09:16:34Z</time>
      </trkpt>
      <trkpt lat="45.72969" lon="6.30521">
        <ele>633.9</ele>
        <time>2011-10-18T09:16:38Z</time>
      </trkpt>
      <trkpt lat="45.72969" lon="6.30529">
        <ele>634.3</ele>
        <time>2011-10-18T09:16:41Z</time>
      </trkpt>
      <trkpt lat="45.72977" lon="6.30545">
        <ele>634.8</ele>
        <time>2011-10-18T09:16:48Z</time>
      </trkpt>
      <trkpt lat="45.7298" lon="6.30555">
        <ele>635.1</ele>
        <time>2011-10-18T09:16:52Z</time>
      </trkpt>
      <trkpt lat="45.7298" lon="6.30569">
        <ele>635.6</ele>
        <time>2011-10-18T09:16:57Z</time>
      </trkpt>
      <trkpt lat="45.72977" lon="6.30576">
        <ele>636.1</ele>
        <time>2011-10-18T09:17:00Z</time>
      </trkpt>
      <trkpt lat="45.72847" lon="6.30633">
        <ele>649.4</ele>
        <time>2011-10-18T09:18:11Z</time>
      </trkpt>
      <trkpt lat="45.72791" lon="6.30718">
        <ele>659.4</ele>
        <time>2011-10-18T09:18:51Z</time>
      </trkpt>
      <trkpt lat="45.72783" lon="6.3074">
        <ele>661.1</ele>
        <time>2011-10-18T09:19:00Z</time>
      </trkpt>
      <trkpt lat="45.72782" lon="6.30806">
        <ele>663</ele>
        <time>2011-10-18T09:19:23Z</time>
      </trkpt>
      <trkpt lat="45.72815" lon="6.3098">
        <ele>668.4</ele>
        <time>2011-10-18T09:20:22Z</time>
      </trkpt>
      <trkpt lat="45.72814" lon="6.30987">
        <ele>669.2</ele>
        <time>2011-10-18T09:20:26Z</time>
      </trkpt>
      <trkpt lat="45.72787" lon="6.30935">
        <ele>669.4</ele>
        <time>2011-10-18T09:20:44Z</time>
      </trkpt>
      <trkpt lat="45.72699" lon="6.30862">
        <ele>676.6</ele>
        <time>2011-10-18T09:21:17Z</time>
      </trkpt>
      <trkpt lat="45.72621" lon="6.30754">
        <ele>680.5</ele>
        <time>2011-10-18T09:21:53Z</time>
      </trkpt>
      <trkpt lat="45.72567" lon="6.3073">
        <ele>686.5</ele>
        <time>2011-10-18T09:22:11Z</time>
      </trkpt>
      <trkpt lat="45.72532" lon="6.30691">
        <ele>688.9</ele>
        <time>2011-10-18T09:22:26Z</time>
      </trkpt>
      <trkpt lat="45.72473" lon="6.30659">
        <ele>696.5</ele>
        <time>2011-10-18T09:22:47Z</time>
      </trkpt>
      <trkpt lat="45.72406" lon="6.30497">
        <ele>696.3</ele>
        <time>2011-10-18T09:23:24Z</time>
      </trkpt>
      <trkpt lat="45.72407" lon="6.30487">
        <ele>696.5</ele>
        <time>2011-10-18T09:23:26Z</time>
      </trkpt>
      <trkpt lat="45.72427" lon="6.30462">
        <ele>695.4</ele>
        <time>2011-10-18T09:23:42Z</time>
      </trkpt>
      <trkpt lat="45.72429" lon="6.30458">
        <ele>695.4</ele>
        <time>2011-10-18T09:23:43Z</time>
      </trkpt>
      <trkpt lat="45.72617" lon="6.30219">
        <ele>708.6</ele>
        <time>2011-10-18T09:24:55Z</time>
      </trkpt>
      <trkpt lat="45.72619" lon="6.30211">
        <ele>709.5</ele>
        <time>2011-10-18T09:24:57Z</time>
      </trkpt>
      <trkpt lat="45.72612" lon="6.30133">
        <ele>719.5</ele>
        <time>2011-10-18T09:25:18Z</time>
      </trkpt>
      <trkpt lat="45.72618" lon="6.30077">
        <ele>724.7</ele>
        <time>2011-10-18T09:25:32Z</time>
      </trkpt>
      <trkpt lat="45.72639" lon="6.30018">
        <ele>732.2</ele>
        <time>2011-10-18T09:25:49Z</time>
      </trkpt>
      <trkpt lat="45.72638" lon="6.2997">
        <ele>736.5</ele>
        <time>2011-10-18T09:26:03Z</time>
      </trkpt>
      <trkpt lat="45.72632" lon="6.29963">
        <ele>737.1</ele>
        <time>2011-10-18T09:26:06Z</time>
      </trkpt>
      <trkpt lat="45.72605" lon="6.29956">
        <ele>738.2</ele>
        <time>2011-10-18T09:26:14Z</time>
      </trkpt>
      <trkpt lat="45.72599" lon="6.29951">
        <ele>741.4</ele>
        <time>2011-10-18T09:26:14Z</time>
      </trkpt>
      <trkpt lat="45.72593" lon="6.29944">
        <ele>741.5</ele>
        <time>2011-10-18T09:26:14Z</time>
      </trkpt>
      <trkpt lat="45.72589" lon="6.29937">
        <ele>741.7</ele>
        <time>2011-10-18T09:26:14Z</time>
      </trkpt>
      <trkpt lat="45.72586" lon="6.29928">
        <ele>741.8</ele>
        <time>2011-10-18T09:26:14Z</time>
      </trkpt>
      <trkpt lat="45.72585" lon="6.29918">
        <ele>742</ele>
        <time>2011-10-18T09:26:14Z</time>
      </trkpt>
      <trkpt lat="45.72585" lon="6.2992">
        <ele>742</ele>
        <time>2016-08-04T07:49:27Z</time>
      </trkpt>
      <trkpt lat="45.72586" lon="6.29898">
        <ele>743</ele>
        <time>2016-08-04T07:49:32Z</time>
      </trkpt>
      <trkpt lat="45.72587" lon="6.29878">
        <ele>744</ele>
        <time>2016-08-04T07:49:37Z</time>
      </trkpt>
      <trkpt lat="45.72588" lon="6.29857">
        <ele>745</ele>
        <time>2016-08-04T07:49:42Z</time>
      </trkpt>
      <trkpt lat="45.72584" lon="6.29837">
        <ele>745</ele>
        <time>2016-08-04T07:49:47Z</time>
      </trkpt>
      <trkpt lat="45.72579" lon="6.2982">
        <ele>745</ele>
        <time>2016-08-04T07:49:52Z</time>
      </trkpt>
      <trkpt lat="45.72572" lon="6.29803">
        <ele>746</ele>
        <time>2016-08-04T07:49:57Z</time>
      </trkpt>
      <trkpt lat="45.7257" lon="6.29784">
        <ele>746</ele>
        <time>2016-08-04T07:50:02Z</time>
      </trkpt>
      <trkpt lat="45.72569" lon="6.29764">
        <ele>748</ele>
        <time>2016-08-04T07:50:07Z</time>
      </trkpt>
      <trkpt lat="45.72567" lon="6.29746">
        <ele>749</ele>
        <time>2016-08-04T07:50:12Z</time>
      </trkpt>
      <trkpt lat="45.72564" lon="6.29732">
        <ele>750</ele>
        <time>2016-08-04T07:50:17Z</time>
      </trkpt>
      <trkpt lat="45.72557" lon="6.2972">
        <ele>752</ele>
        <time>2016-08-04T07:50:22Z</time>
      </trkpt>
      <trkpt lat="45.72553" lon="6.29709">
        <ele>753</ele>
        <time>2016-08-04T07:50:27Z</time>
      </trkpt>
      <trkpt lat="45.72547" lon="6.29699">
        <ele>754</ele>
        <time>2016-08-04T07:50:32Z</time>
      </trkpt>
      <trkpt lat="45.7254" lon="6.29688">
        <ele>756</ele>
        <time>2016-08-04T07:50:37Z</time>
      </trkpt>
      <trkpt lat="45.72532" lon="6.29676">
        <ele>757</ele>
        <time>2016-08-04T07:50:42Z</time>
      </trkpt>
      <trkpt lat="45.72526" lon="6.29665">
        <ele>758</ele>
        <time>2016-08-04T07:50:47Z</time>
      </trkpt>
      <trkpt lat="45.72518" lon="6.29654">
        <ele>759</ele>
        <time>2016-08-04T07:50:52Z</time>
      </trkpt>
      <trkpt lat="45.72507" lon="6.29646">
        <ele>759</ele>
        <time>2016-08-04T07:50:57Z</time>
      </trkpt>
      <trkpt lat="45.72496" lon="6.29637">
        <ele>760</ele>
        <time>2016-08-04T07:51:02Z</time>
      </trkpt>
      <trkpt lat="45.72487" lon="6.29628">
        <ele>760</ele>
        <time>2016-08-04T07:51:07Z</time>
      </trkpt>
      <trkpt lat="45.72476" lon="6.29621">
        <ele>761</ele>
        <time>2016-08-04T07:51:12Z</time>
      </trkpt>
      <trkpt lat="45.72467" lon="6.29612">
        <ele>762</ele>
        <time>2016-08-04T07:51:17Z</time>
      </trkpt>
      <trkpt lat="45.72457" lon="6.29605">
        <ele>763</ele>
        <time>2016-08-04T07:51:22Z</time>
      </trkpt>
      <trkpt lat="45.7245" lon="6.29593">
        <ele>764</ele>
        <time>2016-08-04T07:51:27Z</time>
      </trkpt>
      <trkpt lat="45.72447" lon="6.29577">
        <ele>764</ele>
        <time>2016-08-04T07:51:32Z</time>
      </trkpt>
      <trkpt lat="45.7245" lon="6.29561">
        <ele>765</ele>
        <time>2016-08-04T07:51:37Z</time>
      </trkpt>
      <trkpt lat="45.72459" lon="6.29549">
        <ele>766</ele>
        <time>2016-08-04T07:51:42Z</time>
      </trkpt>
      <trkpt lat="45.72467" lon="6.29539">
        <ele>766</ele>
        <time>2016-08-04T07:51:47Z</time>
      </trkpt>
      <trkpt lat="45.72475" lon="6.29532">
        <ele>765</ele>
        <time>2016-08-04T07:51:52Z</time>
      </trkpt>
      <trkpt lat="45.72485" lon="6.29526">
        <ele>765</ele>
        <time>2016-08-04T07:51:57Z</time>
      </trkpt>
      <trkpt lat="45.72491" lon="6.2951">
        <ele>765</ele>
        <time>2016-08-04T07:52:02Z</time>
      </trkpt>
      <trkpt lat="45.72498" lon="6.29498">
        <ele>765</ele>
        <time>2016-08-04T07:52:07Z</time>
      </trkpt>
      <trkpt lat="45.72505" lon="6.29488">
        <ele>766</ele>
        <time>2016-08-04T07:52:12Z</time>
      </trkpt>
      <trkpt lat="45.72512" lon="6.29477">
        <ele>767</ele>
        <time>2016-08-04T07:52:17Z</time>
      </trkpt>
      <trkpt lat="45.72519" lon="6.29467">
        <ele>768</ele>
        <time>2016-08-04T07:52:22Z</time>
      </trkpt>
      <trkpt lat="45.72524" lon="6.29454">
        <ele>769</ele>
        <time>2016-08-04T07:52:27Z</time>
      </trkpt>
      <trkpt lat="45.72524" lon="6.29438">
        <ele>771</ele>
        <time>2016-08-04T07:52:32Z</time>
      </trkpt>
      <trkpt lat="45.72521" lon="6.29421">
        <ele>772</ele>
        <time>2016-08-04T07:52:37Z</time>
      </trkpt>
      <trkpt lat="45.72517" lon="6.29403">
        <ele>773</ele>
        <time>2016-08-04T07:52:42Z</time>
      </trkpt>
      <trkpt lat="45.72511" lon="6.29388">
        <ele>774</ele>
        <time>2016-08-04T07:52:47Z</time>
      </trkpt>
      <trkpt lat="45.72504" lon="6.29373">
        <ele>774</ele>
        <time>2016-08-04T07:52:52Z</time>
      </trkpt>
      <trkpt lat="45.72498" lon="6.29361">
        <ele>775</ele>
        <time>2016-08-04T07:52:57Z</time>
      </trkpt>
      <trkpt lat="45.72489" lon="6.29348">
        <ele>776</ele>
        <time>2016-08-04T07:53:02Z</time>
      </trkpt>
      <trkpt lat="45.7248" lon="6.29337">
        <ele>776</ele>
        <time>2016-08-04T07:53:07Z</time>
      </trkpt>
      <trkpt lat="45.72471" lon="6.29328">
        <ele>777</ele>
        <time>2016-08-04T07:53:12Z</time>
      </trkpt>
      <trkpt lat="45.72459" lon="6.29321">
        <ele>778</ele>
        <time>2016-08-04T07:53:17Z</time>
      </trkpt>
      <trkpt lat="45.72449" lon="6.29316">
        <ele>779</ele>
        <time>2016-08-04T07:53:22Z</time>
      </trkpt>
      <trkpt lat="45.7244" lon="6.29313">
        <ele>779</ele>
        <time>2016-08-04T07:53:27Z</time>
      </trkpt>
      <trkpt lat="45.72429" lon="6.29315">
        <ele>780</ele>
        <time>2016-08-04T07:53:32Z</time>
      </trkpt>
      <trkpt lat="45.72416" lon="6.29322">
        <ele>782</ele>
        <time>2016-08-04T07:53:37Z</time>
      </trkpt>
      <trkpt lat="45.72403" lon="6.29329">
        <ele>783</ele>
        <time>2016-08-04T07:53:42Z</time>
      </trkpt>
      <trkpt lat="45.72392" lon="6.29332">
        <ele>784</ele>
        <time>2016-08-04T07:53:47Z</time>
      </trkpt>
      <trkpt lat="45.7238" lon="6.2934">
        <ele>785</ele>
        <time>2016-08-04T07:53:52Z</time>
      </trkpt>
      <trkpt lat="45.72368" lon="6.29343">
        <ele>785</ele>
        <time>2016-08-04T07:53:57Z</time>
      </trkpt>
      <trkpt lat="45.72357" lon="6.29349">
        <ele>786</ele>
        <time>2016-08-04T07:54:02Z</time>
      </trkpt>
      <trkpt lat="45.72348" lon="6.29355">
        <ele>787</ele>
        <time>2016-08-04T07:54:07Z</time>
      </trkpt>
      <trkpt lat="45.72335" lon="6.29358">
        <ele>788</ele>
        <time>2016-08-04T07:54:12Z</time>
      </trkpt>
      <trkpt lat="45.72326" lon="6.29365">
        <ele>790</ele>
        <time>2016-08-04T07:54:17Z</time>
      </trkpt>
      <trkpt lat="45.72316" lon="6.29373">
        <ele>791</ele>
        <time>2016-08-04T07:54:22Z</time>
      </trkpt>
      <trkpt lat="45.72305" lon="6.29383">
        <ele>792</ele>
        <time>2016-08-04T07:54:27Z</time>
      </trkpt>
      <trkpt lat="45.72294" lon="6.29392">
        <ele>792</ele>
        <time>2016-08-04T07:54:32Z</time>
      </trkpt>
      <trkpt lat="45.72281" lon="6.29401">
        <ele>793</ele>
        <time>2016-08-04T07:54:37Z</time>
      </trkpt>
      <trkpt lat="45.72268" lon="6.2941">
        <ele>793</ele>
        <time>2016-08-04T07:54:42Z</time>
      </trkpt>
      <trkpt lat="45.72256" lon="6.29417">
        <ele>793</ele>
        <time>2016-08-04T07:54:47Z</time>
      </trkpt>
      <trkpt lat="45.72245" lon="6.29423">
        <ele>794</ele>
        <time>2016-08-04T07:54:52Z</time>
      </trkpt>
      <trkpt lat="45.72234" lon="6.29425">
        <ele>794</ele>
        <time>2016-08-04T07:54:57Z</time>
      </trkpt>
      <trkpt lat="45.72223" lon="6.29432">
        <ele>794</ele>
        <time>2016-08-04T07:55:02Z</time>
      </trkpt>
      <trkpt lat="45.72211" lon="6.29439">
        <ele>794</ele>
        <time>2016-08-04T07:55:07Z</time>
      </trkpt>
      <trkpt lat="45.72199" lon="6.29444">
        <ele>794</ele>
        <time>2016-08-04T07:55:12Z</time>
      </trkpt>
      <trkpt lat="45.72186" lon="6.2945">
        <ele>794</ele>
        <time>2016-08-04T07:55:17Z</time>
      </trkpt>
      <trkpt lat="45.72173" lon="6.29454">
        <ele>794</ele>
        <time>2016-08-04T07:55:22Z</time>
      </trkpt>
      <trkpt lat="45.72163" lon="6.29455">
        <ele>796</ele>
        <time>2016-08-04T07:55:27Z</time>
      </trkpt>
      <trkpt lat="45.72152" lon="6.29459">
        <ele>797</ele>
        <time>2016-08-04T07:55:32Z</time>
      </trkpt>
      <trkpt lat="45.72141" lon="6.29458">
        <ele>798</ele>
        <time>2016-08-04T07:55:37Z</time>
      </trkpt>
      <trkpt lat="45.7213" lon="6.29449">
        <ele>799</ele>
        <time>2016-08-04T07:55:42Z</time>
      </trkpt>
      <trkpt lat="45.72128" lon="6.29434">
        <ele>801</ele>
        <time>2016-08-04T07:55:47Z</time>
      </trkpt>
      <trkpt lat="45.72133" lon="6.29422">
        <ele>802</ele>
        <time>2016-08-04T07:55:52Z</time>
      </trkpt>
      <trkpt lat="45.7214" lon="6.29412">
        <ele>803</ele>
        <time>2016-08-04T07:55:57Z</time>
      </trkpt>
      <trkpt lat="45.72147" lon="6.294">
        <ele>804</ele>
        <time>2016-08-04T07:56:02Z</time>
      </trkpt>
      <trkpt lat="45.72152" lon="6.29387">
        <ele>805</ele>
        <time>2016-08-04T07:56:07Z</time>
      </trkpt>
      <trkpt lat="45.72154" lon="6.29371">
        <ele>805</ele>
        <time>2016-08-04T07:56:12Z</time>
      </trkpt>
      <trkpt lat="45.72155" lon="6.29355">
        <ele>806</ele>
        <time>2016-08-04T07:56:17Z</time>
      </trkpt>
      <trkpt lat="45.72154" lon="6.2934">
        <ele>806</ele>
        <time>2016-08-04T07:56:22Z</time>
      </trkpt>
      <trkpt lat="45.72155" lon="6.29325">
        <ele>806</ele>
        <time>2016-08-04T07:56:27Z</time>
      </trkpt>
      <trkpt lat="45.72157" lon="6.2931">
        <ele>807</ele>
        <time>2016-08-04T07:56:32Z</time>
      </trkpt>
      <trkpt lat="45.72157" lon="6.29296">
        <ele>807</ele>
        <time>2016-08-04T07:56:37Z</time>
      </trkpt>
      <trkpt lat="45.72158" lon="6.29282">
        <ele>808</ele>
        <time>2016-08-04T07:56:42Z</time>
      </trkpt>
      <trkpt lat="45.72156" lon="6.29266">
        <ele>809</ele>
        <time>2016-08-04T07:56:47Z</time>
      </trkpt>
      <trkpt lat="45.72156" lon="6.2925">
        <ele>810</ele>
        <time>2016-08-04T07:56:52Z</time>
      </trkpt>
      <trkpt lat="45.72157" lon="6.29235">
        <ele>811</ele>
        <time>2016-08-04T07:56:57Z</time>
      </trkpt>
      <trkpt lat="45.72158" lon="6.29218">
        <ele>813</ele>
        <time>2016-08-04T07:57:02Z</time>
      </trkpt>
      <trkpt lat="45.72155" lon="6.29202">
        <ele>814</ele>
        <time>2016-08-04T07:57:07Z</time>
      </trkpt>
      <trkpt lat="45.7215" lon="6.29188">
        <ele>815</ele>
        <time>2016-08-04T07:57:12Z</time>
      </trkpt>
      <trkpt lat="45.72144" lon="6.29175">
        <ele>816</ele>
        <time>2016-08-04T07:57:17Z</time>
      </trkpt>
      <trkpt lat="45.72136" lon="6.29165">
        <ele>817</ele>
        <time>2016-08-04T07:57:22Z</time>
      </trkpt>
      <trkpt lat="45.72126" lon="6.29157">
        <ele>818</ele>
        <time>2016-08-04T07:57:27Z</time>
      </trkpt>
      <trkpt lat="45.72117" lon="6.2915">
        <ele>819</ele>
        <time>2016-08-04T07:57:32Z</time>
      </trkpt>
      <trkpt lat="45.72107" lon="6.29142">
        <ele>820</ele>
        <time>2016-08-04T07:57:37Z</time>
      </trkpt>
      <trkpt lat="45.72098" lon="6.29132">
        <ele>821</ele>
        <time>2016-08-04T07:57:42Z</time>
      </trkpt>
      <trkpt lat="45.72092" lon="6.2912">
        <ele>823</ele>
        <time>2016-08-04T07:57:47Z</time>
      </trkpt>
      <trkpt lat="45.72089" lon="6.29105">
        <ele>824</ele>
        <time>2016-08-04T07:57:52Z</time>
      </trkpt>
      <trkpt lat="45.72089" lon="6.29091">
        <ele>825</ele>
        <time>2016-08-04T07:57:57Z</time>
      </trkpt>
      <trkpt lat="45.72092" lon="6.29076">
        <ele>826</ele>
        <time>2016-08-04T07:58:02Z</time>
      </trkpt>
      <trkpt lat="45.72098" lon="6.29063">
        <ele>827</ele>
        <time>2016-08-04T07:58:07Z</time>
      </trkpt>
      <trkpt lat="45.72106" lon="6.29051">
        <ele>827</ele>
        <time>2016-08-04T07:58:12Z</time>
      </trkpt>
      <trkpt lat="45.72107" lon="6.29035">
        <ele>828</ele>
        <time>2016-08-04T07:58:17Z</time>
      </trkpt>
      <trkpt lat="45.72101" lon="6.29021">
        <ele>828</ele>
        <time>2016-08-04T07:58:22Z</time>
      </trkpt>
      <trkpt lat="45.72097" lon="6.29016">
        <ele>829</ele>
        <time>2016-08-04T07:58:27Z</time>
      </trkpt>
      <trkpt lat="45.72089" lon="6.29017">
        <ele>830</ele>
        <time>2016-08-04T07:58:32Z</time>
      </trkpt>
      <trkpt lat="45.72078" lon="6.29023">
        <ele>831</ele>
        <time>2016-08-04T07:58:37Z</time>
      </trkpt>
      <trkpt lat="45.72069" lon="6.29039">
        <ele>831</ele>
        <time>2016-08-04T07:58:42Z</time>
      </trkpt>
      <trkpt lat="45.72058" lon="6.29046">
        <ele>833</ele>
        <time>2016-08-04T07:58:47Z</time>
      </trkpt>
      <trkpt lat="45.7205" lon="6.29049">
        <ele>834</ele>
        <time>2016-08-04T07:58:52Z</time>
      </trkpt>
      <trkpt lat="45.7204" lon="6.29056">
        <ele>836</ele>
        <time>2016-08-04T07:58:57Z</time>
      </trkpt>
      <trkpt lat="45.72031" lon="6.29062">
        <ele>839</ele>
        <time>2016-08-04T07:59:02Z</time>
      </trkpt>
      <trkpt lat="45.72022" lon="6.29068">
        <ele>841</ele>
        <time>2016-08-04T07:59:07Z</time>
      </trkpt>
      <trkpt lat="45.72015" lon="6.29077">
        <ele>842</ele>
        <time>2016-08-04T07:59:12Z</time>
      </trkpt>
      <trkpt lat="45.72007" lon="6.29088">
        <ele>843</ele>
        <time>2016-08-04T07:59:17Z</time>
      </trkpt>
      <trkpt lat="45.72004" lon="6.29101">
        <ele>843</ele>
        <time>2016-08-04T07:59:22Z</time>
      </trkpt>
      <trkpt lat="45.72003" lon="6.29117">
        <ele>843</ele>
        <time>2016-08-04T07:59:27Z</time>
      </trkpt>
      <trkpt lat="45.72005" lon="6.29132">
        <ele>843</ele>
        <time>2016-08-04T07:59:32Z</time>
      </trkpt>
      <trkpt lat="45.72008" lon="6.29145">
        <ele>844</ele>
        <time>2016-08-04T07:59:37Z</time>
      </trkpt>
      <trkpt lat="45.72014" lon="6.2916">
        <ele>844</ele>
        <time>2016-08-04T07:59:42Z</time>
      </trkpt>
      <trkpt lat="45.72014" lon="6.29173">
        <ele>845</ele>
        <time>2016-08-04T07:59:47Z</time>
      </trkpt>
      <trkpt lat="45.72014" lon="6.29185">
        <ele>845</ele>
        <time>2016-08-04T07:59:52Z</time>
      </trkpt>
      <trkpt lat="45.72012" lon="6.292">
        <ele>845</ele>
        <time>2016-08-04T07:59:57Z</time>
      </trkpt>
      <trkpt lat="45.72007" lon="6.29209">
        <ele>845</ele>
        <time>2016-08-04T08:00:02Z</time>
      </trkpt>
      <trkpt lat="45.72003" lon="6.29222">
        <ele>845</ele>
        <time>2016-08-04T08:00:07Z</time>
      </trkpt>
      <trkpt lat="45.71996" lon="6.2923">
        <ele>846</ele>
        <time>2016-08-04T08:00:12Z</time>
      </trkpt>
      <trkpt lat="45.71987" lon="6.29232">
        <ele>847</ele>
        <time>2016-08-04T08:00:17Z</time>
      </trkpt>
      <trkpt lat="45.71977" lon="6.2923">
        <ele>848</ele>
        <time>2016-08-04T08:00:22Z</time>
      </trkpt>
      <trkpt lat="45.71969" lon="6.29225">
        <ele>850</ele>
        <time>2016-08-04T08:00:27Z</time>
      </trkpt>
      <trkpt lat="45.71962" lon="6.29219">
        <ele>851</ele>
        <time>2016-08-04T08:00:32Z</time>
      </trkpt>
      <trkpt lat="45.71954" lon="6.2921">
        <ele>853</ele>
        <time>2016-08-04T08:00:37Z</time>
      </trkpt>
      <trkpt lat="45.71944" lon="6.29204">
        <ele>854</ele>
        <time>2016-08-04T08:00:42Z</time>
      </trkpt>
      <trkpt lat="45.71935" lon="6.29196">
        <ele>855</ele>
        <time>2016-08-04T08:00:47Z</time>
      </trkpt>
      <trkpt lat="45.71925" lon="6.29192">
        <ele>857</ele>
        <time>2016-08-04T08:00:52Z</time>
      </trkpt>
      <trkpt lat="45.71914" lon="6.2919">
        <ele>858</ele>
        <time>2016-08-04T08:00:57Z</time>
      </trkpt>
      <trkpt lat="45.71903" lon="6.29189">
        <ele>860</ele>
        <time>2016-08-04T08:01:02Z</time>
      </trkpt>
      <trkpt lat="45.71893" lon="6.29192">
        <ele>861</ele>
        <time>2016-08-04T08:01:07Z</time>
      </trkpt>
      <trkpt lat="45.71883" lon="6.29192">
        <ele>863</ele>
        <time>2016-08-04T08:01:12Z</time>
      </trkpt>
      <trkpt lat="45.71875" lon="6.29193">
        <ele>864</ele>
        <time>2016-08-04T08:01:17Z</time>
      </trkpt>
      <trkpt lat="45.71868" lon="6.2919">
        <ele>865</ele>
        <time>2016-08-04T08:01:22Z</time>
      </trkpt>
      <trkpt lat="45.71859" lon="6.29195">
        <ele>865</ele>
        <time>2016-08-04T08:01:27Z</time>
      </trkpt>
      <trkpt lat="45.71851" lon="6.29201">
        <ele>867</ele>
        <time>2016-08-04T08:01:32Z</time>
      </trkpt>
      <trkpt lat="45.7184" lon="6.29209">
        <ele>868</ele>
        <time>2016-08-04T08:01:37Z</time>
      </trkpt>
      <trkpt lat="45.71834" lon="6.29226">
        <ele>870</ele>
        <time>2016-08-04T08:01:42Z</time>
      </trkpt>
      <trkpt lat="45.7183" lon="6.29242">
        <ele>870</ele>
        <time>2016-08-04T08:01:47Z</time>
      </trkpt>
      <trkpt lat="45.71828" lon="6.2926">
        <ele>871</ele>
        <time>2016-08-04T08:01:52Z</time>
      </trkpt>
      <trkpt lat="45.71826" lon="6.29275">
        <ele>872</ele>
        <time>2016-08-04T08:01:57Z</time>
      </trkpt>
      <trkpt lat="45.71819" lon="6.29285">
        <ele>871</ele>
        <time>2016-08-04T08:02:02Z</time>
      </trkpt>
      <trkpt lat="45.71814" lon="6.29288">
        <ele>872</ele>
        <time>2016-08-04T08:02:07Z</time>
      </trkpt>
      <trkpt lat="45.71806" lon="6.29292">
        <ele>873</ele>
        <time>2016-08-04T08:02:12Z</time>
      </trkpt>
      <trkpt lat="45.718" lon="6.29295">
        <ele>875</ele>
        <time>2016-08-04T08:02:17Z</time>
      </trkpt>
      <trkpt lat="45.7179" lon="6.29304">
        <ele>875</ele>
        <time>2016-08-04T08:02:22Z</time>
      </trkpt>
      <trkpt lat="45.71779" lon="6.29314">
        <ele>875</ele>
        <time>2016-08-04T08:02:27Z</time>
      </trkpt>
      <trkpt lat="45.7177" lon="6.29324">
        <ele>875</ele>
        <time>2016-08-04T08:02:32Z</time>
      </trkpt>
      <trkpt lat="45.71762" lon="6.29334">
        <ele>874</ele>
        <time>2016-08-04T08:02:37Z</time>
      </trkpt>
      <trkpt lat="45.71756" lon="6.29339">
        <ele>874</ele>
        <time>2016-08-04T08:02:42Z</time>
      </trkpt>
      <trkpt lat="45.71744" lon="6.29347">
        <ele>875</ele>
        <time>2016-08-04T08:02:47Z</time>
      </trkpt>
      <trkpt lat="45.71739" lon="6.29367">
        <ele>876</ele>
        <time>2016-08-04T08:02:52Z</time>
      </trkpt>
      <trkpt lat="45.71736" lon="6.29383">
        <ele>877</ele>
        <time>2016-08-04T08:02:57Z</time>
      </trkpt>
      <trkpt lat="45.71732" lon="6.29398">
        <ele>877</ele>
        <time>2016-08-04T08:03:02Z</time>
      </trkpt>
      <trkpt lat="45.71727" lon="6.29411">
        <ele>878</ele>
        <time>2016-08-04T08:03:07Z</time>
      </trkpt>
      <trkpt lat="45.71718" lon="6.2942">
        <ele>878</ele>
        <time>2016-08-04T08:03:12Z</time>
      </trkpt>
      <trkpt lat="45.7171" lon="6.29429">
        <ele>879</ele>
        <time>2016-08-04T08:03:17Z</time>
      </trkpt>
      <trkpt lat="45.71701" lon="6.29435">
        <ele>880</ele>
        <time>2016-08-04T08:03:22Z</time>
      </trkpt>
      <trkpt lat="45.71692" lon="6.29443">
        <ele>882</ele>
        <time>2016-08-04T08:03:27Z</time>
      </trkpt>
      <trkpt lat="45.71685" lon="6.29451">
        <ele>883</ele>
        <time>2016-08-04T08:03:32Z</time>
      </trkpt>
      <trkpt lat="45.71676" lon="6.29457">
        <ele>885</ele>
        <time>2016-08-04T08:03:37Z</time>
      </trkpt>
      <trkpt lat="45.71667" lon="6.29464">
        <ele>887</ele>
        <time>2016-08-04T08:03:42Z</time>
      </trkpt>
      <trkpt lat="45.71658" lon="6.2947">
        <ele>888</ele>
        <time>2016-08-04T08:03:47Z</time>
      </trkpt>
      <trkpt lat="45.7165" lon="6.29465">
        <ele>889</ele>
        <time>2016-08-04T08:03:52Z</time>
      </trkpt>
      <trkpt lat="45.71646" lon="6.29454">
        <ele>891</ele>
        <time>2016-08-04T08:03:57Z</time>
      </trkpt>
      <trkpt lat="45.7165" lon="6.29442">
        <ele>891</ele>
        <time>2016-08-04T08:04:02Z</time>
      </trkpt>
      <trkpt lat="45.71658" lon="6.29431">
        <ele>892</ele>
        <time>2016-08-04T08:04:07Z</time>
      </trkpt>
      <trkpt lat="45.71665" lon="6.29419">
        <ele>892</ele>
        <time>2016-08-04T08:04:12Z</time>
      </trkpt>
      <trkpt lat="45.7167" lon="6.29404">
        <ele>893</ele>
        <time>2016-08-04T08:04:17Z</time>
      </trkpt>
      <trkpt lat="45.71671" lon="6.29385">
        <ele>893</ele>
        <time>2016-08-04T08:04:22Z</time>
      </trkpt>
      <trkpt lat="45.7167" lon="6.29371">
        <ele>893</ele>
        <time>2016-08-04T08:04:27Z</time>
      </trkpt>
      <trkpt lat="45.71663" lon="6.29355">
        <ele>894</ele>
        <time>2016-08-04T08:04:32Z</time>
      </trkpt>
      <trkpt lat="45.7166" lon="6.29339">
        <ele>895</ele>
        <time>2016-08-04T08:04:37Z</time>
      </trkpt>
      <trkpt lat="45.71657" lon="6.29325">
        <ele>897</ele>
        <time>2016-08-04T08:04:42Z</time>
      </trkpt>
      <trkpt lat="45.71656" lon="6.29309">
        <ele>899</ele>
        <time>2016-08-04T08:04:47Z</time>
      </trkpt>
      <trkpt lat="45.71658" lon="6.29294">
        <ele>900</ele>
        <time>2016-08-04T08:04:52Z</time>
      </trkpt>
      <trkpt lat="45.71661" lon="6.29284">
        <ele>902</ele>
        <time>2016-08-04T08:04:57Z</time>
      </trkpt>
      <trkpt lat="45.71664" lon="6.29268">
        <ele>903</ele>
        <time>2016-08-04T08:05:02Z</time>
      </trkpt>
      <trkpt lat="45.71666" lon="6.29253">
        <ele>903</ele>
        <time>2016-08-04T08:05:07Z</time>
      </trkpt>
      <trkpt lat="45.71671" lon="6.29238">
        <ele>905</ele>
        <time>2016-08-04T08:05:12Z</time>
      </trkpt>
      <trkpt lat="45.71674" lon="6.29225">
        <ele>905</ele>
        <time>2016-08-04T08:05:17Z</time>
      </trkpt>
      <trkpt lat="45.71679" lon="6.29209">
        <ele>906</ele>
        <time>2016-08-04T08:05:22Z</time>
      </trkpt>
      <trkpt lat="45.71683" lon="6.29195">
        <ele>907</ele>
        <time>2016-08-04T08:05:27Z</time>
      </trkpt>
      <trkpt lat="45.71687" lon="6.29183">
        <ele>908</ele>
        <time>2016-08-04T08:05:32Z</time>
      </trkpt>
      <trkpt lat="45.71693" lon="6.29168">
        <ele>908</ele>
        <time>2016-08-04T08:05:37Z</time>
      </trkpt>
      <trkpt lat="45.71697" lon="6.29161">
        <ele>910</ele>
        <time>2016-08-04T08:05:42Z</time>
      </trkpt>
      <trkpt lat="45.71704" lon="6.29146">
        <ele>911</ele>
        <time>2016-08-04T08:05:47Z</time>
      </trkpt>
      <trkpt lat="45.71711" lon="6.29133">
        <ele>912</ele>
        <time>2016-08-04T08:05:52Z</time>
      </trkpt>
      <trkpt lat="45.71719" lon="6.29117">
        <ele>913</ele>
        <time>2016-08-04T08:05:57Z</time>
      </trkpt>
      <trkpt lat="45.71726" lon="6.29103">
        <ele>915</ele>
        <time>2016-08-04T08:06:02Z</time>
      </trkpt>
      <trkpt lat="45.71732" lon="6.2909">
        <ele>915</ele>
        <time>2016-08-04T08:06:07Z</time>
      </trkpt>
      <trkpt lat="45.71738" lon="6.29075">
        <ele>916</ele>
        <time>2016-08-04T08:06:12Z</time>
      </trkpt>
      <trkpt lat="45.71742" lon="6.29061">
        <ele>917</ele>
        <time>2016-08-04T08:06:17Z</time>
      </trkpt>
      <trkpt lat="45.71747" lon="6.29044">
        <ele>918</ele>
        <time>2016-08-04T08:06:22Z</time>
      </trkpt>
      <trkpt lat="45.7175" lon="6.29028">
        <ele>919</ele>
        <time>2016-08-04T08:06:27Z</time>
      </trkpt>
      <trkpt lat="45.71752" lon="6.29011">
        <ele>920</ele>
        <time>2016-08-04T08:06:32Z</time>
      </trkpt>
      <trkpt lat="45.71751" lon="6.28995">
        <ele>921</ele>
        <time>2016-08-04T08:06:37Z</time>
      </trkpt>
      <trkpt lat="45.7175" lon="6.28979">
        <ele>922</ele>
        <time>2016-08-04T08:06:42Z</time>
      </trkpt>
      <trkpt lat="45.71749" lon="6.28963">
        <ele>923</ele>
        <time>2016-08-04T08:06:47Z</time>
      </trkpt>
      <trkpt lat="45.71747" lon="6.28947">
        <ele>923</ele>
        <time>2016-08-04T08:06:52Z</time>
      </trkpt>
      <trkpt lat="45.71747" lon="6.28931">
        <ele>924</ele>
        <time>2016-08-04T08:06:57Z</time>
      </trkpt>
      <trkpt lat="45.71751" lon="6.28921">
        <ele>925</ele>
        <time>2016-08-04T08:07:02Z</time>
      </trkpt>
      <trkpt lat="45.71756" lon="6.28911">
        <ele>926</ele>
        <time>2016-08-04T08:07:07Z</time>
      </trkpt>
      <trkpt lat="45.71763" lon="6.28898">
        <ele>927</ele>
        <time>2016-08-04T08:07:12Z</time>
      </trkpt>
      <trkpt lat="45.7177" lon="6.28885">
        <ele>928</ele>
        <time>2016-08-04T08:07:17Z</time>
      </trkpt>
      <trkpt lat="45.71777" lon="6.28872">
        <ele>930</ele>
        <time>2016-08-04T08:07:22Z</time>
      </trkpt>
      <trkpt lat="45.71784" lon="6.2886">
        <ele>931</ele>
        <time>2016-08-04T08:07:27Z</time>
      </trkpt>
      <trkpt lat="45.71789" lon="6.28845">
        <ele>932</ele>
        <time>2016-08-04T08:07:32Z</time>
      </trkpt>
      <trkpt lat="45.71791" lon="6.2883">
        <ele>933</ele>
        <time>2016-08-04T08:07:37Z</time>
      </trkpt>
      <trkpt lat="45.71794" lon="6.28816">
        <ele>934</ele>
        <time>2016-08-04T08:07:42Z</time>
      </trkpt>
      <trkpt lat="45.71796" lon="6.28802">
        <ele>935</ele>
        <time>2016-08-04T08:07:47Z</time>
      </trkpt>
      <trkpt lat="45.71801" lon="6.28789">
        <ele>936</ele>
        <time>2016-08-04T08:07:52Z</time>
      </trkpt>
      <trkpt lat="45.71805" lon="6.28776">
        <ele>937</ele>
        <time>2016-08-04T08:07:57Z</time>
      </trkpt>
      <trkpt lat="45.71812" lon="6.28763">
        <ele>938</ele>
        <time>2016-08-04T08:08:02Z</time>
      </trkpt>
      <trkpt lat="45.71816" lon="6.28748">
        <ele>939</ele>
        <time>2016-08-04T08:08:07Z</time>
      </trkpt>
      <trkpt lat="45.71818" lon="6.28732">
        <ele>940</ele>
        <time>2016-08-04T08:08:12Z</time>
      </trkpt>
      <trkpt lat="45.71817" lon="6.28717">
        <ele>942</ele>
        <time>2016-08-04T08:08:17Z</time>
      </trkpt>
      <trkpt lat="45.71816" lon="6.287">
        <ele>943</ele>
        <time>2016-08-04T08:08:22Z</time>
      </trkpt>
      <trkpt lat="45.71815" lon="6.28687">
        <ele>945</ele>
        <time>2016-08-04T08:08:27Z</time>
      </trkpt>
      <trkpt lat="45.71812" lon="6.28673">
        <ele>947</ele>
        <time>2016-08-04T08:08:32Z</time>
      </trkpt>
      <trkpt lat="45.71812" lon="6.28659">
        <ele>950</ele>
        <time>2016-08-04T08:08:37Z</time>
      </trkpt>
      <trkpt lat="45.71803" lon="6.28646">
        <ele>951</ele>
        <time>2016-08-04T08:08:42Z</time>
      </trkpt>
      <trkpt lat="45.71797" lon="6.28631">
        <ele>953</ele>
        <time>2016-08-04T08:08:47Z</time>
      </trkpt>
      <trkpt lat="45.71788" lon="6.28617">
        <ele>954</ele>
        <time>2016-08-04T08:08:52Z</time>
      </trkpt>
      <trkpt lat="45.71778" lon="6.28607">
        <ele>954</ele>
        <time>2016-08-04T08:08:57Z</time>
      </trkpt>
      <trkpt lat="45.71769" lon="6.28596">
        <ele>955</ele>
        <time>2016-08-04T08:09:02Z</time>
      </trkpt>
      <trkpt lat="45.7176" lon="6.28587">
        <ele>955</ele>
        <time>2016-08-04T08:09:07Z</time>
      </trkpt>
      <trkpt lat="45.71751" lon="6.28576">
        <ele>955</ele>
        <time>2016-08-04T08:09:12Z</time>
      </trkpt>
      <trkpt lat="45.71744" lon="6.28566">
        <ele>955</ele>
        <time>2016-08-04T08:09:17Z</time>
      </trkpt>
      <trkpt lat="45.71738" lon="6.28555">
        <ele>955</ele>
        <time>2016-08-04T08:09:22Z</time>
      </trkpt>
      <trkpt lat="45.71733" lon="6.28543">
        <ele>956</ele>
        <time>2016-08-04T08:09:27Z</time>
      </trkpt>
      <trkpt lat="45.71728" lon="6.28531">
        <ele>957</ele>
        <time>2016-08-04T08:09:32Z</time>
      </trkpt>
      <trkpt lat="45.71715" lon="6.28528">
        <ele>958</ele>
        <time>2016-08-04T08:09:37Z</time>
      </trkpt>
      <trkpt lat="45.71707" lon="6.28538">
        <ele>959</ele>
        <time>2016-08-04T08:09:42Z</time>
      </trkpt>
      <trkpt lat="45.71706" lon="6.28551">
        <ele>960</ele>
        <time>2016-08-04T08:09:47Z</time>
      </trkpt>
      <trkpt lat="45.7171" lon="6.28563">
        <ele>962</ele>
        <time>2016-08-04T08:09:52Z</time>
      </trkpt>
      <trkpt lat="45.71715" lon="6.28578">
        <ele>963</ele>
        <time>2016-08-04T08:09:57Z</time>
      </trkpt>
      <trkpt lat="45.71721" lon="6.28589">
        <ele>964</ele>
        <time>2016-08-04T08:10:02Z</time>
      </trkpt>
      <trkpt lat="45.71725" lon="6.28602">
        <ele>964</ele>
        <time>2016-08-04T08:10:07Z</time>
      </trkpt>
      <trkpt lat="45.71729" lon="6.28613">
        <ele>965</ele>
        <time>2016-08-04T08:10:12Z</time>
      </trkpt>
      <trkpt lat="45.71735" lon="6.28626">
        <ele>966</ele>
        <time>2016-08-04T08:10:17Z</time>
      </trkpt>
      <trkpt lat="45.71738" lon="6.28637">
        <ele>966</ele>
        <time>2016-08-04T08:10:22Z</time>
      </trkpt>
      <trkpt lat="45.71742" lon="6.28648">
        <ele>967</ele>
        <time>2016-08-04T08:10:27Z</time>
      </trkpt>
      <trkpt lat="45.71743" lon="6.2866">
        <ele>967</ele>
        <time>2016-08-04T08:10:32Z</time>
      </trkpt>
      <trkpt lat="45.71743" lon="6.28673">
        <ele>967</ele>
        <time>2016-08-04T08:10:37Z</time>
      </trkpt>
      <trkpt lat="45.71742" lon="6.28685">
        <ele>966</ele>
        <time>2016-08-04T08:10:42Z</time>
      </trkpt>
      <trkpt lat="45.71742" lon="6.28695">
        <ele>967</ele>
        <time>2016-08-04T08:10:47Z</time>
      </trkpt>
      <trkpt lat="45.71741" lon="6.28704">
        <ele>968</ele>
        <time>2016-08-04T08:10:52Z</time>
      </trkpt>
      <trkpt lat="45.71737" lon="6.28711">
        <ele>970</ele>
        <time>2016-08-04T08:10:57Z</time>
      </trkpt>
      <trkpt lat="45.71731" lon="6.28718">
        <ele>973</ele>
        <time>2016-08-04T08:11:02Z</time>
      </trkpt>
      <trkpt lat="45.71722" lon="6.28724">
        <ele>976</ele>
        <time>2016-08-04T08:11:07Z</time>
      </trkpt>
      <trkpt lat="45.71714" lon="6.28733">
        <ele>979</ele>
        <time>2016-08-04T08:11:12Z</time>
      </trkpt>
      <trkpt lat="45.71704" lon="6.28745">
        <ele>981</ele>
        <time>2016-08-04T08:11:17Z</time>
      </trkpt>
      <trkpt lat="45.71697" lon="6.28751">
        <ele>983</ele>
        <time>2016-08-04T08:11:22Z</time>
      </trkpt>
      <trkpt lat="45.7169" lon="6.2876">
        <ele>984</ele>
        <time>2016-08-04T08:11:27Z</time>
      </trkpt>
      <trkpt lat="45.71686" lon="6.28772">
        <ele>985</ele>
        <time>2016-08-04T08:11:32Z</time>
      </trkpt>
      <trkpt lat="45.71682" lon="6.2878">
        <ele>986</ele>
        <time>2016-08-04T08:11:37Z</time>
      </trkpt>
      <trkpt lat="45.71675" lon="6.28779">
        <ele>988</ele>
        <time>2016-08-04T08:11:42Z</time>
      </trkpt>
      <trkpt lat="45.71667" lon="6.28783">
        <ele>990</ele>
        <time>2016-08-04T08:11:47Z</time>
      </trkpt>
      <trkpt lat="45.71653" lon="6.2879">
        <ele>991</ele>
        <time>2016-08-04T08:11:52Z</time>
      </trkpt>
      <trkpt lat="45.71643" lon="6.28795">
        <ele>991</ele>
        <time>2016-08-04T08:11:57Z</time>
      </trkpt>
      <trkpt lat="45.71633" lon="6.28799">
        <ele>990</ele>
        <time>2016-08-04T08:12:02Z</time>
      </trkpt>
      <trkpt lat="45.71623" lon="6.28804">
        <ele>989</ele>
        <time>2016-08-04T08:12:07Z</time>
      </trkpt>
      <trkpt lat="45.71611" lon="6.28816">
        <ele>989</ele>
        <time>2016-08-04T08:12:12Z</time>
      </trkpt>
      <trkpt lat="45.71603" lon="6.28828">
        <ele>990</ele>
        <time>2016-08-04T08:12:17Z</time>
      </trkpt>
      <trkpt lat="45.71594" lon="6.28836">
        <ele>992</ele>
        <time>2016-08-04T08:12:22Z</time>
      </trkpt>
      <trkpt lat="45.71584" lon="6.28843">
        <ele>995</ele>
        <time>2016-08-04T08:12:27Z</time>
      </trkpt>
      <trkpt lat="45.71575" lon="6.28849">
        <ele>998</ele>
        <time>2016-08-04T08:12:32Z</time>
      </trkpt>
      <trkpt lat="45.71569" lon="6.28853">
        <ele>1001</ele>
        <time>2016-08-04T08:12:37Z</time>
      </trkpt>
      <trkpt lat="45.71561" lon="6.28855">
        <ele>1004</ele>
        <time>2016-08-04T08:12:42Z</time>
      </trkpt>
      <trkpt lat="45.71555" lon="6.28864">
        <ele>1006</ele>
        <time>2016-08-04T08:12:47Z</time>
      </trkpt>
      <trkpt lat="45.71549" lon="6.28877">
        <ele>1008</ele>
        <time>2016-08-04T08:12:52Z</time>
      </trkpt>
      <trkpt lat="45.71541" lon="6.28888">
        <ele>1009</ele>
        <time>2016-08-04T08:12:57Z</time>
      </trkpt>
      <trkpt lat="45.71532" lon="6.289">
        <ele>1009</ele>
        <time>2016-08-04T08:13:02Z</time>
      </trkpt>
      <trkpt lat="45.71526" lon="6.28908">
        <ele>1007</ele>
        <time>2016-08-04T08:13:07Z</time>
      </trkpt>
      <trkpt lat="45.71522" lon="6.28917">
        <ele>1007</ele>
        <time>2016-08-04T08:13:12Z</time>
      </trkpt>
      <trkpt lat="45.71514" lon="6.28928">
        <ele>1006</ele>
        <time>2016-08-04T08:13:17Z</time>
      </trkpt>
      <trkpt lat="45.71505" lon="6.2893">
        <ele>1005</ele>
        <time>2016-08-04T08:13:22Z</time>
      </trkpt>
      <trkpt lat="45.71498" lon="6.28935">
        <ele>1005</ele>
        <time>2016-08-04T08:13:27Z</time>
      </trkpt>
      <trkpt lat="45.71491" lon="6.28938">
        <ele>1006</ele>
        <time>2016-08-04T08:13:32Z</time>
      </trkpt>
      <trkpt lat="45.71483" lon="6.28935">
        <ele>1007</ele>
        <time>2016-08-04T08:13:38Z</time>
      </trkpt>
      <trkpt lat="45.71475" lon="6.28945">
        <ele>1009</ele>
        <time>2016-08-04T08:13:43Z</time>
      </trkpt>
      <trkpt lat="45.71464" lon="6.28953">
        <ele>1012</ele>
        <time>2016-08-04T08:13:48Z</time>
      </trkpt>
      <trkpt lat="45.71454" lon="6.28958">
        <ele>1014</ele>
        <time>2016-08-04T08:13:53Z</time>
      </trkpt>
      <trkpt lat="45.71444" lon="6.28959">
        <ele>1016</ele>
        <time>2016-08-04T08:13:58Z</time>
      </trkpt>
      <trkpt lat="45.71434" lon="6.28968">
        <ele>1019</ele>
        <time>2016-08-04T08:14:03Z</time>
      </trkpt>
      <trkpt lat="45.71425" lon="6.28976">
        <ele>1021</ele>
        <time>2016-08-04T08:14:08Z</time>
      </trkpt>
      <trkpt lat="45.71417" lon="6.28982">
        <ele>1024</ele>
        <time>2016-08-04T08:14:13Z</time>
      </trkpt>
      <trkpt lat="45.71407" lon="6.28991">
        <ele>1027</ele>
        <time>2016-08-04T08:14:18Z</time>
      </trkpt>
      <trkpt lat="45.71399" lon="6.29012">
        <ele>1029</ele>
        <time>2016-08-04T08:14:23Z</time>
      </trkpt>
      <trkpt lat="45.71398" lon="6.29029">
        <ele>1030</ele>
        <time>2016-08-04T08:14:28Z</time>
      </trkpt>
      <trkpt lat="45.71398" lon="6.29048">
        <ele>1030</ele>
        <time>2016-08-04T08:14:33Z</time>
      </trkpt>
      <trkpt lat="45.714" lon="6.29062">
        <ele>1029</ele>
        <time>2016-08-04T08:14:38Z</time>
      </trkpt>
      <trkpt lat="45.71402" lon="6.29075">
        <ele>1027</ele>
        <time>2016-08-04T08:14:43Z</time>
      </trkpt>
      <trkpt lat="45.71405" lon="6.29091">
        <ele>1026</ele>
        <time>2016-08-04T08:14:48Z</time>
      </trkpt>
      <trkpt lat="45.71412" lon="6.29107">
        <ele>1026</ele>
        <time>2016-08-04T08:14:53Z</time>
      </trkpt>
      <trkpt lat="45.71415" lon="6.29122">
        <ele>1025</ele>
        <time>2016-08-04T08:14:58Z</time>
      </trkpt>
      <trkpt lat="45.7141" lon="6.2912">
        <ele>1024</ele>
        <time>2016-08-04T08:15:04Z</time>
      </trkpt>
      <trkpt lat="45.71407" lon="6.29106">
        <ele>1024</ele>
        <time>2016-08-04T08:15:09Z</time>
      </trkpt>
      <trkpt lat="45.71405" lon="6.29094">
        <ele>1023</ele>
        <time>2016-08-04T08:15:14Z</time>
      </trkpt>
      <trkpt lat="45.71403" lon="6.29084">
        <ele>1023</ele>
        <time>2016-08-04T08:15:19Z</time>
      </trkpt>
      <trkpt lat="45.71399" lon="6.29074">
        <ele>1024</ele>
        <time>2016-08-04T08:15:24Z</time>
      </trkpt>
      <trkpt lat="45.71395" lon="6.29066">
        <ele>1026</ele>
        <time>2016-08-04T08:15:29Z</time>
      </trkpt>
      <trkpt lat="45.71391" lon="6.29054">
        <ele>1027</ele>
        <time>2016-08-04T08:15:34Z</time>
      </trkpt>
      <trkpt lat="45.71387" lon="6.29042">
        <ele>1029</ele>
        <time>2016-08-04T08:15:39Z</time>
      </trkpt>
      <trkpt lat="45.71383" lon="6.29031">
        <ele>1030</ele>
        <time>2016-08-04T08:15:44Z</time>
      </trkpt>
      <trkpt lat="45.71384" lon="6.29019">
        <ele>1031</ele>
        <time>2016-08-04T08:15:49Z</time>
      </trkpt>
      <trkpt lat="45.71384" lon="6.29007">
        <ele>1033</ele>
        <time>2016-08-04T08:15:54Z</time>
      </trkpt>
      <trkpt lat="45.71384" lon="6.28995">
        <ele>1034</ele>
        <time>2016-08-04T08:15:59Z</time>
      </trkpt>
      <trkpt lat="45.71389" lon="6.28981">
        <ele>1035</ele>
        <time>2016-08-04T08:16:04Z</time>
      </trkpt>
      <trkpt lat="45.71391" lon="6.28968">
        <ele>1036</ele>
        <time>2016-08-04T08:16:09Z</time>
      </trkpt>
      <trkpt lat="45.71391" lon="6.28953">
        <ele>1037</ele>
        <time>2016-08-04T08:16:14Z</time>
      </trkpt>
      <trkpt lat="45.71391" lon="6.28947">
        <ele>1038</ele>
        <time>2016-08-04T08:16:19Z</time>
      </trkpt>
      <trkpt lat="45.71394" lon="6.28936">
        <ele>1039</ele>
        <time>2016-08-04T08:16:24Z</time>
      </trkpt>
      <trkpt lat="45.71403" lon="6.28925">
        <ele>1042</ele>
        <time>2016-08-04T08:16:29Z</time>
      </trkpt>
      <trkpt lat="45.71409" lon="6.28915">
        <ele>1044</ele>
        <time>2016-08-04T08:16:34Z</time>
      </trkpt>
      <trkpt lat="45.71417" lon="6.28906">
        <ele>1047</ele>
        <time>2016-08-04T08:16:39Z</time>
      </trkpt>
      <trkpt lat="45.71421" lon="6.28902">
        <ele>1050</ele>
        <time>2016-08-04T08:16:44Z</time>
      </trkpt>
      <trkpt lat="45.71427" lon="6.28896">
        <ele>1053</ele>
        <time>2016-08-04T08:16:49Z</time>
      </trkpt>
      <trkpt lat="45.71433" lon="6.28882">
        <ele>1053</ele>
        <time>2016-08-04T08:16:54Z</time>
      </trkpt>
      <trkpt lat="45.71437" lon="6.2887">
        <ele>1052</ele>
        <time>2016-08-04T08:16:59Z</time>
      </trkpt>
      <trkpt lat="45.71445" lon="6.28861">
        <ele>1052</ele>
        <time>2016-08-04T08:17:04Z</time>
      </trkpt>
      <trkpt lat="45.71452" lon="6.2885">
        <ele>1050</ele>
        <time>2016-08-04T08:17:09Z</time>
      </trkpt>
      <trkpt lat="45.7146" lon="6.2884">
        <ele>1049</ele>
        <time>2016-08-04T08:17:14Z</time>
      </trkpt>
      <trkpt lat="45.71464" lon="6.28832">
        <ele>1049</ele>
        <time>2016-08-04T08:17:19Z</time>
      </trkpt>
      <trkpt lat="45.71467" lon="6.2882">
        <ele>1050</ele>
        <time>2016-08-04T08:17:24Z</time>
      </trkpt>
      <trkpt lat="45.71475" lon="6.28805">
        <ele>1050</ele>
        <time>2016-08-04T08:17:29Z</time>
      </trkpt>
      <trkpt lat="45.71479" lon="6.28792">
        <ele>1052</ele>
        <time>2016-08-04T08:17:34Z</time>
      </trkpt>
      <trkpt lat="45.71485" lon="6.28778">
        <ele>1052</ele>
        <time>2016-08-04T08:17:39Z</time>
      </trkpt>
      <trkpt lat="45.71487" lon="6.28766">
        <ele>1052</ele>
        <time>2016-08-04T08:17:44Z</time>
      </trkpt>
      <trkpt lat="45.71492" lon="6.28756">
        <ele>1053</ele>
        <time>2016-08-04T08:17:49Z</time>
      </trkpt>
      <trkpt lat="45.71499" lon="6.28747">
        <ele>1053</ele>
        <time>2016-08-04T08:17:54Z</time>
      </trkpt>
      <trkpt lat="45.71506" lon="6.28737">
        <ele>1054</ele>
        <time>2016-08-04T08:17:59Z</time>
      </trkpt>
      <trkpt lat="45.71512" lon="6.28729">
        <ele>1055</ele>
        <time>2016-08-04T08:18:04Z</time>
      </trkpt>
      <trkpt lat="45.71517" lon="6.28717">
        <ele>1056</ele>
        <time>2016-08-04T08:18:09Z</time>
      </trkpt>
      <trkpt lat="45.71524" lon="6.28709">
        <ele>1058</ele>
        <time>2016-08-04T08:18:14Z</time>
      </trkpt>
      <trkpt lat="45.71529" lon="6.287">
        <ele>1060</ele>
        <time>2016-08-04T08:18:19Z</time>
      </trkpt>
      <trkpt lat="45.71534" lon="6.28692">
        <ele>1062</ele>
        <time>2016-08-04T08:18:24Z</time>
      </trkpt>
      <trkpt lat="45.71537" lon="6.28678">
        <ele>1064</ele>
        <time>2016-08-04T08:18:29Z</time>
      </trkpt>
      <trkpt lat="45.7154" lon="6.28662">
        <ele>1065</ele>
        <time>2016-08-04T08:18:34Z</time>
      </trkpt>
      <trkpt lat="45.71542" lon="6.28649">
        <ele>1066</ele>
        <time>2016-08-04T08:18:39Z</time>
      </trkpt>
      <trkpt lat="45.71544" lon="6.28637">
        <ele>1066</ele>
        <time>2016-08-04T08:18:44Z</time>
      </trkpt>
      <trkpt lat="45.71542" lon="6.28623">
        <ele>1066</ele>
        <time>2016-08-04T08:18:49Z</time>
      </trkpt>
      <trkpt lat="45.71541" lon="6.28609">
        <ele>1066</ele>
        <time>2016-08-04T08:18:54Z</time>
      </trkpt>
      <trkpt lat="45.71539" lon="6.28598">
        <ele>1067</ele>
        <time>2016-08-04T08:18:59Z</time>
      </trkpt>
      <trkpt lat="45.71532" lon="6.28588">
        <ele>1068</ele>
        <time>2016-08-04T08:19:04Z</time>
      </trkpt>
      <trkpt lat="45.71525" lon="6.28579">
        <ele>1069</ele>
        <time>2016-08-04T08:19:09Z</time>
      </trkpt>
      <trkpt lat="45.71518" lon="6.28569">
        <ele>1069</ele>
        <time>2016-08-04T08:19:14Z</time>
      </trkpt>
      <trkpt lat="45.71512" lon="6.2856">
        <ele>1070</ele>
        <time>2016-08-04T08:19:19Z</time>
      </trkpt>
      <trkpt lat="45.71506" lon="6.28551">
        <ele>1072</ele>
        <time>2016-08-04T08:19:24Z</time>
      </trkpt>
      <trkpt lat="45.71499" lon="6.28545">
        <ele>1073</ele>
        <time>2016-08-04T08:19:29Z</time>
      </trkpt>
      <trkpt lat="45.71492" lon="6.28537">
        <ele>1074</ele>
        <time>2016-08-04T08:19:34Z</time>
      </trkpt>
      <trkpt lat="45.7149" lon="6.28528">
        <ele>1075</ele>
        <time>2016-08-04T08:19:39Z</time>
      </trkpt>
      <trkpt lat="45.71483" lon="6.28521">
        <ele>1077</ele>
        <time>2016-08-04T08:19:44Z</time>
      </trkpt>
      <trkpt lat="45.71481" lon="6.28513">
        <ele>1078</ele>
        <time>2016-08-04T08:19:49Z</time>
      </trkpt>
      <trkpt lat="45.71476" lon="6.28503">
        <ele>1079</ele>
        <time>2016-08-04T08:19:54Z</time>
      </trkpt>
      <trkpt lat="45.7147" lon="6.28492">
        <ele>1081</ele>
        <time>2016-08-04T08:19:59Z</time>
      </trkpt>
      <trkpt lat="45.71464" lon="6.28482">
        <ele>1082</ele>
        <time>2016-08-04T08:20:04Z</time>
      </trkpt>
      <trkpt lat="45.71455" lon="6.2847">
        <ele>1084</ele>
        <time>2016-08-04T08:20:09Z</time>
      </trkpt>
      <trkpt lat="45.71449" lon="6.28459">
        <ele>1085</ele>
        <time>2016-08-04T08:20:14Z</time>
      </trkpt>
      <trkpt lat="45.71446" lon="6.28447">
        <ele>1087</ele>
        <time>2016-08-04T08:20:19Z</time>
      </trkpt>
      <trkpt lat="45.71437" lon="6.28437">
        <ele>1088</ele>
        <time>2016-08-04T08:20:24Z</time>
      </trkpt>
      <trkpt lat="45.7143" lon="6.28424">
        <ele>1089</ele>
        <time>2016-08-04T08:20:29Z</time>
      </trkpt>
      <trkpt lat="45.71424" lon="6.28411">
        <ele>1090</ele>
        <time>2016-08-04T08:20:34Z</time>
      </trkpt>
      <trkpt lat="45.71418" lon="6.28401">
        <ele>1091</ele>
        <time>2016-08-04T08:20:39Z</time>
      </trkpt>
      <trkpt lat="45.71417" lon="6.28386">
        <ele>1091</ele>
        <time>2016-08-04T08:20:44Z</time>
      </trkpt>
      <trkpt lat="45.7142" lon="6.28372">
        <ele>1091</ele>
        <time>2016-08-04T08:20:49Z</time>
      </trkpt>
      <trkpt lat="45.71425" lon="6.28365">
        <ele>1091</ele>
        <time>2016-08-04T08:20:54Z</time>
      </trkpt>
      <trkpt lat="45.71432" lon="6.28359">
        <ele>1091</ele>
        <time>2016-08-04T08:20:59Z</time>
      </trkpt>
      <trkpt lat="45.71436" lon="6.28351">
        <ele>1091</ele>
        <time>2016-08-04T08:21:04Z</time>
      </trkpt>
      <trkpt lat="45.71442" lon="6.28344">
        <ele>1091</ele>
        <time>2016-08-04T08:21:09Z</time>
      </trkpt>
      <trkpt lat="45.71448" lon="6.28339">
        <ele>1092</ele>
        <time>2016-08-04T08:21:14Z</time>
      </trkpt>
      <trkpt lat="45.71456" lon="6.28332">
        <ele>1094</ele>
        <time>2016-08-04T08:21:19Z</time>
      </trkpt>
      <trkpt lat="45.71463" lon="6.28326">
        <ele>1095</ele>
        <time>2016-08-04T08:21:24Z</time>
      </trkpt>
      <trkpt lat="45.7147" lon="6.28317">
        <ele>1096</ele>
        <time>2016-08-04T08:21:29Z</time>
      </trkpt>
      <trkpt lat="45.71478" lon="6.28311">
        <ele>1096</ele>
        <time>2016-08-04T08:21:34Z</time>
      </trkpt>
      <trkpt lat="45.71486" lon="6.28301">
        <ele>1097</ele>
        <time>2016-08-04T08:21:39Z</time>
      </trkpt>
      <trkpt lat="45.71492" lon="6.28288">
        <ele>1097</ele>
        <time>2016-08-04T08:21:44Z</time>
      </trkpt>
      <trkpt lat="45.71499" lon="6.28274">
        <ele>1097</ele>
        <time>2016-08-04T08:21:49Z</time>
      </trkpt>
      <trkpt lat="45.71499" lon="6.28259">
        <ele>1097</ele>
        <time>2016-08-04T08:21:54Z</time>
      </trkpt>
      <trkpt lat="45.715" lon="6.28246">
        <ele>1097</ele>
        <time>2016-08-04T08:21:59Z</time>
      </trkpt>
      <trkpt lat="45.715" lon="6.28232">
        <ele>1097</ele>
        <time>2016-08-04T08:22:04Z</time>
      </trkpt>
      <trkpt lat="45.71501" lon="6.28218">
        <ele>1098</ele>
        <time>2016-08-04T08:22:09Z</time>
      </trkpt>
      <trkpt lat="45.71497" lon="6.28204">
        <ele>1099</ele>
        <time>2016-08-04T08:22:14Z</time>
      </trkpt>
      <trkpt lat="45.71496" lon="6.28191">
        <ele>1101</ele>
        <time>2016-08-04T08:22:19Z</time>
      </trkpt>
      <trkpt lat="45.71494" lon="6.28179">
        <ele>1102</ele>
        <time>2016-08-04T08:22:24Z</time>
      </trkpt>
      <trkpt lat="45.71492" lon="6.28166">
        <ele>1103</ele>
        <time>2016-08-04T08:22:29Z</time>
      </trkpt>
      <trkpt lat="45.71491" lon="6.28153">
        <ele>1104</ele>
        <time>2016-08-04T08:22:34Z</time>
      </trkpt>
      <trkpt lat="45.71487" lon="6.28142">
        <ele>1105</ele>
        <time>2016-08-04T08:22:39Z</time>
      </trkpt>
      <trkpt lat="45.71485" lon="6.28129">
        <ele>1106</ele>
        <time>2016-08-04T08:22:44Z</time>
      </trkpt>
      <trkpt lat="45.71482" lon="6.28115">
        <ele>1107</ele>
        <time>2016-08-04T08:22:49Z</time>
      </trkpt>
      <trkpt lat="45.71479" lon="6.28103">
        <ele>1108</ele>
        <time>2016-08-04T08:22:54Z</time>
      </trkpt>
      <trkpt lat="45.71478" lon="6.2809">
        <ele>1108</ele>
        <time>2016-08-04T08:22:59Z</time>
      </trkpt>
      <trkpt lat="45.71476" lon="6.28073">
        <ele>1109</ele>
        <time>2016-08-04T08:23:04Z</time>
      </trkpt>
      <trkpt lat="45.71473" lon="6.28061">
        <ele>1110</ele>
        <time>2016-08-04T08:23:09Z</time>
      </trkpt>
      <trkpt lat="45.71466" lon="6.28048">
        <ele>1111</ele>
        <time>2016-08-04T08:23:14Z</time>
      </trkpt>
      <trkpt lat="45.71464" lon="6.28035">
        <ele>1112</ele>
        <time>2016-08-04T08:23:19Z</time>
      </trkpt>
      <trkpt lat="45.71461" lon="6.28021">
        <ele>1114</ele>
        <time>2016-08-04T08:23:24Z</time>
      </trkpt>
      <trkpt lat="45.71462" lon="6.28009">
        <ele>1115</ele>
        <time>2016-08-04T08:23:29Z</time>
      </trkpt>
      <trkpt lat="45.71459" lon="6.27997">
        <ele>1116</ele>
        <time>2016-08-04T08:23:34Z</time>
      </trkpt>
      <trkpt lat="45.71458" lon="6.27985">
        <ele>1117</ele>
        <time>2016-08-04T08:23:39Z</time>
      </trkpt>
      <trkpt lat="45.71457" lon="6.27973">
        <ele>1118</ele>
        <time>2016-08-04T08:23:44Z</time>
      </trkpt>
      <trkpt lat="45.71457" lon="6.2796">
        <ele>1120</ele>
        <time>2016-08-04T08:23:49Z</time>
      </trkpt>
      <trkpt lat="45.71457" lon="6.27948">
        <ele>1121</ele>
        <time>2016-08-04T08:23:54Z</time>
      </trkpt>
      <trkpt lat="45.71455" lon="6.27936">
        <ele>1122</ele>
        <time>2016-08-04T08:23:59Z</time>
      </trkpt>
      <trkpt lat="45.71455" lon="6.27925">
        <ele>1123</ele>
        <time>2016-08-04T08:24:04Z</time>
      </trkpt>
      <trkpt lat="45.71453" lon="6.27913">
        <ele>1124</ele>
        <time>2016-08-04T08:24:09Z</time>
      </trkpt>
      <trkpt lat="45.7145" lon="6.279">
        <ele>1125</ele>
        <time>2016-08-04T08:24:14Z</time>
      </trkpt>
      <trkpt lat="45.71448" lon="6.27887">
        <ele>1126</ele>
        <time>2016-08-04T08:24:19Z</time>
      </trkpt>
      <trkpt lat="45.71446" lon="6.27875">
        <ele>1127</ele>
        <time>2016-08-04T08:24:24Z</time>
      </trkpt>
      <trkpt lat="45.71442" lon="6.27863">
        <ele>1128</ele>
        <time>2016-08-04T08:24:29Z</time>
      </trkpt>
      <trkpt lat="45.7144" lon="6.27851">
        <ele>1129</ele>
        <time>2016-08-04T08:24:34Z</time>
      </trkpt>
      <trkpt lat="45.71436" lon="6.27839">
        <ele>1130</ele>
        <time>2016-08-04T08:24:39Z</time>
      </trkpt>
      <trkpt lat="45.71433" lon="6.27827">
        <ele>1131</ele>
        <time>2016-08-04T08:24:44Z</time>
      </trkpt>
      <trkpt lat="45.71428" lon="6.27815">
        <ele>1132</ele>
        <time>2016-08-04T08:24:49Z</time>
      </trkpt>
      <trkpt lat="45.71427" lon="6.27804">
        <ele>1133</ele>
        <time>2016-08-04T08:24:54Z</time>
      </trkpt>
      <trkpt lat="45.71425" lon="6.2779">
        <ele>1134</ele>
        <time>2016-08-04T08:24:59Z</time>
      </trkpt>
      <trkpt lat="45.71423" lon="6.27777">
        <ele>1135</ele>
        <time>2016-08-04T08:25:04Z</time>
      </trkpt>
      <trkpt lat="45.71421" lon="6.27764">
        <ele>1136</ele>
        <time>2016-08-04T08:25:09Z</time>
      </trkpt>
      <trkpt lat="45.71419" lon="6.27751">
        <ele>1137</ele>
        <time>2016-08-04T08:25:14Z</time>
      </trkpt>
      <trkpt lat="45.71418" lon="6.27739">
        <ele>1138</ele>
        <time>2016-08-04T08:25:19Z</time>
      </trkpt>
      <trkpt lat="45.71416" lon="6.27729">
        <ele>1139</ele>
        <time>2016-08-04T08:25:24Z</time>
      </trkpt>
      <trkpt lat="45.71409" lon="6.27718">
        <ele>1140</ele>
        <time>2016-08-04T08:25:29Z</time>
      </trkpt>
      <trkpt lat="45.71405" lon="6.27705">
        <ele>1141</ele>
        <time>2016-08-04T08:25:34Z</time>
      </trkpt>
      <trkpt lat="45.71401" lon="6.27692">
        <ele>1142</ele>
        <time>2016-08-04T08:25:39Z</time>
      </trkpt>
      <trkpt lat="45.71397" lon="6.27681">
        <ele>1143</ele>
        <time>2016-08-04T08:25:44Z</time>
      </trkpt>
      <trkpt lat="45.71393" lon="6.27667">
        <ele>1143</ele>
        <time>2016-08-04T08:25:49Z</time>
      </trkpt>
      <trkpt lat="45.71388" lon="6.27655">
        <ele>1144</ele>
        <time>2016-08-04T08:25:54Z</time>
      </trkpt>
      <trkpt lat="45.71384" lon="6.27644">
        <ele>1145</ele>
        <time>2016-08-04T08:25:59Z</time>
      </trkpt>
      <trkpt lat="45.71381" lon="6.27631">
        <ele>1146</ele>
        <time>2016-08-04T08:26:04Z</time>
      </trkpt>
      <trkpt lat="45.71376" lon="6.2762">
        <ele>1146</ele>
        <time>2016-08-04T08:26:09Z</time>
      </trkpt>
      <trkpt lat="45.71371" lon="6.27607">
        <ele>1146</ele>
        <time>2016-08-04T08:26:14Z</time>
      </trkpt>
      <trkpt lat="45.71367" lon="6.27595">
        <ele>1147</ele>
        <time>2016-08-04T08:26:19Z</time>
      </trkpt>
      <trkpt lat="45.71364" lon="6.27584">
        <ele>1147</ele>
        <time>2016-08-04T08:26:24Z</time>
      </trkpt>
      <trkpt lat="45.71361" lon="6.27571">
        <ele>1148</ele>
        <time>2016-08-04T08:26:29Z</time>
      </trkpt>
      <trkpt lat="45.71356" lon="6.27558">
        <ele>1148</ele>
        <time>2016-08-04T08:26:34Z</time>
      </trkpt>
      <trkpt lat="45.71352" lon="6.27545">
        <ele>1149</ele>
        <time>2016-08-04T08:26:39Z</time>
      </trkpt>
      <trkpt lat="45.71349" lon="6.2753">
        <ele>1150</ele>
        <time>2016-08-04T08:26:44Z</time>
      </trkpt>
      <trkpt lat="45.71346" lon="6.27516">
        <ele>1150</ele>
        <time>2016-08-04T08:26:49Z</time>
      </trkpt>
      <trkpt lat="45.71345" lon="6.27501">
        <ele>1151</ele>
        <time>2016-08-04T08:26:54Z</time>
      </trkpt>
      <trkpt lat="45.71341" lon="6.27488">
        <ele>1152</ele>
        <time>2016-08-04T08:26:59Z</time>
      </trkpt>
      <trkpt lat="45.71337" lon="6.27476">
        <ele>1153</ele>
        <time>2016-08-04T08:27:04Z</time>
      </trkpt>
      <trkpt lat="45.71333" lon="6.27464">
        <ele>1154</ele>
        <time>2016-08-04T08:27:09Z</time>
      </trkpt>
      <trkpt lat="45.71334" lon="6.27452">
        <ele>1155</ele>
        <time>2016-08-04T08:27:14Z</time>
      </trkpt>
      <trkpt lat="45.71335" lon="6.27442">
        <ele>1156</ele>
        <time>2016-08-04T08:27:19Z</time>
      </trkpt>
      <trkpt lat="45.71337" lon="6.27431">
        <ele>1158</ele>
        <time>2016-08-04T08:27:24Z</time>
      </trkpt>
      <trkpt lat="45.71338" lon="6.2742">
        <ele>1160</ele>
        <time>2016-08-04T08:27:29Z</time>
      </trkpt>
      <trkpt lat="45.71338" lon="6.27411">
        <ele>1161</ele>
        <time>2016-08-04T08:27:34Z</time>
      </trkpt>
      <trkpt lat="45.71339" lon="6.274">
        <ele>1163</ele>
        <time>2016-08-04T08:27:39Z</time>
      </trkpt>
      <trkpt lat="45.7134" lon="6.2739">
        <ele>1165</ele>
        <time>2016-08-04T08:27:44Z</time>
      </trkpt>
      <trkpt lat="45.71338" lon="6.27379">
        <ele>1166</ele>
        <time>2016-08-04T08:27:49Z</time>
      </trkpt>
      <trkpt lat="45.7134" lon="6.27368">
        <ele>1167</ele>
        <time>2016-08-04T08:27:54Z</time>
      </trkpt>
      <trkpt lat="45.71342" lon="6.27357">
        <ele>1169</ele>
        <time>2016-08-04T08:27:59Z</time>
      </trkpt>
      <trkpt lat="45.71344" lon="6.27347">
        <ele>1170</ele>
        <time>2016-08-04T08:28:04Z</time>
      </trkpt>
      <trkpt lat="45.71344" lon="6.27338">
        <ele>1170</ele>
        <time>2016-08-04T08:28:09Z</time>
      </trkpt>
      <trkpt lat="45.71343" lon="6.27327">
        <ele>1171</ele>
        <time>2016-08-04T08:28:14Z</time>
      </trkpt>
      <trkpt lat="45.71342" lon="6.27316">
        <ele>1172</ele>
        <time>2016-08-04T08:28:19Z</time>
      </trkpt>
      <trkpt lat="45.71342" lon="6.27306">
        <ele>1173</ele>
        <time>2016-08-04T08:28:24Z</time>
      </trkpt>
      <trkpt lat="45.71342" lon="6.27295">
        <ele>1175</ele>
        <time>2016-08-04T08:28:29Z</time>
      </trkpt>
      <trkpt lat="45.71341" lon="6.27286">
        <ele>1176</ele>
        <time>2016-08-04T08:28:34Z</time>
      </trkpt>
      <trkpt lat="45.71338" lon="6.27277">
        <ele>1178</ele>
        <time>2016-08-04T08:28:39Z</time>
      </trkpt>
      <trkpt lat="45.71332" lon="6.27267">
        <ele>1179</ele>
        <time>2016-08-04T08:28:44Z</time>
      </trkpt>
      <trkpt lat="45.71328" lon="6.27258">
        <ele>1180</ele>
        <time>2016-08-04T08:28:49Z</time>
      </trkpt>
      <trkpt lat="45.71324" lon="6.27249">
        <ele>1181</ele>
        <time>2016-08-04T08:28:54Z</time>
      </trkpt>
      <trkpt lat="45.7132" lon="6.2724">
        <ele>1182</ele>
        <time>2016-08-04T08:28:59Z</time>
      </trkpt>
      <trkpt lat="45.71317" lon="6.2723">
        <ele>1183</ele>
        <time>2016-08-04T08:29:04Z</time>
      </trkpt>
      <trkpt lat="45.71315" lon="6.27221">
        <ele>1184</ele>
        <time>2016-08-04T08:29:09Z</time>
      </trkpt>
      <trkpt lat="45.7131" lon="6.27214">
        <ele>1187</ele>
        <time>2016-08-04T08:29:14Z</time>
      </trkpt>
      <trkpt lat="45.71304" lon="6.27207">
        <ele>1188</ele>
        <time>2016-08-04T08:29:19Z</time>
      </trkpt>
      <trkpt lat="45.71297" lon="6.27199">
        <ele>1190</ele>
        <time>2016-08-04T08:29:24Z</time>
      </trkpt>
      <trkpt lat="45.71292" lon="6.27192">
        <ele>1191</ele>
        <time>2016-08-04T08:29:29Z</time>
      </trkpt>
      <trkpt lat="45.71283" lon="6.27187">
        <ele>1192</ele>
        <time>2016-08-04T08:29:34Z</time>
      </trkpt>
      <trkpt lat="45.71278" lon="6.2718">
        <ele>1192</ele>
        <time>2016-08-04T08:29:39Z</time>
      </trkpt>
      <trkpt lat="45.71272" lon="6.27173">
        <ele>1192</ele>
        <time>2016-08-04T08:29:44Z</time>
      </trkpt>
      <trkpt lat="45.71267" lon="6.27167">
        <ele>1193</ele>
        <time>2016-08-04T08:29:49Z</time>
      </trkpt>
      <trkpt lat="45.71259" lon="6.27163">
        <ele>1193</ele>
        <time>2016-08-04T08:29:54Z</time>
      </trkpt>
      <trkpt lat="45.71252" lon="6.27156">
        <ele>1194</ele>
        <time>2016-08-04T08:29:59Z</time>
      </trkpt>
      <trkpt lat="45.71243" lon="6.27152">
        <ele>1195</ele>
        <time>2016-08-04T08:30:04Z</time>
      </trkpt>
      <trkpt lat="45.71236" lon="6.27148">
        <ele>1196</ele>
        <time>2016-08-04T08:30:09Z</time>
      </trkpt>
      <trkpt lat="45.71228" lon="6.27144">
        <ele>1197</ele>
        <time>2016-08-04T08:30:14Z</time>
      </trkpt>
      <trkpt lat="45.71221" lon="6.27142">
        <ele>1197</ele>
        <time>2016-08-04T08:30:19Z</time>
      </trkpt>
      <trkpt lat="45.71215" lon="6.27145">
        <ele>1198</ele>
        <time>2016-08-04T08:30:24Z</time>
      </trkpt>
      <trkpt lat="45.71208" lon="6.27143">
        <ele>1199</ele>
        <time>2016-08-04T08:30:29Z</time>
      </trkpt>
      <trkpt lat="45.71201" lon="6.2714">
        <ele>1199</ele>
        <time>2016-08-04T08:30:34Z</time>
      </trkpt>
      <trkpt lat="45.71196" lon="6.27137">
        <ele>1200</ele>
        <time>2016-08-04T08:30:39Z</time>
      </trkpt>
      <trkpt lat="45.71189" lon="6.27135">
        <ele>1201</ele>
        <time>2016-08-04T08:30:44Z</time>
      </trkpt>
      <trkpt lat="45.71183" lon="6.27133">
        <ele>1201</ele>
        <time>2016-08-04T08:30:49Z</time>
      </trkpt>
      <trkpt lat="45.71178" lon="6.27131">
        <ele>1203</ele>
        <time>2016-08-04T08:30:54Z</time>
      </trkpt>
      <trkpt lat="45.71172" lon="6.27128">
        <ele>1204</ele>
        <time>2016-08-04T08:30:59Z</time>
      </trkpt>
      <trkpt lat="45.71168" lon="6.27124">
        <ele>1206</ele>
        <time>2016-08-04T08:31:04Z</time>
      </trkpt>
      <trkpt lat="45.71163" lon="6.2712">
        <ele>1209</ele>
        <time>2016-08-04T08:31:09Z</time>
      </trkpt>
      <trkpt lat="45.71158" lon="6.27119">
        <ele>1212</ele>
        <time>2016-08-04T08:31:14Z</time>
      </trkpt>
      <trkpt lat="45.7115" lon="6.27116">
        <ele>1215</ele>
        <time>2016-08-04T08:31:19Z</time>
      </trkpt>
      <trkpt lat="45.71143" lon="6.27115">
        <ele>1217</ele>
        <time>2016-08-04T08:31:24Z</time>
      </trkpt>
      <trkpt lat="45.71136" lon="6.27113">
        <ele>1220</ele>
        <time>2016-08-04T08:31:29Z</time>
      </trkpt>
      <trkpt lat="45.71131" lon="6.27111">
        <ele>1221</ele>
        <time>2016-08-04T08:31:34Z</time>
      </trkpt>
      <trkpt lat="45.71122" lon="6.27111">
        <ele>1223</ele>
        <time>2016-08-04T08:31:39Z</time>
      </trkpt>
      <trkpt lat="45.71115" lon="6.2711">
        <ele>1224</ele>
        <time>2016-08-04T08:31:44Z</time>
      </trkpt>
      <trkpt lat="45.7111" lon="6.27108">
        <ele>1226</ele>
        <time>2016-08-04T08:31:49Z</time>
      </trkpt>
      <trkpt lat="45.71104" lon="6.27105">
        <ele>1228</ele>
        <time>2016-08-04T08:31:54Z</time>
      </trkpt>
      <trkpt lat="45.71099" lon="6.27102">
        <ele>1229</ele>
        <time>2016-08-04T08:31:59Z</time>
      </trkpt>
      <trkpt lat="45.71093" lon="6.271">
        <ele>1230</ele>
        <time>2016-08-04T08:32:04Z</time>
      </trkpt>
      <trkpt lat="45.71087" lon="6.27098">
        <ele>1231</ele>
        <time>2016-08-04T08:32:09Z</time>
      </trkpt>
      <trkpt lat="45.71082" lon="6.27093">
        <ele>1232</ele>
        <time>2016-08-04T08:32:14Z</time>
      </trkpt>
      <trkpt lat="45.71074" lon="6.27091">
        <ele>1232</ele>
        <time>2016-08-04T08:32:19Z</time>
      </trkpt>
      <trkpt lat="45.7107" lon="6.27086">
        <ele>1232</ele>
        <time>2016-08-04T08:32:24Z</time>
      </trkpt>
      <trkpt lat="45.71064" lon="6.27084">
        <ele>1233</ele>
        <time>2016-08-04T08:32:29Z</time>
      </trkpt>
      <trkpt lat="45.71058" lon="6.27082">
        <ele>1234</ele>
        <time>2016-08-04T08:32:34Z</time>
      </trkpt>
      <trkpt lat="45.71051" lon="6.27079">
        <ele>1235</ele>
        <time>2016-08-04T08:32:39Z</time>
      </trkpt>
      <trkpt lat="45.71046" lon="6.27076">
        <ele>1235</ele>
        <time>2016-08-04T08:32:44Z</time>
      </trkpt>
      <trkpt lat="45.71039" lon="6.27073">
        <ele>1236</ele>
        <time>2016-08-04T08:32:49Z</time>
      </trkpt>
      <trkpt lat="45.71032" lon="6.27069">
        <ele>1236</ele>
        <time>2016-08-04T08:32:54Z</time>
      </trkpt>
      <trkpt lat="45.71026" lon="6.27065">
        <ele>1236</ele>
        <time>2016-08-04T08:32:59Z</time>
      </trkpt>
      <trkpt lat="45.71019" lon="6.27061">
        <ele>1236</ele>
        <time>2016-08-04T08:33:04Z</time>
      </trkpt>
      <trkpt lat="45.71012" lon="6.27057">
        <ele>1236</ele>
        <time>2016-08-04T08:33:09Z</time>
      </trkpt>
      <trkpt lat="45.71006" lon="6.27051">
        <ele>1236</ele>
        <time>2016-08-04T08:33:14Z</time>
      </trkpt>
      <trkpt lat="45.71002" lon="6.27043">
        <ele>1236</ele>
        <time>2016-08-04T08:33:19Z</time>
      </trkpt>
      <trkpt lat="45.70995" lon="6.2704">
        <ele>1237</ele>
        <time>2016-08-04T08:33:24Z</time>
      </trkpt>
      <trkpt lat="45.70988" lon="6.27038">
        <ele>1239</ele>
        <time>2016-08-04T08:33:29Z</time>
      </trkpt>
      <trkpt lat="45.70984" lon="6.27034">
        <ele>1240</ele>
        <time>2016-08-04T08:33:34Z</time>
      </trkpt>
      <trkpt lat="45.70977" lon="6.27027">
        <ele>1240</ele>
        <time>2016-08-04T08:33:39Z</time>
      </trkpt>
      <trkpt lat="45.70971" lon="6.27024">
        <ele>1242</ele>
        <time>2016-08-04T08:33:44Z</time>
      </trkpt>
      <trkpt lat="45.70965" lon="6.27017">
        <ele>1242</ele>
        <time>2016-08-04T08:33:49Z</time>
      </trkpt>
      <trkpt lat="45.70958" lon="6.27012">
        <ele>1243</ele>
        <time>2016-08-04T08:33:54Z</time>
      </trkpt>
      <trkpt lat="45.70952" lon="6.27008">
        <ele>1244</ele>
        <time>2016-08-04T08:33:59Z</time>
      </trkpt>
      <trkpt lat="45.70947" lon="6.27004">
        <ele>1244</ele>
        <time>2016-08-04T08:34:04Z</time>
      </trkpt>
      <trkpt lat="45.7094" lon="6.26999">
        <ele>1244</ele>
        <time>2016-08-04T08:34:09Z</time>
      </trkpt>
      <trkpt lat="45.70934" lon="6.26994">
        <ele>1244</ele>
        <time>2016-08-04T08:34:14Z</time>
      </trkpt>
      <trkpt lat="45.70929" lon="6.26987">
        <ele>1244</ele>
        <time>2016-08-04T08:34:19Z</time>
      </trkpt>
      <trkpt lat="45.70923" lon="6.2698">
        <ele>1245</ele>
        <time>2016-08-04T08:34:24Z</time>
      </trkpt>
      <trkpt lat="45.70917" lon="6.26972">
        <ele>1246</ele>
        <time>2016-08-04T08:34:29Z</time>
      </trkpt>
      <trkpt lat="45.70911" lon="6.26969">
        <ele>1248</ele>
        <time>2016-08-04T08:34:34Z</time>
      </trkpt>
      <trkpt lat="45.70903" lon="6.26967">
        <ele>1249</ele>
        <time>2016-08-04T08:34:39Z</time>
      </trkpt>
      <trkpt lat="45.70894" lon="6.26967">
        <ele>1250</ele>
        <time>2016-08-04T08:34:44Z</time>
      </trkpt>
      <trkpt lat="45.70883" lon="6.26968">
        <ele>1251</ele>
        <time>2016-08-04T08:34:49Z</time>
      </trkpt>
      <trkpt lat="45.70881" lon="6.26964">
        <ele>1251</ele>
        <time>2016-08-04T08:35:06Z</time>
      </trkpt>
      <trkpt lat="45.70881" lon="6.26964">
        <ele>1250</ele>
        <time>2016-08-04T08:35:07Z</time>
      </trkpt>
      <trkpt lat="45.70881" lon="6.26963">
        <ele>1250</ele>
        <time>2016-08-04T08:35:36Z</time>
      </trkpt>
      <trkpt lat="45.70881" lon="6.26963">
        <ele>1249</ele>
        <time>2016-08-04T08:35:37Z</time>
      </trkpt>
      <trkpt lat="45.70874" lon="6.26961">
        <ele>1249</ele>
        <time>2016-08-04T08:35:50Z</time>
      </trkpt>
      <trkpt lat="45.70864" lon="6.26961">
        <ele>1249</ele>
        <time>2016-08-04T08:35:55Z</time>
      </trkpt>
      <trkpt lat="45.70852" lon="6.26955">
        <ele>1251</ele>
        <time>2016-08-04T08:36:00Z</time>
      </trkpt>
      <trkpt lat="45.70842" lon="6.2695">
        <ele>1252</ele>
        <time>2016-08-04T08:36:05Z</time>
      </trkpt>
      <trkpt lat="45.70835" lon="6.26941">
        <ele>1254</ele>
        <time>2016-08-04T08:36:10Z</time>
      </trkpt>
      <trkpt lat="45.70831" lon="6.26933">
        <ele>1257</ele>
        <time>2016-08-04T08:36:15Z</time>
      </trkpt>
      <trkpt lat="45.70824" lon="6.26926">
        <ele>1261</ele>
        <time>2016-08-04T08:36:20Z</time>
      </trkpt>
      <trkpt lat="45.70819" lon="6.26921">
        <ele>1262</ele>
        <time>2016-08-04T08:36:25Z</time>
      </trkpt>
      <trkpt lat="45.70816" lon="6.26916">
        <ele>1264</ele>
        <time>2016-08-04T08:36:30Z</time>
      </trkpt>
      <trkpt lat="45.70813" lon="6.26907">
        <ele>1266</ele>
        <time>2016-08-04T08:36:35Z</time>
      </trkpt>
      <trkpt lat="45.70808" lon="6.269">
        <ele>1267</ele>
        <time>2016-08-04T08:36:40Z</time>
      </trkpt>
      <trkpt lat="45.70802" lon="6.26893">
        <ele>1269</ele>
        <time>2016-08-04T08:36:45Z</time>
      </trkpt>
      <trkpt lat="45.70796" lon="6.26885">
        <ele>1270</ele>
        <time>2016-08-04T08:36:50Z</time>
      </trkpt>
      <trkpt lat="45.70787" lon="6.26879">
        <ele>1271</ele>
        <time>2016-08-04T08:36:55Z</time>
      </trkpt>
      <trkpt lat="45.70779" lon="6.2687">
        <ele>1271</ele>
        <time>2016-08-04T08:37:00Z</time>
      </trkpt>
      <trkpt lat="45.70774" lon="6.26861">
        <ele>1271</ele>
        <time>2016-08-04T08:37:05Z</time>
      </trkpt>
      <trkpt lat="45.7077" lon="6.26853">
        <ele>1270</ele>
        <time>2016-08-04T08:37:10Z</time>
      </trkpt>
      <trkpt lat="45.70763" lon="6.26845">
        <ele>1270</ele>
        <time>2016-08-04T08:37:15Z</time>
      </trkpt>
      <trkpt lat="45.70758" lon="6.2684">
        <ele>1270</ele>
        <time>2016-08-04T08:37:20Z</time>
      </trkpt>
      <trkpt lat="45.70756" lon="6.26831">
        <ele>1270</ele>
        <time>2016-08-04T08:37:25Z</time>
      </trkpt>
      <trkpt lat="45.7075" lon="6.2682">
        <ele>1271</ele>
        <time>2016-08-04T08:37:30Z</time>
      </trkpt>
      <trkpt lat="45.70744" lon="6.26811">
        <ele>1272</ele>
        <time>2016-08-04T08:37:35Z</time>
      </trkpt>
      <trkpt lat="45.7074" lon="6.26802">
        <ele>1272</ele>
        <time>2016-08-04T08:37:40Z</time>
      </trkpt>
      <trkpt lat="45.70738" lon="6.26792">
        <ele>1273</ele>
        <time>2016-08-04T08:37:45Z</time>
      </trkpt>
      <trkpt lat="45.70733" lon="6.26781">
        <ele>1273</ele>
        <time>2016-08-04T08:37:50Z</time>
      </trkpt>
      <trkpt lat="45.7073" lon="6.26771">
        <ele>1273</ele>
        <time>2016-08-04T08:37:55Z</time>
      </trkpt>
      <trkpt lat="45.70727" lon="6.26766">
        <ele>1274</ele>
        <time>2016-08-04T08:38:00Z</time>
      </trkpt>
      <trkpt lat="45.70721" lon="6.2676">
        <ele>1274</ele>
        <time>2016-08-04T08:38:05Z</time>
      </trkpt>
      <trkpt lat="45.70715" lon="6.26754">
        <ele>1275</ele>
        <time>2016-08-04T08:38:10Z</time>
      </trkpt>
      <trkpt lat="45.70708" lon="6.26748">
        <ele>1276</ele>
        <time>2016-08-04T08:38:15Z</time>
      </trkpt>
      <trkpt lat="45.707" lon="6.26743">
        <ele>1276</ele>
        <time>2016-08-04T08:38:20Z</time>
      </trkpt>
      <trkpt lat="45.70693" lon="6.26736">
        <ele>1277</ele>
        <time>2016-08-04T08:38:25Z</time>
      </trkpt>
      <trkpt lat="45.70687" lon="6.2673">
        <ele>1279</ele>
        <time>2016-08-04T08:38:30Z</time>
      </trkpt>
      <trkpt lat="45.70682" lon="6.26722">
        <ele>1280</ele>
        <time>2016-08-04T08:38:35Z</time>
      </trkpt>
      <trkpt lat="45.70679" lon="6.26716">
        <ele>1282</ele>
        <time>2016-08-04T08:38:40Z</time>
      </trkpt>
      <trkpt lat="45.70675" lon="6.26707">
        <ele>1283</ele>
        <time>2016-08-04T08:38:45Z</time>
      </trkpt>
      <trkpt lat="45.70674" lon="6.26699">
        <ele>1284</ele>
        <time>2016-08-04T08:38:50Z</time>
      </trkpt>
      <trkpt lat="45.70671" lon="6.26691">
        <ele>1286</ele>
        <time>2016-08-04T08:38:55Z</time>
      </trkpt>
      <trkpt lat="45.70668" lon="6.26684">
        <ele>1287</ele>
        <time>2016-08-04T08:39:00Z</time>
      </trkpt>
      <trkpt lat="45.70665" lon="6.26675">
        <ele>1288</ele>
        <time>2016-08-04T08:39:05Z</time>
      </trkpt>
      <trkpt lat="45.7066" lon="6.26667">
        <ele>1291</ele>
        <time>2016-08-04T08:39:10Z</time>
      </trkpt>
      <trkpt lat="45.70654" lon="6.26659">
        <ele>1293</ele>
        <time>2016-08-04T08:39:15Z</time>
      </trkpt>
      <trkpt lat="45.70649" lon="6.26651">
        <ele>1295</ele>
        <time>2016-08-04T08:39:20Z</time>
      </trkpt>
      <trkpt lat="45.70644" lon="6.26644">
        <ele>1296</ele>
        <time>2016-08-04T08:39:25Z</time>
      </trkpt>
      <trkpt lat="45.70639" lon="6.26638">
        <ele>1298</ele>
        <time>2016-08-04T08:39:30Z</time>
      </trkpt>
      <trkpt lat="45.70634" lon="6.26634">
        <ele>1298</ele>
        <time>2016-08-04T08:39:35Z</time>
      </trkpt>
      <trkpt lat="45.70631" lon="6.26629">
        <ele>1299</ele>
        <time>2016-08-04T08:39:40Z</time>
      </trkpt>
      <trkpt lat="45.70625" lon="6.26624">
        <ele>1300</ele>
        <time>2016-08-04T08:39:45Z</time>
      </trkpt>
      <trkpt lat="45.70622" lon="6.26617">
        <ele>1301</ele>
        <time>2016-08-04T08:39:50Z</time>
      </trkpt>
      <trkpt lat="45.70617" lon="6.2661">
        <ele>1301</ele>
        <time>2016-08-04T08:39:55Z</time>
      </trkpt>
      <trkpt lat="45.70612" lon="6.26603">
        <ele>1302</ele>
        <time>2016-08-04T08:40:00Z</time>
      </trkpt>
      <trkpt lat="45.70607" lon="6.26596">
        <ele>1303</ele>
        <time>2016-08-04T08:40:05Z</time>
      </trkpt>
      <trkpt lat="45.70605" lon="6.26589">
        <ele>1304</ele>
        <time>2016-08-04T08:40:10Z</time>
      </trkpt>
      <trkpt lat="45.70604" lon="6.26582">
        <ele>1306</ele>
        <time>2016-08-04T08:40:15Z</time>
      </trkpt>
      <trkpt lat="45.70604" lon="6.26574">
        <ele>1307</ele>
        <time>2016-08-04T08:40:20Z</time>
      </trkpt>
      <trkpt lat="45.70602" lon="6.26565">
        <ele>1310</ele>
        <time>2016-08-04T08:40:25Z</time>
      </trkpt>
      <trkpt lat="45.706" lon="6.26556">
        <ele>1312</ele>
        <time>2016-08-04T08:40:30Z</time>
      </trkpt>
      <trkpt lat="45.70593" lon="6.26551">
        <ele>1314</ele>
        <time>2016-08-04T08:40:35Z</time>
      </trkpt>
      <trkpt lat="45.70593" lon="6.26544">
        <ele>1315</ele>
        <time>2016-08-04T08:40:42Z</time>
      </trkpt>
      <trkpt lat="45.70591" lon="6.26536">
        <ele>1317</ele>
        <time>2016-08-04T08:40:47Z</time>
      </trkpt>
      <trkpt lat="45.70587" lon="6.2653">
        <ele>1317</ele>
        <time>2016-08-04T08:40:53Z</time>
      </trkpt>
      <trkpt lat="45.70586" lon="6.26523">
        <ele>1318</ele>
        <time>2016-08-04T08:40:58Z</time>
      </trkpt>
      <trkpt lat="45.70584" lon="6.26517">
        <ele>1319</ele>
        <time>2016-08-04T08:41:03Z</time>
      </trkpt>
      <trkpt lat="45.70584" lon="6.2651">
        <ele>1320</ele>
        <time>2016-08-04T08:41:10Z</time>
      </trkpt>
      <trkpt lat="45.7058" lon="6.26504">
        <ele>1320</ele>
        <time>2016-08-04T08:41:17Z</time>
      </trkpt>
      <trkpt lat="45.70581" lon="6.26497">
        <ele>1322</ele>
        <time>2016-08-04T08:41:22Z</time>
      </trkpt>
      <trkpt lat="45.70581" lon="6.2649">
        <ele>1324</ele>
        <time>2016-08-04T08:41:27Z</time>
      </trkpt>
      <trkpt lat="45.70579" lon="6.26483">
        <ele>1326</ele>
        <time>2016-08-04T08:41:32Z</time>
      </trkpt>
      <trkpt lat="45.70576" lon="6.26475">
        <ele>1327</ele>
        <time>2016-08-04T08:41:37Z</time>
      </trkpt>
      <trkpt lat="45.70575" lon="6.26467">
        <ele>1329</ele>
        <time>2016-08-04T08:41:42Z</time>
      </trkpt>
      <trkpt lat="45.70573" lon="6.26459">
        <ele>1330</ele>
        <time>2016-08-04T08:41:47Z</time>
      </trkpt>
      <trkpt lat="45.70574" lon="6.26453">
        <ele>1330</ele>
        <time>2016-08-04T08:41:52Z</time>
      </trkpt>
      <trkpt lat="45.70573" lon="6.26444">
        <ele>1331</ele>
        <time>2016-08-04T08:41:57Z</time>
      </trkpt>
      <trkpt lat="45.70569" lon="6.26436">
        <ele>1332</ele>
        <time>2016-08-04T08:42:02Z</time>
      </trkpt>
      <trkpt lat="45.70566" lon="6.26428">
        <ele>1332</ele>
        <time>2016-08-04T08:42:07Z</time>
      </trkpt>
      <trkpt lat="45.70564" lon="6.26421">
        <ele>1332</ele>
        <time>2016-08-04T08:42:12Z</time>
      </trkpt>
      <trkpt lat="45.70562" lon="6.26411">
        <ele>1332</ele>
        <time>2016-08-04T08:42:17Z</time>
      </trkpt>
      <trkpt lat="45.7056" lon="6.26405">
        <ele>1332</ele>
        <time>2016-08-04T08:42:23Z</time>
      </trkpt>
      <trkpt lat="45.70556" lon="6.26401">
        <ele>1334</ele>
        <time>2016-08-04T08:42:29Z</time>
      </trkpt>
      <trkpt lat="45.70553" lon="6.26396">
        <ele>1334</ele>
        <time>2016-08-04T08:42:46Z</time>
      </trkpt>
      <trkpt lat="45.70551" lon="6.2639">
        <ele>1335</ele>
        <time>2016-08-04T08:42:53Z</time>
      </trkpt>
      <trkpt lat="45.70548" lon="6.26385">
        <ele>1337</ele>
        <time>2016-08-04T08:42:58Z</time>
      </trkpt>
      <trkpt lat="45.70546" lon="6.26378">
        <ele>1338</ele>
        <time>2016-08-04T08:43:03Z</time>
      </trkpt>
      <trkpt lat="45.70542" lon="6.26373">
        <ele>1339</ele>
        <time>2016-08-04T08:43:09Z</time>
      </trkpt>
      <trkpt lat="45.70538" lon="6.26367">
        <ele>1341</ele>
        <time>2016-08-04T08:43:14Z</time>
      </trkpt>
      <trkpt lat="45.70536" lon="6.26362">
        <ele>1343</ele>
        <time>2016-08-04T08:43:21Z</time>
      </trkpt>
      <trkpt lat="45.70533" lon="6.26356">
        <ele>1344</ele>
        <time>2016-08-04T08:43:28Z</time>
      </trkpt>
      <trkpt lat="45.70531" lon="6.2635">
        <ele>1345</ele>
        <time>2016-08-04T08:43:33Z</time>
      </trkpt>
      <trkpt lat="45.7053" lon="6.26343">
        <ele>1346</ele>
        <time>2016-08-04T08:43:40Z</time>
      </trkpt>
      <trkpt lat="45.70528" lon="6.26335">
        <ele>1347</ele>
        <time>2016-08-04T08:43:49Z</time>
      </trkpt>
      <trkpt lat="45.70524" lon="6.26329">
        <ele>1347</ele>
        <time>2016-08-04T08:43:54Z</time>
      </trkpt>
      <trkpt lat="45.70522" lon="6.26322">
        <ele>1348</ele>
        <time>2016-08-04T08:44:01Z</time>
      </trkpt>
      <trkpt lat="45.70523" lon="6.26321">
        <ele>1350</ele>
        <time>2016-08-04T08:44:21Z</time>
      </trkpt>
      <trkpt lat="45.70523" lon="6.26321">
        <ele>1351</ele>
        <time>2016-08-04T08:44:22Z</time>
      </trkpt>
      <trkpt lat="45.70525" lon="6.26313">
        <ele>1353</ele>
        <time>2016-08-04T08:44:40Z</time>
      </trkpt>
      <trkpt lat="45.70519" lon="6.26306">
        <ele>1355</ele>
        <time>2016-08-04T08:44:45Z</time>
      </trkpt>
      <trkpt lat="45.70515" lon="6.263">
        <ele>1356</ele>
        <time>2016-08-04T08:44:50Z</time>
      </trkpt>
      <trkpt lat="45.70509" lon="6.26293">
        <ele>1357</ele>
        <time>2016-08-04T08:44:55Z</time>
      </trkpt>
      <trkpt lat="45.70504" lon="6.26286">
        <ele>1359</ele>
        <time>2016-08-04T08:45:00Z</time>
      </trkpt>
      <trkpt lat="45.70498" lon="6.26279">
        <ele>1362</ele>
        <time>2016-08-04T08:45:05Z</time>
      </trkpt>
      <trkpt lat="45.70495" lon="6.26272">
        <ele>1364</ele>
        <time>2016-08-04T08:45:10Z</time>
      </trkpt>
      <trkpt lat="45.70488" lon="6.26264">
        <ele>1368</ele>
        <time>2016-08-04T08:45:15Z</time>
      </trkpt>
      <trkpt lat="45.70482" lon="6.26261">
        <ele>1370</ele>
        <time>2016-08-04T08:45:20Z</time>
      </trkpt>
      <trkpt lat="45.70478" lon="6.26257">
        <ele>1372</ele>
        <time>2016-08-04T08:45:25Z</time>
      </trkpt>
      <trkpt lat="45.70472" lon="6.26248">
        <ele>1374</ele>
        <time>2016-08-04T08:45:30Z</time>
      </trkpt>
      <trkpt lat="45.70465" lon="6.26246">
        <ele>1375</ele>
        <time>2016-08-04T08:45:35Z</time>
      </trkpt>
      <trkpt lat="45.70458" lon="6.26242">
        <ele>1375</ele>
        <time>2016-08-04T08:45:40Z</time>
      </trkpt>
      <trkpt lat="45.70453" lon="6.26238">
        <ele>1376</ele>
        <time>2016-08-04T08:45:45Z</time>
      </trkpt>
      <trkpt lat="45.70448" lon="6.26236">
        <ele>1376</ele>
        <time>2016-08-04T08:45:52Z</time>
      </trkpt>
      <trkpt lat="45.70441" lon="6.26232">
        <ele>1376</ele>
        <time>2016-08-04T08:45:57Z</time>
      </trkpt>
      <trkpt lat="45.70437" lon="6.26229">
        <ele>1377</ele>
        <time>2016-08-04T08:46:02Z</time>
      </trkpt>
      <trkpt lat="45.70434" lon="6.26223">
        <ele>1378</ele>
        <time>2016-08-04T08:46:08Z</time>
      </trkpt>
      <trkpt lat="45.70427" lon="6.26223">
        <ele>1379</ele>
        <time>2016-08-04T08:46:14Z</time>
      </trkpt>
      <trkpt lat="45.70423" lon="6.26217">
        <ele>1380</ele>
        <time>2016-08-04T08:46:19Z</time>
      </trkpt>
      <trkpt lat="45.70417" lon="6.26216">
        <ele>1383</ele>
        <time>2016-08-04T08:46:27Z</time>
      </trkpt>
      <trkpt lat="45.70418" lon="6.26208">
        <ele>1385</ele>
        <time>2016-08-04T08:46:37Z</time>
      </trkpt>
      <trkpt lat="45.70422" lon="6.26209">
        <ele>1387</ele>
        <time>2016-08-04T08:47:06Z</time>
      </trkpt>
      <trkpt lat="45.70422" lon="6.26209">
        <ele>1388</ele>
        <time>2016-08-04T08:47:07Z</time>
      </trkpt>
      <trkpt lat="45.70427" lon="6.26206">
        <ele>1388</ele>
        <time>2016-08-04T08:47:24Z</time>
      </trkpt>
      <trkpt lat="45.70437" lon="6.26198">
        <ele>1388</ele>
        <time>2016-08-04T08:47:29Z</time>
      </trkpt>
      <trkpt lat="45.70441" lon="6.26195">
        <ele>1390</ele>
        <time>2016-08-04T08:47:42Z</time>
      </trkpt>
      <trkpt lat="45.70448" lon="6.26193">
        <ele>1392</ele>
        <time>2016-08-04T08:47:49Z</time>
      </trkpt>
      <trkpt lat="45.70454" lon="6.26193">
        <ele>1395</ele>
        <time>2016-08-04T08:47:55Z</time>
      </trkpt>
      <trkpt lat="45.70458" lon="6.2619">
        <ele>1397</ele>
        <time>2016-08-04T08:48:00Z</time>
      </trkpt>
      <trkpt lat="45.7046" lon="6.26183">
        <ele>1399</ele>
        <time>2016-08-04T08:48:05Z</time>
      </trkpt>
      <trkpt lat="45.70461" lon="6.26177">
        <ele>1401</ele>
        <time>2016-08-04T08:48:21Z</time>
      </trkpt>
      <trkpt lat="45.70454" lon="6.26167">
        <ele>1402</ele>
        <time>2016-08-04T08:48:26Z</time>
      </trkpt>
      <trkpt lat="45.7045" lon="6.26162">
        <ele>1402</ele>
        <time>2016-08-04T08:48:34Z</time>
      </trkpt>
      <trkpt lat="45.70446" lon="6.2616">
        <ele>1403</ele>
        <time>2016-08-04T08:48:39Z</time>
      </trkpt>
      <trkpt lat="45.70441" lon="6.26159">
        <ele>1404</ele>
        <time>2016-08-04T08:48:47Z</time>
      </trkpt>
      <trkpt lat="45.70439" lon="6.26152">
        <ele>1406</ele>
        <time>2016-08-04T08:48:53Z</time>
      </trkpt>
      <trkpt lat="45.70433" lon="6.26149">
        <ele>1407</ele>
        <time>2016-08-04T08:48:58Z</time>
      </trkpt>
      <trkpt lat="45.70427" lon="6.26147">
        <ele>1407</ele>
        <time>2016-08-04T08:49:03Z</time>
      </trkpt>
      <trkpt lat="45.70427" lon="6.26139">
        <ele>1407</ele>
        <time>2016-08-04T08:49:08Z</time>
      </trkpt>
      <trkpt lat="45.70419" lon="6.26145">
        <ele>1408</ele>
        <time>2016-08-04T08:49:13Z</time>
      </trkpt>
      <trkpt lat="45.70416" lon="6.2614">
        <ele>1408</ele>
        <time>2016-08-04T08:49:18Z</time>
      </trkpt>
      <trkpt lat="45.70411" lon="6.26139">
        <ele>1409</ele>
        <time>2016-08-04T08:49:25Z</time>
      </trkpt>
      <trkpt lat="45.70405" lon="6.26137">
        <ele>1411</ele>
        <time>2016-08-04T08:49:33Z</time>
      </trkpt>
      <trkpt lat="45.70401" lon="6.2614">
        <ele>1414</ele>
        <time>2016-08-04T08:49:39Z</time>
      </trkpt>
      <trkpt lat="45.70393" lon="6.26139">
        <ele>1415</ele>
        <time>2016-08-04T08:49:44Z</time>
      </trkpt>
      <trkpt lat="45.70392" lon="6.26129">
        <ele>1416</ele>
        <time>2016-08-04T08:49:50Z</time>
      </trkpt>
      <trkpt lat="45.70386" lon="6.26127">
        <ele>1417</ele>
        <time>2016-08-04T08:49:55Z</time>
      </trkpt>
      <trkpt lat="45.7038" lon="6.26127">
        <ele>1418</ele>
        <time>2016-08-04T08:50:00Z</time>
      </trkpt>
      <trkpt lat="45.70379" lon="6.2612">
        <ele>1420</ele>
        <time>2016-08-04T08:50:08Z</time>
      </trkpt>
      <trkpt lat="45.70374" lon="6.26118">
        <ele>1421</ele>
        <time>2016-08-04T08:50:14Z</time>
      </trkpt>
      <trkpt lat="45.70368" lon="6.26115">
        <ele>1423</ele>
        <time>2016-08-04T08:50:19Z</time>
      </trkpt>
      <trkpt lat="45.70358" lon="6.26115">
        <ele>1423</ele>
        <time>2016-08-04T08:50:24Z</time>
      </trkpt>
      <trkpt lat="45.70354" lon="6.26111">
        <ele>1423</ele>
        <time>2016-08-04T08:50:29Z</time>
      </trkpt>
      <trkpt lat="45.70351" lon="6.2611">
        <ele>1422</ele>
        <time>2016-08-04T08:50:51Z</time>
      </trkpt>
      <trkpt lat="45.70351" lon="6.2611">
        <ele>1422</ele>
        <time>2016-08-04T08:50:52Z</time>
      </trkpt>
      <trkpt lat="45.70346" lon="6.26106">
        <ele>1422</ele>
        <time>2016-08-04T08:50:58Z</time>
      </trkpt>
      <trkpt lat="45.7034" lon="6.26096">
        <ele>1423</ele>
        <time>2016-08-04T08:51:03Z</time>
      </trkpt>
      <trkpt lat="45.70333" lon="6.26096">
        <ele>1425</ele>
        <time>2016-08-04T08:51:08Z</time>
      </trkpt>
      <trkpt lat="45.70327" lon="6.26094">
        <ele>1427</ele>
        <time>2016-08-04T08:51:14Z</time>
      </trkpt>
      <trkpt lat="45.70322" lon="6.26091">
        <ele>1430</ele>
        <time>2016-08-04T08:51:20Z</time>
      </trkpt>
      <trkpt lat="45.70317" lon="6.26086">
        <ele>1432</ele>
        <time>2016-08-04T08:51:25Z</time>
      </trkpt>
      <trkpt lat="45.70319" lon="6.2608">
        <ele>1433</ele>
        <time>2016-08-04T08:51:39Z</time>
      </trkpt>
      <trkpt lat="45.70314" lon="6.26078">
        <ele>1435</ele>
        <time>2016-08-04T08:51:47Z</time>
      </trkpt>
      <trkpt lat="45.70308" lon="6.26077">
        <ele>1436</ele>
        <time>2016-08-04T08:51:52Z</time>
      </trkpt>
      <trkpt lat="45.70305" lon="6.26072">
        <ele>1436</ele>
        <time>2016-08-04T08:51:57Z</time>
      </trkpt>
      <trkpt lat="45.70299" lon="6.26071">
        <ele>1437</ele>
        <time>2016-08-04T08:52:03Z</time>
      </trkpt>
      <trkpt lat="45.70296" lon="6.26065">
        <ele>1439</ele>
        <time>2016-08-04T08:52:14Z</time>
      </trkpt>
      <trkpt lat="45.70289" lon="6.2606">
        <ele>1440</ele>
        <time>2016-08-04T08:52:19Z</time>
      </trkpt>
      <trkpt lat="45.70285" lon="6.26054">
        <ele>1440</ele>
        <time>2016-08-04T08:52:30Z</time>
      </trkpt>
      <trkpt lat="45.70281" lon="6.2605">
        <ele>1442</ele>
        <time>2016-08-04T08:52:35Z</time>
      </trkpt>
      <trkpt lat="45.70276" lon="6.26046">
        <ele>1443</ele>
        <time>2016-08-04T08:52:40Z</time>
      </trkpt>
      <trkpt lat="45.70272" lon="6.26042">
        <ele>1443</ele>
        <time>2016-08-04T08:52:45Z</time>
      </trkpt>
      <trkpt lat="45.70267" lon="6.2604">
        <ele>1444</ele>
        <time>2016-08-04T08:52:50Z</time>
      </trkpt>
      <trkpt lat="45.70261" lon="6.26039">
        <ele>1444</ele>
        <time>2016-08-04T08:52:55Z</time>
      </trkpt>
      <trkpt lat="45.70256" lon="6.26038">
        <ele>1444</ele>
        <time>2016-08-04T08:53:00Z</time>
      </trkpt>
      <trkpt lat="45.70252" lon="6.26032">
        <ele>1444</ele>
        <time>2016-08-04T08:53:05Z</time>
      </trkpt>
      <trkpt lat="45.70248" lon="6.26029">
        <ele>1444</ele>
        <time>2016-08-04T08:53:10Z</time>
      </trkpt>
      <trkpt lat="45.70242" lon="6.26027">
        <ele>1444</ele>
        <time>2016-08-04T08:53:15Z</time>
      </trkpt>
      <trkpt lat="45.70237" lon="6.26025">
        <ele>1444</ele>
        <time>2016-08-04T08:53:20Z</time>
      </trkpt>
      <trkpt lat="45.70233" lon="6.26021">
        <ele>1445</ele>
        <time>2016-08-04T08:53:29Z</time>
      </trkpt>
      <trkpt lat="45.70229" lon="6.26015">
        <ele>1446</ele>
        <time>2016-08-04T08:53:34Z</time>
      </trkpt>
      <trkpt lat="45.70226" lon="6.26011">
        <ele>1449</ele>
        <time>2016-08-04T08:53:44Z</time>
      </trkpt>
      <trkpt lat="45.70221" lon="6.2601">
        <ele>1452</ele>
        <time>2016-08-04T08:53:49Z</time>
      </trkpt>
      <trkpt lat="45.70219" lon="6.26016">
        <ele>1456</ele>
        <time>2016-08-04T08:54:04Z</time>
      </trkpt>
      <trkpt lat="45.70216" lon="6.26012">
        <ele>1459</ele>
        <time>2016-08-04T08:54:12Z</time>
      </trkpt>
      <trkpt lat="45.7021" lon="6.26006">
        <ele>1461</ele>
        <time>2016-08-04T08:54:17Z</time>
      </trkpt>
      <trkpt lat="45.70206" lon="6.26">
        <ele>1462</ele>
        <time>2016-08-04T08:54:22Z</time>
      </trkpt>
      <trkpt lat="45.70204" lon="6.25993">
        <ele>1463</ele>
        <time>2016-08-04T08:54:27Z</time>
      </trkpt>
      <trkpt lat="45.70205" lon="6.25986">
        <ele>1463</ele>
        <time>2016-08-04T08:54:33Z</time>
      </trkpt>
      <trkpt lat="45.702" lon="6.25982">
        <ele>1464</ele>
        <time>2016-08-04T08:54:38Z</time>
      </trkpt>
      <trkpt lat="45.70195" lon="6.25982">
        <ele>1465</ele>
        <time>2016-08-04T08:54:43Z</time>
      </trkpt>
      <trkpt lat="45.70192" lon="6.25977">
        <ele>1466</ele>
        <time>2016-08-04T08:54:50Z</time>
      </trkpt>
      <trkpt lat="45.70196" lon="6.25972">
        <ele>1467</ele>
        <time>2016-08-04T08:54:57Z</time>
      </trkpt>
      <trkpt lat="45.702" lon="6.25972">
        <ele>1469</ele>
        <time>2016-08-04T08:55:19Z</time>
      </trkpt>
      <trkpt lat="45.70205" lon="6.25972">
        <ele>1470</ele>
        <time>2016-08-04T08:55:27Z</time>
      </trkpt>
      <trkpt lat="45.70214" lon="6.25967">
        <ele>1471</ele>
        <time>2016-08-04T08:55:32Z</time>
      </trkpt>
      <trkpt lat="45.7022" lon="6.25964">
        <ele>1473</ele>
        <time>2016-08-04T08:55:37Z</time>
      </trkpt>
      <trkpt lat="45.70221" lon="6.25957">
        <ele>1474</ele>
        <time>2016-08-04T08:55:43Z</time>
      </trkpt>
      <trkpt lat="45.70221" lon="6.25951">
        <ele>1474</ele>
        <time>2016-08-04T08:55:51Z</time>
      </trkpt>
      <trkpt lat="45.70219" lon="6.25942">
        <ele>1473</ele>
        <time>2016-08-04T08:56:04Z</time>
      </trkpt>
      <trkpt lat="45.70219" lon="6.25935">
        <ele>1473</ele>
        <time>2016-08-04T08:56:10Z</time>
      </trkpt>
      <trkpt lat="45.70214" lon="6.25936">
        <ele>1472</ele>
        <time>2016-08-04T08:56:15Z</time>
      </trkpt>
      <trkpt lat="45.70213" lon="6.25929">
        <ele>1473</ele>
        <time>2016-08-04T08:56:27Z</time>
      </trkpt>
      <trkpt lat="45.7021" lon="6.25923">
        <ele>1476</ele>
        <time>2016-08-04T08:56:33Z</time>
      </trkpt>
      <trkpt lat="45.70207" lon="6.2592">
        <ele>1479</ele>
        <time>2016-08-04T08:56:39Z</time>
      </trkpt>
      <trkpt lat="45.702" lon="6.25919">
        <ele>1484</ele>
        <time>2016-08-04T08:56:44Z</time>
      </trkpt>
      <trkpt lat="45.70195" lon="6.25919">
        <ele>1488</ele>
        <time>2016-08-04T08:56:49Z</time>
      </trkpt>
      <trkpt lat="45.70189" lon="6.25916">
        <ele>1491</ele>
        <time>2016-08-04T08:56:54Z</time>
      </trkpt>
      <trkpt lat="45.70181" lon="6.25914">
        <ele>1493</ele>
        <time>2016-08-04T08:56:59Z</time>
      </trkpt>
      <trkpt lat="45.70176" lon="6.25907">
        <ele>1494</ele>
        <time>2016-08-04T08:57:05Z</time>
      </trkpt>
      <trkpt lat="45.7017" lon="6.25908">
        <ele>1495</ele>
        <time>2016-08-04T08:57:10Z</time>
      </trkpt>
      <trkpt lat="45.70164" lon="6.25905">
        <ele>1496</ele>
        <time>2016-08-04T08:57:15Z</time>
      </trkpt>
      <trkpt lat="45.70158" lon="6.25908">
        <ele>1497</ele>
        <time>2016-08-04T08:57:20Z</time>
      </trkpt>
      <trkpt lat="45.70149" lon="6.25901">
        <ele>1497</ele>
        <time>2016-08-04T08:57:25Z</time>
      </trkpt>
      <trkpt lat="45.70144" lon="6.25901">
        <ele>1498</ele>
        <time>2016-08-04T08:57:30Z</time>
      </trkpt>
      <trkpt lat="45.70137" lon="6.25901">
        <ele>1499</ele>
        <time>2016-08-04T08:57:35Z</time>
      </trkpt>
      <trkpt lat="45.70133" lon="6.25896">
        <ele>1500</ele>
        <time>2016-08-04T08:57:40Z</time>
      </trkpt>
      <trkpt lat="45.70126" lon="6.25891">
        <ele>1500</ele>
        <time>2016-08-04T08:57:45Z</time>
      </trkpt>
      <trkpt lat="45.70121" lon="6.2589">
        <ele>1500</ele>
        <time>2016-08-04T08:58:06Z</time>
      </trkpt>
      <trkpt lat="45.70122" lon="6.25884">
        <ele>1500</ele>
        <time>2016-08-04T08:58:16Z</time>
      </trkpt>
      <trkpt lat="45.70118" lon="6.25879">
        <ele>1500</ele>
        <time>2016-08-04T08:58:21Z</time>
      </trkpt>
      <trkpt lat="45.70113" lon="6.25877">
        <ele>1501</ele>
        <time>2016-08-04T08:58:26Z</time>
      </trkpt>
      <trkpt lat="45.70112" lon="6.25876">
        <ele>1502</ele>
        <time>2016-08-04T08:58:51Z</time>
      </trkpt>
      <trkpt lat="45.70112" lon="6.25876">
        <ele>1503</ele>
        <time>2016-08-04T08:58:52Z</time>
      </trkpt>
      <trkpt lat="45.70108" lon="6.25873">
        <ele>1505</ele>
        <time>2016-08-04T08:59:06Z</time>
      </trkpt>
      <trkpt lat="45.70103" lon="6.25871">
        <ele>1506</ele>
        <time>2016-08-04T08:59:12Z</time>
      </trkpt>
      <trkpt lat="45.70099" lon="6.25865">
        <ele>1507</ele>
        <time>2016-08-04T08:59:17Z</time>
      </trkpt>
      <trkpt lat="45.70097" lon="6.25858">
        <ele>1507</ele>
        <time>2016-08-04T08:59:22Z</time>
      </trkpt>
      <trkpt lat="45.70092" lon="6.25856">
        <ele>1508</ele>
        <time>2016-08-04T08:59:28Z</time>
      </trkpt>
      <trkpt lat="45.70088" lon="6.25851">
        <ele>1508</ele>
        <time>2016-08-04T08:59:33Z</time>
      </trkpt>
      <trkpt lat="45.70084" lon="6.25848">
        <ele>1507</ele>
        <time>2016-08-04T08:59:39Z</time>
      </trkpt>
      <trkpt lat="45.70082" lon="6.25841">
        <ele>1507</ele>
        <time>2016-08-04T08:59:44Z</time>
      </trkpt>
      <trkpt lat="45.70079" lon="6.25834">
        <ele>1507</ele>
        <time>2016-08-04T08:59:50Z</time>
      </trkpt>
      <trkpt lat="45.70075" lon="6.2583">
        <ele>1508</ele>
        <time>2016-08-04T08:59:56Z</time>
      </trkpt>
      <trkpt lat="45.70071" lon="6.25824">
        <ele>1510</ele>
        <time>2016-08-04T09:00:03Z</time>
      </trkpt>
      <trkpt lat="45.70071" lon="6.25817">
        <ele>1512</ele>
        <time>2016-08-04T09:00:08Z</time>
      </trkpt>
      <trkpt lat="45.7007" lon="6.25812">
        <ele>1514</ele>
        <time>2016-08-04T09:00:36Z</time>
      </trkpt>
      <trkpt lat="45.7007" lon="6.25812">
        <ele>1515</ele>
        <time>2016-08-04T09:00:37Z</time>
      </trkpt>
      <trkpt lat="45.7007" lon="6.25812">
        <ele>1516</ele>
        <time>2016-08-04T09:01:06Z</time>
      </trkpt>
      <trkpt lat="45.7007" lon="6.25812">
        <ele>1517</ele>
        <time>2016-08-04T09:01:07Z</time>
      </trkpt>
      <trkpt lat="45.7007" lon="6.25812">
        <ele>1518</ele>
        <time>2016-08-04T09:01:36Z</time>
      </trkpt>
      <trkpt lat="45.7007" lon="6.25812">
        <ele>1518</ele>
        <time>2016-08-04T09:01:37Z</time>
      </trkpt>
      <trkpt lat="45.70065" lon="6.25808">
        <ele>1517</ele>
        <time>2016-08-04T09:01:58Z</time>
      </trkpt>
      <trkpt lat="45.70054" lon="6.25789">
        <ele>1517</ele>
        <time>2016-08-04T09:02:03Z</time>
      </trkpt>
      <trkpt lat="45.70048" lon="6.25779">
        <ele>1516</ele>
        <time>2016-08-04T09:02:08Z</time>
      </trkpt>
      <trkpt lat="45.70048" lon="6.2577">
        <ele>1516</ele>
        <time>2016-08-04T09:02:13Z</time>
      </trkpt>
      <trkpt lat="45.70046" lon="6.25768">
        <ele>1518</ele>
        <time>2016-08-04T09:02:36Z</time>
      </trkpt>
      <trkpt lat="45.70046" lon="6.25768">
        <ele>1521</ele>
        <time>2016-08-04T09:02:37Z</time>
      </trkpt>
      <trkpt lat="45.70044" lon="6.25762">
        <ele>1525</ele>
        <time>2016-08-04T09:02:44Z</time>
      </trkpt>
      <trkpt lat="45.7004" lon="6.25757">
        <ele>1529</ele>
        <time>2016-08-04T09:02:49Z</time>
      </trkpt>
      <trkpt lat="45.70034" lon="6.25754">
        <ele>1533</ele>
        <time>2016-08-04T09:02:54Z</time>
      </trkpt>
      <trkpt lat="45.70031" lon="6.25749">
        <ele>1535</ele>
        <time>2016-08-04T09:03:02Z</time>
      </trkpt>
      <trkpt lat="45.70027" lon="6.25745">
        <ele>1538</ele>
        <time>2016-08-04T09:03:08Z</time>
      </trkpt>
      <trkpt lat="45.70025" lon="6.25738">
        <ele>1540</ele>
        <time>2016-08-04T09:03:15Z</time>
      </trkpt>
      <trkpt lat="45.70021" lon="6.25733">
        <ele>1542</ele>
        <time>2016-08-04T09:03:20Z</time>
      </trkpt>
      <trkpt lat="45.70017" lon="6.2573">
        <ele>1543</ele>
        <time>2016-08-04T09:03:25Z</time>
      </trkpt>
      <trkpt lat="45.70011" lon="6.25725">
        <ele>1542</ele>
        <time>2016-08-04T09:03:31Z</time>
      </trkpt>
      <trkpt lat="45.70009" lon="6.25727">
        <ele>1541</ele>
        <time>2016-08-04T09:03:51Z</time>
      </trkpt>
      <trkpt lat="45.70009" lon="6.25727">
        <ele>1539</ele>
        <time>2016-08-04T09:03:52Z</time>
      </trkpt>
      <trkpt lat="45.70005" lon="6.25721">
        <ele>1538</ele>
        <time>2016-08-04T09:04:15Z</time>
      </trkpt>
      <trkpt lat="45.70001" lon="6.25716">
        <ele>1537</ele>
        <time>2016-08-04T09:04:20Z</time>
      </trkpt>
      <trkpt lat="45.69996" lon="6.25714">
        <ele>1537</ele>
        <time>2016-08-04T09:04:28Z</time>
      </trkpt>
      <trkpt lat="45.69992" lon="6.25709">
        <ele>1539</ele>
        <time>2016-08-04T09:04:35Z</time>
      </trkpt>
      <trkpt lat="45.69988" lon="6.25707">
        <ele>1542</ele>
        <time>2016-08-04T09:04:40Z</time>
      </trkpt>
      <trkpt lat="45.69983" lon="6.25706">
        <ele>1544</ele>
        <time>2016-08-04T09:04:48Z</time>
      </trkpt>
      <trkpt lat="45.69982" lon="6.25702">
        <ele>1548</ele>
        <time>2016-08-04T09:05:06Z</time>
      </trkpt>
      <trkpt lat="45.69983" lon="6.25701">
        <ele>1550</ele>
        <time>2016-08-04T09:05:07Z</time>
      </trkpt>
      <trkpt lat="45.69978" lon="6.25698">
        <ele>1551</ele>
        <time>2016-08-04T09:05:17Z</time>
      </trkpt>
      <trkpt lat="45.69972" lon="6.25696">
        <ele>1552</ele>
        <time>2016-08-04T09:05:23Z</time>
      </trkpt>
      <trkpt lat="45.69967" lon="6.25694">
        <ele>1554</ele>
        <time>2016-08-04T09:05:28Z</time>
      </trkpt>
      <trkpt lat="45.69963" lon="6.25692">
        <ele>1554</ele>
        <time>2016-08-04T09:05:34Z</time>
      </trkpt>
      <trkpt lat="45.69958" lon="6.2569">
        <ele>1554</ele>
        <time>2016-08-04T09:05:41Z</time>
      </trkpt>
      <trkpt lat="45.69953" lon="6.25688">
        <ele>1555</ele>
        <time>2016-08-04T09:05:46Z</time>
      </trkpt>
      <trkpt lat="45.69948" lon="6.25686">
        <ele>1555</ele>
        <time>2016-08-04T09:05:52Z</time>
      </trkpt>
      <trkpt lat="45.69943" lon="6.25687">
        <ele>1555</ele>
        <time>2016-08-04T09:05:57Z</time>
      </trkpt>
      <trkpt lat="45.69939" lon="6.25684">
        <ele>1556</ele>
        <time>2016-08-04T09:06:06Z</time>
      </trkpt>
      <trkpt lat="45.69934" lon="6.25682">
        <ele>1557</ele>
        <time>2016-08-04T09:06:11Z</time>
      </trkpt>
      <trkpt lat="45.69929" lon="6.25679">
        <ele>1515</ele>
        <time>2016-08-04T09:06:18Z</time>
      </trkpt>
      <trkpt lat="45.69924" lon="6.25678">
        <ele>1513</ele>
        <time>2016-08-04T09:06:27Z</time>
      </trkpt>
      <trkpt lat="45.6992" lon="6.25675">
        <ele>1512</ele>
        <time>2016-08-04T09:06:32Z</time>
      </trkpt>
      <trkpt lat="45.69914" lon="6.25675">
        <ele>1512</ele>
        <time>2016-08-04T09:06:37Z</time>
      </trkpt>
      <trkpt lat="45.6991" lon="6.25673">
        <ele>1513</ele>
        <time>2016-08-04T09:06:43Z</time>
      </trkpt>
      <trkpt lat="45.69906" lon="6.25668">
        <ele>1556</ele>
        <time>2016-08-04T09:06:49Z</time>
      </trkpt>
      <trkpt lat="45.69901" lon="6.25664">
        <ele>1560</ele>
        <time>2016-08-04T09:06:56Z</time>
      </trkpt>
      <trkpt lat="45.69898" lon="6.25659">
        <ele>1562</ele>
        <time>2016-08-04T09:07:02Z</time>
      </trkpt>
      <trkpt lat="45.69896" lon="6.25653">
        <ele>1564</ele>
        <time>2016-08-04T09:07:08Z</time>
      </trkpt>
      <trkpt lat="45.69898" lon="6.25648">
        <ele>1566</ele>
        <time>2016-08-04T09:07:35Z</time>
      </trkpt>
      <trkpt lat="45.69902" lon="6.25642">
        <ele>1567</ele>
        <time>2016-08-04T09:07:40Z</time>
      </trkpt>
      <trkpt lat="45.69907" lon="6.25637">
        <ele>1568</ele>
        <time>2016-08-04T09:07:45Z</time>
      </trkpt>
      <trkpt lat="45.69912" lon="6.25632">
        <ele>1569</ele>
        <time>2016-08-04T09:07:50Z</time>
      </trkpt>
      <trkpt lat="45.69917" lon="6.25627">
        <ele>1570</ele>
        <time>2016-08-04T09:07:55Z</time>
      </trkpt>
      <trkpt lat="45.6992" lon="6.25621">
        <ele>1571</ele>
        <time>2016-08-04T09:08:00Z</time>
      </trkpt>
      <trkpt lat="45.69924" lon="6.25613">
        <ele>1572</ele>
        <time>2016-08-04T09:08:05Z</time>
      </trkpt>
      <trkpt lat="45.69927" lon="6.25608">
        <ele>1573</ele>
        <time>2016-08-04T09:08:10Z</time>
      </trkpt>
      <trkpt lat="45.69926" lon="6.256">
        <ele>1574</ele>
        <time>2016-08-04T09:08:15Z</time>
      </trkpt>
      <trkpt lat="45.6992" lon="6.25596">
        <ele>1576</ele>
        <time>2016-08-04T09:08:20Z</time>
      </trkpt>
      <trkpt lat="45.69916" lon="6.25592">
        <ele>1578</ele>
        <time>2016-08-04T09:08:25Z</time>
      </trkpt>
      <trkpt lat="45.6991" lon="6.25588">
        <ele>1581</ele>
        <time>2016-08-04T09:08:30Z</time>
      </trkpt>
      <trkpt lat="45.69905" lon="6.25585">
        <ele>1583</ele>
        <time>2016-08-04T09:08:35Z</time>
      </trkpt>
      <trkpt lat="45.69899" lon="6.25581">
        <ele>1584</ele>
        <time>2016-08-04T09:08:40Z</time>
      </trkpt>
      <trkpt lat="45.69894" lon="6.25577">
        <ele>1586</ele>
        <time>2016-08-04T09:08:45Z</time>
      </trkpt>
      <trkpt lat="45.6989" lon="6.25572">
        <ele>1587</ele>
        <time>2016-08-04T09:08:50Z</time>
      </trkpt>
      <trkpt lat="45.69886" lon="6.25568">
        <ele>1587</ele>
        <time>2016-08-04T09:08:55Z</time>
      </trkpt>
      <trkpt lat="45.69882" lon="6.25562">
        <ele>1588</ele>
        <time>2016-08-04T09:09:00Z</time>
      </trkpt>
      <trkpt lat="45.69878" lon="6.25558">
        <ele>1588</ele>
        <time>2016-08-04T09:09:05Z</time>
      </trkpt>
      <trkpt lat="45.69874" lon="6.25552">
        <ele>1589</ele>
        <time>2016-08-04T09:09:10Z</time>
      </trkpt>
      <trkpt lat="45.6987" lon="6.25546">
        <ele>1590</ele>
        <time>2016-08-04T09:09:15Z</time>
      </trkpt>
      <trkpt lat="45.69865" lon="6.25542">
        <ele>1590</ele>
        <time>2016-08-04T09:09:20Z</time>
      </trkpt>
      <trkpt lat="45.69861" lon="6.25537">
        <ele>1591</ele>
        <time>2016-08-04T09:09:25Z</time>
      </trkpt>
      <trkpt lat="45.69856" lon="6.25532">
        <ele>1592</ele>
        <time>2016-08-04T09:09:30Z</time>
      </trkpt>
      <trkpt lat="45.69851" lon="6.25528">
        <ele>1593</ele>
        <time>2016-08-04T09:09:36Z</time>
      </trkpt>
      <trkpt lat="45.69849" lon="6.25523">
        <ele>1594</ele>
        <time>2016-08-04T09:09:41Z</time>
      </trkpt>
      <trkpt lat="45.69844" lon="6.25519">
        <ele>1595</ele>
        <time>2016-08-04T09:09:46Z</time>
      </trkpt>
      <trkpt lat="45.69841" lon="6.25515">
        <ele>1595</ele>
        <time>2016-08-04T09:09:51Z</time>
      </trkpt>
      <trkpt lat="45.69834" lon="6.2551">
        <ele>1596</ele>
        <time>2016-08-04T09:09:56Z</time>
      </trkpt>
      <trkpt lat="45.69828" lon="6.25507">
        <ele>1597</ele>
        <time>2016-08-04T09:10:01Z</time>
      </trkpt>
      <trkpt lat="45.69823" lon="6.25503">
        <ele>1598</ele>
        <time>2016-08-04T09:10:06Z</time>
      </trkpt>
      <trkpt lat="45.69817" lon="6.25499">
        <ele>1599</ele>
        <time>2016-08-04T09:10:11Z</time>
      </trkpt>
      <trkpt lat="45.69813" lon="6.25492">
        <ele>1600</ele>
        <time>2016-08-04T09:10:16Z</time>
      </trkpt>
      <trkpt lat="45.69807" lon="6.25488">
        <ele>1602</ele>
        <time>2016-08-04T09:10:21Z</time>
      </trkpt>
      <trkpt lat="45.69803" lon="6.25481">
        <ele>1603</ele>
        <time>2016-08-04T09:10:26Z</time>
      </trkpt>
      <trkpt lat="45.69802" lon="6.25474">
        <ele>1604</ele>
        <time>2016-08-04T09:10:32Z</time>
      </trkpt>
      <trkpt lat="45.69805" lon="6.25468">
        <ele>1605</ele>
        <time>2016-08-04T09:10:37Z</time>
      </trkpt>
      <trkpt lat="45.69809" lon="6.25464">
        <ele>1605</ele>
        <time>2016-08-04T09:10:43Z</time>
      </trkpt>
      <trkpt lat="45.69813" lon="6.25461">
        <ele>1605</ele>
        <time>2016-08-04T09:10:48Z</time>
      </trkpt>
      <trkpt lat="45.69818" lon="6.25458">
        <ele>1605</ele>
        <time>2016-08-04T09:10:53Z</time>
      </trkpt>
      <trkpt lat="45.69824" lon="6.25457">
        <ele>1606</ele>
        <time>2016-08-04T09:10:58Z</time>
      </trkpt>
      <trkpt lat="45.69829" lon="6.25453">
        <ele>1606</ele>
        <time>2016-08-04T09:11:03Z</time>
      </trkpt>
      <trkpt lat="45.69834" lon="6.25446">
        <ele>1607</ele>
        <time>2016-08-04T09:11:08Z</time>
      </trkpt>
      <trkpt lat="45.69839" lon="6.25441">
        <ele>1607</ele>
        <time>2016-08-04T09:11:13Z</time>
      </trkpt>
      <trkpt lat="45.69843" lon="6.25438">
        <ele>1608</ele>
        <time>2016-08-04T09:11:18Z</time>
      </trkpt>
      <trkpt lat="45.69846" lon="6.25432">
        <ele>1608</ele>
        <time>2016-08-04T09:11:23Z</time>
      </trkpt>
      <trkpt lat="45.69851" lon="6.25428">
        <ele>1608</ele>
        <time>2016-08-04T09:11:28Z</time>
      </trkpt>
      <trkpt lat="45.69859" lon="6.25431">
        <ele>1609</ele>
        <time>2016-08-04T09:11:33Z</time>
      </trkpt>
      <trkpt lat="45.69866" lon="6.25431">
        <ele>1611</ele>
        <time>2016-08-04T09:11:38Z</time>
      </trkpt>
      <trkpt lat="45.69873" lon="6.25429">
        <ele>1614</ele>
        <time>2016-08-04T09:11:43Z</time>
      </trkpt>
      <trkpt lat="45.69881" lon="6.25427">
        <ele>1617</ele>
        <time>2016-08-04T09:11:48Z</time>
      </trkpt>
      <trkpt lat="45.69888" lon="6.25424">
        <ele>1619</ele>
        <time>2016-08-04T09:11:53Z</time>
      </trkpt>
      <trkpt lat="45.69894" lon="6.25422">
        <ele>1621</ele>
        <time>2016-08-04T09:11:58Z</time>
      </trkpt>
      <trkpt lat="45.69901" lon="6.25422">
        <ele>1622</ele>
        <time>2016-08-04T09:12:03Z</time>
      </trkpt>
      <trkpt lat="45.69909" lon="6.25422">
        <ele>1623</ele>
        <time>2016-08-04T09:12:08Z</time>
      </trkpt>
      <trkpt lat="45.69919" lon="6.25419">
        <ele>1624</ele>
        <time>2016-08-04T09:12:13Z</time>
      </trkpt>
      <trkpt lat="45.69927" lon="6.25418">
        <ele>1625</ele>
        <time>2016-08-04T09:12:18Z</time>
      </trkpt>
      <trkpt lat="45.69934" lon="6.25416">
        <ele>1589</ele>
        <time>2016-08-04T09:12:24Z</time>
      </trkpt>
      <trkpt lat="45.69938" lon="6.25406">
        <ele>1583</ele>
        <time>2016-08-04T09:12:29Z</time>
      </trkpt>
      <trkpt lat="45.69939" lon="6.25398">
        <ele>1583</ele>
        <time>2016-08-04T09:12:34Z</time>
      </trkpt>
      <trkpt lat="45.69937" lon="6.2539">
        <ele>1584</ele>
        <time>2016-08-04T09:12:39Z</time>
      </trkpt>
      <trkpt lat="45.69933" lon="6.25383">
        <ele>1585</ele>
        <time>2016-08-04T09:12:44Z</time>
      </trkpt>
      <trkpt lat="45.69928" lon="6.25377">
        <ele>1623</ele>
        <time>2016-08-04T09:12:49Z</time>
      </trkpt>
      <trkpt lat="45.69919" lon="6.25374">
        <ele>1630</ele>
        <time>2016-08-04T09:12:54Z</time>
      </trkpt>
      <trkpt lat="45.69914" lon="6.25374">
        <ele>1632</ele>
        <time>2016-08-04T09:12:59Z</time>
      </trkpt>
      <trkpt lat="45.69909" lon="6.25374">
        <ele>1632</ele>
        <time>2016-08-04T09:13:04Z</time>
      </trkpt>
      <trkpt lat="45.69899" lon="6.25372">
        <ele>1632</ele>
        <time>2016-08-04T09:13:09Z</time>
      </trkpt>
      <trkpt lat="45.69893" lon="6.2537">
        <ele>1632</ele>
        <time>2016-08-04T09:13:14Z</time>
      </trkpt>
      <trkpt lat="45.69888" lon="6.25365">
        <ele>1632</ele>
        <time>2016-08-04T09:13:19Z</time>
      </trkpt>
      <trkpt lat="45.69882" lon="6.25362">
        <ele>1632</ele>
        <time>2016-08-04T09:13:24Z</time>
      </trkpt>
      <trkpt lat="45.69876" lon="6.25356">
        <ele>1633</ele>
        <time>2016-08-04T09:13:29Z</time>
      </trkpt>
      <trkpt lat="45.69869" lon="6.25349">
        <ele>1634</ele>
        <time>2016-08-04T09:13:34Z</time>
      </trkpt>
      <trkpt lat="45.69864" lon="6.25343">
        <ele>1636</ele>
        <time>2016-08-04T09:13:41Z</time>
      </trkpt>
      <trkpt lat="45.6986" lon="6.25339">
        <ele>1637</ele>
        <time>2016-08-04T09:13:46Z</time>
      </trkpt>
      <trkpt lat="45.69856" lon="6.25332">
        <ele>1639</ele>
        <time>2016-08-04T09:13:52Z</time>
      </trkpt>
      <trkpt lat="45.69852" lon="6.25327">
        <ele>1641</ele>
        <time>2016-08-04T09:13:57Z</time>
      </trkpt>
      <trkpt lat="45.69848" lon="6.25322">
        <ele>1644</ele>
        <time>2016-08-04T09:14:02Z</time>
      </trkpt>
      <trkpt lat="45.69843" lon="6.25316">
        <ele>1647</ele>
        <time>2016-08-04T09:14:09Z</time>
      </trkpt>
      <trkpt lat="45.69839" lon="6.25312">
        <ele>1650</ele>
        <time>2016-08-04T09:14:14Z</time>
      </trkpt>
      <trkpt lat="45.69834" lon="6.25307">
        <ele>1652</ele>
        <time>2016-08-04T09:14:19Z</time>
      </trkpt>
      <trkpt lat="45.69827" lon="6.25302">
        <ele>1654</ele>
        <time>2016-08-04T09:14:24Z</time>
      </trkpt>
      <trkpt lat="45.69822" lon="6.253">
        <ele>1655</ele>
        <time>2016-08-04T09:14:29Z</time>
      </trkpt>
      <trkpt lat="45.69817" lon="6.25295">
        <ele>1656</ele>
        <time>2016-08-04T09:14:35Z</time>
      </trkpt>
      <trkpt lat="45.69812" lon="6.25292">
        <ele>1656</ele>
        <time>2016-08-04T09:14:40Z</time>
      </trkpt>
      <trkpt lat="45.69805" lon="6.25288">
        <ele>1657</ele>
        <time>2016-08-04T09:14:45Z</time>
      </trkpt>
      <trkpt lat="45.698" lon="6.25285">
        <ele>1658</ele>
        <time>2016-08-04T09:14:50Z</time>
      </trkpt>
      <trkpt lat="45.69795" lon="6.25281">
        <ele>1660</ele>
        <time>2016-08-04T09:14:56Z</time>
      </trkpt>
      <trkpt lat="45.69789" lon="6.25276">
        <ele>1662</ele>
        <time>2016-08-04T09:15:01Z</time>
      </trkpt>
      <trkpt lat="45.69783" lon="6.25272">
        <ele>1664</ele>
        <time>2016-08-04T09:15:06Z</time>
      </trkpt>
      <trkpt lat="45.6978" lon="6.25265">
        <ele>1665</ele>
        <time>2016-08-04T09:15:11Z</time>
      </trkpt>
      <trkpt lat="45.69777" lon="6.25258">
        <ele>1666</ele>
        <time>2016-08-04T09:15:16Z</time>
      </trkpt>
      <trkpt lat="45.69773" lon="6.25252">
        <ele>1667</ele>
        <time>2016-08-04T09:15:21Z</time>
      </trkpt>
      <trkpt lat="45.69767" lon="6.25246">
        <ele>1667</ele>
        <time>2016-08-04T09:15:26Z</time>
      </trkpt>
      <trkpt lat="45.69763" lon="6.25239">
        <ele>1667</ele>
        <time>2016-08-04T09:15:31Z</time>
      </trkpt>
      <trkpt lat="45.69759" lon="6.25234">
        <ele>1667</ele>
        <time>2016-08-04T09:15:36Z</time>
      </trkpt>
      <trkpt lat="45.69754" lon="6.25227">
        <ele>1668</ele>
        <time>2016-08-04T09:15:41Z</time>
      </trkpt>
      <trkpt lat="45.6975" lon="6.2522">
        <ele>1669</ele>
        <time>2016-08-04T09:15:46Z</time>
      </trkpt>
      <trkpt lat="45.69745" lon="6.25214">
        <ele>1670</ele>
        <time>2016-08-04T09:15:51Z</time>
      </trkpt>
      <trkpt lat="45.69744" lon="6.25208">
        <ele>1672</ele>
        <time>2016-08-04T09:15:56Z</time>
      </trkpt>
      <trkpt lat="45.69738" lon="6.25202">
        <ele>1674</ele>
        <time>2016-08-04T09:16:01Z</time>
      </trkpt>
      <trkpt lat="45.69733" lon="6.25196">
        <ele>1675</ele>
        <time>2016-08-04T09:16:06Z</time>
      </trkpt>
      <trkpt lat="45.69729" lon="6.2519">
        <ele>1676</ele>
        <time>2016-08-04T09:16:11Z</time>
      </trkpt>
      <trkpt lat="45.69725" lon="6.25182">
        <ele>1678</ele>
        <time>2016-08-04T09:16:16Z</time>
      </trkpt>
      <trkpt lat="45.69719" lon="6.25177">
        <ele>1677</ele>
        <time>2016-08-04T09:16:21Z</time>
      </trkpt>
      <trkpt lat="45.69712" lon="6.25173">
        <ele>1677</ele>
        <time>2016-08-04T09:16:26Z</time>
      </trkpt>
      <trkpt lat="45.69706" lon="6.25171">
        <ele>1678</ele>
        <time>2016-08-04T09:16:31Z</time>
      </trkpt>
      <trkpt lat="45.69699" lon="6.25176">
        <ele>1678</ele>
        <time>2016-08-04T09:16:36Z</time>
      </trkpt>
      <trkpt lat="45.69693" lon="6.25182">
        <ele>1679</ele>
        <time>2016-08-04T09:16:41Z</time>
      </trkpt>
      <trkpt lat="45.69686" lon="6.25184">
        <ele>1681</ele>
        <time>2016-08-04T09:16:46Z</time>
      </trkpt>
      <trkpt lat="45.69681" lon="6.25186">
        <ele>1683</ele>
        <time>2016-08-04T09:16:51Z</time>
      </trkpt>
      <trkpt lat="45.69674" lon="6.25187">
        <ele>1685</ele>
        <time>2016-08-04T09:16:56Z</time>
      </trkpt>
      <trkpt lat="45.69669" lon="6.25191">
        <ele>1687</ele>
        <time>2016-08-04T09:17:01Z</time>
      </trkpt>
      <trkpt lat="45.69664" lon="6.25193">
        <ele>1689</ele>
        <time>2016-08-04T09:17:06Z</time>
      </trkpt>
      <trkpt lat="45.69657" lon="6.2519">
        <ele>1691</ele>
        <time>2016-08-04T09:17:11Z</time>
      </trkpt>
      <trkpt lat="45.69651" lon="6.2519">
        <ele>1692</ele>
        <time>2016-08-04T09:17:16Z</time>
      </trkpt>
      <trkpt lat="45.69646" lon="6.25196">
        <ele>1693</ele>
        <time>2016-08-04T09:17:21Z</time>
      </trkpt>
      <trkpt lat="45.6964" lon="6.25196">
        <ele>1694</ele>
        <time>2016-08-04T09:17:26Z</time>
      </trkpt>
      <trkpt lat="45.69634" lon="6.25198">
        <ele>1695</ele>
        <time>2016-08-04T09:17:31Z</time>
      </trkpt>
      <trkpt lat="45.69629" lon="6.25201">
        <ele>1695</ele>
        <time>2016-08-04T09:17:36Z</time>
      </trkpt>
      <trkpt lat="45.69624" lon="6.25204">
        <ele>1696</ele>
        <time>2016-08-04T09:17:41Z</time>
      </trkpt>
      <trkpt lat="45.69618" lon="6.2521">
        <ele>1696</ele>
        <time>2016-08-04T09:17:46Z</time>
      </trkpt>
      <trkpt lat="45.69613" lon="6.25216">
        <ele>1697</ele>
        <time>2016-08-04T09:17:51Z</time>
      </trkpt>
      <trkpt lat="45.69608" lon="6.25223">
        <ele>1696</ele>
        <time>2016-08-04T09:17:56Z</time>
      </trkpt>
      <trkpt lat="45.69603" lon="6.25226">
        <ele>1696</ele>
        <time>2016-08-04T09:18:01Z</time>
      </trkpt>
      <trkpt lat="45.69598" lon="6.2523">
        <ele>1696</ele>
        <time>2016-08-04T09:18:06Z</time>
      </trkpt>
      <trkpt lat="45.69593" lon="6.25233">
        <ele>1696</ele>
        <time>2016-08-04T09:18:11Z</time>
      </trkpt>
      <trkpt lat="45.69589" lon="6.25235">
        <ele>1696</ele>
        <time>2016-08-04T09:18:16Z</time>
      </trkpt>
      <trkpt lat="45.69583" lon="6.25237">
        <ele>1697</ele>
        <time>2016-08-04T09:18:22Z</time>
      </trkpt>
      <trkpt lat="45.69577" lon="6.25238">
        <ele>1697</ele>
        <time>2016-08-04T09:18:27Z</time>
      </trkpt>
      <trkpt lat="45.69572" lon="6.25239">
        <ele>1698</ele>
        <time>2016-08-04T09:18:32Z</time>
      </trkpt>
      <trkpt lat="45.69568" lon="6.25239">
        <ele>1698</ele>
        <time>2016-08-04T09:18:37Z</time>
      </trkpt>
      <trkpt lat="45.69562" lon="6.25236">
        <ele>1699</ele>
        <time>2016-08-04T09:18:42Z</time>
      </trkpt>
      <trkpt lat="45.69555" lon="6.25233">
        <ele>1699</ele>
        <time>2016-08-04T09:18:47Z</time>
      </trkpt>
      <trkpt lat="45.6955" lon="6.25229">
        <ele>1700</ele>
        <time>2016-08-04T09:18:52Z</time>
      </trkpt>
      <trkpt lat="45.69544" lon="6.25224">
        <ele>1702</ele>
        <time>2016-08-04T09:18:57Z</time>
      </trkpt>
      <trkpt lat="45.69539" lon="6.2522">
        <ele>1703</ele>
        <time>2016-08-04T09:19:02Z</time>
      </trkpt>
      <trkpt lat="45.69532" lon="6.25219">
        <ele>1704</ele>
        <time>2016-08-04T09:19:07Z</time>
      </trkpt>
      <trkpt lat="45.69525" lon="6.25215">
        <ele>1705</ele>
        <time>2016-08-04T09:19:12Z</time>
      </trkpt>
      <trkpt lat="45.69518" lon="6.25212">
        <ele>1706</ele>
        <time>2016-08-04T09:19:17Z</time>
      </trkpt>
      <trkpt lat="45.69511" lon="6.25206">
        <ele>1707</ele>
        <time>2016-08-04T09:19:22Z</time>
      </trkpt>
      <trkpt lat="45.69507" lon="6.252">
        <ele>1708</ele>
        <time>2016-08-04T09:19:27Z</time>
      </trkpt>
      <trkpt lat="45.69499" lon="6.252">
        <ele>1708</ele>
        <time>2016-08-04T09:19:32Z</time>
      </trkpt>
      <trkpt lat="45.69492" lon="6.25197">
        <ele>1710</ele>
        <time>2016-08-04T09:19:37Z</time>
      </trkpt>
      <trkpt lat="45.69486" lon="6.25194">
        <ele>1711</ele>
        <time>2016-08-04T09:19:42Z</time>
      </trkpt>
      <trkpt lat="45.6948" lon="6.25194">
        <ele>1712</ele>
        <time>2016-08-04T09:19:47Z</time>
      </trkpt>
      <trkpt lat="45.69475" lon="6.252">
        <ele>1713</ele>
        <time>2016-08-04T09:19:52Z</time>
      </trkpt>
      <trkpt lat="45.69471" lon="6.25212">
        <ele>1714</ele>
        <time>2016-08-04T09:19:57Z</time>
      </trkpt>
      <trkpt lat="45.69466" lon="6.25219">
        <ele>1714</ele>
        <time>2016-08-04T09:20:02Z</time>
      </trkpt>
      <trkpt lat="45.69462" lon="6.25226">
        <ele>1714</ele>
        <time>2016-08-04T09:20:07Z</time>
      </trkpt>
      <trkpt lat="45.69457" lon="6.25235">
        <ele>1714</ele>
        <time>2016-08-04T09:20:12Z</time>
      </trkpt>
      <trkpt lat="45.69453" lon="6.2524">
        <ele>1714</ele>
        <time>2016-08-04T09:20:17Z</time>
      </trkpt>
      <trkpt lat="45.69448" lon="6.25247">
        <ele>1715</ele>
        <time>2016-08-04T09:20:22Z</time>
      </trkpt>
      <trkpt lat="45.69448" lon="6.25257">
        <ele>1715</ele>
        <time>2016-08-04T09:20:27Z</time>
      </trkpt>
      <trkpt lat="45.69449" lon="6.25264">
        <ele>1715</ele>
        <time>2016-08-04T09:20:32Z</time>
      </trkpt>
      <trkpt lat="45.69453" lon="6.25265">
        <ele>1716</ele>
        <time>2016-08-04T09:20:41Z</time>
      </trkpt>
      <trkpt lat="45.69462" lon="6.25259">
        <ele>1717</ele>
        <time>2016-08-04T09:20:46Z</time>
      </trkpt>
      <trkpt lat="45.69466" lon="6.25263">
        <ele>1718</ele>
        <time>2016-08-04T09:20:51Z</time>
      </trkpt>
      <trkpt lat="45.69471" lon="6.25263">
        <ele>1718</ele>
        <time>2016-08-04T09:20:58Z</time>
      </trkpt>
      <trkpt lat="45.69467" lon="6.2526">
        <ele>1719</ele>
        <time>2016-08-04T09:21:13Z</time>
      </trkpt>
      <trkpt lat="45.69461" lon="6.25262">
        <ele>1719</ele>
        <time>2016-08-04T09:21:18Z</time>
      </trkpt>
      <trkpt lat="45.69457" lon="6.25263">
        <ele>1719</ele>
        <time>2016-08-04T09:21:26Z</time>
      </trkpt>
      <trkpt lat="45.69454" lon="6.25269">
        <ele>1718</ele>
        <time>2016-08-04T09:21:34Z</time>
      </trkpt>
      <trkpt lat="45.69454" lon="6.25277">
        <ele>1719</ele>
        <time>2016-08-04T09:21:39Z</time>
      </trkpt>
      <trkpt lat="45.69455" lon="6.2528">
        <ele>1719</ele>
        <time>2016-08-04T09:22:06Z</time>
      </trkpt>
      <trkpt lat="45.69455" lon="6.2528">
        <ele>1719</ele>
        <time>2016-08-04T09:22:07Z</time>
      </trkpt>
      <trkpt lat="45.69455" lon="6.25274">
        <ele>1719</ele>
        <time>2016-08-04T09:22:33Z</time>
      </trkpt>
      <trkpt lat="45.69453" lon="6.25267">
        <ele>1720</ele>
        <time>2016-08-04T09:22:38Z</time>
      </trkpt>
      <trkpt lat="45.69453" lon="6.25266">
        <ele>1720</ele>
        <time>2016-08-04T09:23:06Z</time>
      </trkpt>
      <trkpt lat="45.69453" lon="6.25266">
        <ele>1721</ele>
        <time>2016-08-04T09:23:07Z</time>
      </trkpt>
      <trkpt lat="45.69453" lon="6.25266">
        <ele>1722</ele>
        <time>2016-08-04T09:23:36Z</time>
      </trkpt>
      <trkpt lat="45.69453" lon="6.25266">
        <ele>1722</ele>
        <time>2016-08-04T09:23:37Z</time>
      </trkpt>
      <trkpt lat="45.69459" lon="6.25265">
        <ele>1721</ele>
        <time>2016-08-04T09:23:47Z</time>
      </trkpt>
      <trkpt lat="45.69465" lon="6.25267">
        <ele>1720</ele>
        <time>2016-08-04T09:23:52Z</time>
      </trkpt>
      <trkpt lat="45.69476" lon="6.25263">
        <ele>1720</ele>
        <time>2016-08-04T09:23:57Z</time>
      </trkpt>
      <trkpt lat="45.69481" lon="6.25264">
        <ele>1720</ele>
        <time>2016-08-04T09:24:07Z</time>
      </trkpt>
      <trkpt lat="45.69487" lon="6.25267">
        <ele>1719</ele>
        <time>2016-08-04T09:24:15Z</time>
      </trkpt>
      <trkpt lat="45.6949" lon="6.25265">
        <ele>1719</ele>
        <time>2016-08-04T09:24:36Z</time>
      </trkpt>
      <trkpt lat="45.6949" lon="6.25265">
        <ele>1720</ele>
        <time>2016-08-04T09:24:37Z</time>
      </trkpt>
      <trkpt lat="45.69487" lon="6.25259">
        <ele>1720</ele>
        <time>2016-08-04T09:25:06Z</time>
      </trkpt>
      <trkpt lat="45.69486" lon="6.2526">
        <ele>1720</ele>
        <time>2016-08-04T09:25:21Z</time>
      </trkpt>
      <trkpt lat="45.69486" lon="6.25259">
        <ele>1721</ele>
        <time>2016-08-04T09:25:22Z</time>
      </trkpt>
      <trkpt lat="45.69487" lon="6.25258">
        <ele>1721</ele>
        <time>2016-08-04T09:25:51Z</time>
      </trkpt>
      <trkpt lat="45.69487" lon="6.25258">
        <ele>1721</ele>
        <time>2016-08-04T09:25:52Z</time>
      </trkpt>
      <trkpt lat="45.69488" lon="6.2526">
        <ele>1722</ele>
        <time>2016-08-04T09:26:21Z</time>
      </trkpt>
      <trkpt lat="45.69488" lon="6.2526">
        <ele>1723</ele>
        <time>2016-08-04T09:26:22Z</time>
      </trkpt>
      <trkpt lat="45.69488" lon="6.2526">
        <ele>1723</ele>
        <time>2016-08-04T09:26:51Z</time>
      </trkpt>
      <trkpt lat="45.69488" lon="6.2526">
        <ele>1724</ele>
        <time>2016-08-04T09:26:52Z</time>
      </trkpt>
      <trkpt lat="45.69487" lon="6.25259">
        <ele>1724</ele>
        <time>2016-08-04T09:27:21Z</time>
      </trkpt>
      <trkpt lat="45.69487" lon="6.25259">
        <ele>1724</ele>
        <time>2016-08-04T09:27:22Z</time>
      </trkpt>
      <trkpt lat="45.69487" lon="6.25259">
        <ele>1724</ele>
        <time>2016-08-04T09:27:51Z</time>
      </trkpt>
      <trkpt lat="45.69487" lon="6.25259">
        <ele>1723</ele>
        <time>2016-08-04T09:27:52Z</time>
      </trkpt>
      <trkpt lat="45.69488" lon="6.25259">
        <ele>1722</ele>
        <time>2016-08-04T09:28:21Z</time>
      </trkpt>
      <trkpt lat="45.69488" lon="6.25258">
        <ele>1722</ele>
        <time>2016-08-04T09:28:22Z</time>
      </trkpt>
      <trkpt lat="45.69488" lon="6.2526">
        <ele>1721</ele>
        <time>2016-08-04T09:28:51Z</time>
      </trkpt>
      <trkpt lat="45.69488" lon="6.2526">
        <ele>1722</ele>
        <time>2016-08-04T09:28:52Z</time>
      </trkpt>
      <trkpt lat="45.69488" lon="6.2526">
        <ele>1722</ele>
        <time>2016-08-04T09:29:21Z</time>
      </trkpt>
      <trkpt lat="45.69488" lon="6.2526">
        <ele>1722</ele>
        <time>2016-08-04T09:29:22Z</time>
      </trkpt>
      <trkpt lat="45.69489" lon="6.25259">
        <ele>1723</ele>
        <time>2016-08-04T09:29:51Z</time>
      </trkpt>
      <trkpt lat="45.69489" lon="6.25259">
        <ele>1723</ele>
        <time>2016-08-04T09:29:53Z</time>
      </trkpt>
      <trkpt lat="45.69489" lon="6.25259">
        <ele>1723</ele>
        <time>2016-08-04T09:30:22Z</time>
      </trkpt>
      <trkpt lat="45.69489" lon="6.25259">
        <ele>1723</ele>
        <time>2016-08-04T09:30:23Z</time>
      </trkpt>
      <trkpt lat="45.69487" lon="6.25258">
        <ele>1723</ele>
        <time>2016-08-04T09:30:52Z</time>
      </trkpt>
      <trkpt lat="45.69487" lon="6.25258">
        <ele>1723</ele>
        <time>2016-08-04T09:30:53Z</time>
      </trkpt>
      <trkpt lat="45.69487" lon="6.25257">
        <ele>1722</ele>
        <time>2016-08-04T09:31:22Z</time>
      </trkpt>
      <trkpt lat="45.69487" lon="6.25257">
        <ele>1721</ele>
        <time>2016-08-04T09:31:23Z</time>
      </trkpt>
      <trkpt lat="45.69487" lon="6.25257">
        <ele>1721</ele>
        <time>2016-08-04T09:31:52Z</time>
      </trkpt>
      <trkpt lat="45.69487" lon="6.25257">
        <ele>1721</ele>
        <time>2016-08-04T09:31:53Z</time>
      </trkpt>
      <trkpt lat="45.69489" lon="6.25259">
        <ele>1721</ele>
        <time>2016-08-04T09:32:22Z</time>
      </trkpt>
      <trkpt lat="45.69487" lon="6.25259">
        <ele>1721</ele>
        <time>2016-08-04T09:32:23Z</time>
      </trkpt>
      <trkpt lat="45.69489" lon="6.25262">
        <ele>1723</ele>
        <time>2016-08-04T09:32:52Z</time>
      </trkpt>
      <trkpt lat="45.69489" lon="6.25262">
        <ele>1723</ele>
        <time>2016-08-04T09:32:53Z</time>
      </trkpt>
      <trkpt lat="45.69484" lon="6.25262">
        <ele>1724</ele>
        <time>2016-08-04T09:33:19Z</time>
      </trkpt>
      <trkpt lat="45.69478" lon="6.2526">
        <ele>1724</ele>
        <time>2016-08-04T09:33:24Z</time>
      </trkpt>
      <trkpt lat="45.69474" lon="6.25261">
        <ele>1724</ele>
        <time>2016-08-04T09:33:29Z</time>
      </trkpt>
      <trkpt lat="45.69473" lon="6.25261">
        <ele>1723</ele>
        <time>2016-08-04T09:33:52Z</time>
      </trkpt>
      <trkpt lat="45.69473" lon="6.25261">
        <ele>1722</ele>
        <time>2016-08-04T09:33:53Z</time>
      </trkpt>
      <trkpt lat="45.69464" lon="6.25261">
        <ele>1722</ele>
        <time>2016-08-04T09:33:58Z</time>
      </trkpt>
      <trkpt lat="45.69454" lon="6.2526">
        <ele>1722</ele>
        <time>2016-08-04T09:34:03Z</time>
      </trkpt>
      <trkpt lat="45.69447" lon="6.25262">
        <ele>1722</ele>
        <time>2016-08-04T09:34:08Z</time>
      </trkpt>
      <trkpt lat="45.69437" lon="6.25268">
        <ele>1722</ele>
        <time>2016-08-04T09:34:13Z</time>
      </trkpt>
      <trkpt lat="45.69434" lon="6.25271">
        <ele>1722</ele>
        <time>2016-08-04T09:34:37Z</time>
      </trkpt>
      <trkpt lat="45.69434" lon="6.25271">
        <ele>1722</ele>
        <time>2016-08-04T09:34:38Z</time>
      </trkpt>
      <trkpt lat="45.69434" lon="6.25271">
        <ele>1722</ele>
        <time>2016-08-04T09:35:07Z</time>
      </trkpt>
      <trkpt lat="45.69434" lon="6.25271">
        <ele>1722</ele>
        <time>2016-08-04T09:35:08Z</time>
      </trkpt>
      <trkpt lat="45.69435" lon="6.25271">
        <ele>1722</ele>
        <time>2016-08-04T09:35:37Z</time>
      </trkpt>
      <trkpt lat="45.69435" lon="6.25271">
        <ele>1722</ele>
        <time>2016-08-04T09:35:38Z</time>
      </trkpt>
      <trkpt lat="45.69435" lon="6.25271">
        <ele>1722</ele>
        <time>2016-08-04T09:36:07Z</time>
      </trkpt>
      <trkpt lat="45.69435" lon="6.25271">
        <ele>1722</ele>
        <time>2016-08-04T09:36:08Z</time>
      </trkpt>
      <trkpt lat="45.69434" lon="6.25271">
        <ele>1723</ele>
        <time>2016-08-04T09:36:37Z</time>
      </trkpt>
      <trkpt lat="45.69434" lon="6.25271">
        <ele>1722</ele>
        <time>2016-08-04T09:36:38Z</time>
      </trkpt>
      <trkpt lat="45.69434" lon="6.25269">
        <ele>1722</ele>
        <time>2016-08-04T09:37:07Z</time>
      </trkpt>
      <trkpt lat="45.69434" lon="6.25269">
        <ele>1722</ele>
        <time>2016-08-04T09:37:08Z</time>
      </trkpt>
      <trkpt lat="45.69434" lon="6.25267">
        <ele>1722</ele>
        <time>2016-08-04T09:37:37Z</time>
      </trkpt>
      <trkpt lat="45.69434" lon="6.25267">
        <ele>1722</ele>
        <time>2016-08-04T09:37:38Z</time>
      </trkpt>
      <trkpt lat="45.69435" lon="6.25267">
        <ele>1722</ele>
        <time>2016-08-04T09:38:07Z</time>
      </trkpt>
      <trkpt lat="45.69435" lon="6.25267">
        <ele>1721</ele>
        <time>2016-08-04T09:38:08Z</time>
      </trkpt>
      <trkpt lat="45.69431" lon="6.25268">
        <ele>1721</ele>
        <time>2016-08-04T09:38:28Z</time>
      </trkpt>
      <trkpt lat="45.69423" lon="6.25274">
        <ele>1721</ele>
        <time>2016-08-04T09:38:33Z</time>
      </trkpt>
      <trkpt lat="45.69413" lon="6.25281">
        <ele>1721</ele>
        <time>2016-08-04T09:38:38Z</time>
      </trkpt>
      <trkpt lat="45.69405" lon="6.2529">
        <ele>1720</ele>
        <time>2016-08-04T09:38:43Z</time>
      </trkpt>
      <trkpt lat="45.69395" lon="6.25297">
        <ele>1720</ele>
        <time>2016-08-04T09:38:48Z</time>
      </trkpt>
      <trkpt lat="45.69388" lon="6.25301">
        <ele>1720</ele>
        <time>2016-08-04T09:38:53Z</time>
      </trkpt>
      <trkpt lat="45.69379" lon="6.25311">
        <ele>1720</ele>
        <time>2016-08-04T09:38:58Z</time>
      </trkpt>
      <trkpt lat="45.6937" lon="6.25314">
        <ele>1720</ele>
        <time>2016-08-04T09:39:03Z</time>
      </trkpt>
      <trkpt lat="45.69363" lon="6.25319">
        <ele>1720</ele>
        <time>2016-08-04T09:39:08Z</time>
      </trkpt>
      <trkpt lat="45.69355" lon="6.25322">
        <ele>1721</ele>
        <time>2016-08-04T09:39:13Z</time>
      </trkpt>
      <trkpt lat="45.69346" lon="6.25323">
        <ele>1723</ele>
        <time>2016-08-04T09:39:18Z</time>
      </trkpt>
      <trkpt lat="45.69339" lon="6.25328">
        <ele>1724</ele>
        <time>2016-08-04T09:39:23Z</time>
      </trkpt>
      <trkpt lat="45.69332" lon="6.25332">
        <ele>1725</ele>
        <time>2016-08-04T09:39:28Z</time>
      </trkpt>
      <trkpt lat="45.69325" lon="6.25334">
        <ele>1726</ele>
        <time>2016-08-04T09:39:33Z</time>
      </trkpt>
      <trkpt lat="45.69318" lon="6.25337">
        <ele>1727</ele>
        <time>2016-08-04T09:39:38Z</time>
      </trkpt>
      <trkpt lat="45.69313" lon="6.25335">
        <ele>1728</ele>
        <time>2016-08-04T09:39:44Z</time>
      </trkpt>
      <trkpt lat="45.69309" lon="6.25336">
        <ele>1729</ele>
        <time>2016-08-04T09:39:49Z</time>
      </trkpt>
      <trkpt lat="45.69303" lon="6.25337">
        <ele>1730</ele>
        <time>2016-08-04T09:39:54Z</time>
      </trkpt>
      <trkpt lat="45.69298" lon="6.25336">
        <ele>1731</ele>
        <time>2016-08-04T09:39:59Z</time>
      </trkpt>
      <trkpt lat="45.69292" lon="6.25337">
        <ele>1732</ele>
        <time>2016-08-04T09:40:04Z</time>
      </trkpt>
      <trkpt lat="45.69288" lon="6.25339">
        <ele>1732</ele>
        <time>2016-08-04T09:40:10Z</time>
      </trkpt>
      <trkpt lat="45.69283" lon="6.2534">
        <ele>1733</ele>
        <time>2016-08-04T09:40:16Z</time>
      </trkpt>
      <trkpt lat="45.69278" lon="6.25341">
        <ele>1733</ele>
        <time>2016-08-04T09:40:21Z</time>
      </trkpt>
      <trkpt lat="45.69272" lon="6.25343">
        <ele>1733</ele>
        <time>2016-08-04T09:40:26Z</time>
      </trkpt>
      <trkpt lat="45.69267" lon="6.25343">
        <ele>1734</ele>
        <time>2016-08-04T09:40:31Z</time>
      </trkpt>
      <trkpt lat="45.6926" lon="6.25343">
        <ele>1734</ele>
        <time>2016-08-04T09:40:36Z</time>
      </trkpt>
      <trkpt lat="45.69254" lon="6.25342">
        <ele>1734</ele>
        <time>2016-08-04T09:40:41Z</time>
      </trkpt>
      <trkpt lat="45.69246" lon="6.25344">
        <ele>1735</ele>
        <time>2016-08-04T09:40:46Z</time>
      </trkpt>
      <trkpt lat="45.6924" lon="6.25346">
        <ele>1735</ele>
        <time>2016-08-04T09:40:51Z</time>
      </trkpt>
      <trkpt lat="45.69231" lon="6.25349">
        <ele>1736</ele>
        <time>2016-08-04T09:40:56Z</time>
      </trkpt>
      <trkpt lat="45.69226" lon="6.25348">
        <ele>1736</ele>
        <time>2016-08-04T09:41:01Z</time>
      </trkpt>
      <trkpt lat="45.6922" lon="6.25349">
        <ele>1736</ele>
        <time>2016-08-04T09:41:06Z</time>
      </trkpt>
      <trkpt lat="45.69214" lon="6.2535">
        <ele>1737</ele>
        <time>2016-08-04T09:41:11Z</time>
      </trkpt>
      <trkpt lat="45.69209" lon="6.25351">
        <ele>1738</ele>
        <time>2016-08-04T09:41:16Z</time>
      </trkpt>
      <trkpt lat="45.69203" lon="6.25354">
        <ele>1739</ele>
        <time>2016-08-04T09:41:21Z</time>
      </trkpt>
      <trkpt lat="45.69197" lon="6.2536">
        <ele>1739</ele>
        <time>2016-08-04T09:41:26Z</time>
      </trkpt>
      <trkpt lat="45.69193" lon="6.25366">
        <ele>1741</ele>
        <time>2016-08-04T09:41:31Z</time>
      </trkpt>
      <trkpt lat="45.69188" lon="6.25372">
        <ele>1742</ele>
        <time>2016-08-04T09:41:36Z</time>
      </trkpt>
      <trkpt lat="45.69184" lon="6.25379">
        <ele>1742</ele>
        <time>2016-08-04T09:41:41Z</time>
      </trkpt>
      <trkpt lat="45.69183" lon="6.25388">
        <ele>1743</ele>
        <time>2016-08-04T09:41:46Z</time>
      </trkpt>
      <trkpt lat="45.69178" lon="6.25385">
        <ele>1744</ele>
        <time>2016-08-04T09:41:52Z</time>
      </trkpt>
      <trkpt lat="45.69173" lon="6.25385">
        <ele>1744</ele>
        <time>2016-08-04T09:41:59Z</time>
      </trkpt>
      <trkpt lat="45.6917" lon="6.25383">
        <ele>1745</ele>
        <time>2016-08-04T09:42:22Z</time>
      </trkpt>
      <trkpt lat="45.6917" lon="6.25384">
        <ele>1745</ele>
        <time>2016-08-04T09:42:23Z</time>
      </trkpt>
      <trkpt lat="45.69165" lon="6.25387">
        <ele>1746</ele>
        <time>2016-08-04T09:42:32Z</time>
      </trkpt>
      <trkpt lat="45.69159" lon="6.25389">
        <ele>1746</ele>
        <time>2016-08-04T09:42:37Z</time>
      </trkpt>
      <trkpt lat="45.69151" lon="6.25391">
        <ele>1748</ele>
        <time>2016-08-04T09:42:42Z</time>
      </trkpt>
      <trkpt lat="45.69144" lon="6.25393">
        <ele>1749</ele>
        <time>2016-08-04T09:42:47Z</time>
      </trkpt>
      <trkpt lat="45.6914" lon="6.25395">
        <ele>1750</ele>
        <time>2016-08-04T09:42:52Z</time>
      </trkpt>
      <trkpt lat="45.69132" lon="6.25397">
        <ele>1752</ele>
        <time>2016-08-04T09:42:57Z</time>
      </trkpt>
      <trkpt lat="45.69126" lon="6.25397">
        <ele>1753</ele>
        <time>2016-08-04T09:43:02Z</time>
      </trkpt>
      <trkpt lat="45.69121" lon="6.25396">
        <ele>1754</ele>
        <time>2016-08-04T09:43:07Z</time>
      </trkpt>
      <trkpt lat="45.69116" lon="6.25395">
        <ele>1755</ele>
        <time>2016-08-04T09:43:13Z</time>
      </trkpt>
      <trkpt lat="45.69107" lon="6.25396">
        <ele>1756</ele>
        <time>2016-08-04T09:43:18Z</time>
      </trkpt>
      <trkpt lat="45.69099" lon="6.25394">
        <ele>1757</ele>
        <time>2016-08-04T09:43:23Z</time>
      </trkpt>
      <trkpt lat="45.69091" lon="6.25394">
        <ele>1758</ele>
        <time>2016-08-04T09:43:28Z</time>
      </trkpt>
      <trkpt lat="45.69083" lon="6.25395">
        <ele>1759</ele>
        <time>2016-08-04T09:43:33Z</time>
      </trkpt>
      <trkpt lat="45.69075" lon="6.25393">
        <ele>1759</ele>
        <time>2016-08-04T09:43:38Z</time>
      </trkpt>
      <trkpt lat="45.69066" lon="6.25392">
        <ele>1760</ele>
        <time>2016-08-04T09:43:43Z</time>
      </trkpt>
      <trkpt lat="45.69058" lon="6.2539">
        <ele>1760</ele>
        <time>2016-08-04T09:43:48Z</time>
      </trkpt>
      <trkpt lat="45.69049" lon="6.2539">
        <ele>1760</ele>
        <time>2016-08-04T09:43:53Z</time>
      </trkpt>
      <trkpt lat="45.69039" lon="6.25391">
        <ele>1760</ele>
        <time>2016-08-04T09:43:58Z</time>
      </trkpt>
      <trkpt lat="45.6903" lon="6.25392">
        <ele>1760</ele>
        <time>2016-08-04T09:44:03Z</time>
      </trkpt>
      <trkpt lat="45.69019" lon="6.25389">
        <ele>1761</ele>
        <time>2016-08-04T09:44:08Z</time>
      </trkpt>
      <trkpt lat="45.6901" lon="6.25385">
        <ele>1761</ele>
        <time>2016-08-04T09:44:13Z</time>
      </trkpt>
      <trkpt lat="45.69" lon="6.25381">
        <ele>1761</ele>
        <time>2016-08-04T09:44:18Z</time>
      </trkpt>
      <trkpt lat="45.6899" lon="6.25376">
        <ele>1762</ele>
        <time>2016-08-04T09:44:23Z</time>
      </trkpt>
      <trkpt lat="45.6898" lon="6.25372">
        <ele>1762</ele>
        <time>2016-08-04T09:44:28Z</time>
      </trkpt>
      <trkpt lat="45.6897" lon="6.25371">
        <ele>1762</ele>
        <time>2016-08-04T09:44:33Z</time>
      </trkpt>
      <trkpt lat="45.68959" lon="6.25372">
        <ele>1762</ele>
        <time>2016-08-04T09:44:38Z</time>
      </trkpt>
      <trkpt lat="45.68948" lon="6.25378">
        <ele>1762</ele>
        <time>2016-08-04T09:44:43Z</time>
      </trkpt>
      <trkpt lat="45.68938" lon="6.2538">
        <ele>1763</ele>
        <time>2016-08-04T09:44:48Z</time>
      </trkpt>
      <trkpt lat="45.6893" lon="6.25384">
        <ele>1763</ele>
        <time>2016-08-04T09:44:53Z</time>
      </trkpt>
      <trkpt lat="45.68923" lon="6.25387">
        <ele>1763</ele>
        <time>2016-08-04T09:44:58Z</time>
      </trkpt>
      <trkpt lat="45.68916" lon="6.25388">
        <ele>1763</ele>
        <time>2016-08-04T09:45:03Z</time>
      </trkpt>
      <trkpt lat="45.68914" lon="6.25372">
        <ele>1763</ele>
        <time>2016-08-04T09:45:08Z</time>
      </trkpt>
      <trkpt lat="45.68905" lon="6.25361">
        <ele>1763</ele>
        <time>2016-08-04T09:45:13Z</time>
      </trkpt>
      <trkpt lat="45.68895" lon="6.2535">
        <ele>1763</ele>
        <time>2016-08-04T09:45:18Z</time>
      </trkpt>
      <trkpt lat="45.68886" lon="6.25342">
        <ele>1764</ele>
        <time>2016-08-04T09:45:23Z</time>
      </trkpt>
      <trkpt lat="45.68882" lon="6.25331">
        <ele>1764</ele>
        <time>2016-08-04T09:45:28Z</time>
      </trkpt>
      <trkpt lat="45.68889" lon="6.25318">
        <ele>1765</ele>
        <time>2016-08-04T09:45:33Z</time>
      </trkpt>
      <trkpt lat="45.68894" lon="6.25307">
        <ele>1765</ele>
        <time>2016-08-04T09:45:38Z</time>
      </trkpt>
      <trkpt lat="45.68897" lon="6.25296">
        <ele>1766</ele>
        <time>2016-08-04T09:45:43Z</time>
      </trkpt>
      <trkpt lat="45.68894" lon="6.25279">
        <ele>1766</ele>
        <time>2016-08-04T09:45:48Z</time>
      </trkpt>
      <trkpt lat="45.68885" lon="6.25268">
        <ele>1766</ele>
        <time>2016-08-04T09:45:53Z</time>
      </trkpt>
      <trkpt lat="45.68875" lon="6.25258">
        <ele>1766</ele>
        <time>2016-08-04T09:45:58Z</time>
      </trkpt>
      <trkpt lat="45.68868" lon="6.25247">
        <ele>1767</ele>
        <time>2016-08-04T09:46:03Z</time>
      </trkpt>
      <trkpt lat="45.6886" lon="6.25235">
        <ele>1768</ele>
        <time>2016-08-04T09:46:08Z</time>
      </trkpt>
      <trkpt lat="45.68848" lon="6.25225">
        <ele>1769</ele>
        <time>2016-08-04T09:46:13Z</time>
      </trkpt>
      <trkpt lat="45.68842" lon="6.25214">
        <ele>1769</ele>
        <time>2016-08-04T09:46:18Z</time>
      </trkpt>
      <trkpt lat="45.68839" lon="6.25201">
        <ele>1770</ele>
        <time>2016-08-04T09:46:23Z</time>
      </trkpt>
      <trkpt lat="45.68836" lon="6.25189">
        <ele>1770</ele>
        <time>2016-08-04T09:46:28Z</time>
      </trkpt>
      <trkpt lat="45.68836" lon="6.25174">
        <ele>1771</ele>
        <time>2016-08-04T09:46:33Z</time>
      </trkpt>
      <trkpt lat="45.68833" lon="6.25162">
        <ele>1771</ele>
        <time>2016-08-04T09:46:38Z</time>
      </trkpt>
      <trkpt lat="45.68831" lon="6.25149">
        <ele>1771</ele>
        <time>2016-08-04T09:46:43Z</time>
      </trkpt>
      <trkpt lat="45.6883" lon="6.25138">
        <ele>1771</ele>
        <time>2016-08-04T09:46:48Z</time>
      </trkpt>
      <trkpt lat="45.68824" lon="6.25129">
        <ele>1771</ele>
        <time>2016-08-04T09:46:53Z</time>
      </trkpt>
      <trkpt lat="45.68815" lon="6.25128">
        <ele>1772</ele>
        <time>2016-08-04T09:46:58Z</time>
      </trkpt>
      <trkpt lat="45.68805" lon="6.25126">
        <ele>1772</ele>
        <time>2016-08-04T09:47:03Z</time>
      </trkpt>
      <trkpt lat="45.68807" lon="6.25112">
        <ele>1773</ele>
        <time>2016-08-04T09:47:08Z</time>
      </trkpt>
      <trkpt lat="45.68811" lon="6.251">
        <ele>1775</ele>
        <time>2016-08-04T09:47:13Z</time>
      </trkpt>
      <trkpt lat="45.68813" lon="6.25088">
        <ele>1776</ele>
        <time>2016-08-04T09:47:18Z</time>
      </trkpt>
      <trkpt lat="45.6881" lon="6.25082">
        <ele>1778</ele>
        <time>2016-08-04T09:47:24Z</time>
      </trkpt>
      <trkpt lat="45.68812" lon="6.25076">
        <ele>1779</ele>
        <time>2016-08-04T09:47:36Z</time>
      </trkpt>
      <trkpt lat="45.68811" lon="6.25069">
        <ele>1780</ele>
        <time>2016-08-04T09:47:41Z</time>
      </trkpt>
      <trkpt lat="45.6881" lon="6.25062">
        <ele>1780</ele>
        <time>2016-08-04T09:47:46Z</time>
      </trkpt>
      <trkpt lat="45.68808" lon="6.25055">
        <ele>1780</ele>
        <time>2016-08-04T09:47:53Z</time>
      </trkpt>
      <trkpt lat="45.68812" lon="6.2505">
        <ele>1780</ele>
        <time>2016-08-04T09:47:58Z</time>
      </trkpt>
      <trkpt lat="45.68813" lon="6.25044">
        <ele>1780</ele>
        <time>2016-08-04T09:48:06Z</time>
      </trkpt>
      <trkpt lat="45.68814" lon="6.25037">
        <ele>1782</ele>
        <time>2016-08-04T09:48:12Z</time>
      </trkpt>
      <trkpt lat="45.68813" lon="6.2503">
        <ele>1783</ele>
        <time>2016-08-04T09:48:18Z</time>
      </trkpt>
      <trkpt lat="45.68813" lon="6.25023">
        <ele>1784</ele>
        <time>2016-08-04T09:48:27Z</time>
      </trkpt>
      <trkpt lat="45.68814" lon="6.25014">
        <ele>1786</ele>
        <time>2016-08-04T09:48:47Z</time>
      </trkpt>
      <trkpt lat="45.68813" lon="6.25004">
        <ele>1786</ele>
        <time>2016-08-04T09:48:52Z</time>
      </trkpt>
      <trkpt lat="45.68815" lon="6.24993">
        <ele>1787</ele>
        <time>2016-08-04T09:48:57Z</time>
      </trkpt>
      <trkpt lat="45.68814" lon="6.24983">
        <ele>1788</ele>
        <time>2016-08-04T09:49:02Z</time>
      </trkpt>
      <trkpt lat="45.68813" lon="6.24976">
        <ele>1790</ele>
        <time>2016-08-04T09:49:07Z</time>
      </trkpt>
      <trkpt lat="45.68809" lon="6.24971">
        <ele>1790</ele>
        <time>2016-08-04T09:49:12Z</time>
      </trkpt>
      <trkpt lat="45.68805" lon="6.24965">
        <ele>1791</ele>
        <time>2016-08-04T09:49:17Z</time>
      </trkpt>
      <trkpt lat="45.68797" lon="6.24958">
        <ele>1792</ele>
        <time>2016-08-04T09:49:22Z</time>
      </trkpt>
      <trkpt lat="45.68792" lon="6.24951">
        <ele>1792</ele>
        <time>2016-08-04T09:49:27Z</time>
      </trkpt>
      <trkpt lat="45.68787" lon="6.24943">
        <ele>1793</ele>
        <time>2016-08-04T09:49:32Z</time>
      </trkpt>
      <trkpt lat="45.68782" lon="6.24936">
        <ele>1793</ele>
        <time>2016-08-04T09:49:37Z</time>
      </trkpt>
      <trkpt lat="45.68778" lon="6.24927">
        <ele>1793</ele>
        <time>2016-08-04T09:49:42Z</time>
      </trkpt>
      <trkpt lat="45.68774" lon="6.24919">
        <ele>1794</ele>
        <time>2016-08-04T09:49:47Z</time>
      </trkpt>
      <trkpt lat="45.68768" lon="6.24911">
        <ele>1795</ele>
        <time>2016-08-04T09:49:52Z</time>
      </trkpt>
      <trkpt lat="45.68761" lon="6.24904">
        <ele>1796</ele>
        <time>2016-08-04T09:49:57Z</time>
      </trkpt>
      <trkpt lat="45.68757" lon="6.24895">
        <ele>1797</ele>
        <time>2016-08-04T09:50:02Z</time>
      </trkpt>
      <trkpt lat="45.68752" lon="6.24886">
        <ele>1798</ele>
        <time>2016-08-04T09:50:07Z</time>
      </trkpt>
      <trkpt lat="45.68747" lon="6.24878">
        <ele>1799</ele>
        <time>2016-08-04T09:50:12Z</time>
      </trkpt>
      <trkpt lat="45.68742" lon="6.24876">
        <ele>1800</ele>
        <time>2016-08-04T09:50:19Z</time>
      </trkpt>
      <trkpt lat="45.68739" lon="6.2487">
        <ele>1801</ele>
        <time>2016-08-04T09:50:25Z</time>
      </trkpt>
      <trkpt lat="45.68734" lon="6.24863">
        <ele>1803</ele>
        <time>2016-08-04T09:50:30Z</time>
      </trkpt>
      <trkpt lat="45.6873" lon="6.24858">
        <ele>1804</ele>
        <time>2016-08-04T09:50:35Z</time>
      </trkpt>
      <trkpt lat="45.68724" lon="6.24851">
        <ele>1805</ele>
        <time>2016-08-04T09:50:40Z</time>
      </trkpt>
      <trkpt lat="45.68723" lon="6.24844">
        <ele>1806</ele>
        <time>2016-08-04T09:51:01Z</time>
      </trkpt>
      <trkpt lat="45.68723" lon="6.24843">
        <ele>1806</ele>
        <time>2016-08-04T09:51:22Z</time>
      </trkpt>
      <trkpt lat="45.68723" lon="6.24843">
        <ele>1807</ele>
        <time>2016-08-04T09:51:23Z</time>
      </trkpt>
      <trkpt lat="45.68723" lon="6.24845">
        <ele>1807</ele>
        <time>2016-08-04T09:51:52Z</time>
      </trkpt>
      <trkpt lat="45.68723" lon="6.24845">
        <ele>1806</ele>
        <time>2016-08-04T09:51:53Z</time>
      </trkpt>
      <trkpt lat="45.68724" lon="6.24847">
        <ele>1806</ele>
        <time>2016-08-04T09:52:22Z</time>
      </trkpt>
      <trkpt lat="45.68726" lon="6.24845">
        <ele>1806</ele>
        <time>2016-08-04T09:52:23Z</time>
      </trkpt>
      <trkpt lat="45.68729" lon="6.24839">
        <ele>1806</ele>
        <time>2016-08-04T09:52:37Z</time>
      </trkpt>
      <trkpt lat="45.68736" lon="6.24832">
        <ele>1807</ele>
        <time>2016-08-04T09:52:42Z</time>
      </trkpt>
      <trkpt lat="45.68733" lon="6.24826">
        <ele>1808</ele>
        <time>2016-08-04T09:52:47Z</time>
      </trkpt>
      <trkpt lat="45.68726" lon="6.24821">
        <ele>1809</ele>
        <time>2016-08-04T09:52:52Z</time>
      </trkpt>
      <trkpt lat="45.68721" lon="6.2482">
        <ele>1811</ele>
        <time>2016-08-04T09:52:57Z</time>
      </trkpt>
      <trkpt lat="45.68713" lon="6.2482">
        <ele>1814</ele>
        <time>2016-08-04T09:53:02Z</time>
      </trkpt>
      <trkpt lat="45.68707" lon="6.24821">
        <ele>1815</ele>
        <time>2016-08-04T09:53:07Z</time>
      </trkpt>
      <trkpt lat="45.68697" lon="6.24826">
        <ele>1816</ele>
        <time>2016-08-04T09:53:12Z</time>
      </trkpt>
      <trkpt lat="45.68692" lon="6.2483">
        <ele>1817</ele>
        <time>2016-08-04T09:53:20Z</time>
      </trkpt>
      <trkpt lat="45.68687" lon="6.2483">
        <ele>1817</ele>
        <time>2016-08-04T09:53:26Z</time>
      </trkpt>
      <trkpt lat="45.68686" lon="6.24825">
        <ele>1818</ele>
        <time>2016-08-04T09:53:50Z</time>
      </trkpt>
      <trkpt lat="45.68688" lon="6.24821">
        <ele>1819</ele>
        <time>2016-08-04T09:54:07Z</time>
      </trkpt>
      <trkpt lat="45.68688" lon="6.24821">
        <ele>1821</ele>
        <time>2016-08-04T09:54:08Z</time>
      </trkpt>
      <trkpt lat="45.68692" lon="6.24815">
        <ele>1822</ele>
        <time>2016-08-04T09:54:16Z</time>
      </trkpt>
      <trkpt lat="45.68696" lon="6.2481">
        <ele>1824</ele>
        <time>2016-08-04T09:54:22Z</time>
      </trkpt>
      <trkpt lat="45.68702" lon="6.24805">
        <ele>1827</ele>
        <time>2016-08-04T09:54:29Z</time>
      </trkpt>
      <trkpt lat="45.68704" lon="6.24799">
        <ele>1829</ele>
        <time>2016-08-04T09:54:35Z</time>
      </trkpt>
      <trkpt lat="45.68708" lon="6.24794">
        <ele>1832</ele>
        <time>2016-08-04T09:54:41Z</time>
      </trkpt>
      <trkpt lat="45.68705" lon="6.24789">
        <ele>1834</ele>
        <time>2016-08-04T09:54:46Z</time>
      </trkpt>
      <trkpt lat="45.687" lon="6.24788">
        <ele>1834</ele>
        <time>2016-08-04T09:54:53Z</time>
      </trkpt>
      <trkpt lat="45.68704" lon="6.24783">
        <ele>1834</ele>
        <time>2016-08-04T09:55:08Z</time>
      </trkpt>
      <trkpt lat="45.68702" lon="6.24777">
        <ele>1834</ele>
        <time>2016-08-04T09:55:17Z</time>
      </trkpt>
      <trkpt lat="45.687" lon="6.2477">
        <ele>1832</ele>
        <time>2016-08-04T09:55:23Z</time>
      </trkpt>
      <trkpt lat="45.68696" lon="6.24767">
        <ele>1831</ele>
        <time>2016-08-04T09:55:31Z</time>
      </trkpt>
      <trkpt lat="45.68691" lon="6.24766">
        <ele>1832</ele>
        <time>2016-08-04T09:55:39Z</time>
      </trkpt>
      <trkpt lat="45.68687" lon="6.24761">
        <ele>1832</ele>
        <time>2016-08-04T09:55:47Z</time>
      </trkpt>
      <trkpt lat="45.68683" lon="6.24761">
        <ele>1833</ele>
        <time>2016-08-04T09:55:52Z</time>
      </trkpt>
      <trkpt lat="45.68678" lon="6.24758">
        <ele>1834</ele>
        <time>2016-08-04T09:55:59Z</time>
      </trkpt>
      <trkpt lat="45.68673" lon="6.24755">
        <ele>1836</ele>
        <time>2016-08-04T09:56:04Z</time>
      </trkpt>
      <trkpt lat="45.68668" lon="6.24753">
        <ele>1838</ele>
        <time>2016-08-04T09:56:11Z</time>
      </trkpt>
      <trkpt lat="45.68663" lon="6.24752">
        <ele>1840</ele>
        <time>2016-08-04T09:56:19Z</time>
      </trkpt>
      <trkpt lat="45.68657" lon="6.24749">
        <ele>1841</ele>
        <time>2016-08-04T09:56:31Z</time>
      </trkpt>
      <trkpt lat="45.68653" lon="6.24742">
        <ele>1843</ele>
        <time>2016-08-04T09:56:36Z</time>
      </trkpt>
      <trkpt lat="45.68647" lon="6.24738">
        <ele>1845</ele>
        <time>2016-08-04T09:56:41Z</time>
      </trkpt>
      <trkpt lat="45.68639" lon="6.24731">
        <ele>1847</ele>
        <time>2016-08-04T09:56:46Z</time>
      </trkpt>
      <trkpt lat="45.68626" lon="6.24726">
        <ele>1847</ele>
        <time>2016-08-04T09:56:51Z</time>
      </trkpt>
      <trkpt lat="45.68616" lon="6.24722">
        <ele>1848</ele>
        <time>2016-08-04T09:56:56Z</time>
      </trkpt>
      <trkpt lat="45.68606" lon="6.24714">
        <ele>1849</ele>
        <time>2016-08-04T09:57:01Z</time>
      </trkpt>
      <trkpt lat="45.68598" lon="6.24709">
        <ele>1849</ele>
        <time>2016-08-04T09:57:06Z</time>
      </trkpt>
      <trkpt lat="45.68593" lon="6.24705">
        <ele>1850</ele>
        <time>2016-08-04T09:57:11Z</time>
      </trkpt>
      <trkpt lat="45.68585" lon="6.24701">
        <ele>1852</ele>
        <time>2016-08-04T09:57:16Z</time>
      </trkpt>
      <trkpt lat="45.68586" lon="6.24692">
        <ele>1854</ele>
        <time>2016-08-04T09:57:21Z</time>
      </trkpt>
      <trkpt lat="45.6858" lon="6.24685">
        <ele>1855</ele>
        <time>2016-08-04T09:57:26Z</time>
      </trkpt>
      <trkpt lat="45.68578" lon="6.24677">
        <ele>1857</ele>
        <time>2016-08-04T09:57:31Z</time>
      </trkpt>
      <trkpt lat="45.68574" lon="6.24671">
        <ele>1859</ele>
        <time>2016-08-04T09:57:36Z</time>
      </trkpt>
      <trkpt lat="45.6857" lon="6.24664">
        <ele>1861</ele>
        <time>2016-08-04T09:57:41Z</time>
      </trkpt>
      <trkpt lat="45.68564" lon="6.2466">
        <ele>1863</ele>
        <time>2016-08-04T09:57:46Z</time>
      </trkpt>
      <trkpt lat="45.68558" lon="6.24654">
        <ele>1865</ele>
        <time>2016-08-04T09:57:51Z</time>
      </trkpt>
      <trkpt lat="45.68551" lon="6.24649">
        <ele>1866</ele>
        <time>2016-08-04T09:57:56Z</time>
      </trkpt>
      <trkpt lat="45.68544" lon="6.24648">
        <ele>1866</ele>
        <time>2016-08-04T09:58:01Z</time>
      </trkpt>
      <trkpt lat="45.6854" lon="6.24642">
        <ele>1866</ele>
        <time>2016-08-04T09:58:08Z</time>
      </trkpt>
      <trkpt lat="45.68534" lon="6.24636">
        <ele>1865</ele>
        <time>2016-08-04T09:58:13Z</time>
      </trkpt>
      <trkpt lat="45.68528" lon="6.24636">
        <ele>1865</ele>
        <time>2016-08-04T09:58:20Z</time>
      </trkpt>
      <trkpt lat="45.68523" lon="6.24635">
        <ele>1865</ele>
        <time>2016-08-04T09:58:31Z</time>
      </trkpt>
      <trkpt lat="45.68522" lon="6.24636">
        <ele>1866</ele>
        <time>2016-08-04T09:58:52Z</time>
      </trkpt>
      <trkpt lat="45.68522" lon="6.24636">
        <ele>1867</ele>
        <time>2016-08-04T09:58:53Z</time>
      </trkpt>
      <trkpt lat="45.68521" lon="6.24635">
        <ele>1866</ele>
        <time>2016-08-04T09:59:22Z</time>
      </trkpt>
      <trkpt lat="45.68521" lon="6.24635">
        <ele>1866</ele>
        <time>2016-08-04T09:59:23Z</time>
      </trkpt>
      <trkpt lat="45.6852" lon="6.24635">
        <ele>1866</ele>
        <time>2016-08-04T09:59:37Z</time>
      </trkpt>
      <trkpt lat="45.6852" lon="6.24635">
        <ele>1865</ele>
        <time>2016-08-04T09:59:38Z</time>
      </trkpt>
      <trkpt lat="45.6852" lon="6.24635">
        <ele>1865</ele>
        <time>2016-08-04T09:59:39Z</time>
      </trkpt>
      <trkpt lat="45.68517" lon="6.24634">
        <ele>1865</ele>
        <time>2016-08-04T10:00:08Z</time>
      </trkpt>
      <trkpt lat="45.68517" lon="6.24633">
        <ele>1865</ele>
        <time>2016-08-04T10:00:09Z</time>
      </trkpt>
      <trkpt lat="45.68513" lon="6.24635">
        <ele>1866</ele>
        <time>2016-08-04T10:00:17Z</time>
      </trkpt>
      <trkpt lat="45.68508" lon="6.24639">
        <ele>1866</ele>
        <time>2016-08-04T10:00:24Z</time>
      </trkpt>
      <trkpt lat="45.68504" lon="6.24642">
        <ele>1867</ele>
        <time>2016-08-04T10:00:30Z</time>
      </trkpt>
      <trkpt lat="45.685" lon="6.24648">
        <ele>1867</ele>
        <time>2016-08-04T10:00:38Z</time>
      </trkpt>
      <trkpt lat="45.68497" lon="6.24653">
        <ele>1867</ele>
        <time>2016-08-04T10:00:44Z</time>
      </trkpt>
      <trkpt lat="45.68494" lon="6.2466">
        <ele>1867</ele>
        <time>2016-08-04T10:00:53Z</time>
      </trkpt>
      <trkpt lat="45.68501" lon="6.24659">
        <ele>1868</ele>
        <time>2016-08-04T10:01:01Z</time>
      </trkpt>
      <trkpt lat="45.68505" lon="6.24658">
        <ele>1869</ele>
        <time>2016-08-04T10:01:09Z</time>
      </trkpt>
      <trkpt lat="45.6851" lon="6.24656">
        <ele>1869</ele>
        <time>2016-08-04T10:01:16Z</time>
      </trkpt>
      <trkpt lat="45.68514" lon="6.24657">
        <ele>1869</ele>
        <time>2016-08-04T10:01:21Z</time>
      </trkpt>
      <trkpt lat="45.68519" lon="6.24656">
        <ele>1869</ele>
        <time>2016-08-04T10:01:27Z</time>
      </trkpt>
      <trkpt lat="45.68517" lon="6.24662">
        <ele>1870</ele>
        <time>2016-08-04T10:01:41Z</time>
      </trkpt>
      <trkpt lat="45.68513" lon="6.24666">
        <ele>1872</ele>
        <time>2016-08-04T10:01:54Z</time>
      </trkpt>
      <trkpt lat="45.6851" lon="6.24671">
        <ele>1874</ele>
        <time>2016-08-04T10:01:59Z</time>
      </trkpt>
      <trkpt lat="45.68505" lon="6.24675">
        <ele>1875</ele>
        <time>2016-08-04T10:02:05Z</time>
      </trkpt>
      <trkpt lat="45.68502" lon="6.2468">
        <ele>1876</ele>
        <time>2016-08-04T10:02:10Z</time>
      </trkpt>
      <trkpt lat="45.68498" lon="6.24684">
        <ele>1877</ele>
        <time>2016-08-04T10:02:15Z</time>
      </trkpt>
      <trkpt lat="45.68495" lon="6.24689">
        <ele>1877</ele>
        <time>2016-08-04T10:02:21Z</time>
      </trkpt>
      <trkpt lat="45.68492" lon="6.24695">
        <ele>1878</ele>
        <time>2016-08-04T10:02:29Z</time>
      </trkpt>
      <trkpt lat="45.68489" lon="6.247">
        <ele>1879</ele>
        <time>2016-08-04T10:02:36Z</time>
      </trkpt>
      <trkpt lat="45.68487" lon="6.24707">
        <ele>1881</ele>
        <time>2016-08-04T10:02:46Z</time>
      </trkpt>
      <trkpt lat="45.6849" lon="6.24713">
        <ele>1882</ele>
        <time>2016-08-04T10:03:04Z</time>
      </trkpt>
      <trkpt lat="45.68495" lon="6.24712">
        <ele>1883</ele>
        <time>2016-08-04T10:03:22Z</time>
      </trkpt>
      <trkpt lat="45.68499" lon="6.2471">
        <ele>1885</ele>
        <time>2016-08-04T10:03:29Z</time>
      </trkpt>
      <trkpt lat="45.68504" lon="6.24711">
        <ele>1886</ele>
        <time>2016-08-04T10:03:36Z</time>
      </trkpt>
      <trkpt lat="45.68509" lon="6.24711">
        <ele>1888</ele>
        <time>2016-08-04T10:03:45Z</time>
      </trkpt>
      <trkpt lat="45.68504" lon="6.24714">
        <ele>1890</ele>
        <time>2016-08-04T10:03:53Z</time>
      </trkpt>
      <trkpt lat="45.68501" lon="6.2472">
        <ele>1893</ele>
        <time>2016-08-04T10:04:00Z</time>
      </trkpt>
      <trkpt lat="45.68498" lon="6.24724">
        <ele>1895</ele>
        <time>2016-08-04T10:04:07Z</time>
      </trkpt>
      <trkpt lat="45.68494" lon="6.2473">
        <ele>1896</ele>
        <time>2016-08-04T10:04:14Z</time>
      </trkpt>
      <trkpt lat="45.68491" lon="6.24735">
        <ele>1898</ele>
        <time>2016-08-04T10:04:21Z</time>
      </trkpt>
      <trkpt lat="45.68487" lon="6.24739">
        <ele>1898</ele>
        <time>2016-08-04T10:04:27Z</time>
      </trkpt>
      <trkpt lat="45.68483" lon="6.24743">
        <ele>1899</ele>
        <time>2016-08-04T10:04:35Z</time>
      </trkpt>
      <trkpt lat="45.6848" lon="6.24748">
        <ele>1900</ele>
        <time>2016-08-04T10:04:47Z</time>
      </trkpt>
      <trkpt lat="45.68483" lon="6.24753">
        <ele>1902</ele>
        <time>2016-08-04T10:04:52Z</time>
      </trkpt>
      <trkpt lat="45.68488" lon="6.24751">
        <ele>1903</ele>
        <time>2016-08-04T10:04:57Z</time>
      </trkpt>
      <trkpt lat="45.68492" lon="6.24753">
        <ele>1904</ele>
        <time>2016-08-04T10:05:03Z</time>
      </trkpt>
      <trkpt lat="45.68497" lon="6.2475">
        <ele>1906</ele>
        <time>2016-08-04T10:05:12Z</time>
      </trkpt>
      <trkpt lat="45.68502" lon="6.24751">
        <ele>1908</ele>
        <time>2016-08-04T10:05:19Z</time>
      </trkpt>
      <trkpt lat="45.68507" lon="6.24751">
        <ele>1909</ele>
        <time>2016-08-04T10:05:28Z</time>
      </trkpt>
      <trkpt lat="45.68508" lon="6.24758">
        <ele>1911</ele>
        <time>2016-08-04T10:05:46Z</time>
      </trkpt>
      <trkpt lat="45.6851" lon="6.24764">
        <ele>1913</ele>
        <time>2016-08-04T10:06:00Z</time>
      </trkpt>
      <trkpt lat="45.68507" lon="6.24771">
        <ele>1914</ele>
        <time>2016-08-04T10:06:05Z</time>
      </trkpt>
      <trkpt lat="45.68503" lon="6.24775">
        <ele>1915</ele>
        <time>2016-08-04T10:06:14Z</time>
      </trkpt>
      <trkpt lat="45.68502" lon="6.24781">
        <ele>1916</ele>
        <time>2016-08-04T10:06:19Z</time>
      </trkpt>
      <trkpt lat="45.68498" lon="6.24786">
        <ele>1917</ele>
        <time>2016-08-04T10:06:25Z</time>
      </trkpt>
      <trkpt lat="45.68494" lon="6.24792">
        <ele>1919</ele>
        <time>2016-08-04T10:06:31Z</time>
      </trkpt>
      <trkpt lat="45.68491" lon="6.24797">
        <ele>1921</ele>
        <time>2016-08-04T10:06:38Z</time>
      </trkpt>
      <trkpt lat="45.68488" lon="6.24802">
        <ele>1922</ele>
        <time>2016-08-04T10:06:43Z</time>
      </trkpt>
      <trkpt lat="45.68484" lon="6.24806">
        <ele>1923</ele>
        <time>2016-08-04T10:06:51Z</time>
      </trkpt>
      <trkpt lat="45.68479" lon="6.24809">
        <ele>1925</ele>
        <time>2016-08-04T10:07:00Z</time>
      </trkpt>
      <trkpt lat="45.68475" lon="6.24813">
        <ele>1925</ele>
        <time>2016-08-04T10:07:10Z</time>
      </trkpt>
      <trkpt lat="45.68471" lon="6.24817">
        <ele>1926</ele>
        <time>2016-08-04T10:07:21Z</time>
      </trkpt>
      <trkpt lat="45.68467" lon="6.24819">
        <ele>1927</ele>
        <time>2016-08-04T10:07:27Z</time>
      </trkpt>
      <trkpt lat="45.68461" lon="6.24818">
        <ele>1927</ele>
        <time>2016-08-04T10:07:40Z</time>
      </trkpt>
      <trkpt lat="45.68458" lon="6.24824">
        <ele>1929</ele>
        <time>2016-08-04T10:07:54Z</time>
      </trkpt>
      <trkpt lat="45.68456" lon="6.2483">
        <ele>1931</ele>
        <time>2016-08-04T10:08:05Z</time>
      </trkpt>
      <trkpt lat="45.68454" lon="6.24836">
        <ele>1933</ele>
        <time>2016-08-04T10:08:15Z</time>
      </trkpt>
      <trkpt lat="45.68449" lon="6.24838">
        <ele>1935</ele>
        <time>2016-08-04T10:08:30Z</time>
      </trkpt>
      <trkpt lat="45.68445" lon="6.24837">
        <ele>1937</ele>
        <time>2016-08-04T10:08:36Z</time>
      </trkpt>
      <trkpt lat="45.6844" lon="6.24837">
        <ele>1938</ele>
        <time>2016-08-04T10:08:49Z</time>
      </trkpt>
      <trkpt lat="45.68435" lon="6.24839">
        <ele>1940</ele>
        <time>2016-08-04T10:08:58Z</time>
      </trkpt>
      <trkpt lat="45.6843" lon="6.24838">
        <ele>1942</ele>
        <time>2016-08-04T10:09:10Z</time>
      </trkpt>
      <trkpt lat="45.68425" lon="6.2484">
        <ele>1944</ele>
        <time>2016-08-04T10:09:20Z</time>
      </trkpt>
      <trkpt lat="45.6842" lon="6.24842">
        <ele>1946</ele>
        <time>2016-08-04T10:09:32Z</time>
      </trkpt>
      <trkpt lat="45.68417" lon="6.24846">
        <ele>1948</ele>
        <time>2016-08-04T10:09:41Z</time>
      </trkpt>
      <trkpt lat="45.68407" lon="6.24854">
        <ele>1949</ele>
        <time>2016-08-04T10:09:46Z</time>
      </trkpt>
      <trkpt lat="45.68401" lon="6.24863">
        <ele>1949</ele>
        <time>2016-08-04T10:09:51Z</time>
      </trkpt>
      <trkpt lat="45.68398" lon="6.24869">
        <ele>1949</ele>
        <time>2016-08-04T10:09:56Z</time>
      </trkpt>
      <trkpt lat="45.68394" lon="6.24876">
        <ele>1949</ele>
        <time>2016-08-04T10:10:01Z</time>
      </trkpt>
      <trkpt lat="45.68388" lon="6.24886">
        <ele>1948</ele>
        <time>2016-08-04T10:10:06Z</time>
      </trkpt>
      <trkpt lat="45.68386" lon="6.24891">
        <ele>1948</ele>
        <time>2016-08-04T10:10:23Z</time>
      </trkpt>
      <trkpt lat="45.68386" lon="6.24891">
        <ele>1948</ele>
        <time>2016-08-04T10:10:24Z</time>
      </trkpt>
      <trkpt lat="45.68382" lon="6.24899">
        <ele>1947</ele>
        <time>2016-08-04T10:10:36Z</time>
      </trkpt>
      <trkpt lat="45.68377" lon="6.24911">
        <ele>1946</ele>
        <time>2016-08-04T10:10:41Z</time>
      </trkpt>
      <trkpt lat="45.68371" lon="6.24928">
        <ele>1946</ele>
        <time>2016-08-04T10:10:46Z</time>
      </trkpt>
      <trkpt lat="45.68364" lon="6.24942">
        <ele>1945</ele>
        <time>2016-08-04T10:10:51Z</time>
      </trkpt>
      <trkpt lat="45.68361" lon="6.24948">
        <ele>1945</ele>
        <time>2016-08-04T10:10:58Z</time>
      </trkpt>
      <trkpt lat="45.68359" lon="6.24955">
        <ele>1944</ele>
        <time>2016-08-04T10:11:03Z</time>
      </trkpt>
      <trkpt lat="45.68357" lon="6.24965">
        <ele>1945</ele>
        <time>2016-08-04T10:11:08Z</time>
      </trkpt>
      <trkpt lat="45.68353" lon="6.24971">
        <ele>1945</ele>
        <time>2016-08-04T10:11:17Z</time>
      </trkpt>
      <trkpt lat="45.68352" lon="6.24979">
        <ele>1946</ele>
        <time>2016-08-04T10:11:22Z</time>
      </trkpt>
      <trkpt lat="45.6835" lon="6.24986">
        <ele>1947</ele>
        <time>2016-08-04T10:11:27Z</time>
      </trkpt>
      <trkpt lat="45.68346" lon="6.24993">
        <ele>1947</ele>
        <time>2016-08-04T10:11:32Z</time>
      </trkpt>
      <trkpt lat="45.68343" lon="6.25">
        <ele>1948</ele>
        <time>2016-08-04T10:11:37Z</time>
      </trkpt>
      <trkpt lat="45.68341" lon="6.25007">
        <ele>1949</ele>
        <time>2016-08-04T10:11:42Z</time>
      </trkpt>
      <trkpt lat="45.68339" lon="6.25013">
        <ele>1950</ele>
        <time>2016-08-04T10:11:49Z</time>
      </trkpt>
      <trkpt lat="45.68338" lon="6.2502">
        <ele>1952</ele>
        <time>2016-08-04T10:11:56Z</time>
      </trkpt>
      <trkpt lat="45.68338" lon="6.25027">
        <ele>1953</ele>
        <time>2016-08-04T10:12:04Z</time>
      </trkpt>
      <trkpt lat="45.68336" lon="6.25035">
        <ele>1955</ele>
        <time>2016-08-04T10:12:09Z</time>
      </trkpt>
      <trkpt lat="45.68334" lon="6.25042">
        <ele>1956</ele>
        <time>2016-08-04T10:12:14Z</time>
      </trkpt>
      <trkpt lat="45.68334" lon="6.25049">
        <ele>1957</ele>
        <time>2016-08-04T10:12:19Z</time>
      </trkpt>
      <trkpt lat="45.68335" lon="6.25055">
        <ele>1957</ele>
        <time>2016-08-04T10:12:24Z</time>
      </trkpt>
      <trkpt lat="45.68335" lon="6.25062">
        <ele>1958</ele>
        <time>2016-08-04T10:12:29Z</time>
      </trkpt>
      <trkpt lat="45.68336" lon="6.25072">
        <ele>1959</ele>
        <time>2016-08-04T10:12:34Z</time>
      </trkpt>
      <trkpt lat="45.68336" lon="6.25079">
        <ele>1959</ele>
        <time>2016-08-04T10:12:39Z</time>
      </trkpt>
      <trkpt lat="45.68335" lon="6.25086">
        <ele>1960</ele>
        <time>2016-08-04T10:12:53Z</time>
      </trkpt>
      <trkpt lat="45.68335" lon="6.25097">
        <ele>1961</ele>
        <time>2016-08-04T10:12:58Z</time>
      </trkpt>
      <trkpt lat="45.68335" lon="6.25107">
        <ele>1962</ele>
        <time>2016-08-04T10:13:03Z</time>
      </trkpt>
      <trkpt lat="45.68335" lon="6.25114">
        <ele>1963</ele>
        <time>2016-08-04T10:13:09Z</time>
      </trkpt>
      <trkpt lat="45.68334" lon="6.25122">
        <ele>1964</ele>
        <time>2016-08-04T10:13:14Z</time>
      </trkpt>
      <trkpt lat="45.68335" lon="6.25129">
        <ele>1964</ele>
        <time>2016-08-04T10:13:19Z</time>
      </trkpt>
      <trkpt lat="45.68333" lon="6.25135">
        <ele>1964</ele>
        <time>2016-08-04T10:13:24Z</time>
      </trkpt>
      <trkpt lat="45.68332" lon="6.25142">
        <ele>1964</ele>
        <time>2016-08-04T10:13:36Z</time>
      </trkpt>
      <trkpt lat="45.68331" lon="6.25149">
        <ele>1964</ele>
        <time>2016-08-04T10:13:41Z</time>
      </trkpt>
      <trkpt lat="45.68332" lon="6.25156">
        <ele>1965</ele>
        <time>2016-08-04T10:13:47Z</time>
      </trkpt>
      <trkpt lat="45.68331" lon="6.25163">
        <ele>1965</ele>
        <time>2016-08-04T10:13:55Z</time>
      </trkpt>
      <trkpt lat="45.68331" lon="6.25169">
        <ele>1966</ele>
        <time>2016-08-04T10:14:03Z</time>
      </trkpt>
      <trkpt lat="45.68331" lon="6.25177">
        <ele>1968</ele>
        <time>2016-08-04T10:14:14Z</time>
      </trkpt>
      <trkpt lat="45.68332" lon="6.25184">
        <ele>1969</ele>
        <time>2016-08-04T10:14:27Z</time>
      </trkpt>
      <trkpt lat="45.68331" lon="6.25192">
        <ele>1971</ele>
        <time>2016-08-04T10:14:45Z</time>
      </trkpt>
      <trkpt lat="45.68332" lon="6.25198">
        <ele>1974</ele>
        <time>2016-08-04T10:14:55Z</time>
      </trkpt>
      <trkpt lat="45.68332" lon="6.25205">
        <ele>1976</ele>
        <time>2016-08-04T10:15:02Z</time>
      </trkpt>
      <trkpt lat="45.68331" lon="6.25212">
        <ele>1977</ele>
        <time>2016-08-04T10:15:11Z</time>
      </trkpt>
      <trkpt lat="45.68331" lon="6.2522">
        <ele>1978</ele>
        <time>2016-08-04T10:15:21Z</time>
      </trkpt>
      <trkpt lat="45.68333" lon="6.25229">
        <ele>1978</ele>
        <time>2016-08-04T10:15:26Z</time>
      </trkpt>
      <trkpt lat="45.68334" lon="6.25236">
        <ele>1978</ele>
        <time>2016-08-04T10:15:31Z</time>
      </trkpt>
      <trkpt lat="45.68336" lon="6.25244">
        <ele>1978</ele>
        <time>2016-08-04T10:15:36Z</time>
      </trkpt>
      <trkpt lat="45.68337" lon="6.25252">
        <ele>1978</ele>
        <time>2016-08-04T10:15:41Z</time>
      </trkpt>
      <trkpt lat="45.68339" lon="6.2526">
        <ele>1978</ele>
        <time>2016-08-04T10:15:46Z</time>
      </trkpt>
      <trkpt lat="45.6834" lon="6.25267">
        <ele>1979</ele>
        <time>2016-08-04T10:15:51Z</time>
      </trkpt>
      <trkpt lat="45.6834" lon="6.25275">
        <ele>1979</ele>
        <time>2016-08-04T10:15:56Z</time>
      </trkpt>
      <trkpt lat="45.6834" lon="6.25284">
        <ele>1980</ele>
        <time>2016-08-04T10:16:01Z</time>
      </trkpt>
      <trkpt lat="45.6834" lon="6.25294">
        <ele>1980</ele>
        <time>2016-08-04T10:16:06Z</time>
      </trkpt>
      <trkpt lat="45.68339" lon="6.25301">
        <ele>1981</ele>
        <time>2016-08-04T10:16:11Z</time>
      </trkpt>
      <trkpt lat="45.68339" lon="6.25308">
        <ele>1981</ele>
        <time>2016-08-04T10:16:18Z</time>
      </trkpt>
      <trkpt lat="45.6834" lon="6.25315">
        <ele>1983</ele>
        <time>2016-08-04T10:16:31Z</time>
      </trkpt>
      <trkpt lat="45.68341" lon="6.25322">
        <ele>1984</ele>
        <time>2016-08-04T10:16:41Z</time>
      </trkpt>
      <trkpt lat="45.6834" lon="6.25328">
        <ele>1986</ele>
        <time>2016-08-04T10:17:05Z</time>
      </trkpt>
      <trkpt lat="45.6834" lon="6.25335">
        <ele>1988</ele>
        <time>2016-08-04T10:17:13Z</time>
      </trkpt>
      <trkpt lat="45.6834" lon="6.25342">
        <ele>1991</ele>
        <time>2016-08-04T10:17:20Z</time>
      </trkpt>
      <trkpt lat="45.6834" lon="6.25349">
        <ele>1993</ele>
        <time>2016-08-04T10:17:33Z</time>
      </trkpt>
      <trkpt lat="45.68341" lon="6.25356">
        <ele>1994</ele>
        <time>2016-08-04T10:17:43Z</time>
      </trkpt>
      <trkpt lat="45.68343" lon="6.25364">
        <ele>1995</ele>
        <time>2016-08-04T10:17:59Z</time>
      </trkpt>
      <trkpt lat="45.6834" lon="6.2537">
        <ele>1996</ele>
        <time>2016-08-04T10:18:10Z</time>
      </trkpt>
      <trkpt lat="45.6834" lon="6.25377">
        <ele>1997</ele>
        <time>2016-08-04T10:18:18Z</time>
      </trkpt>
      <trkpt lat="45.6834" lon="6.25384">
        <ele>1998</ele>
        <time>2016-08-04T10:18:25Z</time>
      </trkpt>
      <trkpt lat="45.68339" lon="6.25391">
        <ele>1999</ele>
        <time>2016-08-04T10:18:31Z</time>
      </trkpt>
      <trkpt lat="45.6834" lon="6.25398">
        <ele>2000</ele>
        <time>2016-08-04T10:18:39Z</time>
      </trkpt>
      <trkpt lat="45.68341" lon="6.25405">
        <ele>2002</ele>
        <time>2016-08-04T10:18:58Z</time>
      </trkpt>
      <trkpt lat="45.68342" lon="6.25411">
        <ele>2003</ele>
        <time>2016-08-04T10:19:03Z</time>
      </trkpt>
      <trkpt lat="45.68344" lon="6.25417">
        <ele>2004</ele>
        <time>2016-08-04T10:19:08Z</time>
      </trkpt>
      <trkpt lat="45.68345" lon="6.25424">
        <ele>2005</ele>
        <time>2016-08-04T10:19:14Z</time>
      </trkpt>
      <trkpt lat="45.68348" lon="6.2543">
        <ele>2006</ele>
        <time>2016-08-04T10:19:19Z</time>
      </trkpt>
      <trkpt lat="45.68352" lon="6.25436">
        <ele>2007</ele>
        <time>2016-08-04T10:19:25Z</time>
      </trkpt>
      <trkpt lat="45.68354" lon="6.25442">
        <ele>2009</ele>
        <time>2016-08-04T10:19:31Z</time>
      </trkpt>
      <trkpt lat="45.68355" lon="6.25448">
        <ele>2009</ele>
        <time>2016-08-04T10:19:37Z</time>
      </trkpt>
      <trkpt lat="45.68358" lon="6.25454">
        <ele>2010</ele>
        <time>2016-08-04T10:19:45Z</time>
      </trkpt>
      <trkpt lat="45.68359" lon="6.2546">
        <ele>2011</ele>
        <time>2016-08-04T10:19:54Z</time>
      </trkpt>
      <trkpt lat="45.68361" lon="6.25468">
        <ele>2012</ele>
        <time>2016-08-04T10:20:02Z</time>
      </trkpt>
      <trkpt lat="45.68361" lon="6.25476">
        <ele>2014</ele>
        <time>2016-08-04T10:20:09Z</time>
      </trkpt>
      <trkpt lat="45.68361" lon="6.25482">
        <ele>2016</ele>
        <time>2016-08-04T10:20:15Z</time>
      </trkpt>
      <trkpt lat="45.68361" lon="6.25489">
        <ele>2017</ele>
        <time>2016-08-04T10:20:22Z</time>
      </trkpt>
      <trkpt lat="45.68361" lon="6.25496">
        <ele>2018</ele>
        <time>2016-08-04T10:20:32Z</time>
      </trkpt>
      <trkpt lat="45.68363" lon="6.25502">
        <ele>2019</ele>
        <time>2016-08-04T10:20:42Z</time>
      </trkpt>
      <trkpt lat="45.68365" lon="6.25509">
        <ele>2021</ele>
        <time>2016-08-04T10:20:49Z</time>
      </trkpt>
      <trkpt lat="45.68362" lon="6.25515">
        <ele>2022</ele>
        <time>2016-08-04T10:21:00Z</time>
      </trkpt>
      <trkpt lat="45.6836" lon="6.25521">
        <ele>2025</ele>
        <time>2016-08-04T10:21:11Z</time>
      </trkpt>
      <trkpt lat="45.68358" lon="6.25528">
        <ele>2029</ele>
        <time>2016-08-04T10:21:21Z</time>
      </trkpt>
      <trkpt lat="45.68354" lon="6.25532">
        <ele>2031</ele>
        <time>2016-08-04T10:21:29Z</time>
      </trkpt>
      <trkpt lat="45.68351" lon="6.25537">
        <ele>2034</ele>
        <time>2016-08-04T10:21:37Z</time>
      </trkpt>
      <trkpt lat="45.68349" lon="6.25543">
        <ele>2037</ele>
        <time>2016-08-04T10:21:49Z</time>
      </trkpt>
      <trkpt lat="45.68347" lon="6.25549">
        <ele>2038</ele>
        <time>2016-08-04T10:21:56Z</time>
      </trkpt>
      <trkpt lat="45.68346" lon="6.25556">
        <ele>2039</ele>
        <time>2016-08-04T10:22:05Z</time>
      </trkpt>
      <trkpt lat="45.68345" lon="6.25562">
        <ele>2040</ele>
        <time>2016-08-04T10:22:13Z</time>
      </trkpt>
      <trkpt lat="45.68341" lon="6.25568">
        <ele>2041</ele>
        <time>2016-08-04T10:22:31Z</time>
      </trkpt>
      <trkpt lat="45.68338" lon="6.25575">
        <ele>2041</ele>
        <time>2016-08-04T10:22:40Z</time>
      </trkpt>
      <trkpt lat="45.68336" lon="6.25581">
        <ele>2042</ele>
        <time>2016-08-04T10:22:47Z</time>
      </trkpt>
      <trkpt lat="45.68335" lon="6.25588">
        <ele>2043</ele>
        <time>2016-08-04T10:22:54Z</time>
      </trkpt>
      <trkpt lat="45.68333" lon="6.25595">
        <ele>2045</ele>
        <time>2016-08-04T10:23:01Z</time>
      </trkpt>
      <trkpt lat="45.68338" lon="6.25597">
        <ele>2046</ele>
        <time>2016-08-04T10:23:19Z</time>
      </trkpt>
      <trkpt lat="45.68343" lon="6.25594">
        <ele>2047</ele>
        <time>2016-08-04T10:23:28Z</time>
      </trkpt>
      <trkpt lat="45.68346" lon="6.25589">
        <ele>2048</ele>
        <time>2016-08-04T10:23:36Z</time>
      </trkpt>
      <trkpt lat="45.68351" lon="6.25587">
        <ele>2050</ele>
        <time>2016-08-04T10:23:43Z</time>
      </trkpt>
      <trkpt lat="45.68356" lon="6.25584">
        <ele>2050</ele>
        <time>2016-08-04T10:23:52Z</time>
      </trkpt>
      <trkpt lat="45.6836" lon="6.25581">
        <ele>2052</ele>
        <time>2016-08-04T10:24:00Z</time>
      </trkpt>
      <trkpt lat="45.68364" lon="6.25576">
        <ele>2053</ele>
        <time>2016-08-04T10:24:09Z</time>
      </trkpt>
      <trkpt lat="45.68369" lon="6.25574">
        <ele>2055</ele>
        <time>2016-08-04T10:24:19Z</time>
      </trkpt>
      <trkpt lat="45.68367" lon="6.25581">
        <ele>2057</ele>
        <time>2016-08-04T10:24:37Z</time>
      </trkpt>
      <trkpt lat="45.68365" lon="6.25587">
        <ele>2059</ele>
        <time>2016-08-04T10:24:45Z</time>
      </trkpt>
      <trkpt lat="45.68364" lon="6.25593">
        <ele>2061</ele>
        <time>2016-08-04T10:24:53Z</time>
      </trkpt>
      <trkpt lat="45.68362" lon="6.25599">
        <ele>2062</ele>
        <time>2016-08-04T10:25:00Z</time>
      </trkpt>
      <trkpt lat="45.68359" lon="6.25605">
        <ele>2064</ele>
        <time>2016-08-04T10:25:07Z</time>
      </trkpt>
      <trkpt lat="45.68359" lon="6.25612">
        <ele>2066</ele>
        <time>2016-08-04T10:25:15Z</time>
      </trkpt>
      <trkpt lat="45.68364" lon="6.25611">
        <ele>2067</ele>
        <time>2016-08-04T10:25:27Z</time>
      </trkpt>
      <trkpt lat="45.68369" lon="6.25611">
        <ele>2068</ele>
        <time>2016-08-04T10:25:40Z</time>
      </trkpt>
      <trkpt lat="45.68374" lon="6.25609">
        <ele>2069</ele>
        <time>2016-08-04T10:25:52Z</time>
      </trkpt>
      <trkpt lat="45.68377" lon="6.25613">
        <ele>2072</ele>
        <time>2016-08-04T10:26:04Z</time>
      </trkpt>
      <trkpt lat="45.68377" lon="6.25621">
        <ele>2074</ele>
        <time>2016-08-04T10:26:13Z</time>
      </trkpt>
      <trkpt lat="45.68378" lon="6.25627">
        <ele>2077</ele>
        <time>2016-08-04T10:26:23Z</time>
      </trkpt>
      <trkpt lat="45.68378" lon="6.25633">
        <ele>2080</ele>
        <time>2016-08-04T10:26:35Z</time>
      </trkpt>
      <trkpt lat="45.68378" lon="6.2564">
        <ele>2082</ele>
        <time>2016-08-04T10:26:45Z</time>
      </trkpt>
      <trkpt lat="45.68381" lon="6.25645">
        <ele>2085</ele>
        <time>2016-08-04T10:26:54Z</time>
      </trkpt>
      <trkpt lat="45.68378" lon="6.2565">
        <ele>2086</ele>
        <time>2016-08-04T10:27:04Z</time>
      </trkpt>
      <trkpt lat="45.68373" lon="6.25652">
        <ele>2088</ele>
        <time>2016-08-04T10:27:16Z</time>
      </trkpt>
      <trkpt lat="45.68375" lon="6.25659">
        <ele>2090</ele>
        <time>2016-08-04T10:27:29Z</time>
      </trkpt>
      <trkpt lat="45.68372" lon="6.25664">
        <ele>2092</ele>
        <time>2016-08-04T10:27:42Z</time>
      </trkpt>
      <trkpt lat="45.6837" lon="6.25669">
        <ele>2094</ele>
        <time>2016-08-04T10:27:55Z</time>
      </trkpt>
      <trkpt lat="45.68366" lon="6.25674">
        <ele>2096</ele>
        <time>2016-08-04T10:28:05Z</time>
      </trkpt>
      <trkpt lat="45.68364" lon="6.2568">
        <ele>2098</ele>
        <time>2016-08-04T10:28:11Z</time>
      </trkpt>
      <trkpt lat="45.68361" lon="6.25685">
        <ele>2100</ele>
        <time>2016-08-04T10:28:17Z</time>
      </trkpt>
      <trkpt lat="45.68358" lon="6.25689">
        <ele>2102</ele>
        <time>2016-08-04T10:28:22Z</time>
      </trkpt>
      <trkpt lat="45.68355" lon="6.25695">
        <ele>2103</ele>
        <time>2016-08-04T10:28:28Z</time>
      </trkpt>
      <trkpt lat="45.68353" lon="6.25701">
        <ele>2105</ele>
        <time>2016-08-04T10:28:34Z</time>
      </trkpt>
      <trkpt lat="45.6835" lon="6.25706">
        <ele>2107</ele>
        <time>2016-08-04T10:28:41Z</time>
      </trkpt>
      <trkpt lat="45.68347" lon="6.25711">
        <ele>2109</ele>
        <time>2016-08-04T10:28:48Z</time>
      </trkpt>
      <trkpt lat="45.68345" lon="6.25718">
        <ele>2111</ele>
        <time>2016-08-04T10:29:01Z</time>
      </trkpt>
      <trkpt lat="45.68342" lon="6.25723">
        <ele>2112</ele>
        <time>2016-08-04T10:29:08Z</time>
      </trkpt>
      <trkpt lat="45.6834" lon="6.25729">
        <ele>2114</ele>
        <time>2016-08-04T10:29:14Z</time>
      </trkpt>
      <trkpt lat="45.68337" lon="6.25735">
        <ele>2116</ele>
        <time>2016-08-04T10:29:20Z</time>
      </trkpt>
      <trkpt lat="45.68334" lon="6.2574">
        <ele>2117</ele>
        <time>2016-08-04T10:29:26Z</time>
      </trkpt>
      <trkpt lat="45.68332" lon="6.25746">
        <ele>2118</ele>
        <time>2016-08-04T10:29:33Z</time>
      </trkpt>
      <trkpt lat="45.68329" lon="6.25751">
        <ele>2119</ele>
        <time>2016-08-04T10:29:41Z</time>
      </trkpt>
      <trkpt lat="45.68325" lon="6.25757">
        <ele>2120</ele>
        <time>2016-08-04T10:29:47Z</time>
      </trkpt>
      <trkpt lat="45.68321" lon="6.25761">
        <ele>2120</ele>
        <time>2016-08-04T10:29:53Z</time>
      </trkpt>
      <trkpt lat="45.68319" lon="6.25767">
        <ele>2121</ele>
        <time>2016-08-04T10:30:02Z</time>
      </trkpt>
      <trkpt lat="45.68324" lon="6.25767">
        <ele>2123</ele>
        <time>2016-08-04T10:30:17Z</time>
      </trkpt>
      <trkpt lat="45.68329" lon="6.25767">
        <ele>2123</ele>
        <time>2016-08-04T10:30:22Z</time>
      </trkpt>
      <trkpt lat="45.68334" lon="6.25765">
        <ele>2125</ele>
        <time>2016-08-04T10:30:31Z</time>
      </trkpt>
      <trkpt lat="45.68338" lon="6.25764">
        <ele>2126</ele>
        <time>2016-08-04T10:30:37Z</time>
      </trkpt>
      <trkpt lat="45.68343" lon="6.25762">
        <ele>2127</ele>
        <time>2016-08-04T10:30:44Z</time>
      </trkpt>
      <trkpt lat="45.68347" lon="6.25761">
        <ele>2129</ele>
        <time>2016-08-04T10:30:51Z</time>
      </trkpt>
      <trkpt lat="45.68352" lon="6.25759">
        <ele>2130</ele>
        <time>2016-08-04T10:30:59Z</time>
      </trkpt>
      <trkpt lat="45.68356" lon="6.25756">
        <ele>2132</ele>
        <time>2016-08-04T10:31:09Z</time>
      </trkpt>
      <trkpt lat="45.68361" lon="6.25754">
        <ele>2134</ele>
        <time>2016-08-04T10:31:17Z</time>
      </trkpt>
      <trkpt lat="45.68366" lon="6.25753">
        <ele>2135</ele>
        <time>2016-08-04T10:31:27Z</time>
      </trkpt>
      <trkpt lat="45.6837" lon="6.25751">
        <ele>2135</ele>
        <time>2016-08-04T10:31:34Z</time>
      </trkpt>
      <trkpt lat="45.68375" lon="6.25751">
        <ele>2136</ele>
        <time>2016-08-04T10:31:42Z</time>
      </trkpt>
      <trkpt lat="45.6838" lon="6.25749">
        <ele>2136</ele>
        <time>2016-08-04T10:31:50Z</time>
      </trkpt>
      <trkpt lat="45.68379" lon="6.25756">
        <ele>2137</ele>
        <time>2016-08-04T10:32:07Z</time>
      </trkpt>
      <trkpt lat="45.68375" lon="6.25761">
        <ele>2139</ele>
        <time>2016-08-04T10:32:14Z</time>
      </trkpt>
      <trkpt lat="45.68372" lon="6.25766">
        <ele>2140</ele>
        <time>2016-08-04T10:32:21Z</time>
      </trkpt>
      <trkpt lat="45.68369" lon="6.25772">
        <ele>2142</ele>
        <time>2016-08-04T10:32:27Z</time>
      </trkpt>
      <trkpt lat="45.68367" lon="6.25778">
        <ele>2144</ele>
        <time>2016-08-04T10:32:33Z</time>
      </trkpt>
      <trkpt lat="45.68364" lon="6.25784">
        <ele>2145</ele>
        <time>2016-08-04T10:32:40Z</time>
      </trkpt>
      <trkpt lat="45.68361" lon="6.2579">
        <ele>2147</ele>
        <time>2016-08-04T10:32:46Z</time>
      </trkpt>
      <trkpt lat="45.68366" lon="6.25792">
        <ele>2150</ele>
        <time>2016-08-04T10:33:00Z</time>
      </trkpt>
      <trkpt lat="45.6837" lon="6.2579">
        <ele>2152</ele>
        <time>2016-08-04T10:33:08Z</time>
      </trkpt>
      <trkpt lat="45.68376" lon="6.25789">
        <ele>2154</ele>
        <time>2016-08-04T10:33:17Z</time>
      </trkpt>
      <trkpt lat="45.6838" lon="6.25786">
        <ele>2156</ele>
        <time>2016-08-04T10:33:24Z</time>
      </trkpt>
      <trkpt lat="45.68385" lon="6.25785">
        <ele>2157</ele>
        <time>2016-08-04T10:33:31Z</time>
      </trkpt>
      <trkpt lat="45.6839" lon="6.25785">
        <ele>2159</ele>
        <time>2016-08-04T10:33:38Z</time>
      </trkpt>
      <trkpt lat="45.68395" lon="6.25783">
        <ele>2161</ele>
        <time>2016-08-04T10:33:44Z</time>
      </trkpt>
      <trkpt lat="45.68399" lon="6.25782">
        <ele>2163</ele>
        <time>2016-08-04T10:33:50Z</time>
      </trkpt>
      <trkpt lat="45.68398" lon="6.25788">
        <ele>2165</ele>
        <time>2016-08-04T10:34:03Z</time>
      </trkpt>
      <trkpt lat="45.68396" lon="6.25794">
        <ele>2167</ele>
        <time>2016-08-04T10:34:10Z</time>
      </trkpt>
      <trkpt lat="45.68394" lon="6.25801">
        <ele>2169</ele>
        <time>2016-08-04T10:34:18Z</time>
      </trkpt>
      <trkpt lat="45.68393" lon="6.25808">
        <ele>2170</ele>
        <time>2016-08-04T10:34:26Z</time>
      </trkpt>
      <trkpt lat="45.6839" lon="6.25813">
        <ele>2171</ele>
        <time>2016-08-04T10:34:31Z</time>
      </trkpt>
      <trkpt lat="45.68389" lon="6.2582">
        <ele>2172</ele>
        <time>2016-08-04T10:34:39Z</time>
      </trkpt>
      <trkpt lat="45.68388" lon="6.25823">
        <ele>2172</ele>
        <time>2016-08-04T10:35:08Z</time>
      </trkpt>
      <trkpt lat="45.68388" lon="6.25823">
        <ele>2172</ele>
        <time>2016-08-04T10:35:09Z</time>
      </trkpt>
      <trkpt lat="45.68388" lon="6.25823">
        <ele>2173</ele>
        <time>2016-08-04T10:35:38Z</time>
      </trkpt>
      <trkpt lat="45.68388" lon="6.25823">
        <ele>2173</ele>
        <time>2016-08-04T10:35:39Z</time>
      </trkpt>
      <trkpt lat="45.68388" lon="6.25823">
        <ele>2173</ele>
        <time>2016-08-04T10:36:08Z</time>
      </trkpt>
      <trkpt lat="45.68388" lon="6.25823">
        <ele>2173</ele>
        <time>2016-08-04T10:36:09Z</time>
      </trkpt>
      <trkpt lat="45.68388" lon="6.25823">
        <ele>2173</ele>
        <time>2016-08-04T10:36:38Z</time>
      </trkpt>
      <trkpt lat="45.68388" lon="6.25823">
        <ele>2173</ele>
        <time>2016-08-04T10:36:39Z</time>
      </trkpt>
      <trkpt lat="45.68388" lon="6.25823">
        <ele>2174</ele>
        <time>2016-08-04T10:37:08Z</time>
      </trkpt>
      <trkpt lat="45.68388" lon="6.25823">
        <ele>2174</ele>
        <time>2016-08-04T10:37:09Z</time>
      </trkpt>
      <trkpt lat="45.68388" lon="6.25823">
        <ele>2174</ele>
        <time>2016-08-04T10:37:38Z</time>
      </trkpt>
      <trkpt lat="45.68388" lon="6.25823">
        <ele>2174</ele>
        <time>2016-08-04T10:37:39Z</time>
      </trkpt>
      <trkpt lat="45.68388" lon="6.25823">
        <ele>2174</ele>
        <time>2016-08-04T10:38:08Z</time>
      </trkpt>
      <trkpt lat="45.68388" lon="6.25823">
        <ele>2174</ele>
        <time>2016-08-04T10:38:09Z</time>
      </trkpt>
      <trkpt lat="45.68388" lon="6.25823">
        <ele>2173</ele>
        <time>2016-08-04T10:38:38Z</time>
      </trkpt>
      <trkpt lat="45.68388" lon="6.25823">
        <ele>2173</ele>
        <time>2016-08-04T10:38:39Z</time>
      </trkpt>
      <trkpt lat="45.68388" lon="6.25825">
        <ele>2173</ele>
        <time>2016-08-04T10:39:08Z</time>
      </trkpt>
      <trkpt lat="45.68388" lon="6.25825">
        <ele>2173</ele>
        <time>2016-08-04T10:39:09Z</time>
      </trkpt>
      <trkpt lat="45.68386" lon="6.25826">
        <ele>2173</ele>
        <time>2016-08-04T10:39:38Z</time>
      </trkpt>
      <trkpt lat="45.68386" lon="6.25826">
        <ele>2173</ele>
        <time>2016-08-04T10:39:39Z</time>
      </trkpt>
      <trkpt lat="45.68386" lon="6.25826">
        <ele>2174</ele>
        <time>2016-08-04T10:40:08Z</time>
      </trkpt>
      <trkpt lat="45.68386" lon="6.25826">
        <ele>2174</ele>
        <time>2016-08-04T10:40:09Z</time>
      </trkpt>
      <trkpt lat="45.68386" lon="6.25826">
        <ele>2174</ele>
        <time>2016-08-04T10:40:38Z</time>
      </trkpt>
      <trkpt lat="45.68386" lon="6.25826">
        <ele>2174</ele>
        <time>2016-08-04T10:40:39Z</time>
      </trkpt>
      <trkpt lat="45.68383" lon="6.25827">
        <ele>2175</ele>
        <time>2016-08-04T10:41:08Z</time>
      </trkpt>
      <trkpt lat="45.68383" lon="6.25827">
        <ele>2176</ele>
        <time>2016-08-04T10:41:09Z</time>
      </trkpt>
      <trkpt lat="45.68384" lon="6.25827">
        <ele>2176</ele>
        <time>2016-08-04T10:41:38Z</time>
      </trkpt>
      <trkpt lat="45.68384" lon="6.25827">
        <ele>2177</ele>
        <time>2016-08-04T10:41:39Z</time>
      </trkpt>
      <trkpt lat="45.68386" lon="6.25826">
        <ele>2178</ele>
        <time>2016-08-04T10:42:08Z</time>
      </trkpt>
      <trkpt lat="45.68385" lon="6.25825">
        <ele>2177</ele>
        <time>2016-08-04T10:42:09Z</time>
      </trkpt>
      <trkpt lat="45.68386" lon="6.25827">
        <ele>2177</ele>
        <time>2016-08-04T10:42:38Z</time>
      </trkpt>
      <trkpt lat="45.68386" lon="6.25827">
        <ele>2176</ele>
        <time>2016-08-04T10:42:39Z</time>
      </trkpt>
      <trkpt lat="45.68386" lon="6.25827">
        <ele>2175</ele>
        <time>2016-08-04T10:43:08Z</time>
      </trkpt>
      <trkpt lat="45.68386" lon="6.25827">
        <ele>2175</ele>
        <time>2016-08-04T10:43:09Z</time>
      </trkpt>
      <trkpt lat="45.68386" lon="6.25827">
        <ele>2175</ele>
        <time>2016-08-04T10:43:38Z</time>
      </trkpt>
      <trkpt lat="45.68386" lon="6.25827">
        <ele>2175</ele>
        <time>2016-08-04T10:43:39Z</time>
      </trkpt>
      <trkpt lat="45.68386" lon="6.25827">
        <ele>2175</ele>
        <time>2016-08-04T10:44:08Z</time>
      </trkpt>
      <trkpt lat="45.68386" lon="6.25827">
        <ele>2175</ele>
        <time>2016-08-04T10:44:09Z</time>
      </trkpt>
      <trkpt lat="45.68386" lon="6.25827">
        <ele>2175</ele>
        <time>2016-08-04T10:44:38Z</time>
      </trkpt>
      <trkpt lat="45.68386" lon="6.25827">
        <ele>2175</ele>
        <time>2016-08-04T10:44:39Z</time>
      </trkpt>
      <trkpt lat="45.68386" lon="6.25827">
        <ele>2175</ele>
        <time>2016-08-04T10:45:08Z</time>
      </trkpt>
      <trkpt lat="45.68386" lon="6.25827">
        <ele>2175</ele>
        <time>2016-08-04T10:45:09Z</time>
      </trkpt>
      <trkpt lat="45.68386" lon="6.25827">
        <ele>2175</ele>
        <time>2016-08-04T10:45:38Z</time>
      </trkpt>
      <trkpt lat="45.68386" lon="6.25827">
        <ele>2175</ele>
        <time>2016-08-04T10:45:39Z</time>
      </trkpt>
      <trkpt lat="45.68386" lon="6.25827">
        <ele>2175</ele>
        <time>2016-08-04T10:46:08Z</time>
      </trkpt>
      <trkpt lat="45.68386" lon="6.25827">
        <ele>2175</ele>
        <time>2016-08-04T10:46:09Z</time>
      </trkpt>
      <trkpt lat="45.68386" lon="6.25827">
        <ele>2175</ele>
        <time>2016-08-04T10:46:38Z</time>
      </trkpt>
      <trkpt lat="45.68386" lon="6.25827">
        <ele>2175</ele>
        <time>2016-08-04T10:46:39Z</time>
      </trkpt>
      <trkpt lat="45.68386" lon="6.25827">
        <ele>2175</ele>
        <time>2016-08-04T10:47:08Z</time>
      </trkpt>
      <trkpt lat="45.68386" lon="6.25827">
        <ele>2175</ele>
        <time>2016-08-04T10:47:09Z</time>
      </trkpt>
      <trkpt lat="45.68386" lon="6.25827">
        <ele>2175</ele>
        <time>2016-08-04T10:47:38Z</time>
      </trkpt>
      <trkpt lat="45.68386" lon="6.25827">
        <ele>2175</ele>
        <time>2016-08-04T10:47:39Z</time>
      </trkpt>
      <trkpt lat="45.68386" lon="6.25827">
        <ele>2175</ele>
        <time>2016-08-04T10:48:08Z</time>
      </trkpt>
      <trkpt lat="45.68386" lon="6.25827">
        <ele>2175</ele>
        <time>2016-08-04T10:48:09Z</time>
      </trkpt>
      <trkpt lat="45.68386" lon="6.25827">
        <ele>2175</ele>
        <time>2016-08-04T10:48:39Z</time>
      </trkpt>
      <trkpt lat="45.68386" lon="6.25827">
        <ele>2175</ele>
        <time>2016-08-04T10:48:40Z</time>
      </trkpt>
      <trkpt lat="45.68386" lon="6.25827">
        <ele>2175</ele>
        <time>2016-08-04T10:49:09Z</time>
      </trkpt>
      <trkpt lat="45.68386" lon="6.25827">
        <ele>2175</ele>
        <time>2016-08-04T10:49:10Z</time>
      </trkpt>
      <trkpt lat="45.68386" lon="6.25827">
        <ele>2175</ele>
        <time>2016-08-04T10:49:39Z</time>
      </trkpt>
      <trkpt lat="45.68386" lon="6.25827">
        <ele>2175</ele>
        <time>2016-08-04T10:49:40Z</time>
      </trkpt>
      <trkpt lat="45.68386" lon="6.25827">
        <ele>2175</ele>
        <time>2016-08-04T10:50:09Z</time>
      </trkpt>
      <trkpt lat="45.68386" lon="6.25827">
        <ele>2175</ele>
        <time>2016-08-04T10:50:10Z</time>
      </trkpt>
      <trkpt lat="45.68386" lon="6.25827">
        <ele>2175</ele>
        <time>2016-08-04T10:50:39Z</time>
      </trkpt>
      <trkpt lat="45.68386" lon="6.25827">
        <ele>2175</ele>
        <time>2016-08-04T10:50:40Z</time>
      </trkpt>
      <trkpt lat="45.68386" lon="6.25827">
        <ele>2175</ele>
        <time>2016-08-04T10:51:09Z</time>
      </trkpt>
      <trkpt lat="45.68386" lon="6.25827">
        <ele>2175</ele>
        <time>2016-08-04T10:51:10Z</time>
      </trkpt>
      <trkpt lat="45.68386" lon="6.25827">
        <ele>2175</ele>
        <time>2016-08-04T10:51:39Z</time>
      </trkpt>
      <trkpt lat="45.68386" lon="6.25827">
        <ele>2175</ele>
        <time>2016-08-04T10:51:40Z</time>
      </trkpt>
      <trkpt lat="45.68386" lon="6.25827">
        <ele>2175</ele>
        <time>2016-08-04T10:52:09Z</time>
      </trkpt>
      <trkpt lat="45.68386" lon="6.25827">
        <ele>2175</ele>
        <time>2016-08-04T10:52:10Z</time>
      </trkpt>
      <trkpt lat="45.68386" lon="6.25827">
        <ele>2175</ele>
        <time>2016-08-04T10:52:39Z</time>
      </trkpt>
      <trkpt lat="45.68386" lon="6.25827">
        <ele>2175</ele>
        <time>2016-08-04T10:52:40Z</time>
      </trkpt>
      <trkpt lat="45.68385" lon="6.25827">
        <ele>2175</ele>
        <time>2016-08-04T10:53:09Z</time>
      </trkpt>
      <trkpt lat="45.68385" lon="6.25827">
        <ele>2175</ele>
        <time>2016-08-04T10:53:10Z</time>
      </trkpt>
      <trkpt lat="45.68385" lon="6.25827">
        <ele>2175</ele>
        <time>2016-08-04T10:53:39Z</time>
      </trkpt>
      <trkpt lat="45.68385" lon="6.25827">
        <ele>2175</ele>
        <time>2016-08-04T10:53:40Z</time>
      </trkpt>
      <trkpt lat="45.68385" lon="6.25827">
        <ele>2175</ele>
        <time>2016-08-04T10:54:09Z</time>
      </trkpt>
      <trkpt lat="45.68385" lon="6.25827">
        <ele>2175</ele>
        <time>2016-08-04T10:54:10Z</time>
      </trkpt>
      <trkpt lat="45.68385" lon="6.25827">
        <ele>2175</ele>
        <time>2016-08-04T10:54:39Z</time>
      </trkpt>
      <trkpt lat="45.68385" lon="6.25827">
        <ele>2175</ele>
        <time>2016-08-04T10:54:40Z</time>
      </trkpt>
      <trkpt lat="45.68389" lon="6.25825">
        <ele>2175</ele>
        <time>2016-08-04T10:55:09Z</time>
      </trkpt>
      <trkpt lat="45.68389" lon="6.25825">
        <ele>2176</ele>
        <time>2016-08-04T10:55:10Z</time>
      </trkpt>
      <trkpt lat="45.68387" lon="6.25825">
        <ele>2176</ele>
        <time>2016-08-04T10:55:39Z</time>
      </trkpt>
      <trkpt lat="45.68387" lon="6.25825">
        <ele>2177</ele>
        <time>2016-08-04T10:55:40Z</time>
      </trkpt>
      <trkpt lat="45.68389" lon="6.25825">
        <ele>2177</ele>
        <time>2016-08-04T10:56:09Z</time>
      </trkpt>
      <trkpt lat="45.68388" lon="6.25825">
        <ele>2176</ele>
        <time>2016-08-04T10:56:10Z</time>
      </trkpt>
      <trkpt lat="45.68387" lon="6.25824">
        <ele>2176</ele>
        <time>2016-08-04T10:56:39Z</time>
      </trkpt>
      <trkpt lat="45.68387" lon="6.25824">
        <ele>2175</ele>
        <time>2016-08-04T10:56:40Z</time>
      </trkpt>
      <trkpt lat="45.68387" lon="6.25826">
        <ele>2175</ele>
        <time>2016-08-04T10:57:09Z</time>
      </trkpt>
      <trkpt lat="45.68387" lon="6.25826">
        <ele>2175</ele>
        <time>2016-08-04T10:57:10Z</time>
      </trkpt>
      <trkpt lat="45.68382" lon="6.25824">
        <ele>2175</ele>
        <time>2016-08-04T10:57:17Z</time>
      </trkpt>
      <trkpt lat="45.68377" lon="6.25827">
        <ele>2176</ele>
        <time>2016-08-04T10:57:22Z</time>
      </trkpt>
      <trkpt lat="45.68382" lon="6.25826">
        <ele>2176</ele>
        <time>2016-08-04T10:57:33Z</time>
      </trkpt>
      <trkpt lat="45.68385" lon="6.25826">
        <ele>2176</ele>
        <time>2016-08-04T10:57:54Z</time>
      </trkpt>
      <trkpt lat="45.68385" lon="6.25826">
        <ele>2176</ele>
        <time>2016-08-04T10:57:55Z</time>
      </trkpt>
      <trkpt lat="45.68385" lon="6.25826">
        <ele>2176</ele>
        <time>2016-08-04T10:58:24Z</time>
      </trkpt>
      <trkpt lat="45.68386" lon="6.25826">
        <ele>2176</ele>
        <time>2016-08-04T10:58:25Z</time>
      </trkpt>
      <trkpt lat="45.68386" lon="6.25823">
        <ele>2175</ele>
        <time>2016-08-04T10:58:54Z</time>
      </trkpt>
      <trkpt lat="45.68385" lon="6.2582">
        <ele>2175</ele>
        <time>2016-08-04T10:58:55Z</time>
      </trkpt>
      <trkpt lat="45.68385" lon="6.2583">
        <ele>2175</ele>
        <time>2016-08-04T10:59:00Z</time>
      </trkpt>
      <trkpt lat="45.68388" lon="6.25828">
        <ele>2175</ele>
        <time>2016-08-04T10:59:24Z</time>
      </trkpt>
      <trkpt lat="45.68388" lon="6.25828">
        <ele>2175</ele>
        <time>2016-08-04T10:59:25Z</time>
      </trkpt>
      <trkpt lat="45.68388" lon="6.25828">
        <ele>2175</ele>
        <time>2016-08-04T10:59:54Z</time>
      </trkpt>
      <trkpt lat="45.68388" lon="6.25828">
        <ele>2174</ele>
        <time>2016-08-04T10:59:55Z</time>
      </trkpt>
      <trkpt lat="45.68387" lon="6.25828">
        <ele>2175</ele>
        <time>2016-08-04T11:00:24Z</time>
      </trkpt>
      <trkpt lat="45.68387" lon="6.25828">
        <ele>2175</ele>
        <time>2016-08-04T11:00:25Z</time>
      </trkpt>
      <trkpt lat="45.68387" lon="6.25826">
        <ele>2175</ele>
        <time>2016-08-04T11:00:54Z</time>
      </trkpt>
      <trkpt lat="45.68387" lon="6.25826">
        <ele>2175</ele>
        <time>2016-08-04T11:00:55Z</time>
      </trkpt>
      <trkpt lat="45.68386" lon="6.25826">
        <ele>2175</ele>
        <time>2016-08-04T11:01:24Z</time>
      </trkpt>
      <trkpt lat="45.68386" lon="6.25826">
        <ele>2175</ele>
        <time>2016-08-04T11:01:25Z</time>
      </trkpt>
      <trkpt lat="45.68386" lon="6.25826">
        <ele>2175</ele>
        <time>2016-08-04T11:01:54Z</time>
      </trkpt>
      <trkpt lat="45.68386" lon="6.25826">
        <ele>2175</ele>
        <time>2016-08-04T11:01:55Z</time>
      </trkpt>
      <trkpt lat="45.68385" lon="6.25826">
        <ele>2175</ele>
        <time>2016-08-04T11:02:24Z</time>
      </trkpt>
      <trkpt lat="45.68386" lon="6.25826">
        <ele>2176</ele>
        <time>2016-08-04T11:02:25Z</time>
      </trkpt>
      <trkpt lat="45.68386" lon="6.25826">
        <ele>2176</ele>
        <time>2016-08-04T11:02:54Z</time>
      </trkpt>
      <trkpt lat="45.68386" lon="6.25826">
        <ele>2176</ele>
        <time>2016-08-04T11:02:55Z</time>
      </trkpt>
      <trkpt lat="45.68386" lon="6.25826">
        <ele>2176</ele>
        <time>2016-08-04T11:03:24Z</time>
      </trkpt>
      <trkpt lat="45.68386" lon="6.25826">
        <ele>2176</ele>
        <time>2016-08-04T11:03:25Z</time>
      </trkpt>
      <trkpt lat="45.68386" lon="6.25826">
        <ele>2176</ele>
        <time>2016-08-04T11:03:54Z</time>
      </trkpt>
      <trkpt lat="45.68386" lon="6.25826">
        <ele>2176</ele>
        <time>2016-08-04T11:03:55Z</time>
      </trkpt>
      <trkpt lat="45.68385" lon="6.25825">
        <ele>2175</ele>
        <time>2016-08-04T11:04:24Z</time>
      </trkpt>
      <trkpt lat="45.68386" lon="6.25825">
        <ele>2175</ele>
        <time>2016-08-04T11:04:25Z</time>
      </trkpt>
      <trkpt lat="45.68385" lon="6.25825">
        <ele>2175</ele>
        <time>2016-08-04T11:04:54Z</time>
      </trkpt>
      <trkpt lat="45.68385" lon="6.25825">
        <ele>2175</ele>
        <time>2016-08-04T11:04:55Z</time>
      </trkpt>
      <trkpt lat="45.68385" lon="6.25826">
        <ele>2175</ele>
        <time>2016-08-04T11:05:24Z</time>
      </trkpt>
      <trkpt lat="45.68385" lon="6.25826">
        <ele>2175</ele>
        <time>2016-08-04T11:05:25Z</time>
      </trkpt>
      <trkpt lat="45.68385" lon="6.25826">
        <ele>2175</ele>
        <time>2016-08-04T11:05:54Z</time>
      </trkpt>
      <trkpt lat="45.68385" lon="6.25826">
        <ele>2175</ele>
        <time>2016-08-04T11:05:55Z</time>
      </trkpt>
      <trkpt lat="45.68385" lon="6.25826">
        <ele>2175</ele>
        <time>2016-08-04T11:06:24Z</time>
      </trkpt>
      <trkpt lat="45.68385" lon="6.25826">
        <ele>2175</ele>
        <time>2016-08-04T11:06:25Z</time>
      </trkpt>
      <trkpt lat="45.68385" lon="6.25826">
        <ele>2175</ele>
        <time>2016-08-04T11:06:54Z</time>
      </trkpt>
      <trkpt lat="45.68385" lon="6.25826">
        <ele>2175</ele>
        <time>2016-08-04T11:06:55Z</time>
      </trkpt>
      <trkpt lat="45.68387" lon="6.25824">
        <ele>2175</ele>
        <time>2016-08-04T11:07:24Z</time>
      </trkpt>
      <trkpt lat="45.68387" lon="6.25824">
        <ele>2174</ele>
        <time>2016-08-04T11:07:25Z</time>
      </trkpt>
      <trkpt lat="45.68387" lon="6.25824">
        <ele>2174</ele>
        <time>2016-08-04T11:07:54Z</time>
      </trkpt>
      <trkpt lat="45.68387" lon="6.25824">
        <ele>2174</ele>
        <time>2016-08-04T11:07:55Z</time>
      </trkpt>
      <trkpt lat="45.68387" lon="6.25824">
        <ele>2175</ele>
        <time>2016-08-04T11:08:24Z</time>
      </trkpt>
      <trkpt lat="45.68387" lon="6.25824">
        <ele>2175</ele>
        <time>2016-08-04T11:08:25Z</time>
      </trkpt>
      <trkpt lat="45.68382" lon="6.25824">
        <ele>2175</ele>
        <time>2016-08-04T11:08:54Z</time>
      </trkpt>
      <trkpt lat="45.68382" lon="6.25825">
        <ele>2176</ele>
        <time>2016-08-04T11:08:55Z</time>
      </trkpt>
      <trkpt lat="45.68376" lon="6.25823">
        <ele>2176</ele>
        <time>2016-08-04T11:09:01Z</time>
      </trkpt>
      <trkpt lat="45.68372" lon="6.25824">
        <ele>2175</ele>
        <time>2016-08-04T11:09:06Z</time>
      </trkpt>
      <trkpt lat="45.68367" lon="6.25822">
        <ele>2173</ele>
        <time>2016-08-04T11:09:20Z</time>
      </trkpt>
      <trkpt lat="45.68362" lon="6.25823">
        <ele>2172</ele>
        <time>2016-08-04T11:09:30Z</time>
      </trkpt>
      <trkpt lat="45.68358" lon="6.25822">
        <ele>2169</ele>
        <time>2016-08-04T11:09:47Z</time>
      </trkpt>
      <trkpt lat="45.68353" lon="6.2582">
        <ele>2167</ele>
        <time>2016-08-04T11:09:58Z</time>
      </trkpt>
      <trkpt lat="45.68348" lon="6.25819">
        <ele>2164</ele>
        <time>2016-08-04T11:10:05Z</time>
      </trkpt>
      <trkpt lat="45.68345" lon="6.25822">
        <ele>2161</ele>
        <time>2016-08-04T11:10:13Z</time>
      </trkpt>
      <trkpt lat="45.68341" lon="6.25818">
        <ele>2157</ele>
        <time>2016-08-04T11:10:26Z</time>
      </trkpt>
      <trkpt lat="45.68336" lon="6.25821">
        <ele>2155</ele>
        <time>2016-08-04T11:10:36Z</time>
      </trkpt>
      <trkpt lat="45.6833" lon="6.25822">
        <ele>2152</ele>
        <time>2016-08-04T11:10:43Z</time>
      </trkpt>
      <trkpt lat="45.68322" lon="6.25825">
        <ele>2149</ele>
        <time>2016-08-04T11:10:48Z</time>
      </trkpt>
      <trkpt lat="45.6831" lon="6.25831">
        <ele>2146</ele>
        <time>2016-08-04T11:10:53Z</time>
      </trkpt>
      <trkpt lat="45.68299" lon="6.25838">
        <ele>2143</ele>
        <time>2016-08-04T11:10:58Z</time>
      </trkpt>
      <trkpt lat="45.68289" lon="6.25846">
        <ele>2141</ele>
        <time>2016-08-04T11:11:03Z</time>
      </trkpt>
      <trkpt lat="45.68284" lon="6.2585">
        <ele>2138</ele>
        <time>2016-08-04T11:11:12Z</time>
      </trkpt>
      <trkpt lat="45.68274" lon="6.25856">
        <ele>2136</ele>
        <time>2016-08-04T11:11:17Z</time>
      </trkpt>
      <trkpt lat="45.68265" lon="6.25858">
        <ele>2134</ele>
        <time>2016-08-04T11:11:22Z</time>
      </trkpt>
      <trkpt lat="45.6826" lon="6.25859">
        <ele>2132</ele>
        <time>2016-08-04T11:11:29Z</time>
      </trkpt>
      <trkpt lat="45.6825" lon="6.25863">
        <ele>2130</ele>
        <time>2016-08-04T11:11:34Z</time>
      </trkpt>
      <trkpt lat="45.68243" lon="6.25866">
        <ele>2128</ele>
        <time>2016-08-04T11:11:39Z</time>
      </trkpt>
      <trkpt lat="45.68242" lon="6.2587">
        <ele>2126</ele>
        <time>2016-08-04T11:11:54Z</time>
      </trkpt>
      <trkpt lat="45.68242" lon="6.25871">
        <ele>2125</ele>
        <time>2016-08-04T11:11:55Z</time>
      </trkpt>
      <trkpt lat="45.68243" lon="6.25877">
        <ele>2123</ele>
        <time>2016-08-04T11:12:02Z</time>
      </trkpt>
      <trkpt lat="45.68246" lon="6.25883">
        <ele>2121</ele>
        <time>2016-08-04T11:12:10Z</time>
      </trkpt>
      <trkpt lat="45.68251" lon="6.25892">
        <ele>2120</ele>
        <time>2016-08-04T11:12:15Z</time>
      </trkpt>
      <trkpt lat="45.68255" lon="6.259">
        <ele>2117</ele>
        <time>2016-08-04T11:12:20Z</time>
      </trkpt>
      <trkpt lat="45.68256" lon="6.25906">
        <ele>2115</ele>
        <time>2016-08-04T11:12:39Z</time>
      </trkpt>
      <trkpt lat="45.68256" lon="6.25906">
        <ele>2112</ele>
        <time>2016-08-04T11:12:40Z</time>
      </trkpt>
      <trkpt lat="45.68253" lon="6.25911">
        <ele>2109</ele>
        <time>2016-08-04T11:12:51Z</time>
      </trkpt>
      <trkpt lat="45.68249" lon="6.25914">
        <ele>2107</ele>
        <time>2016-08-04T11:12:58Z</time>
      </trkpt>
      <trkpt lat="45.68252" lon="6.25919">
        <ele>2105</ele>
        <time>2016-08-04T11:13:08Z</time>
      </trkpt>
      <trkpt lat="45.68252" lon="6.25924">
        <ele>2102</ele>
        <time>2016-08-04T11:13:24Z</time>
      </trkpt>
      <trkpt lat="45.68252" lon="6.25924">
        <ele>2100</ele>
        <time>2016-08-04T11:13:25Z</time>
      </trkpt>
      <trkpt lat="45.68252" lon="6.25923">
        <ele>2098</ele>
        <time>2016-08-04T11:13:54Z</time>
      </trkpt>
      <trkpt lat="45.68252" lon="6.25923">
        <ele>2097</ele>
        <time>2016-08-04T11:13:55Z</time>
      </trkpt>
      <trkpt lat="45.68246" lon="6.25926">
        <ele>2096</ele>
        <time>2016-08-04T11:14:10Z</time>
      </trkpt>
      <trkpt lat="45.68245" lon="6.25932">
        <ele>2095</ele>
        <time>2016-08-04T11:14:15Z</time>
      </trkpt>
      <trkpt lat="45.68244" lon="6.25934">
        <ele>2094</ele>
        <time>2016-08-04T11:14:39Z</time>
      </trkpt>
      <trkpt lat="45.68244" lon="6.25934">
        <ele>2093</ele>
        <time>2016-08-04T11:14:40Z</time>
      </trkpt>
      <trkpt lat="45.68243" lon="6.25933">
        <ele>2092</ele>
        <time>2016-08-04T11:15:09Z</time>
      </trkpt>
      <trkpt lat="45.68243" lon="6.25934">
        <ele>2091</ele>
        <time>2016-08-04T11:15:10Z</time>
      </trkpt>
      <trkpt lat="45.68239" lon="6.25934">
        <ele>2091</ele>
        <time>2016-08-04T11:15:39Z</time>
      </trkpt>
      <trkpt lat="45.68239" lon="6.25934">
        <ele>2090</ele>
        <time>2016-08-04T11:15:40Z</time>
      </trkpt>
      <trkpt lat="45.68234" lon="6.25935">
        <ele>2089</ele>
        <time>2016-08-04T11:15:51Z</time>
      </trkpt>
      <trkpt lat="45.6823" lon="6.25938">
        <ele>2088</ele>
        <time>2016-08-04T11:16:00Z</time>
      </trkpt>
      <trkpt lat="45.68226" lon="6.25942">
        <ele>2086</ele>
        <time>2016-08-04T11:16:12Z</time>
      </trkpt>
      <trkpt lat="45.6822" lon="6.25944">
        <ele>2084</ele>
        <time>2016-08-04T11:16:17Z</time>
      </trkpt>
      <trkpt lat="45.68216" lon="6.25951">
        <ele>2081</ele>
        <time>2016-08-04T11:16:34Z</time>
      </trkpt>
      <trkpt lat="45.68211" lon="6.25954">
        <ele>2079</ele>
        <time>2016-08-04T11:16:46Z</time>
      </trkpt>
      <trkpt lat="45.68209" lon="6.2596">
        <ele>2076</ele>
        <time>2016-08-04T11:17:02Z</time>
      </trkpt>
      <trkpt lat="45.6821" lon="6.25967">
        <ele>2073</ele>
        <time>2016-08-04T11:17:11Z</time>
      </trkpt>
      <trkpt lat="45.68206" lon="6.25971">
        <ele>2069</ele>
        <time>2016-08-04T11:17:29Z</time>
      </trkpt>
      <trkpt lat="45.68209" lon="6.25978">
        <ele>2066</ele>
        <time>2016-08-04T11:17:35Z</time>
      </trkpt>
      <trkpt lat="45.68205" lon="6.25981">
        <ele>2063</ele>
        <time>2016-08-04T11:17:51Z</time>
      </trkpt>
      <trkpt lat="45.682" lon="6.25982">
        <ele>2061</ele>
        <time>2016-08-04T11:17:56Z</time>
      </trkpt>
      <trkpt lat="45.68196" lon="6.25982">
        <ele>2058</ele>
        <time>2016-08-04T11:18:01Z</time>
      </trkpt>
      <trkpt lat="45.68192" lon="6.25987">
        <ele>2056</ele>
        <time>2016-08-04T11:18:24Z</time>
      </trkpt>
      <trkpt lat="45.68194" lon="6.25992">
        <ele>2054</ele>
        <time>2016-08-04T11:18:29Z</time>
      </trkpt>
      <trkpt lat="45.68194" lon="6.25999">
        <ele>2051</ele>
        <time>2016-08-04T11:18:39Z</time>
      </trkpt>
      <trkpt lat="45.68197" lon="6.26005">
        <ele>2049</ele>
        <time>2016-08-04T11:18:44Z</time>
      </trkpt>
      <trkpt lat="45.68197" lon="6.26012">
        <ele>2046</ele>
        <time>2016-08-04T11:18:53Z</time>
      </trkpt>
      <trkpt lat="45.68193" lon="6.26019">
        <ele>2044</ele>
        <time>2016-08-04T11:18:59Z</time>
      </trkpt>
      <trkpt lat="45.68192" lon="6.26026">
        <ele>2042</ele>
        <time>2016-08-04T11:19:15Z</time>
      </trkpt>
      <trkpt lat="45.68192" lon="6.26036">
        <ele>2038</ele>
        <time>2016-08-04T11:19:20Z</time>
      </trkpt>
      <trkpt lat="45.68191" lon="6.26045">
        <ele>2035</ele>
        <time>2016-08-04T11:19:25Z</time>
      </trkpt>
      <trkpt lat="45.68192" lon="6.26052">
        <ele>2032</ele>
        <time>2016-08-04T11:19:34Z</time>
      </trkpt>
      <trkpt lat="45.68192" lon="6.26059">
        <ele>2029</ele>
        <time>2016-08-04T11:19:42Z</time>
      </trkpt>
      <trkpt lat="45.68191" lon="6.26071">
        <ele>2027</ele>
        <time>2016-08-04T11:19:47Z</time>
      </trkpt>
      <trkpt lat="45.68191" lon="6.26078">
        <ele>2025</ele>
        <time>2016-08-04T11:19:56Z</time>
      </trkpt>
      <trkpt lat="45.6819" lon="6.26084">
        <ele>2022</ele>
        <time>2016-08-04T11:20:14Z</time>
      </trkpt>
      <trkpt lat="45.68189" lon="6.26092">
        <ele>2019</ele>
        <time>2016-08-04T11:20:27Z</time>
      </trkpt>
      <trkpt lat="45.68187" lon="6.2611">
        <ele>2016</ele>
        <time>2016-08-04T11:20:32Z</time>
      </trkpt>
      <trkpt lat="45.68184" lon="6.26124">
        <ele>2012</ele>
        <time>2016-08-04T11:20:37Z</time>
      </trkpt>
      <trkpt lat="45.68181" lon="6.26142">
        <ele>2008</ele>
        <time>2016-08-04T11:20:42Z</time>
      </trkpt>
      <trkpt lat="45.68179" lon="6.26162">
        <ele>2004</ele>
        <time>2016-08-04T11:20:47Z</time>
      </trkpt>
      <trkpt lat="45.68179" lon="6.26178">
        <ele>1999</ele>
        <time>2016-08-04T11:20:52Z</time>
      </trkpt>
      <trkpt lat="45.68177" lon="6.26194">
        <ele>1995</ele>
        <time>2016-08-04T11:20:57Z</time>
      </trkpt>
      <trkpt lat="45.68177" lon="6.26209">
        <ele>1990</ele>
        <time>2016-08-04T11:21:02Z</time>
      </trkpt>
      <trkpt lat="45.68179" lon="6.26211">
        <ele>1987</ele>
        <time>2016-08-04T11:21:24Z</time>
      </trkpt>
      <trkpt lat="45.68179" lon="6.26211">
        <ele>1984</ele>
        <time>2016-08-04T11:21:25Z</time>
      </trkpt>
      <trkpt lat="45.68179" lon="6.26211">
        <ele>1982</ele>
        <time>2016-08-04T11:21:55Z</time>
      </trkpt>
      <trkpt lat="45.68179" lon="6.26211">
        <ele>1981</ele>
        <time>2016-08-04T11:21:56Z</time>
      </trkpt>
      <trkpt lat="45.68179" lon="6.26211">
        <ele>1981</ele>
        <time>2016-08-04T11:22:25Z</time>
      </trkpt>
      <trkpt lat="45.68179" lon="6.26212">
        <ele>1981</ele>
        <time>2016-08-04T11:22:26Z</time>
      </trkpt>
      <trkpt lat="45.68178" lon="6.26221">
        <ele>1980</ele>
        <time>2016-08-04T11:22:47Z</time>
      </trkpt>
      <trkpt lat="45.68177" lon="6.2624">
        <ele>1979</ele>
        <time>2016-08-04T11:22:52Z</time>
      </trkpt>
      <trkpt lat="45.68176" lon="6.26259">
        <ele>1976</ele>
        <time>2016-08-04T11:22:57Z</time>
      </trkpt>
      <trkpt lat="45.68171" lon="6.26277">
        <ele>1973</ele>
        <time>2016-08-04T11:23:02Z</time>
      </trkpt>
      <trkpt lat="45.68166" lon="6.26308">
        <ele>1968</ele>
        <time>2016-08-04T11:23:07Z</time>
      </trkpt>
      <trkpt lat="45.68162" lon="6.26342">
        <ele>1963</ele>
        <time>2016-08-04T11:23:12Z</time>
      </trkpt>
      <trkpt lat="45.68154" lon="6.26374">
        <ele>1959</ele>
        <time>2016-08-04T11:23:17Z</time>
      </trkpt>
      <trkpt lat="45.68151" lon="6.26401">
        <ele>1955</ele>
        <time>2016-08-04T11:23:22Z</time>
      </trkpt>
      <trkpt lat="45.68137" lon="6.26434">
        <ele>1951</ele>
        <time>2016-08-04T11:23:27Z</time>
      </trkpt>
      <trkpt lat="45.68134" lon="6.2645">
        <ele>1947</ele>
        <time>2016-08-04T11:23:32Z</time>
      </trkpt>
      <trkpt lat="45.68126" lon="6.26465">
        <ele>1944</ele>
        <time>2016-08-04T11:23:37Z</time>
      </trkpt>
      <trkpt lat="45.68121" lon="6.26481">
        <ele>1941</ele>
        <time>2016-08-04T11:23:42Z</time>
      </trkpt>
      <trkpt lat="45.68116" lon="6.26501">
        <ele>1938</ele>
        <time>2016-08-04T11:23:47Z</time>
      </trkpt>
      <trkpt lat="45.68113" lon="6.26516">
        <ele>1934</ele>
        <time>2016-08-04T11:23:52Z</time>
      </trkpt>
      <trkpt lat="45.68109" lon="6.26532">
        <ele>1930</ele>
        <time>2016-08-04T11:23:57Z</time>
      </trkpt>
      <trkpt lat="45.68105" lon="6.26549">
        <ele>1927</ele>
        <time>2016-08-04T11:24:02Z</time>
      </trkpt>
      <trkpt lat="45.68101" lon="6.26568">
        <ele>1924</ele>
        <time>2016-08-04T11:24:07Z</time>
      </trkpt>
      <trkpt lat="45.68096" lon="6.26586">
        <ele>1920</ele>
        <time>2016-08-04T11:24:12Z</time>
      </trkpt>
      <trkpt lat="45.68095" lon="6.26601">
        <ele>1917</ele>
        <time>2016-08-04T11:24:17Z</time>
      </trkpt>
      <trkpt lat="45.68096" lon="6.266">
        <ele>1915</ele>
        <time>2016-08-04T11:24:40Z</time>
      </trkpt>
      <trkpt lat="45.68096" lon="6.266">
        <ele>1913</ele>
        <time>2016-08-04T11:24:41Z</time>
      </trkpt>
      <trkpt lat="45.68096" lon="6.26601">
        <ele>1911</ele>
        <time>2016-08-04T11:25:10Z</time>
      </trkpt>
      <trkpt lat="45.68096" lon="6.26601">
        <ele>1910</ele>
        <time>2016-08-04T11:25:11Z</time>
      </trkpt>
      <trkpt lat="45.68096" lon="6.26611">
        <ele>1909</ele>
        <time>2016-08-04T11:25:26Z</time>
      </trkpt>
      <trkpt lat="45.68095" lon="6.26623">
        <ele>1907</ele>
        <time>2016-08-04T11:25:31Z</time>
      </trkpt>
      <trkpt lat="45.68092" lon="6.26641">
        <ele>1903</ele>
        <time>2016-08-04T11:25:36Z</time>
      </trkpt>
      <trkpt lat="45.68092" lon="6.26656">
        <ele>1901</ele>
        <time>2016-08-04T11:25:41Z</time>
      </trkpt>
      <trkpt lat="45.68092" lon="6.26669">
        <ele>1897</ele>
        <time>2016-08-04T11:25:46Z</time>
      </trkpt>
      <trkpt lat="45.68094" lon="6.26681">
        <ele>1894</ele>
        <time>2016-08-04T11:25:51Z</time>
      </trkpt>
      <trkpt lat="45.68088" lon="6.26686">
        <ele>1891</ele>
        <time>2016-08-04T11:25:56Z</time>
      </trkpt>
      <trkpt lat="45.68086" lon="6.26692">
        <ele>1889</ele>
        <time>2016-08-04T11:26:01Z</time>
      </trkpt>
      <trkpt lat="45.68082" lon="6.26697">
        <ele>1887</ele>
        <time>2016-08-04T11:26:20Z</time>
      </trkpt>
      <trkpt lat="45.68081" lon="6.26715">
        <ele>1885</ele>
        <time>2016-08-04T11:26:25Z</time>
      </trkpt>
      <trkpt lat="45.68074" lon="6.26723">
        <ele>1882</ele>
        <time>2016-08-04T11:26:30Z</time>
      </trkpt>
      <trkpt lat="45.68063" lon="6.26739">
        <ele>1879</ele>
        <time>2016-08-04T11:26:35Z</time>
      </trkpt>
      <trkpt lat="45.6805" lon="6.26755">
        <ele>1875</ele>
        <time>2016-08-04T11:26:40Z</time>
      </trkpt>
      <trkpt lat="45.68041" lon="6.26768">
        <ele>1870</ele>
        <time>2016-08-04T11:26:45Z</time>
      </trkpt>
      <trkpt lat="45.68029" lon="6.2678">
        <ele>1865</ele>
        <time>2016-08-04T11:26:50Z</time>
      </trkpt>
      <trkpt lat="45.68023" lon="6.26794">
        <ele>1860</ele>
        <time>2016-08-04T11:26:55Z</time>
      </trkpt>
      <trkpt lat="45.68017" lon="6.26802">
        <ele>1855</ele>
        <time>2016-08-04T11:27:00Z</time>
      </trkpt>
      <trkpt lat="45.68014" lon="6.26804">
        <ele>1851</ele>
        <time>2016-08-04T11:27:25Z</time>
      </trkpt>
      <trkpt lat="45.68015" lon="6.26804">
        <ele>1848</ele>
        <time>2016-08-04T11:27:26Z</time>
      </trkpt>
      <trkpt lat="45.6801" lon="6.26806">
        <ele>1845</ele>
        <time>2016-08-04T11:27:35Z</time>
      </trkpt>
      <trkpt lat="45.68005" lon="6.26807">
        <ele>1844</ele>
        <time>2016-08-04T11:27:44Z</time>
      </trkpt>
      <trkpt lat="45.68002" lon="6.26811">
        <ele>1842</ele>
        <time>2016-08-04T11:27:56Z</time>
      </trkpt>
      <trkpt lat="45.67996" lon="6.26823">
        <ele>1840</ele>
        <time>2016-08-04T11:28:01Z</time>
      </trkpt>
      <trkpt lat="45.67987" lon="6.26834">
        <ele>1836</ele>
        <time>2016-08-04T11:28:06Z</time>
      </trkpt>
      <trkpt lat="45.67978" lon="6.26844">
        <ele>1832</ele>
        <time>2016-08-04T11:28:11Z</time>
      </trkpt>
      <trkpt lat="45.67962" lon="6.26858">
        <ele>1828</ele>
        <time>2016-08-04T11:28:16Z</time>
      </trkpt>
      <trkpt lat="45.67954" lon="6.26872">
        <ele>1823</ele>
        <time>2016-08-04T11:28:21Z</time>
      </trkpt>
      <trkpt lat="45.67957" lon="6.26871">
        <ele>1820</ele>
        <time>2016-08-04T11:28:40Z</time>
      </trkpt>
      <trkpt lat="45.67957" lon="6.26871">
        <ele>1817</ele>
        <time>2016-08-04T11:28:41Z</time>
      </trkpt>
      <trkpt lat="45.67957" lon="6.26871">
        <ele>1815</ele>
        <time>2016-08-04T11:29:10Z</time>
      </trkpt>
      <trkpt lat="45.67957" lon="6.26871">
        <ele>1814</ele>
        <time>2016-08-04T11:29:11Z</time>
      </trkpt>
      <trkpt lat="45.67957" lon="6.26871">
        <ele>1814</ele>
        <time>2016-08-04T11:29:40Z</time>
      </trkpt>
      <trkpt lat="45.67957" lon="6.26871">
        <ele>1814</ele>
        <time>2016-08-04T11:29:41Z</time>
      </trkpt>
      <trkpt lat="45.67955" lon="6.26873">
        <ele>1814</ele>
        <time>2016-08-04T11:30:10Z</time>
      </trkpt>
      <trkpt lat="45.67955" lon="6.26872">
        <ele>1814</ele>
        <time>2016-08-04T11:30:11Z</time>
      </trkpt>
      <trkpt lat="45.6795" lon="6.26877">
        <ele>1814</ele>
        <time>2016-08-04T11:30:29Z</time>
      </trkpt>
      <trkpt lat="45.67935" lon="6.26906">
        <ele>1813</ele>
        <time>2016-08-04T11:30:34Z</time>
      </trkpt>
      <trkpt lat="45.67922" lon="6.26938">
        <ele>1811</ele>
        <time>2016-08-04T11:30:39Z</time>
      </trkpt>
      <trkpt lat="45.6791" lon="6.2696">
        <ele>1809</ele>
        <time>2016-08-04T11:30:44Z</time>
      </trkpt>
      <trkpt lat="45.67895" lon="6.26984">
        <ele>1806</ele>
        <time>2016-08-04T11:30:49Z</time>
      </trkpt>
      <trkpt lat="45.67883" lon="6.26999">
        <ele>1803</ele>
        <time>2016-08-04T11:30:54Z</time>
      </trkpt>
      <trkpt lat="45.67873" lon="6.27023">
        <ele>1800</ele>
        <time>2016-08-04T11:30:59Z</time>
      </trkpt>
      <trkpt lat="45.67873" lon="6.27021">
        <ele>1798</ele>
        <time>2016-08-04T11:31:25Z</time>
      </trkpt>
      <trkpt lat="45.67873" lon="6.27021">
        <ele>1797</ele>
        <time>2016-08-04T11:31:26Z</time>
      </trkpt>
      <trkpt lat="45.67875" lon="6.27015">
        <ele>1796</ele>
        <time>2016-08-04T11:31:37Z</time>
      </trkpt>
      <trkpt lat="45.67878" lon="6.27022">
        <ele>1794</ele>
        <time>2016-08-04T11:31:42Z</time>
      </trkpt>
      <trkpt lat="45.6787" lon="6.27026">
        <ele>1792</ele>
        <time>2016-08-04T11:31:50Z</time>
      </trkpt>
      <trkpt lat="45.67875" lon="6.27023">
        <ele>1790</ele>
        <time>2016-08-04T11:31:58Z</time>
      </trkpt>
      <trkpt lat="45.6787" lon="6.27018">
        <ele>1789</ele>
        <time>2016-08-04T11:32:17Z</time>
      </trkpt>
      <trkpt lat="45.67865" lon="6.27021">
        <ele>1787</ele>
        <time>2016-08-04T11:32:24Z</time>
      </trkpt>
      <trkpt lat="45.67852" lon="6.2704">
        <ele>1787</ele>
        <time>2016-08-04T11:32:29Z</time>
      </trkpt>
      <trkpt lat="45.67842" lon="6.2706">
        <ele>1786</ele>
        <time>2016-08-04T11:32:34Z</time>
      </trkpt>
      <trkpt lat="45.6783" lon="6.27077">
        <ele>1785</ele>
        <time>2016-08-04T11:32:39Z</time>
      </trkpt>
      <trkpt lat="45.6782" lon="6.27094">
        <ele>1784</ele>
        <time>2016-08-04T11:32:44Z</time>
      </trkpt>
      <trkpt lat="45.67807" lon="6.27104">
        <ele>1782</ele>
        <time>2016-08-04T11:32:49Z</time>
      </trkpt>
      <trkpt lat="45.67793" lon="6.27118">
        <ele>1780</ele>
        <time>2016-08-04T11:32:54Z</time>
      </trkpt>
      <trkpt lat="45.67779" lon="6.27131">
        <ele>1779</ele>
        <time>2016-08-04T11:32:59Z</time>
      </trkpt>
      <trkpt lat="45.6776" lon="6.27148">
        <ele>1778</ele>
        <time>2016-08-04T11:33:04Z</time>
      </trkpt>
      <trkpt lat="45.67746" lon="6.27165">
        <ele>1776</ele>
        <time>2016-08-04T11:33:09Z</time>
      </trkpt>
      <trkpt lat="45.67733" lon="6.27176">
        <ele>1775</ele>
        <time>2016-08-04T11:33:14Z</time>
      </trkpt>
      <trkpt lat="45.67721" lon="6.27184">
        <ele>1773</ele>
        <time>2016-08-04T11:33:19Z</time>
      </trkpt>
      <trkpt lat="45.67722" lon="6.27186">
        <ele>1770</ele>
        <time>2016-08-04T11:33:40Z</time>
      </trkpt>
      <trkpt lat="45.67722" lon="6.27186">
        <ele>1768</ele>
        <time>2016-08-04T11:33:41Z</time>
      </trkpt>
      <trkpt lat="45.67723" lon="6.27188">
        <ele>1766</ele>
        <time>2016-08-04T11:34:10Z</time>
      </trkpt>
      <trkpt lat="45.67724" lon="6.27188">
        <ele>1765</ele>
        <time>2016-08-04T11:34:11Z</time>
      </trkpt>
      <trkpt lat="45.67722" lon="6.2719">
        <ele>1764</ele>
        <time>2016-08-04T11:34:40Z</time>
      </trkpt>
      <trkpt lat="45.67722" lon="6.2719">
        <ele>1763</ele>
        <time>2016-08-04T11:34:41Z</time>
      </trkpt>
      <trkpt lat="45.67722" lon="6.27197">
        <ele>1763</ele>
        <time>2016-08-04T11:34:59Z</time>
      </trkpt>
      <trkpt lat="45.67721" lon="6.27204">
        <ele>1762</ele>
        <time>2016-08-04T11:35:04Z</time>
      </trkpt>
      <trkpt lat="45.67718" lon="6.27211">
        <ele>1761</ele>
        <time>2016-08-04T11:35:09Z</time>
      </trkpt>
      <trkpt lat="45.67714" lon="6.27222">
        <ele>1760</ele>
        <time>2016-08-04T11:35:14Z</time>
      </trkpt>
      <trkpt lat="45.67711" lon="6.27232">
        <ele>1758</ele>
        <time>2016-08-04T11:35:19Z</time>
      </trkpt>
      <trkpt lat="45.67709" lon="6.2724">
        <ele>1755</ele>
        <time>2016-08-04T11:35:24Z</time>
      </trkpt>
      <trkpt lat="45.67709" lon="6.27251">
        <ele>1752</ele>
        <time>2016-08-04T11:35:29Z</time>
      </trkpt>
      <trkpt lat="45.6771" lon="6.27258">
        <ele>1750</ele>
        <time>2016-08-04T11:35:38Z</time>
      </trkpt>
      <trkpt lat="45.67711" lon="6.27264">
        <ele>1748</ele>
        <time>2016-08-04T11:35:46Z</time>
      </trkpt>
      <trkpt lat="45.67713" lon="6.2727">
        <ele>1746</ele>
        <time>2016-08-04T11:35:51Z</time>
      </trkpt>
      <trkpt lat="45.67714" lon="6.27277">
        <ele>1744</ele>
        <time>2016-08-04T11:36:01Z</time>
      </trkpt>
      <trkpt lat="45.67713" lon="6.27289">
        <ele>1743</ele>
        <time>2016-08-04T11:36:06Z</time>
      </trkpt>
      <trkpt lat="45.67713" lon="6.273">
        <ele>1740</ele>
        <time>2016-08-04T11:36:11Z</time>
      </trkpt>
      <trkpt lat="45.67717" lon="6.27296">
        <ele>1738</ele>
        <time>2016-08-04T11:36:23Z</time>
      </trkpt>
      <trkpt lat="45.67722" lon="6.27287">
        <ele>1737</ele>
        <time>2016-08-04T11:36:28Z</time>
      </trkpt>
      <trkpt lat="45.67724" lon="6.27294">
        <ele>1734</ele>
        <time>2016-08-04T11:36:38Z</time>
      </trkpt>
      <trkpt lat="45.67725" lon="6.27309">
        <ele>1731</ele>
        <time>2016-08-04T11:36:43Z</time>
      </trkpt>
      <trkpt lat="45.6773" lon="6.27311">
        <ele>1729</ele>
        <time>2016-08-04T11:36:48Z</time>
      </trkpt>
      <trkpt lat="45.67734" lon="6.27304">
        <ele>1726</ele>
        <time>2016-08-04T11:36:53Z</time>
      </trkpt>
      <trkpt lat="45.67735" lon="6.27305">
        <ele>1723</ele>
        <time>2016-08-04T11:37:10Z</time>
      </trkpt>
      <trkpt lat="45.67735" lon="6.27307">
        <ele>1721</ele>
        <time>2016-08-04T11:37:11Z</time>
      </trkpt>
      <trkpt lat="45.67735" lon="6.27319">
        <ele>1719</ele>
        <time>2016-08-04T11:37:16Z</time>
      </trkpt>
      <trkpt lat="45.67739" lon="6.2732">
        <ele>1717</ele>
        <time>2016-08-04T11:37:26Z</time>
      </trkpt>
      <trkpt lat="45.67742" lon="6.27325">
        <ele>1715</ele>
        <time>2016-08-04T11:37:34Z</time>
      </trkpt>
      <trkpt lat="45.67747" lon="6.27325">
        <ele>1713</ele>
        <time>2016-08-04T11:37:43Z</time>
      </trkpt>
      <trkpt lat="45.67751" lon="6.2732">
        <ele>1711</ele>
        <time>2016-08-04T11:37:48Z</time>
      </trkpt>
      <trkpt lat="45.67751" lon="6.27328">
        <ele>1709</ele>
        <time>2016-08-04T11:37:58Z</time>
      </trkpt>
      <trkpt lat="45.67754" lon="6.27333">
        <ele>1706</ele>
        <time>2016-08-04T11:38:03Z</time>
      </trkpt>
      <trkpt lat="45.67758" lon="6.27337">
        <ele>1704</ele>
        <time>2016-08-04T11:38:11Z</time>
      </trkpt>
      <trkpt lat="45.67764" lon="6.27338">
        <ele>1702</ele>
        <time>2016-08-04T11:38:16Z</time>
      </trkpt>
      <trkpt lat="45.67761" lon="6.27339">
        <ele>1701</ele>
        <time>2016-08-04T11:38:40Z</time>
      </trkpt>
      <trkpt lat="45.67762" lon="6.27339">
        <ele>1699</ele>
        <time>2016-08-04T11:38:41Z</time>
      </trkpt>
      <trkpt lat="45.67766" lon="6.27339">
        <ele>1698</ele>
        <time>2016-08-04T11:38:54Z</time>
      </trkpt>
      <trkpt lat="45.6777" lon="6.27344">
        <ele>1697</ele>
        <time>2016-08-04T11:39:03Z</time>
      </trkpt>
      <trkpt lat="45.67775" lon="6.27344">
        <ele>1695</ele>
        <time>2016-08-04T11:39:16Z</time>
      </trkpt>
      <trkpt lat="45.67778" lon="6.2735">
        <ele>1693</ele>
        <time>2016-08-04T11:39:26Z</time>
      </trkpt>
      <trkpt lat="45.67784" lon="6.27351">
        <ele>1690</ele>
        <time>2016-08-04T11:39:31Z</time>
      </trkpt>
      <trkpt lat="45.67791" lon="6.27347">
        <ele>1688</ele>
        <time>2016-08-04T11:39:36Z</time>
      </trkpt>
      <trkpt lat="45.6779" lon="6.27339">
        <ele>1685</ele>
        <time>2016-08-04T11:39:41Z</time>
      </trkpt>
      <trkpt lat="45.67791" lon="6.27328">
        <ele>1684</ele>
        <time>2016-08-04T11:39:46Z</time>
      </trkpt>
      <trkpt lat="45.67795" lon="6.27327">
        <ele>1682</ele>
        <time>2016-08-04T11:39:55Z</time>
      </trkpt>
      <trkpt lat="45.67807" lon="6.2733">
        <ele>1680</ele>
        <time>2016-08-04T11:40:00Z</time>
      </trkpt>
      <trkpt lat="45.67822" lon="6.27338">
        <ele>1678</ele>
        <time>2016-08-04T11:40:05Z</time>
      </trkpt>
      <trkpt lat="45.67832" lon="6.27346">
        <ele>1676</ele>
        <time>2016-08-04T11:40:10Z</time>
      </trkpt>
      <trkpt lat="45.67836" lon="6.2736">
        <ele>1673</ele>
        <time>2016-08-04T11:40:15Z</time>
      </trkpt>
      <trkpt lat="45.67844" lon="6.27374">
        <ele>1670</ele>
        <time>2016-08-04T11:40:20Z</time>
      </trkpt>
      <trkpt lat="45.67849" lon="6.27379">
        <ele>1667</ele>
        <time>2016-08-04T11:40:40Z</time>
      </trkpt>
      <trkpt lat="45.67856" lon="6.27392">
        <ele>1664</ele>
        <time>2016-08-04T11:40:45Z</time>
      </trkpt>
      <trkpt lat="45.67867" lon="6.27405">
        <ele>1661</ele>
        <time>2016-08-04T11:40:50Z</time>
      </trkpt>
      <trkpt lat="45.67878" lon="6.2742">
        <ele>1658</ele>
        <time>2016-08-04T11:40:55Z</time>
      </trkpt>
      <trkpt lat="45.67902" lon="6.27414">
        <ele>1654</ele>
        <time>2016-08-04T11:41:00Z</time>
      </trkpt>
      <trkpt lat="45.67922" lon="6.2742">
        <ele>1650</ele>
        <time>2016-08-04T11:41:05Z</time>
      </trkpt>
      <trkpt lat="45.67931" lon="6.27428">
        <ele>1646</ele>
        <time>2016-08-04T11:41:10Z</time>
      </trkpt>
      <trkpt lat="45.67932" lon="6.27427">
        <ele>1643</ele>
        <time>2016-08-04T11:41:26Z</time>
      </trkpt>
      <trkpt lat="45.67932" lon="6.27427">
        <ele>1641</ele>
        <time>2016-08-04T11:41:27Z</time>
      </trkpt>
      <trkpt lat="45.67932" lon="6.27427">
        <ele>1641</ele>
        <time>2016-08-04T11:41:56Z</time>
      </trkpt>
      <trkpt lat="45.67932" lon="6.27427">
        <ele>1641</ele>
        <time>2016-08-04T11:41:57Z</time>
      </trkpt>
      <trkpt lat="45.67932" lon="6.27434">
        <ele>1642</ele>
        <time>2016-08-04T11:42:10Z</time>
      </trkpt>
      <trkpt lat="45.6793" lon="6.27464">
        <ele>1642</ele>
        <time>2016-08-04T11:42:15Z</time>
      </trkpt>
      <trkpt lat="45.67924" lon="6.27477">
        <ele>1642</ele>
        <time>2016-08-04T11:42:20Z</time>
      </trkpt>
      <trkpt lat="45.67935" lon="6.27505">
        <ele>1641</ele>
        <time>2016-08-04T11:42:25Z</time>
      </trkpt>
      <trkpt lat="45.67943" lon="6.2752">
        <ele>1638</ele>
        <time>2016-08-04T11:42:30Z</time>
      </trkpt>
      <trkpt lat="45.67948" lon="6.27536">
        <ele>1635</ele>
        <time>2016-08-04T11:42:35Z</time>
      </trkpt>
      <trkpt lat="45.67935" lon="6.2754">
        <ele>1632</ele>
        <time>2016-08-04T11:42:40Z</time>
      </trkpt>
      <trkpt lat="45.67917" lon="6.27529">
        <ele>1629</ele>
        <time>2016-08-04T11:42:45Z</time>
      </trkpt>
      <trkpt lat="45.67901" lon="6.27532">
        <ele>1627</ele>
        <time>2016-08-04T11:42:50Z</time>
      </trkpt>
      <trkpt lat="45.67907" lon="6.27548">
        <ele>1626</ele>
        <time>2016-08-04T11:42:55Z</time>
      </trkpt>
      <trkpt lat="45.67913" lon="6.27563">
        <ele>1626</ele>
        <time>2016-08-04T11:43:00Z</time>
      </trkpt>
      <trkpt lat="45.6792" lon="6.27587">
        <ele>1627</ele>
        <time>2016-08-04T11:43:05Z</time>
      </trkpt>
      <trkpt lat="45.67917" lon="6.27609">
        <ele>1626</ele>
        <time>2016-08-04T11:43:10Z</time>
      </trkpt>
      <trkpt lat="45.67917" lon="6.27641">
        <ele>1625</ele>
        <time>2016-08-04T11:43:15Z</time>
      </trkpt>
      <trkpt lat="45.67929" lon="6.27664">
        <ele>1624</ele>
        <time>2016-08-04T11:43:20Z</time>
      </trkpt>
      <trkpt lat="45.67932" lon="6.27692">
        <ele>1623</ele>
        <time>2016-08-04T11:43:25Z</time>
      </trkpt>
      <trkpt lat="45.6794" lon="6.27717">
        <ele>1620</ele>
        <time>2016-08-04T11:43:30Z</time>
      </trkpt>
      <trkpt lat="45.6796" lon="6.27743">
        <ele>1617</ele>
        <time>2016-08-04T11:43:35Z</time>
      </trkpt>
      <trkpt lat="45.67979" lon="6.27772">
        <ele>1614</ele>
        <time>2016-08-04T11:43:40Z</time>
      </trkpt>
      <trkpt lat="45.68004" lon="6.27812">
        <ele>1611</ele>
        <time>2016-08-04T11:43:45Z</time>
      </trkpt>
      <trkpt lat="45.68013" lon="6.27857">
        <ele>1607</ele>
        <time>2016-08-04T11:43:50Z</time>
      </trkpt>
      <trkpt lat="45.68036" lon="6.2788">
        <ele>1603</ele>
        <time>2016-08-04T11:43:55Z</time>
      </trkpt>
      <trkpt lat="45.68061" lon="6.27925">
        <ele>1599</ele>
        <time>2016-08-04T11:44:00Z</time>
      </trkpt>
      <trkpt lat="45.68074" lon="6.27966">
        <ele>1595</ele>
        <time>2016-08-04T11:44:05Z</time>
      </trkpt>
      <trkpt lat="45.68086" lon="6.27996">
        <ele>1593</ele>
        <time>2016-08-04T11:44:10Z</time>
      </trkpt>
      <trkpt lat="45.68105" lon="6.28016">
        <ele>1591</ele>
        <time>2016-08-04T11:44:15Z</time>
      </trkpt>
      <trkpt lat="45.68116" lon="6.28035">
        <ele>1590</ele>
        <time>2016-08-04T11:44:20Z</time>
      </trkpt>
      <trkpt lat="45.68118" lon="6.28041">
        <ele>1590</ele>
        <time>2016-08-04T11:44:25Z</time>
      </trkpt>
      <trkpt lat="45.68119" lon="6.28039">
        <ele>1590</ele>
        <time>2016-08-04T11:44:41Z</time>
      </trkpt>
      <trkpt lat="45.68118" lon="6.2804">
        <ele>1590</ele>
        <time>2016-08-04T11:44:42Z</time>
      </trkpt>
      <trkpt lat="45.68119" lon="6.28047">
        <ele>1589</ele>
        <time>2016-08-04T11:44:57Z</time>
      </trkpt>
      <trkpt lat="45.68122" lon="6.28052">
        <ele>1589</ele>
        <time>2016-08-04T11:45:12Z</time>
      </trkpt>
      <trkpt lat="45.68129" lon="6.28075">
        <ele>1589</ele>
        <time>2016-08-04T11:45:17Z</time>
      </trkpt>
      <trkpt lat="45.68129" lon="6.28093">
        <ele>1591</ele>
        <time>2016-08-04T11:45:22Z</time>
      </trkpt>
      <trkpt lat="45.68128" lon="6.28114">
        <ele>1593</ele>
        <time>2016-08-04T11:45:27Z</time>
      </trkpt>
      <trkpt lat="45.68135" lon="6.28135">
        <ele>1594</ele>
        <time>2016-08-04T11:45:32Z</time>
      </trkpt>
      <trkpt lat="45.68141" lon="6.28158">
        <ele>1595</ele>
        <time>2016-08-04T11:45:37Z</time>
      </trkpt>
      <trkpt lat="45.68147" lon="6.2818">
        <ele>1595</ele>
        <time>2016-08-04T11:45:42Z</time>
      </trkpt>
      <trkpt lat="45.68144" lon="6.28201">
        <ele>1594</ele>
        <time>2016-08-04T11:45:47Z</time>
      </trkpt>
      <trkpt lat="45.68152" lon="6.28225">
        <ele>1591</ele>
        <time>2016-08-04T11:45:52Z</time>
      </trkpt>
      <trkpt lat="45.68164" lon="6.28248">
        <ele>1589</ele>
        <time>2016-08-04T11:45:57Z</time>
      </trkpt>
      <trkpt lat="45.68183" lon="6.28267">
        <ele>1588</ele>
        <time>2016-08-04T11:46:02Z</time>
      </trkpt>
      <trkpt lat="45.68191" lon="6.28288">
        <ele>1587</ele>
        <time>2016-08-04T11:46:07Z</time>
      </trkpt>
      <trkpt lat="45.68193" lon="6.28302">
        <ele>1588</ele>
        <time>2016-08-04T11:46:12Z</time>
      </trkpt>
      <trkpt lat="45.68193" lon="6.28311">
        <ele>1590</ele>
        <time>2016-08-04T11:46:17Z</time>
      </trkpt>
      <trkpt lat="45.68187" lon="6.28324">
        <ele>1592</ele>
        <time>2016-08-04T11:46:22Z</time>
      </trkpt>
      <trkpt lat="45.68182" lon="6.2834">
        <ele>1593</ele>
        <time>2016-08-04T11:46:27Z</time>
      </trkpt>
      <trkpt lat="45.68184" lon="6.28355">
        <ele>1594</ele>
        <time>2016-08-04T11:46:32Z</time>
      </trkpt>
      <trkpt lat="45.68203" lon="6.28365">
        <ele>1593</ele>
        <time>2016-08-04T11:46:37Z</time>
      </trkpt>
      <trkpt lat="45.68222" lon="6.2836">
        <ele>1591</ele>
        <time>2016-08-04T11:46:42Z</time>
      </trkpt>
      <trkpt lat="45.68234" lon="6.28374">
        <ele>1588</ele>
        <time>2016-08-04T11:46:47Z</time>
      </trkpt>
      <trkpt lat="45.68244" lon="6.28406">
        <ele>1584</ele>
        <time>2016-08-04T11:46:52Z</time>
      </trkpt>
      <trkpt lat="45.68248" lon="6.28439">
        <ele>1580</ele>
        <time>2016-08-04T11:46:57Z</time>
      </trkpt>
      <trkpt lat="45.6827" lon="6.28449">
        <ele>1577</ele>
        <time>2016-08-04T11:47:02Z</time>
      </trkpt>
      <trkpt lat="45.68288" lon="6.28452">
        <ele>1572</ele>
        <time>2016-08-04T11:47:07Z</time>
      </trkpt>
      <trkpt lat="45.68293" lon="6.28458">
        <ele>1568</ele>
        <time>2016-08-04T11:47:12Z</time>
      </trkpt>
      <trkpt lat="45.68305" lon="6.28471">
        <ele>1564</ele>
        <time>2016-08-04T11:47:17Z</time>
      </trkpt>
      <trkpt lat="45.68309" lon="6.28475">
        <ele>1561</ele>
        <time>2016-08-04T11:47:22Z</time>
      </trkpt>
      <trkpt lat="45.68312" lon="6.2848">
        <ele>1558</ele>
        <time>2016-08-04T11:47:35Z</time>
      </trkpt>
      <trkpt lat="45.68323" lon="6.28481">
        <ele>1557</ele>
        <time>2016-08-04T11:47:40Z</time>
      </trkpt>
      <trkpt lat="45.68331" lon="6.28475">
        <ele>1555</ele>
        <time>2016-08-04T11:47:45Z</time>
      </trkpt>
      <trkpt lat="45.68335" lon="6.28474">
        <ele>1554</ele>
        <time>2016-08-04T11:47:54Z</time>
      </trkpt>
      <trkpt lat="45.68335" lon="6.28472">
        <ele>1553</ele>
        <time>2016-08-04T11:48:11Z</time>
      </trkpt>
      <trkpt lat="45.68335" lon="6.28472">
        <ele>1551</ele>
        <time>2016-08-04T11:48:12Z</time>
      </trkpt>
      <trkpt lat="45.68331" lon="6.28469">
        <ele>1550</ele>
        <time>2016-08-04T11:48:37Z</time>
      </trkpt>
      <trkpt lat="45.68335" lon="6.28489">
        <ele>1548</ele>
        <time>2016-08-04T11:48:42Z</time>
      </trkpt>
      <trkpt lat="45.68338" lon="6.28505">
        <ele>1547</ele>
        <time>2016-08-04T11:48:47Z</time>
      </trkpt>
      <trkpt lat="45.68345" lon="6.28537">
        <ele>1545</ele>
        <time>2016-08-04T11:48:52Z</time>
      </trkpt>
      <trkpt lat="45.68346" lon="6.28544">
        <ele>1542</ele>
        <time>2016-08-04T11:48:58Z</time>
      </trkpt>
      <trkpt lat="45.68345" lon="6.28553">
        <ele>1539</ele>
        <time>2016-08-04T11:49:03Z</time>
      </trkpt>
      <trkpt lat="45.68333" lon="6.28566">
        <ele>1537</ele>
        <time>2016-08-04T11:49:08Z</time>
      </trkpt>
      <trkpt lat="45.68323" lon="6.28576">
        <ele>1535</ele>
        <time>2016-08-04T11:49:13Z</time>
      </trkpt>
      <trkpt lat="45.68319" lon="6.28588">
        <ele>1532</ele>
        <time>2016-08-04T11:49:18Z</time>
      </trkpt>
      <trkpt lat="45.68313" lon="6.28592">
        <ele>1527</ele>
        <time>2016-08-04T11:49:23Z</time>
      </trkpt>
      <trkpt lat="45.68314" lon="6.28595">
        <ele>1523</ele>
        <time>2016-08-04T11:49:41Z</time>
      </trkpt>
      <trkpt lat="45.68314" lon="6.28595">
        <ele>1518</ele>
        <time>2016-08-04T11:49:42Z</time>
      </trkpt>
      <trkpt lat="45.68314" lon="6.28595">
        <ele>1514</ele>
        <time>2016-08-04T11:50:11Z</time>
      </trkpt>
      <trkpt lat="45.68311" lon="6.28599">
        <ele>1511</ele>
        <time>2016-08-04T11:50:12Z</time>
      </trkpt>
      <trkpt lat="45.68291" lon="6.28602">
        <ele>1509</ele>
        <time>2016-08-04T11:50:17Z</time>
      </trkpt>
      <trkpt lat="45.68284" lon="6.28606">
        <ele>1508</ele>
        <time>2016-08-04T11:50:22Z</time>
      </trkpt>
      <trkpt lat="45.68291" lon="6.2862">
        <ele>1506</ele>
        <time>2016-08-04T11:50:27Z</time>
      </trkpt>
      <trkpt lat="45.68296" lon="6.28629">
        <ele>1504</ele>
        <time>2016-08-04T11:50:32Z</time>
      </trkpt>
      <trkpt lat="45.68306" lon="6.28633">
        <ele>1500</ele>
        <time>2016-08-04T11:50:37Z</time>
      </trkpt>
      <trkpt lat="45.68317" lon="6.28643">
        <ele>1497</ele>
        <time>2016-08-04T11:50:42Z</time>
      </trkpt>
      <trkpt lat="45.6833" lon="6.28651">
        <ele>1493</ele>
        <time>2016-08-04T11:50:47Z</time>
      </trkpt>
      <trkpt lat="45.68342" lon="6.28657">
        <ele>1488</ele>
        <time>2016-08-04T11:50:52Z</time>
      </trkpt>
      <trkpt lat="45.68354" lon="6.28667">
        <ele>1484</ele>
        <time>2016-08-04T11:50:57Z</time>
      </trkpt>
      <trkpt lat="45.68359" lon="6.28665">
        <ele>1480</ele>
        <time>2016-08-04T11:51:02Z</time>
      </trkpt>
      <trkpt lat="45.68374" lon="6.28672">
        <ele>1476</ele>
        <time>2016-08-04T11:51:07Z</time>
      </trkpt>
      <trkpt lat="45.68385" lon="6.28672">
        <ele>1473</ele>
        <time>2016-08-04T11:51:12Z</time>
      </trkpt>
      <trkpt lat="45.68398" lon="6.28677">
        <ele>1471</ele>
        <time>2016-08-04T11:51:17Z</time>
      </trkpt>
      <trkpt lat="45.68414" lon="6.28675">
        <ele>1468</ele>
        <time>2016-08-04T11:51:22Z</time>
      </trkpt>
      <trkpt lat="45.68435" lon="6.28671">
        <ele>1465</ele>
        <time>2016-08-04T11:51:27Z</time>
      </trkpt>
      <trkpt lat="45.68458" lon="6.28666">
        <ele>1463</ele>
        <time>2016-08-04T11:51:32Z</time>
      </trkpt>
      <trkpt lat="45.68475" lon="6.28655">
        <ele>1461</ele>
        <time>2016-08-04T11:51:37Z</time>
      </trkpt>
      <trkpt lat="45.68494" lon="6.28646">
        <ele>1458</ele>
        <time>2016-08-04T11:51:42Z</time>
      </trkpt>
      <trkpt lat="45.68501" lon="6.28634">
        <ele>1455</ele>
        <time>2016-08-04T11:51:47Z</time>
      </trkpt>
      <trkpt lat="45.68508" lon="6.28614">
        <ele>1452</ele>
        <time>2016-08-04T11:51:52Z</time>
      </trkpt>
      <trkpt lat="45.68506" lon="6.28607">
        <ele>1447</ele>
        <time>2016-08-04T11:51:57Z</time>
      </trkpt>
      <trkpt lat="45.68513" lon="6.28596">
        <ele>1443</ele>
        <time>2016-08-04T11:52:02Z</time>
      </trkpt>
      <trkpt lat="45.68515" lon="6.2859">
        <ele>1440</ele>
        <time>2016-08-04T11:52:07Z</time>
      </trkpt>
      <trkpt lat="45.68516" lon="6.28582">
        <ele>1437</ele>
        <time>2016-08-04T11:52:15Z</time>
      </trkpt>
      <trkpt lat="45.68518" lon="6.28575">
        <ele>1435</ele>
        <time>2016-08-04T11:52:20Z</time>
      </trkpt>
      <trkpt lat="45.6852" lon="6.28569">
        <ele>1434</ele>
        <time>2016-08-04T11:52:25Z</time>
      </trkpt>
      <trkpt lat="45.68524" lon="6.28556">
        <ele>1433</ele>
        <time>2016-08-04T11:52:30Z</time>
      </trkpt>
      <trkpt lat="45.68523" lon="6.28548">
        <ele>1431</ele>
        <time>2016-08-04T11:52:35Z</time>
      </trkpt>
      <trkpt lat="45.68525" lon="6.28555">
        <ele>1428</ele>
        <time>2016-08-04T11:52:45Z</time>
      </trkpt>
      <trkpt lat="45.68527" lon="6.28564">
        <ele>1426</ele>
        <time>2016-08-04T11:52:51Z</time>
      </trkpt>
      <trkpt lat="45.6854" lon="6.28577">
        <ele>1424</ele>
        <time>2016-08-04T11:52:56Z</time>
      </trkpt>
      <trkpt lat="45.68535" lon="6.2859">
        <ele>1421</ele>
        <time>2016-08-04T11:53:01Z</time>
      </trkpt>
      <trkpt lat="45.68538" lon="6.28584">
        <ele>1417</ele>
        <time>2016-08-04T11:53:12Z</time>
      </trkpt>
      <trkpt lat="45.68542" lon="6.28573">
        <ele>1414</ele>
        <time>2016-08-04T11:53:17Z</time>
      </trkpt>
      <trkpt lat="45.68541" lon="6.28563">
        <ele>1410</ele>
        <time>2016-08-04T11:53:22Z</time>
      </trkpt>
      <trkpt lat="45.6855" lon="6.28552">
        <ele>1406</ele>
        <time>2016-08-04T11:53:27Z</time>
      </trkpt>
      <trkpt lat="45.68557" lon="6.28546">
        <ele>1402</ele>
        <time>2016-08-04T11:53:32Z</time>
      </trkpt>
      <trkpt lat="45.68554" lon="6.28551">
        <ele>1400</ele>
        <time>2016-08-04T11:53:45Z</time>
      </trkpt>
      <trkpt lat="45.68558" lon="6.2857">
        <ele>1398</ele>
        <time>2016-08-04T11:53:50Z</time>
      </trkpt>
      <trkpt lat="45.68551" lon="6.28589">
        <ele>1397</ele>
        <time>2016-08-04T11:53:55Z</time>
      </trkpt>
      <trkpt lat="45.68552" lon="6.28604">
        <ele>1395</ele>
        <time>2016-08-04T11:54:00Z</time>
      </trkpt>
      <trkpt lat="45.68559" lon="6.28604">
        <ele>1394</ele>
        <time>2016-08-04T11:54:10Z</time>
      </trkpt>
      <trkpt lat="45.68569" lon="6.28586">
        <ele>1392</ele>
        <time>2016-08-04T11:54:15Z</time>
      </trkpt>
      <trkpt lat="45.68567" lon="6.28578">
        <ele>1390</ele>
        <time>2016-08-04T11:54:20Z</time>
      </trkpt>
      <trkpt lat="45.68564" lon="6.28566">
        <ele>1388</ele>
        <time>2016-08-04T11:54:25Z</time>
      </trkpt>
      <trkpt lat="45.68573" lon="6.28552">
        <ele>1385</ele>
        <time>2016-08-04T11:54:30Z</time>
      </trkpt>
      <trkpt lat="45.68574" lon="6.28543">
        <ele>1383</ele>
        <time>2016-08-04T11:54:35Z</time>
      </trkpt>
      <trkpt lat="45.68578" lon="6.28548">
        <ele>1381</ele>
        <time>2016-08-04T11:54:41Z</time>
      </trkpt>
      <trkpt lat="45.68579" lon="6.2856">
        <ele>1379</ele>
        <time>2016-08-04T11:54:46Z</time>
      </trkpt>
      <trkpt lat="45.68581" lon="6.2858">
        <ele>1378</ele>
        <time>2016-08-04T11:54:51Z</time>
      </trkpt>
      <trkpt lat="45.68576" lon="6.28604">
        <ele>1377</ele>
        <time>2016-08-04T11:54:56Z</time>
      </trkpt>
      <trkpt lat="45.68574" lon="6.28624">
        <ele>1376</ele>
        <time>2016-08-04T11:55:01Z</time>
      </trkpt>
      <trkpt lat="45.68582" lon="6.28651">
        <ele>1374</ele>
        <time>2016-08-04T11:55:06Z</time>
      </trkpt>
      <trkpt lat="45.68575" lon="6.28662">
        <ele>1373</ele>
        <time>2016-08-04T11:55:11Z</time>
      </trkpt>
      <trkpt lat="45.6857" lon="6.28664">
        <ele>1370</ele>
        <time>2016-08-04T11:55:16Z</time>
      </trkpt>
      <trkpt lat="45.68565" lon="6.28665">
        <ele>1368</ele>
        <time>2016-08-04T11:55:22Z</time>
      </trkpt>
      <trkpt lat="45.68559" lon="6.2867">
        <ele>1365</ele>
        <time>2016-08-04T11:55:40Z</time>
      </trkpt>
      <trkpt lat="45.68559" lon="6.28694">
        <ele>1362</ele>
        <time>2016-08-04T11:55:45Z</time>
      </trkpt>
      <trkpt lat="45.68565" lon="6.28713">
        <ele>1360</ele>
        <time>2016-08-04T11:55:50Z</time>
      </trkpt>
      <trkpt lat="45.68559" lon="6.28717">
        <ele>1361</ele>
        <time>2016-08-04T11:56:00Z</time>
      </trkpt>
      <trkpt lat="45.68558" lon="6.28725">
        <ele>1362</ele>
        <time>2016-08-04T11:56:05Z</time>
      </trkpt>
      <trkpt lat="45.68558" lon="6.28738">
        <ele>1364</ele>
        <time>2016-08-04T11:56:10Z</time>
      </trkpt>
      <trkpt lat="45.68567" lon="6.28745">
        <ele>1365</ele>
        <time>2016-08-04T11:56:15Z</time>
      </trkpt>
      <trkpt lat="45.68562" lon="6.2876">
        <ele>1366</ele>
        <time>2016-08-04T11:56:20Z</time>
      </trkpt>
      <trkpt lat="45.68554" lon="6.28781">
        <ele>1363</ele>
        <time>2016-08-04T11:56:25Z</time>
      </trkpt>
      <trkpt lat="45.68546" lon="6.28795">
        <ele>1362</ele>
        <time>2016-08-04T11:56:30Z</time>
      </trkpt>
      <trkpt lat="45.6853" lon="6.28801">
        <ele>1360</ele>
        <time>2016-08-04T11:56:35Z</time>
      </trkpt>
      <trkpt lat="45.6852" lon="6.2881">
        <ele>1358</ele>
        <time>2016-08-04T11:56:40Z</time>
      </trkpt>
      <trkpt lat="45.685" lon="6.28832">
        <ele>1356</ele>
        <time>2016-08-04T11:56:45Z</time>
      </trkpt>
      <trkpt lat="45.6849" lon="6.28844">
        <ele>1355</ele>
        <time>2016-08-04T11:56:50Z</time>
      </trkpt>
      <trkpt lat="45.68481" lon="6.28853">
        <ele>1354</ele>
        <time>2016-08-04T11:56:55Z</time>
      </trkpt>
      <trkpt lat="45.68475" lon="6.28871">
        <ele>1353</ele>
        <time>2016-08-04T11:57:00Z</time>
      </trkpt>
      <trkpt lat="45.68466" lon="6.28873">
        <ele>1352</ele>
        <time>2016-08-04T11:57:05Z</time>
      </trkpt>
      <trkpt lat="45.68461" lon="6.28872">
        <ele>1352</ele>
        <time>2016-08-04T11:57:17Z</time>
      </trkpt>
      <trkpt lat="45.68451" lon="6.28878">
        <ele>1350</ele>
        <time>2016-08-04T11:57:26Z</time>
      </trkpt>
      <trkpt lat="45.68441" lon="6.28905">
        <ele>1349</ele>
        <time>2016-08-04T11:57:31Z</time>
      </trkpt>
      <trkpt lat="45.68447" lon="6.28927">
        <ele>1348</ele>
        <time>2016-08-04T11:57:36Z</time>
      </trkpt>
      <trkpt lat="45.68452" lon="6.28947">
        <ele>1346</ele>
        <time>2016-08-04T11:57:41Z</time>
      </trkpt>
      <trkpt lat="45.68445" lon="6.28951">
        <ele>1346</ele>
        <time>2016-08-04T11:57:47Z</time>
      </trkpt>
      <trkpt lat="45.68461" lon="6.28964">
        <ele>1348</ele>
        <time>2016-08-04T11:57:56Z</time>
      </trkpt>
      <trkpt lat="45.68443" lon="6.28973">
        <ele>1347</ele>
        <time>2016-08-04T11:58:01Z</time>
      </trkpt>
      <trkpt lat="45.68432" lon="6.28969">
        <ele>1342</ele>
        <time>2016-08-04T11:58:06Z</time>
      </trkpt>
      <trkpt lat="45.68426" lon="6.28969">
        <ele>1337</ele>
        <time>2016-08-04T11:58:14Z</time>
      </trkpt>
      <trkpt lat="45.68424" lon="6.28961">
        <ele>1329</ele>
        <time>2016-08-04T11:58:22Z</time>
      </trkpt>
      <trkpt lat="45.6843" lon="6.28947">
        <ele>1320</ele>
        <time>2016-08-04T11:58:27Z</time>
      </trkpt>
      <trkpt lat="45.68433" lon="6.28934">
        <ele>1313</ele>
        <time>2016-08-04T11:58:32Z</time>
      </trkpt>
      <trkpt lat="45.68449" lon="6.28922">
        <ele>1311</ele>
        <time>2016-08-04T11:58:37Z</time>
      </trkpt>
      <trkpt lat="45.68464" lon="6.28914">
        <ele>1308</ele>
        <time>2016-08-04T11:58:42Z</time>
      </trkpt>
      <trkpt lat="45.6848" lon="6.28915">
        <ele>1308</ele>
        <time>2016-08-04T11:58:47Z</time>
      </trkpt>
      <trkpt lat="45.68484" lon="6.28913">
        <ele>1309</ele>
        <time>2016-08-04T11:58:52Z</time>
      </trkpt>
      <trkpt lat="45.68484" lon="6.28905">
        <ele>1309</ele>
        <time>2016-08-04T11:59:11Z</time>
      </trkpt>
      <trkpt lat="45.68497" lon="6.28893">
        <ele>1308</ele>
        <time>2016-08-04T11:59:16Z</time>
      </trkpt>
      <trkpt lat="45.68513" lon="6.28886">
        <ele>1307</ele>
        <time>2016-08-04T11:59:21Z</time>
      </trkpt>
      <trkpt lat="45.68525" lon="6.28887">
        <ele>1306</ele>
        <time>2016-08-04T11:59:26Z</time>
      </trkpt>
      <trkpt lat="45.68549" lon="6.2889">
        <ele>1304</ele>
        <time>2016-08-04T11:59:31Z</time>
      </trkpt>
      <trkpt lat="45.68559" lon="6.28894">
        <ele>1304</ele>
        <time>2016-08-04T11:59:36Z</time>
      </trkpt>
      <trkpt lat="45.68574" lon="6.28892">
        <ele>1304</ele>
        <time>2016-08-04T11:59:41Z</time>
      </trkpt>
      <trkpt lat="45.68586" lon="6.28884">
        <ele>1303</ele>
        <time>2016-08-04T11:59:46Z</time>
      </trkpt>
      <trkpt lat="45.68602" lon="6.28877">
        <ele>1301</ele>
        <time>2016-08-04T11:59:51Z</time>
      </trkpt>
      <trkpt lat="45.68618" lon="6.28872">
        <ele>1298</ele>
        <time>2016-08-04T11:59:56Z</time>
      </trkpt>
      <trkpt lat="45.68628" lon="6.2884">
        <ele>1294</ele>
        <time>2016-08-04T12:00:01Z</time>
      </trkpt>
      <trkpt lat="45.68642" lon="6.28822">
        <ele>1291</ele>
        <time>2016-08-04T12:00:06Z</time>
      </trkpt>
      <trkpt lat="45.68656" lon="6.288">
        <ele>1289</ele>
        <time>2016-08-04T12:00:11Z</time>
      </trkpt>
      <trkpt lat="45.68664" lon="6.2878">
        <ele>1287</ele>
        <time>2016-08-04T12:00:16Z</time>
      </trkpt>
      <trkpt lat="45.68663" lon="6.28773">
        <ele>1285</ele>
        <time>2016-08-04T12:00:25Z</time>
      </trkpt>
      <trkpt lat="45.68655" lon="6.2878">
        <ele>1284</ele>
        <time>2016-08-04T12:00:30Z</time>
      </trkpt>
      <trkpt lat="45.68657" lon="6.2879">
        <ele>1282</ele>
        <time>2016-08-04T12:00:35Z</time>
      </trkpt>
      <trkpt lat="45.68662" lon="6.28811">
        <ele>1281</ele>
        <time>2016-08-04T12:00:40Z</time>
      </trkpt>
      <trkpt lat="45.68663" lon="6.28803">
        <ele>1281</ele>
        <time>2016-08-04T12:00:46Z</time>
      </trkpt>
      <trkpt lat="45.6866" lon="6.28807">
        <ele>1280</ele>
        <time>2016-08-04T12:01:11Z</time>
      </trkpt>
      <trkpt lat="45.68658" lon="6.28813">
        <ele>1279</ele>
        <time>2016-08-04T12:01:12Z</time>
      </trkpt>
      <trkpt lat="45.68647" lon="6.28832">
        <ele>1276</ele>
        <time>2016-08-04T12:01:17Z</time>
      </trkpt>
      <trkpt lat="45.68644" lon="6.28858">
        <ele>1273</ele>
        <time>2016-08-04T12:01:22Z</time>
      </trkpt>
      <trkpt lat="45.68643" lon="6.28867">
        <ele>1270</ele>
        <time>2016-08-04T12:01:27Z</time>
      </trkpt>
      <trkpt lat="45.68638" lon="6.28874">
        <ele>1267</ele>
        <time>2016-08-04T12:01:32Z</time>
      </trkpt>
      <trkpt lat="45.68631" lon="6.28889">
        <ele>1264</ele>
        <time>2016-08-04T12:01:37Z</time>
      </trkpt>
      <trkpt lat="45.68621" lon="6.28918">
        <ele>1262</ele>
        <time>2016-08-04T12:01:42Z</time>
      </trkpt>
      <trkpt lat="45.68618" lon="6.28937">
        <ele>1261</ele>
        <time>2016-08-04T12:01:47Z</time>
      </trkpt>
      <trkpt lat="45.6861" lon="6.28942">
        <ele>1259</ele>
        <time>2016-08-04T12:01:52Z</time>
      </trkpt>
      <trkpt lat="45.68607" lon="6.28942">
        <ele>1258</ele>
        <time>2016-08-04T12:02:11Z</time>
      </trkpt>
      <trkpt lat="45.68608" lon="6.28942">
        <ele>1258</ele>
        <time>2016-08-04T12:02:12Z</time>
      </trkpt>
      <trkpt lat="45.68604" lon="6.28948">
        <ele>1258</ele>
        <time>2016-08-04T12:02:29Z</time>
      </trkpt>
      <trkpt lat="45.68586" lon="6.28979">
        <ele>1259</ele>
        <time>2016-08-04T12:02:34Z</time>
      </trkpt>
      <trkpt lat="45.68572" lon="6.29001">
        <ele>1257</ele>
        <time>2016-08-04T12:02:39Z</time>
      </trkpt>
      <trkpt lat="45.6857" lon="6.29009">
        <ele>1256</ele>
        <time>2016-08-04T12:02:45Z</time>
      </trkpt>
      <trkpt lat="45.68565" lon="6.29009">
        <ele>1255</ele>
        <time>2016-08-04T12:02:50Z</time>
      </trkpt>
      <trkpt lat="45.68563" lon="6.29015">
        <ele>1253</ele>
        <time>2016-08-04T12:03:05Z</time>
      </trkpt>
      <trkpt lat="45.6856" lon="6.29021">
        <ele>1252</ele>
        <time>2016-08-04T12:03:12Z</time>
      </trkpt>
      <trkpt lat="45.68564" lon="6.29025">
        <ele>1251</ele>
        <time>2016-08-04T12:03:30Z</time>
      </trkpt>
      <trkpt lat="45.68567" lon="6.29031">
        <ele>1248</ele>
        <time>2016-08-04T12:03:35Z</time>
      </trkpt>
      <trkpt lat="45.68577" lon="6.29034">
        <ele>1245</ele>
        <time>2016-08-04T12:03:40Z</time>
      </trkpt>
      <trkpt lat="45.6859" lon="6.29041">
        <ele>1244</ele>
        <time>2016-08-04T12:03:45Z</time>
      </trkpt>
      <trkpt lat="45.68603" lon="6.29031">
        <ele>1240</ele>
        <time>2016-08-04T12:03:50Z</time>
      </trkpt>
      <trkpt lat="45.68605" lon="6.29024">
        <ele>1237</ele>
        <time>2016-08-04T12:03:56Z</time>
      </trkpt>
      <trkpt lat="45.68601" lon="6.29023">
        <ele>1236</ele>
        <time>2016-08-04T12:04:11Z</time>
      </trkpt>
      <trkpt lat="45.68601" lon="6.29023">
        <ele>1234</ele>
        <time>2016-08-04T12:04:12Z</time>
      </trkpt>
      <trkpt lat="45.68594" lon="6.29029">
        <ele>1230</ele>
        <time>2016-08-04T12:04:25Z</time>
      </trkpt>
      <trkpt lat="45.68587" lon="6.29043">
        <ele>1228</ele>
        <time>2016-08-04T12:04:30Z</time>
      </trkpt>
      <trkpt lat="45.68573" lon="6.29056">
        <ele>1223</ele>
        <time>2016-08-04T12:04:35Z</time>
      </trkpt>
      <trkpt lat="45.68564" lon="6.29063">
        <ele>1220</ele>
        <time>2016-08-04T12:04:40Z</time>
      </trkpt>
      <trkpt lat="45.68556" lon="6.29072">
        <ele>1215</ele>
        <time>2016-08-04T12:04:45Z</time>
      </trkpt>
      <trkpt lat="45.68551" lon="6.29078">
        <ele>1210</ele>
        <time>2016-08-04T12:04:50Z</time>
      </trkpt>
      <trkpt lat="45.68555" lon="6.29079">
        <ele>1207</ele>
        <time>2016-08-04T12:04:55Z</time>
      </trkpt>
      <trkpt lat="45.68561" lon="6.29079">
        <ele>1205</ele>
        <time>2016-08-04T12:05:06Z</time>
      </trkpt>
      <trkpt lat="45.68573" lon="6.29075">
        <ele>1203</ele>
        <time>2016-08-04T12:05:11Z</time>
      </trkpt>
      <trkpt lat="45.68579" lon="6.29078">
        <ele>1203</ele>
        <time>2016-08-04T12:05:16Z</time>
      </trkpt>
      <trkpt lat="45.68599" lon="6.29077">
        <ele>1205</ele>
        <time>2016-08-04T12:05:21Z</time>
      </trkpt>
      <trkpt lat="45.68612" lon="6.29076">
        <ele>1205</ele>
        <time>2016-08-04T12:05:26Z</time>
      </trkpt>
      <trkpt lat="45.68629" lon="6.29082">
        <ele>1204</ele>
        <time>2016-08-04T12:05:31Z</time>
      </trkpt>
      <trkpt lat="45.68641" lon="6.2907">
        <ele>1204</ele>
        <time>2016-08-04T12:05:36Z</time>
      </trkpt>
      <trkpt lat="45.68646" lon="6.2907">
        <ele>1201</ele>
        <time>2016-08-04T12:05:41Z</time>
      </trkpt>
      <trkpt lat="45.68657" lon="6.29078">
        <ele>1199</ele>
        <time>2016-08-04T12:05:46Z</time>
      </trkpt>
      <trkpt lat="45.68659" lon="6.29089">
        <ele>1197</ele>
        <time>2016-08-04T12:05:51Z</time>
      </trkpt>
      <trkpt lat="45.68653" lon="6.29098">
        <ele>1194</ele>
        <time>2016-08-04T12:05:56Z</time>
      </trkpt>
      <trkpt lat="45.68634" lon="6.29099">
        <ele>1192</ele>
        <time>2016-08-04T12:06:01Z</time>
      </trkpt>
      <trkpt lat="45.68625" lon="6.29092">
        <ele>1189</ele>
        <time>2016-08-04T12:06:06Z</time>
      </trkpt>
      <trkpt lat="45.6862" lon="6.29093">
        <ele>1184</ele>
        <time>2016-08-04T12:06:12Z</time>
      </trkpt>
      <trkpt lat="45.68619" lon="6.29093">
        <ele>1179</ele>
        <time>2016-08-04T12:06:41Z</time>
      </trkpt>
      <trkpt lat="45.68619" lon="6.29093">
        <ele>1175</ele>
        <time>2016-08-04T12:06:42Z</time>
      </trkpt>
      <trkpt lat="45.68619" lon="6.29093">
        <ele>1171</ele>
        <time>2016-08-04T12:07:11Z</time>
      </trkpt>
      <trkpt lat="45.68619" lon="6.29093">
        <ele>1170</ele>
        <time>2016-08-04T12:07:12Z</time>
      </trkpt>
      <trkpt lat="45.68627" lon="6.29095">
        <ele>1171</ele>
        <time>2016-08-04T12:07:23Z</time>
      </trkpt>
      <trkpt lat="45.68625" lon="6.29094">
        <ele>1171</ele>
        <time>2016-08-04T12:07:41Z</time>
      </trkpt>
      <trkpt lat="45.68624" lon="6.29095">
        <ele>1172</ele>
        <time>2016-08-04T12:07:42Z</time>
      </trkpt>
      <trkpt lat="45.68624" lon="6.29097">
        <ele>1173</ele>
        <time>2016-08-04T12:08:11Z</time>
      </trkpt>
      <trkpt lat="45.68624" lon="6.29097">
        <ele>1175</ele>
        <time>2016-08-04T12:08:12Z</time>
      </trkpt>
      <trkpt lat="45.68625" lon="6.29097">
        <ele>1175</ele>
        <time>2016-08-04T12:08:41Z</time>
      </trkpt>
      <trkpt lat="45.68625" lon="6.29097">
        <ele>1176</ele>
        <time>2016-08-04T12:08:42Z</time>
      </trkpt>
      <trkpt lat="45.68625" lon="6.29098">
        <ele>1177</ele>
        <time>2016-08-04T12:09:11Z</time>
      </trkpt>
      <trkpt lat="45.68624" lon="6.29098">
        <ele>1177</ele>
        <time>2016-08-04T12:09:12Z</time>
      </trkpt>
      <trkpt lat="45.68624" lon="6.29098">
        <ele>1177</ele>
        <time>2016-08-04T12:09:41Z</time>
      </trkpt>
      <trkpt lat="45.68624" lon="6.29098">
        <ele>1177</ele>
        <time>2016-08-04T12:09:42Z</time>
      </trkpt>
      <trkpt lat="45.68624" lon="6.29098">
        <ele>1177</ele>
        <time>2016-08-04T12:10:11Z</time>
      </trkpt>
      <trkpt lat="45.68616" lon="6.29104">
        <ele>1177</ele>
        <time>2016-08-04T12:10:12Z</time>
      </trkpt>
      <trkpt lat="45.68615" lon="6.2913">
        <ele>1178</ele>
        <time>2016-08-04T12:10:17Z</time>
      </trkpt>
      <trkpt lat="45.68609" lon="6.29131">
        <ele>1179</ele>
        <time>2016-08-04T12:10:22Z</time>
      </trkpt>
      <trkpt lat="45.68604" lon="6.2913">
        <ele>1180</ele>
        <time>2016-08-04T12:10:29Z</time>
      </trkpt>
      <trkpt lat="45.68596" lon="6.29135">
        <ele>1182</ele>
        <time>2016-08-04T12:10:41Z</time>
      </trkpt>
      <trkpt lat="45.6859" lon="6.29136">
        <ele>1183</ele>
        <time>2016-08-04T12:10:46Z</time>
      </trkpt>
      <trkpt lat="45.68588" lon="6.29146">
        <ele>1185</ele>
        <time>2016-08-04T12:10:53Z</time>
      </trkpt>
      <trkpt lat="45.68583" lon="6.29154">
        <ele>1187</ele>
        <time>2016-08-04T12:10:58Z</time>
      </trkpt>
      <trkpt lat="45.68581" lon="6.2916">
        <ele>1190</ele>
        <time>2016-08-04T12:11:04Z</time>
      </trkpt>
      <trkpt lat="45.68583" lon="6.2917">
        <ele>1193</ele>
        <time>2016-08-04T12:11:09Z</time>
      </trkpt>
      <trkpt lat="45.68581" lon="6.29186">
        <ele>1195</ele>
        <time>2016-08-04T12:11:14Z</time>
      </trkpt>
      <trkpt lat="45.68578" lon="6.29192">
        <ele>1198</ele>
        <time>2016-08-04T12:11:19Z</time>
      </trkpt>
      <trkpt lat="45.68575" lon="6.292">
        <ele>1199</ele>
        <time>2016-08-04T12:11:24Z</time>
      </trkpt>
      <trkpt lat="45.6857" lon="6.29209">
        <ele>1199</ele>
        <time>2016-08-04T12:11:29Z</time>
      </trkpt>
      <trkpt lat="45.68568" lon="6.29216">
        <ele>1199</ele>
        <time>2016-08-04T12:11:34Z</time>
      </trkpt>
      <trkpt lat="45.68576" lon="6.29227">
        <ele>1201</ele>
        <time>2016-08-04T12:11:39Z</time>
      </trkpt>
      <trkpt lat="45.68575" lon="6.29236">
        <ele>1201</ele>
        <time>2016-08-04T12:11:44Z</time>
      </trkpt>
      <trkpt lat="45.68571" lon="6.2925">
        <ele>1200</ele>
        <time>2016-08-04T12:11:49Z</time>
      </trkpt>
      <trkpt lat="45.68575" lon="6.29255">
        <ele>1201</ele>
        <time>2016-08-04T12:11:56Z</time>
      </trkpt>
      <trkpt lat="45.68575" lon="6.29263">
        <ele>1203</ele>
        <time>2016-08-04T12:12:01Z</time>
      </trkpt>
      <trkpt lat="45.68583" lon="6.29265">
        <ele>1204</ele>
        <time>2016-08-04T12:12:06Z</time>
      </trkpt>
      <trkpt lat="45.6858" lon="6.29269">
        <ele>1206</ele>
        <time>2016-08-04T12:12:11Z</time>
      </trkpt>
      <trkpt lat="45.68576" lon="6.29278">
        <ele>1209</ele>
        <time>2016-08-04T12:12:16Z</time>
      </trkpt>
      <trkpt lat="45.68574" lon="6.29285">
        <ele>1211</ele>
        <time>2016-08-04T12:12:22Z</time>
      </trkpt>
      <trkpt lat="45.68572" lon="6.29292">
        <ele>1213</ele>
        <time>2016-08-04T12:12:27Z</time>
      </trkpt>
      <trkpt lat="45.68575" lon="6.29302">
        <ele>1214</ele>
        <time>2016-08-04T12:12:32Z</time>
      </trkpt>
      <trkpt lat="45.68573" lon="6.2931">
        <ele>1213</ele>
        <time>2016-08-04T12:12:41Z</time>
      </trkpt>
      <trkpt lat="45.68576" lon="6.29318">
        <ele>1213</ele>
        <time>2016-08-04T12:12:46Z</time>
      </trkpt>
      <trkpt lat="45.68579" lon="6.29323">
        <ele>1213</ele>
        <time>2016-08-04T12:12:51Z</time>
      </trkpt>
      <trkpt lat="45.68572" lon="6.2933">
        <ele>1213</ele>
        <time>2016-08-04T12:12:56Z</time>
      </trkpt>
      <trkpt lat="45.68569" lon="6.29336">
        <ele>1213</ele>
        <time>2016-08-04T12:13:01Z</time>
      </trkpt>
      <trkpt lat="45.68569" lon="6.29343">
        <ele>1214</ele>
        <time>2016-08-04T12:13:06Z</time>
      </trkpt>
      <trkpt lat="45.68567" lon="6.29349">
        <ele>1215</ele>
        <time>2016-08-04T12:13:11Z</time>
      </trkpt>
      <trkpt lat="45.68565" lon="6.29357">
        <ele>1215</ele>
        <time>2016-08-04T12:13:16Z</time>
      </trkpt>
      <trkpt lat="45.68565" lon="6.29363">
        <ele>1217</ele>
        <time>2016-08-04T12:13:24Z</time>
      </trkpt>
      <trkpt lat="45.68562" lon="6.29372">
        <ele>1218</ele>
        <time>2016-08-04T12:13:29Z</time>
      </trkpt>
      <trkpt lat="45.68555" lon="6.29376">
        <ele>1219</ele>
        <time>2016-08-04T12:13:36Z</time>
      </trkpt>
      <trkpt lat="45.68561" lon="6.29369">
        <ele>1219</ele>
        <time>2016-08-04T12:13:41Z</time>
      </trkpt>
      <trkpt lat="45.68563" lon="6.29376">
        <ele>1221</ele>
        <time>2016-08-04T12:13:46Z</time>
      </trkpt>
      <trkpt lat="45.6856" lon="6.29383">
        <ele>1223</ele>
        <time>2016-08-04T12:13:51Z</time>
      </trkpt>
      <trkpt lat="45.68553" lon="6.29392">
        <ele>1225</ele>
        <time>2016-08-04T12:13:56Z</time>
      </trkpt>
      <trkpt lat="45.68552" lon="6.29402">
        <ele>1227</ele>
        <time>2016-08-04T12:14:01Z</time>
      </trkpt>
      <trkpt lat="45.6855" lon="6.2941">
        <ele>1229</ele>
        <time>2016-08-04T12:14:06Z</time>
      </trkpt>
      <trkpt lat="45.68549" lon="6.29419">
        <ele>1231</ele>
        <time>2016-08-04T12:14:11Z</time>
      </trkpt>
      <trkpt lat="45.68555" lon="6.29429">
        <ele>1231</ele>
        <time>2016-08-04T12:14:16Z</time>
      </trkpt>
      <trkpt lat="45.68554" lon="6.29438">
        <ele>1232</ele>
        <time>2016-08-04T12:14:21Z</time>
      </trkpt>
      <trkpt lat="45.68559" lon="6.29446">
        <ele>1232</ele>
        <time>2016-08-04T12:14:26Z</time>
      </trkpt>
      <trkpt lat="45.68561" lon="6.29452">
        <ele>1232</ele>
        <time>2016-08-04T12:14:31Z</time>
      </trkpt>
      <trkpt lat="45.68562" lon="6.29464">
        <ele>1232</ele>
        <time>2016-08-04T12:14:36Z</time>
      </trkpt>
      <trkpt lat="45.68561" lon="6.29471">
        <ele>1232</ele>
        <time>2016-08-04T12:14:42Z</time>
      </trkpt>
      <trkpt lat="45.68564" lon="6.29478">
        <ele>1233</ele>
        <time>2016-08-04T12:14:47Z</time>
      </trkpt>
      <trkpt lat="45.68564" lon="6.29485">
        <ele>1234</ele>
        <time>2016-08-04T12:14:52Z</time>
      </trkpt>
      <trkpt lat="45.68564" lon="6.29493">
        <ele>1237</ele>
        <time>2016-08-04T12:15:01Z</time>
      </trkpt>
      <trkpt lat="45.68566" lon="6.29501">
        <ele>1239</ele>
        <time>2016-08-04T12:15:12Z</time>
      </trkpt>
      <trkpt lat="45.68562" lon="6.2951">
        <ele>1242</ele>
        <time>2016-08-04T12:15:17Z</time>
      </trkpt>
      <trkpt lat="45.68559" lon="6.2952">
        <ele>1243</ele>
        <time>2016-08-04T12:15:22Z</time>
      </trkpt>
      <trkpt lat="45.68557" lon="6.29526">
        <ele>1245</ele>
        <time>2016-08-04T12:15:27Z</time>
      </trkpt>
      <trkpt lat="45.68549" lon="6.29534">
        <ele>1246</ele>
        <time>2016-08-04T12:15:32Z</time>
      </trkpt>
      <trkpt lat="45.68551" lon="6.29542">
        <ele>1246</ele>
        <time>2016-08-04T12:15:37Z</time>
      </trkpt>
      <trkpt lat="45.68552" lon="6.29552">
        <ele>1247</ele>
        <time>2016-08-04T12:15:42Z</time>
      </trkpt>
      <trkpt lat="45.68552" lon="6.29559">
        <ele>1249</ele>
        <time>2016-08-04T12:15:50Z</time>
      </trkpt>
      <trkpt lat="45.68546" lon="6.29564">
        <ele>1250</ele>
        <time>2016-08-04T12:15:55Z</time>
      </trkpt>
      <trkpt lat="45.68547" lon="6.29574">
        <ele>1252</ele>
        <time>2016-08-04T12:16:00Z</time>
      </trkpt>
      <trkpt lat="45.68541" lon="6.29585">
        <ele>1253</ele>
        <time>2016-08-04T12:16:05Z</time>
      </trkpt>
      <trkpt lat="45.68539" lon="6.29591">
        <ele>1255</ele>
        <time>2016-08-04T12:16:13Z</time>
      </trkpt>
      <trkpt lat="45.68528" lon="6.29594">
        <ele>1258</ele>
        <time>2016-08-04T12:16:18Z</time>
      </trkpt>
      <trkpt lat="45.68526" lon="6.29602">
        <ele>1260</ele>
        <time>2016-08-04T12:16:25Z</time>
      </trkpt>
      <trkpt lat="45.68522" lon="6.29606">
        <ele>1263</ele>
        <time>2016-08-04T12:16:30Z</time>
      </trkpt>
      <trkpt lat="45.68525" lon="6.29614">
        <ele>1266</ele>
        <time>2016-08-04T12:16:35Z</time>
      </trkpt>
      <trkpt lat="45.68529" lon="6.29619">
        <ele>1268</ele>
        <time>2016-08-04T12:16:40Z</time>
      </trkpt>
      <trkpt lat="45.68525" lon="6.29621">
        <ele>1269</ele>
        <time>2016-08-04T12:16:56Z</time>
      </trkpt>
      <trkpt lat="45.68525" lon="6.29621">
        <ele>1268</ele>
        <time>2016-08-04T12:16:57Z</time>
      </trkpt>
      <trkpt lat="45.68525" lon="6.29621">
        <ele>1268</ele>
        <time>2016-08-04T12:17:26Z</time>
      </trkpt>
      <trkpt lat="45.68525" lon="6.29621">
        <ele>1268</ele>
        <time>2016-08-04T12:17:27Z</time>
      </trkpt>
      <trkpt lat="45.68525" lon="6.29621">
        <ele>1268</ele>
        <time>2016-08-04T12:17:56Z</time>
      </trkpt>
      <trkpt lat="45.68525" lon="6.29621">
        <ele>1268</ele>
        <time>2016-08-04T12:17:57Z</time>
      </trkpt>
      <trkpt lat="45.6852" lon="6.29622">
        <ele>1267</ele>
        <time>2016-08-04T12:18:08Z</time>
      </trkpt>
      <trkpt lat="45.68523" lon="6.29617">
        <ele>1267</ele>
        <time>2016-08-04T12:18:16Z</time>
      </trkpt>
      <trkpt lat="45.68524" lon="6.2961">
        <ele>1267</ele>
        <time>2016-08-04T12:18:36Z</time>
      </trkpt>
      <trkpt lat="45.68524" lon="6.29608">
        <ele>1266</ele>
        <time>2016-08-04T12:18:56Z</time>
      </trkpt>
      <trkpt lat="45.68524" lon="6.29608">
        <ele>1266</ele>
        <time>2016-08-04T12:18:57Z</time>
      </trkpt>
      <trkpt lat="45.68524" lon="6.29608">
        <ele>1265</ele>
        <time>2016-08-04T12:19:26Z</time>
      </trkpt>
      <trkpt lat="45.68524" lon="6.29608">
        <ele>1265</ele>
        <time>2016-08-04T12:19:27Z</time>
      </trkpt>
      <trkpt lat="45.68524" lon="6.29608">
        <ele>1265</ele>
        <time>2016-08-04T12:19:56Z</time>
      </trkpt>
      <trkpt lat="45.68524" lon="6.29608">
        <ele>1265</ele>
        <time>2016-08-04T12:19:57Z</time>
      </trkpt>
      <trkpt lat="45.68518" lon="6.2961">
        <ele>1264</ele>
        <time>2016-08-04T12:20:08Z</time>
      </trkpt>
      <trkpt lat="45.6852" lon="6.29615">
        <ele>1264</ele>
        <time>2016-08-04T12:20:13Z</time>
      </trkpt>
      <trkpt lat="45.6852" lon="6.29615">
        <ele>1263</ele>
        <time>2016-08-04T12:20:41Z</time>
      </trkpt>
      <trkpt lat="45.6852" lon="6.29615">
        <ele>1262</ele>
        <time>2016-08-04T12:20:42Z</time>
      </trkpt>
      <trkpt lat="45.6852" lon="6.29615">
        <ele>1261</ele>
        <time>2016-08-04T12:21:11Z</time>
      </trkpt>
      <trkpt lat="45.6852" lon="6.29615">
        <ele>1261</ele>
        <time>2016-08-04T12:21:12Z</time>
      </trkpt>
      <trkpt lat="45.68518" lon="6.29618">
        <ele>1260</ele>
        <time>2016-08-04T12:21:41Z</time>
      </trkpt>
      <trkpt lat="45.68518" lon="6.29618">
        <ele>1260</ele>
        <time>2016-08-04T12:21:42Z</time>
      </trkpt>
      <trkpt lat="45.68518" lon="6.29618">
        <ele>1260</ele>
        <time>2016-08-04T12:22:11Z</time>
      </trkpt>
      <trkpt lat="45.68518" lon="6.29618">
        <ele>1260</ele>
        <time>2016-08-04T12:22:12Z</time>
      </trkpt>
      <trkpt lat="45.68518" lon="6.29618">
        <ele>1260</ele>
        <time>2016-08-04T12:22:41Z</time>
      </trkpt>
      <trkpt lat="45.68518" lon="6.29618">
        <ele>1260</ele>
        <time>2016-08-04T12:22:42Z</time>
      </trkpt>
      <trkpt lat="45.68518" lon="6.29618">
        <ele>1261</ele>
        <time>2016-08-04T12:23:12Z</time>
      </trkpt>
      <trkpt lat="45.68518" lon="6.29618">
        <ele>1261</ele>
        <time>2016-08-04T12:23:12Z</time>
      </trkpt>
      <trkpt lat="45.68518" lon="6.29618">
        <ele>1261</ele>
        <time>2016-08-04T12:23:13Z</time>
      </trkpt>
      <trkpt lat="45.68524" lon="6.29619">
        <ele>1260</ele>
        <time>2016-08-04T12:23:37Z</time>
      </trkpt>
      <trkpt lat="45.68524" lon="6.2962">
        <ele>1261</ele>
        <time>2016-08-04T12:23:57Z</time>
      </trkpt>
      <trkpt lat="45.68524" lon="6.2962">
        <ele>1261</ele>
        <time>2016-08-04T12:23:58Z</time>
      </trkpt>
      <trkpt lat="45.68524" lon="6.29621">
        <ele>1263</ele>
        <time>2016-08-04T12:24:27Z</time>
      </trkpt>
      <trkpt lat="45.68524" lon="6.29621">
        <ele>1264</ele>
        <time>2016-08-04T12:24:28Z</time>
      </trkpt>
      <trkpt lat="45.68524" lon="6.29628">
        <ele>1265</ele>
        <time>2016-08-04T12:24:48Z</time>
      </trkpt>
      <trkpt lat="45.68529" lon="6.29631">
        <ele>1265</ele>
        <time>2016-08-04T12:25:04Z</time>
      </trkpt>
      <trkpt lat="45.68528" lon="6.29638">
        <ele>1264</ele>
        <time>2016-08-04T12:25:11Z</time>
      </trkpt>
      <trkpt lat="45.68523" lon="6.29643">
        <ele>1263</ele>
        <time>2016-08-04T12:25:16Z</time>
      </trkpt>
      <trkpt lat="45.68522" lon="6.2965">
        <ele>1261</ele>
        <time>2016-08-04T12:25:23Z</time>
      </trkpt>
      <trkpt lat="45.68534" lon="6.29645">
        <ele>1260</ele>
        <time>2016-08-04T12:25:28Z</time>
      </trkpt>
      <trkpt lat="45.68544" lon="6.29637">
        <ele>1258</ele>
        <time>2016-08-04T12:25:33Z</time>
      </trkpt>
      <trkpt lat="45.68548" lon="6.29629">
        <ele>1255</ele>
        <time>2016-08-04T12:25:38Z</time>
      </trkpt>
      <trkpt lat="45.6855" lon="6.2964">
        <ele>1252</ele>
        <time>2016-08-04T12:25:43Z</time>
      </trkpt>
      <trkpt lat="45.68547" lon="6.29658">
        <ele>1249</ele>
        <time>2016-08-04T12:25:48Z</time>
      </trkpt>
      <trkpt lat="45.68533" lon="6.29688">
        <ele>1247</ele>
        <time>2016-08-04T12:25:53Z</time>
      </trkpt>
      <trkpt lat="45.68526" lon="6.29696">
        <ele>1245</ele>
        <time>2016-08-04T12:25:58Z</time>
      </trkpt>
      <trkpt lat="45.68539" lon="6.29702">
        <ele>1244</ele>
        <time>2016-08-04T12:26:03Z</time>
      </trkpt>
      <trkpt lat="45.68551" lon="6.29692">
        <ele>1242</ele>
        <time>2016-08-04T12:26:08Z</time>
      </trkpt>
      <trkpt lat="45.68546" lon="6.29696">
        <ele>1239</ele>
        <time>2016-08-04T12:26:15Z</time>
      </trkpt>
      <trkpt lat="45.68533" lon="6.29705">
        <ele>1238</ele>
        <time>2016-08-04T12:26:20Z</time>
      </trkpt>
      <trkpt lat="45.6853" lon="6.29715">
        <ele>1236</ele>
        <time>2016-08-04T12:26:25Z</time>
      </trkpt>
      <trkpt lat="45.68527" lon="6.2972">
        <ele>1234</ele>
        <time>2016-08-04T12:26:30Z</time>
      </trkpt>
      <trkpt lat="45.68531" lon="6.29728">
        <ele>1232</ele>
        <time>2016-08-04T12:26:35Z</time>
      </trkpt>
      <trkpt lat="45.68545" lon="6.29733">
        <ele>1230</ele>
        <time>2016-08-04T12:26:40Z</time>
      </trkpt>
      <trkpt lat="45.68559" lon="6.29739">
        <ele>1228</ele>
        <time>2016-08-04T12:26:45Z</time>
      </trkpt>
      <trkpt lat="45.68569" lon="6.29742">
        <ele>1225</ele>
        <time>2016-08-04T12:26:50Z</time>
      </trkpt>
      <trkpt lat="45.68584" lon="6.29742">
        <ele>1221</ele>
        <time>2016-08-04T12:26:55Z</time>
      </trkpt>
      <trkpt lat="45.68593" lon="6.2974">
        <ele>1217</ele>
        <time>2016-08-04T12:27:00Z</time>
      </trkpt>
      <trkpt lat="45.68588" lon="6.29749">
        <ele>1213</ele>
        <time>2016-08-04T12:27:05Z</time>
      </trkpt>
      <trkpt lat="45.68576" lon="6.29762">
        <ele>1210</ele>
        <time>2016-08-04T12:27:10Z</time>
      </trkpt>
      <trkpt lat="45.68565" lon="6.29773">
        <ele>1206</ele>
        <time>2016-08-04T12:27:15Z</time>
      </trkpt>
      <trkpt lat="45.68568" lon="6.2978">
        <ele>1202</ele>
        <time>2016-08-04T12:27:20Z</time>
      </trkpt>
      <trkpt lat="45.68588" lon="6.29783">
        <ele>1198</ele>
        <time>2016-08-04T12:27:25Z</time>
      </trkpt>
      <trkpt lat="45.6861" lon="6.29785">
        <ele>1195</ele>
        <time>2016-08-04T12:27:30Z</time>
      </trkpt>
      <trkpt lat="45.68624" lon="6.29782">
        <ele>1190</ele>
        <time>2016-08-04T12:27:35Z</time>
      </trkpt>
      <trkpt lat="45.68628" lon="6.29777">
        <ele>1187</ele>
        <time>2016-08-04T12:27:42Z</time>
      </trkpt>
      <trkpt lat="45.6863" lon="6.29772">
        <ele>1184</ele>
        <time>2016-08-04T12:27:54Z</time>
      </trkpt>
      <trkpt lat="45.68626" lon="6.29775">
        <ele>1182</ele>
        <time>2016-08-04T12:28:09Z</time>
      </trkpt>
      <trkpt lat="45.68638" lon="6.29786">
        <ele>1179</ele>
        <time>2016-08-04T12:28:14Z</time>
      </trkpt>
      <trkpt lat="45.6865" lon="6.29775">
        <ele>1177</ele>
        <time>2016-08-04T12:28:19Z</time>
      </trkpt>
      <trkpt lat="45.68653" lon="6.2977">
        <ele>1173</ele>
        <time>2016-08-04T12:28:24Z</time>
      </trkpt>
      <trkpt lat="45.6865" lon="6.29777">
        <ele>1171</ele>
        <time>2016-08-04T12:28:35Z</time>
      </trkpt>
      <trkpt lat="45.68647" lon="6.29791">
        <ele>1168</ele>
        <time>2016-08-04T12:28:40Z</time>
      </trkpt>
      <trkpt lat="45.68638" lon="6.29796">
        <ele>1165</ele>
        <time>2016-08-04T12:28:45Z</time>
      </trkpt>
      <trkpt lat="45.68636" lon="6.29802">
        <ele>1162</ele>
        <time>2016-08-04T12:28:52Z</time>
      </trkpt>
      <trkpt lat="45.68642" lon="6.29808">
        <ele>1160</ele>
        <time>2016-08-04T12:29:02Z</time>
      </trkpt>
      <trkpt lat="45.68654" lon="6.29814">
        <ele>1157</ele>
        <time>2016-08-04T12:29:07Z</time>
      </trkpt>
      <trkpt lat="45.6867" lon="6.29812">
        <ele>1155</ele>
        <time>2016-08-04T12:29:12Z</time>
      </trkpt>
      <trkpt lat="45.68686" lon="6.29794">
        <ele>1152</ele>
        <time>2016-08-04T12:29:17Z</time>
      </trkpt>
      <trkpt lat="45.68694" lon="6.29777">
        <ele>1150</ele>
        <time>2016-08-04T12:29:22Z</time>
      </trkpt>
      <trkpt lat="45.68698" lon="6.29765">
        <ele>1148</ele>
        <time>2016-08-04T12:29:27Z</time>
      </trkpt>
      <trkpt lat="45.68699" lon="6.29758">
        <ele>1146</ele>
        <time>2016-08-04T12:29:33Z</time>
      </trkpt>
      <trkpt lat="45.68699" lon="6.29765">
        <ele>1144</ele>
        <time>2016-08-04T12:29:47Z</time>
      </trkpt>
      <trkpt lat="45.68707" lon="6.29781">
        <ele>1143</ele>
        <time>2016-08-04T12:29:52Z</time>
      </trkpt>
      <trkpt lat="45.68719" lon="6.298">
        <ele>1141</ele>
        <time>2016-08-04T12:29:57Z</time>
      </trkpt>
      <trkpt lat="45.68716" lon="6.29814">
        <ele>1137</ele>
        <time>2016-08-04T12:30:02Z</time>
      </trkpt>
      <trkpt lat="45.6871" lon="6.2983">
        <ele>1133</ele>
        <time>2016-08-04T12:30:07Z</time>
      </trkpt>
      <trkpt lat="45.6869" lon="6.29833">
        <ele>1130</ele>
        <time>2016-08-04T12:30:12Z</time>
      </trkpt>
      <trkpt lat="45.68686" lon="6.29846">
        <ele>1125</ele>
        <time>2016-08-04T12:30:17Z</time>
      </trkpt>
      <trkpt lat="45.68692" lon="6.29847">
        <ele>1121</ele>
        <time>2016-08-04T12:30:22Z</time>
      </trkpt>
      <trkpt lat="45.68697" lon="6.29849">
        <ele>1118</ele>
        <time>2016-08-04T12:30:29Z</time>
      </trkpt>
      <trkpt lat="45.68712" lon="6.29847">
        <ele>1115</ele>
        <time>2016-08-04T12:30:34Z</time>
      </trkpt>
      <trkpt lat="45.68728" lon="6.2984">
        <ele>1111</ele>
        <time>2016-08-04T12:30:39Z</time>
      </trkpt>
      <trkpt lat="45.68747" lon="6.29841">
        <ele>1108</ele>
        <time>2016-08-04T12:30:44Z</time>
      </trkpt>
      <trkpt lat="45.68766" lon="6.29832">
        <ele>1105</ele>
        <time>2016-08-04T12:30:49Z</time>
      </trkpt>
      <trkpt lat="45.68771" lon="6.29816">
        <ele>1101</ele>
        <time>2016-08-04T12:30:54Z</time>
      </trkpt>
      <trkpt lat="45.68776" lon="6.29821">
        <ele>1100</ele>
        <time>2016-08-04T12:31:10Z</time>
      </trkpt>
      <trkpt lat="45.68776" lon="6.29848">
        <ele>1099</ele>
        <time>2016-08-04T12:31:15Z</time>
      </trkpt>
      <trkpt lat="45.68772" lon="6.29852">
        <ele>1097</ele>
        <time>2016-08-04T12:31:30Z</time>
      </trkpt>
      <trkpt lat="45.68779" lon="6.29847">
        <ele>1095</ele>
        <time>2016-08-04T12:31:44Z</time>
      </trkpt>
      <trkpt lat="45.68793" lon="6.2984">
        <ele>1093</ele>
        <time>2016-08-04T12:31:49Z</time>
      </trkpt>
      <trkpt lat="45.68796" lon="6.29837">
        <ele>1090</ele>
        <time>2016-08-04T12:32:12Z</time>
      </trkpt>
      <trkpt lat="45.68795" lon="6.29837">
        <ele>1086</ele>
        <time>2016-08-04T12:32:13Z</time>
      </trkpt>
      <trkpt lat="45.68794" lon="6.29843">
        <ele>1083</ele>
        <time>2016-08-04T12:32:34Z</time>
      </trkpt>
      <trkpt lat="45.68792" lon="6.2986">
        <ele>1080</ele>
        <time>2016-08-04T12:32:39Z</time>
      </trkpt>
      <trkpt lat="45.68787" lon="6.29866">
        <ele>1078</ele>
        <time>2016-08-04T12:32:44Z</time>
      </trkpt>
      <trkpt lat="45.68781" lon="6.29868">
        <ele>1075</ele>
        <time>2016-08-04T12:32:49Z</time>
      </trkpt>
      <trkpt lat="45.68786" lon="6.29869">
        <ele>1072</ele>
        <time>2016-08-04T12:33:05Z</time>
      </trkpt>
      <trkpt lat="45.68793" lon="6.29867">
        <ele>1069</ele>
        <time>2016-08-04T12:33:10Z</time>
      </trkpt>
      <trkpt lat="45.68805" lon="6.29859">
        <ele>1066</ele>
        <time>2016-08-04T12:33:15Z</time>
      </trkpt>
      <trkpt lat="45.68808" lon="6.29857">
        <ele>1064</ele>
        <time>2016-08-04T12:33:42Z</time>
      </trkpt>
      <trkpt lat="45.68808" lon="6.29857">
        <ele>1062</ele>
        <time>2016-08-04T12:33:43Z</time>
      </trkpt>
      <trkpt lat="45.68805" lon="6.29864">
        <ele>1062</ele>
        <time>2016-08-04T12:33:50Z</time>
      </trkpt>
      <trkpt lat="45.68789" lon="6.29883">
        <ele>1061</ele>
        <time>2016-08-04T12:33:55Z</time>
      </trkpt>
      <trkpt lat="45.68781" lon="6.29895">
        <ele>1062</ele>
        <time>2016-08-04T12:34:00Z</time>
      </trkpt>
      <trkpt lat="45.68792" lon="6.299">
        <ele>1062</ele>
        <time>2016-08-04T12:34:05Z</time>
      </trkpt>
      <trkpt lat="45.68803" lon="6.29896">
        <ele>1061</ele>
        <time>2016-08-04T12:34:10Z</time>
      </trkpt>
      <trkpt lat="45.68812" lon="6.29884">
        <ele>1059</ele>
        <time>2016-08-04T12:34:15Z</time>
      </trkpt>
      <trkpt lat="45.68819" lon="6.29871">
        <ele>1055</ele>
        <time>2016-08-04T12:34:20Z</time>
      </trkpt>
      <trkpt lat="45.6883" lon="6.29872">
        <ele>1051</ele>
        <time>2016-08-04T12:34:39Z</time>
      </trkpt>
      <trkpt lat="45.68834" lon="6.29875">
        <ele>1049</ele>
        <time>2016-08-04T12:34:57Z</time>
      </trkpt>
      <trkpt lat="45.68834" lon="6.29875">
        <ele>1047</ele>
        <time>2016-08-04T12:34:58Z</time>
      </trkpt>
      <trkpt lat="45.68834" lon="6.29882">
        <ele>1046</ele>
        <time>2016-08-04T12:35:11Z</time>
      </trkpt>
      <trkpt lat="45.68831" lon="6.29888">
        <ele>1045</ele>
        <time>2016-08-04T12:35:16Z</time>
      </trkpt>
      <trkpt lat="45.68832" lon="6.299">
        <ele>1044</ele>
        <time>2016-08-04T12:35:21Z</time>
      </trkpt>
      <trkpt lat="45.68843" lon="6.29894">
        <ele>1042</ele>
        <time>2016-08-04T12:35:26Z</time>
      </trkpt>
      <trkpt lat="45.68848" lon="6.2989">
        <ele>1039</ele>
        <time>2016-08-04T12:35:31Z</time>
      </trkpt>
      <trkpt lat="45.68849" lon="6.29881">
        <ele>1036</ele>
        <time>2016-08-04T12:35:36Z</time>
      </trkpt>
      <trkpt lat="45.68851" lon="6.2989">
        <ele>1034</ele>
        <time>2016-08-04T12:35:51Z</time>
      </trkpt>
      <trkpt lat="45.68848" lon="6.29908">
        <ele>1031</ele>
        <time>2016-08-04T12:35:56Z</time>
      </trkpt>
      <trkpt lat="45.68844" lon="6.2992">
        <ele>1029</ele>
        <time>2016-08-04T12:36:01Z</time>
      </trkpt>
      <trkpt lat="45.6884" lon="6.29933">
        <ele>1027</ele>
        <time>2016-08-04T12:36:06Z</time>
      </trkpt>
      <trkpt lat="45.6884" lon="6.29939">
        <ele>1026</ele>
        <time>2016-08-04T12:36:15Z</time>
      </trkpt>
      <trkpt lat="45.68846" lon="6.29936">
        <ele>1025</ele>
        <time>2016-08-04T12:36:20Z</time>
      </trkpt>
      <trkpt lat="45.68861" lon="6.29925">
        <ele>1024</ele>
        <time>2016-08-04T12:36:25Z</time>
      </trkpt>
      <trkpt lat="45.68863" lon="6.29918">
        <ele>1022</ele>
        <time>2016-08-04T12:36:36Z</time>
      </trkpt>
      <trkpt lat="45.68863" lon="6.29926">
        <ele>1019</ele>
        <time>2016-08-04T12:36:48Z</time>
      </trkpt>
      <trkpt lat="45.68858" lon="6.2994">
        <ele>1016</ele>
        <time>2016-08-04T12:36:53Z</time>
      </trkpt>
      <trkpt lat="45.68863" lon="6.29937">
        <ele>1013</ele>
        <time>2016-08-04T12:36:58Z</time>
      </trkpt>
      <trkpt lat="45.68868" lon="6.29928">
        <ele>1010</ele>
        <time>2016-08-04T12:37:03Z</time>
      </trkpt>
      <trkpt lat="45.68869" lon="6.29938">
        <ele>1008</ele>
        <time>2016-08-04T12:37:13Z</time>
      </trkpt>
      <trkpt lat="45.68868" lon="6.29953">
        <ele>1006</ele>
        <time>2016-08-04T12:37:18Z</time>
      </trkpt>
      <trkpt lat="45.68869" lon="6.29962">
        <ele>1005</ele>
        <time>2016-08-04T12:37:23Z</time>
      </trkpt>
      <trkpt lat="45.68877" lon="6.29955">
        <ele>1002</ele>
        <time>2016-08-04T12:37:28Z</time>
      </trkpt>
      <trkpt lat="45.68882" lon="6.29948">
        <ele>1000</ele>
        <time>2016-08-04T12:37:33Z</time>
      </trkpt>
      <trkpt lat="45.68885" lon="6.29941">
        <ele>998</ele>
        <time>2016-08-04T12:37:39Z</time>
      </trkpt>
      <trkpt lat="45.68884" lon="6.29944">
        <ele>996</ele>
        <time>2016-08-04T12:37:57Z</time>
      </trkpt>
      <trkpt lat="45.68884" lon="6.29944">
        <ele>994</ele>
        <time>2016-08-04T12:37:58Z</time>
      </trkpt>
      <trkpt lat="45.68884" lon="6.29945">
        <ele>993</ele>
        <time>2016-08-04T12:38:27Z</time>
      </trkpt>
      <trkpt lat="45.68884" lon="6.29945">
        <ele>992</ele>
        <time>2016-08-04T12:38:28Z</time>
      </trkpt>
      <trkpt lat="45.68887" lon="6.2994">
        <ele>992</ele>
        <time>2016-08-04T12:38:45Z</time>
      </trkpt>
      <trkpt lat="45.6889" lon="6.29946">
        <ele>991</ele>
        <time>2016-08-04T12:38:55Z</time>
      </trkpt>
      <trkpt lat="45.6889" lon="6.29956">
        <ele>990</ele>
        <time>2016-08-04T12:39:00Z</time>
      </trkpt>
      <trkpt lat="45.6889" lon="6.29965">
        <ele>989</ele>
        <time>2016-08-04T12:39:05Z</time>
      </trkpt>
      <trkpt lat="45.68891" lon="6.29973">
        <ele>986</ele>
        <time>2016-08-04T12:39:11Z</time>
      </trkpt>
      <trkpt lat="45.68895" lon="6.29996">
        <ele>984</ele>
        <time>2016-08-04T12:39:16Z</time>
      </trkpt>
      <trkpt lat="45.68899" lon="6.29994">
        <ele>982</ele>
        <time>2016-08-04T12:39:21Z</time>
      </trkpt>
      <trkpt lat="45.68903" lon="6.29999">
        <ele>980</ele>
        <time>2016-08-04T12:39:26Z</time>
      </trkpt>
      <trkpt lat="45.689" lon="6.30009">
        <ele>977</ele>
        <time>2016-08-04T12:39:31Z</time>
      </trkpt>
      <trkpt lat="45.68897" lon="6.30014">
        <ele>975</ele>
        <time>2016-08-04T12:39:38Z</time>
      </trkpt>
      <trkpt lat="45.68905" lon="6.30017">
        <ele>972</ele>
        <time>2016-08-04T12:39:43Z</time>
      </trkpt>
      <trkpt lat="45.68899" lon="6.30027">
        <ele>970</ele>
        <time>2016-08-04T12:39:48Z</time>
      </trkpt>
      <trkpt lat="45.68893" lon="6.30035">
        <ele>968</ele>
        <time>2016-08-04T12:39:53Z</time>
      </trkpt>
      <trkpt lat="45.68905" lon="6.30039">
        <ele>966</ele>
        <time>2016-08-04T12:39:58Z</time>
      </trkpt>
      <trkpt lat="45.68916" lon="6.30032">
        <ele>965</ele>
        <time>2016-08-04T12:40:03Z</time>
      </trkpt>
      <trkpt lat="45.68919" lon="6.30026">
        <ele>964</ele>
        <time>2016-08-04T12:40:14Z</time>
      </trkpt>
      <trkpt lat="45.68919" lon="6.3003">
        <ele>963</ele>
        <time>2016-08-04T12:40:42Z</time>
      </trkpt>
      <trkpt lat="45.68919" lon="6.3003">
        <ele>961</ele>
        <time>2016-08-04T12:40:43Z</time>
      </trkpt>
      <trkpt lat="45.68917" lon="6.30039">
        <ele>960</ele>
        <time>2016-08-04T12:40:49Z</time>
      </trkpt>
      <trkpt lat="45.68908" lon="6.30054">
        <ele>958</ele>
        <time>2016-08-04T12:40:54Z</time>
      </trkpt>
      <trkpt lat="45.68895" lon="6.3007">
        <ele>956</ele>
        <time>2016-08-04T12:40:59Z</time>
      </trkpt>
      <trkpt lat="45.68881" lon="6.30091">
        <ele>953</ele>
        <time>2016-08-04T12:41:04Z</time>
      </trkpt>
      <trkpt lat="45.68866" lon="6.30128">
        <ele>950</ele>
        <time>2016-08-04T12:41:09Z</time>
      </trkpt>
      <trkpt lat="45.68856" lon="6.30135">
        <ele>947</ele>
        <time>2016-08-04T12:41:14Z</time>
      </trkpt>
      <trkpt lat="45.6886" lon="6.30146">
        <ele>943</ele>
        <time>2016-08-04T12:41:19Z</time>
      </trkpt>
      <trkpt lat="45.68872" lon="6.30172">
        <ele>940</ele>
        <time>2016-08-04T12:41:24Z</time>
      </trkpt>
      <trkpt lat="45.68886" lon="6.30183">
        <ele>938</ele>
        <time>2016-08-04T12:41:29Z</time>
      </trkpt>
      <trkpt lat="45.68897" lon="6.30191">
        <ele>937</ele>
        <time>2016-08-04T12:41:34Z</time>
      </trkpt>
      <trkpt lat="45.68905" lon="6.30193">
        <ele>935</ele>
        <time>2016-08-04T12:41:39Z</time>
      </trkpt>
      <trkpt lat="45.68911" lon="6.30192">
        <ele>933</ele>
        <time>2016-08-04T12:41:45Z</time>
      </trkpt>
      <trkpt lat="45.68918" lon="6.30197">
        <ele>931</ele>
        <time>2016-08-04T12:41:50Z</time>
      </trkpt>
      <trkpt lat="45.68921" lon="6.30193">
        <ele>928</ele>
        <time>2016-08-04T12:41:56Z</time>
      </trkpt>
      <trkpt lat="45.68926" lon="6.30194">
        <ele>925</ele>
        <time>2016-08-04T12:42:03Z</time>
      </trkpt>
      <trkpt lat="45.68935" lon="6.30186">
        <ele>921</ele>
        <time>2016-08-04T12:42:08Z</time>
      </trkpt>
      <trkpt lat="45.68946" lon="6.30178">
        <ele>919</ele>
        <time>2016-08-04T12:42:13Z</time>
      </trkpt>
      <trkpt lat="45.68945" lon="6.30172">
        <ele>916</ele>
        <time>2016-08-04T12:42:23Z</time>
      </trkpt>
      <trkpt lat="45.68946" lon="6.30168">
        <ele>914</ele>
        <time>2016-08-04T12:42:42Z</time>
      </trkpt>
      <trkpt lat="45.68945" lon="6.30169">
        <ele>911</ele>
        <time>2016-08-04T12:42:43Z</time>
      </trkpt>
      <trkpt lat="45.68947" lon="6.30179">
        <ele>909</ele>
        <time>2016-08-04T12:42:48Z</time>
      </trkpt>
      <trkpt lat="45.68954" lon="6.3018">
        <ele>906</ele>
        <time>2016-08-04T12:42:53Z</time>
      </trkpt>
      <trkpt lat="45.68956" lon="6.30185">
        <ele>905</ele>
        <time>2016-08-04T12:43:12Z</time>
      </trkpt>
      <trkpt lat="45.68956" lon="6.30185">
        <ele>904</ele>
        <time>2016-08-04T12:43:13Z</time>
      </trkpt>
      <trkpt lat="45.68955" lon="6.30194">
        <ele>904</ele>
        <time>2016-08-04T12:43:24Z</time>
      </trkpt>
      <trkpt lat="45.68963" lon="6.30222">
        <ele>903</ele>
        <time>2016-08-04T12:43:29Z</time>
      </trkpt>
      <trkpt lat="45.68974" lon="6.30238">
        <ele>902</ele>
        <time>2016-08-04T12:43:34Z</time>
      </trkpt>
      <trkpt lat="45.68986" lon="6.30243">
        <ele>900</ele>
        <time>2016-08-04T12:43:39Z</time>
      </trkpt>
      <trkpt lat="45.68982" lon="6.30237">
        <ele>898</ele>
        <time>2016-08-04T12:43:49Z</time>
      </trkpt>
      <trkpt lat="45.68977" lon="6.30236">
        <ele>895</ele>
        <time>2016-08-04T12:43:54Z</time>
      </trkpt>
      <trkpt lat="45.68969" lon="6.30236">
        <ele>894</ele>
        <time>2016-08-04T12:43:59Z</time>
      </trkpt>
      <trkpt lat="45.68951" lon="6.30235">
        <ele>893</ele>
        <time>2016-08-04T12:44:04Z</time>
      </trkpt>
      <trkpt lat="45.68943" lon="6.30232">
        <ele>892</ele>
        <time>2016-08-04T12:44:09Z</time>
      </trkpt>
      <trkpt lat="45.6895" lon="6.30249">
        <ele>891</ele>
        <time>2016-08-04T12:44:14Z</time>
      </trkpt>
      <trkpt lat="45.68955" lon="6.30263">
        <ele>889</ele>
        <time>2016-08-04T12:44:19Z</time>
      </trkpt>
      <trkpt lat="45.68963" lon="6.30274">
        <ele>888</ele>
        <time>2016-08-04T12:44:24Z</time>
      </trkpt>
      <trkpt lat="45.68975" lon="6.30282">
        <ele>885</ele>
        <time>2016-08-04T12:44:29Z</time>
      </trkpt>
      <trkpt lat="45.68985" lon="6.30291">
        <ele>884</ele>
        <time>2016-08-04T12:44:34Z</time>
      </trkpt>
      <trkpt lat="45.68993" lon="6.30309">
        <ele>883</ele>
        <time>2016-08-04T12:44:39Z</time>
      </trkpt>
      <trkpt lat="45.68998" lon="6.3032">
        <ele>882</ele>
        <time>2016-08-04T12:44:44Z</time>
      </trkpt>
      <trkpt lat="45.69005" lon="6.30351">
        <ele>881</ele>
        <time>2016-08-04T12:44:49Z</time>
      </trkpt>
      <trkpt lat="45.69011" lon="6.30379">
        <ele>880</ele>
        <time>2016-08-04T12:44:54Z</time>
      </trkpt>
      <trkpt lat="45.69035" lon="6.30399">
        <ele>879</ele>
        <time>2016-08-04T12:44:59Z</time>
      </trkpt>
      <trkpt lat="45.69067" lon="6.30408">
        <ele>877</ele>
        <time>2016-08-04T12:45:04Z</time>
      </trkpt>
      <trkpt lat="45.69099" lon="6.30417">
        <ele>875</ele>
        <time>2016-08-04T12:45:09Z</time>
      </trkpt>
      <trkpt lat="45.69138" lon="6.30424">
        <ele>871</ele>
        <time>2016-08-04T12:45:14Z</time>
      </trkpt>
      <trkpt lat="45.69167" lon="6.3044">
        <ele>867</ele>
        <time>2016-08-04T12:45:19Z</time>
      </trkpt>
      <trkpt lat="45.69193" lon="6.3048">
        <ele>862</ele>
        <time>2016-08-04T12:45:24Z</time>
      </trkpt>
      <trkpt lat="45.69198" lon="6.3049">
        <ele>858</ele>
        <time>2016-08-04T12:45:29Z</time>
      </trkpt>
      <trkpt lat="45.69204" lon="6.30482">
        <ele>853</ele>
        <time>2016-08-04T12:45:34Z</time>
      </trkpt>
      <trkpt lat="45.69209" lon="6.30486">
        <ele>848</ele>
        <time>2016-08-04T12:45:45Z</time>
      </trkpt>
      <trkpt lat="45.69218" lon="6.30494">
        <ele>845</ele>
        <time>2016-08-04T12:45:50Z</time>
      </trkpt>
      <trkpt lat="45.69223" lon="6.30507">
        <ele>841</ele>
        <time>2016-08-04T12:45:55Z</time>
      </trkpt>
      <trkpt lat="45.69236" lon="6.30521">
        <ele>837</ele>
        <time>2016-08-04T12:46:00Z</time>
      </trkpt>
      <trkpt lat="45.69248" lon="6.30513">
        <ele>835</ele>
        <time>2016-08-04T12:46:05Z</time>
      </trkpt>
      <trkpt lat="45.69254" lon="6.30514">
        <ele>833</ele>
        <time>2016-08-04T12:46:12Z</time>
      </trkpt>
      <trkpt lat="45.69261" lon="6.30527">
        <ele>833</ele>
        <time>2016-08-04T12:46:17Z</time>
      </trkpt>
      <trkpt lat="45.69266" lon="6.30524">
        <ele>832</ele>
        <time>2016-08-04T12:46:22Z</time>
      </trkpt>
      <trkpt lat="45.6927" lon="6.30526">
        <ele>834</ele>
        <time>2016-08-04T12:46:42Z</time>
      </trkpt>
      <trkpt lat="45.6927" lon="6.30527">
        <ele>835</ele>
        <time>2016-08-04T12:46:43Z</time>
      </trkpt>
      <trkpt lat="45.69276" lon="6.30528">
        <ele>837</ele>
        <time>2016-08-04T12:46:48Z</time>
      </trkpt>
      <trkpt lat="45.69294" lon="6.30525">
        <ele>838</ele>
        <time>2016-08-04T12:46:53Z</time>
      </trkpt>
      <trkpt lat="45.69307" lon="6.30525">
        <ele>840</ele>
        <time>2016-08-04T12:46:58Z</time>
      </trkpt>
      <trkpt lat="45.69325" lon="6.30526">
        <ele>840</ele>
        <time>2016-08-04T12:47:03Z</time>
      </trkpt>
      <trkpt lat="45.69334" lon="6.30535">
        <ele>839</ele>
        <time>2016-08-04T12:47:08Z</time>
      </trkpt>
      <trkpt lat="45.69346" lon="6.30543">
        <ele>837</ele>
        <time>2016-08-04T12:47:13Z</time>
      </trkpt>
      <trkpt lat="45.6936" lon="6.30543">
        <ele>836</ele>
        <time>2016-08-04T12:47:18Z</time>
      </trkpt>
      <trkpt lat="45.69368" lon="6.30535">
        <ele>834</ele>
        <time>2016-08-04T12:47:23Z</time>
      </trkpt>
      <trkpt lat="45.69373" lon="6.30523">
        <ele>833</ele>
        <time>2016-08-04T12:47:28Z</time>
      </trkpt>
      <trkpt lat="45.69377" lon="6.30518">
        <ele>832</ele>
        <time>2016-08-04T12:47:33Z</time>
      </trkpt>
      <trkpt lat="45.69384" lon="6.30513">
        <ele>831</ele>
        <time>2016-08-04T12:47:41Z</time>
      </trkpt>
      <trkpt lat="45.69407" lon="6.30521">
        <ele>831</ele>
        <time>2016-08-04T12:47:46Z</time>
      </trkpt>
      <trkpt lat="45.69412" lon="6.30524">
        <ele>832</ele>
        <time>2016-08-04T12:47:51Z</time>
      </trkpt>
      <trkpt lat="45.69431" lon="6.30527">
        <ele>833</ele>
        <time>2016-08-04T12:47:56Z</time>
      </trkpt>
      <trkpt lat="45.69442" lon="6.30513">
        <ele>834</ele>
        <time>2016-08-04T12:48:01Z</time>
      </trkpt>
      <trkpt lat="45.69452" lon="6.30495">
        <ele>834</ele>
        <time>2016-08-04T12:48:06Z</time>
      </trkpt>
      <trkpt lat="45.69462" lon="6.30471">
        <ele>833</ele>
        <time>2016-08-04T12:48:11Z</time>
      </trkpt>
      <trkpt lat="45.69473" lon="6.3047">
        <ele>831</ele>
        <time>2016-08-04T12:48:16Z</time>
      </trkpt>
      <trkpt lat="45.69489" lon="6.30476">
        <ele>830</ele>
        <time>2016-08-04T12:48:21Z</time>
      </trkpt>
      <trkpt lat="45.69506" lon="6.30483">
        <ele>829</ele>
        <time>2016-08-04T12:48:26Z</time>
      </trkpt>
      <trkpt lat="45.6953" lon="6.30485">
        <ele>828</ele>
        <time>2016-08-04T12:48:31Z</time>
      </trkpt>
      <trkpt lat="45.69577" lon="6.30493">
        <ele>828</ele>
        <time>2016-08-04T12:48:36Z</time>
      </trkpt>
      <trkpt lat="45.69616" lon="6.30508">
        <ele>827</ele>
        <time>2016-08-04T12:48:41Z</time>
      </trkpt>
      <trkpt lat="45.69647" lon="6.30519">
        <ele>825</ele>
        <time>2016-08-04T12:48:46Z</time>
      </trkpt>
      <trkpt lat="45.69676" lon="6.30525">
        <ele>822</ele>
        <time>2016-08-04T12:48:51Z</time>
      </trkpt>
      <trkpt lat="45.69711" lon="6.30545">
        <ele>819</ele>
        <time>2016-08-04T12:48:56Z</time>
      </trkpt>
      <trkpt lat="45.69754" lon="6.3057">
        <ele>816</ele>
        <time>2016-08-04T12:49:01Z</time>
      </trkpt>
      <trkpt lat="45.69778" lon="6.30578">
        <ele>815</ele>
        <time>2016-08-04T12:49:06Z</time>
      </trkpt>
      <trkpt lat="45.69809" lon="6.30593">
        <ele>814</ele>
        <time>2016-08-04T12:49:11Z</time>
      </trkpt>
      <trkpt lat="45.69841" lon="6.30608">
        <ele>813</ele>
        <time>2016-08-04T12:49:16Z</time>
      </trkpt>
      <trkpt lat="45.69872" lon="6.30621">
        <ele>812</ele>
        <time>2016-08-04T12:49:21Z</time>
      </trkpt>
      <trkpt lat="45.69904" lon="6.30637">
        <ele>813</ele>
        <time>2016-08-04T12:49:26Z</time>
      </trkpt>
      <trkpt lat="45.69926" lon="6.30633">
        <ele>812</ele>
        <time>2016-08-04T12:49:31Z</time>
      </trkpt>
      <trkpt lat="45.69945" lon="6.30636">
        <ele>810</ele>
        <time>2016-08-04T12:49:36Z</time>
      </trkpt>
      <trkpt lat="45.69961" lon="6.30633">
        <ele>808</ele>
        <time>2016-08-04T12:49:41Z</time>
      </trkpt>
      <trkpt lat="45.69978" lon="6.30642">
        <ele>806</ele>
        <time>2016-08-04T12:49:46Z</time>
      </trkpt>
      <trkpt lat="45.69989" lon="6.30654">
        <ele>803</ele>
        <time>2016-08-04T12:49:51Z</time>
      </trkpt>
      <trkpt lat="45.70001" lon="6.30661">
        <ele>800</ele>
        <time>2016-08-04T12:49:56Z</time>
      </trkpt>
      <trkpt lat="45.7001" lon="6.30659">
        <ele>798</ele>
        <time>2016-08-04T12:50:01Z</time>
      </trkpt>
      <trkpt lat="45.70017" lon="6.30665">
        <ele>796</ele>
        <time>2016-08-04T12:50:06Z</time>
      </trkpt>
      <trkpt lat="45.70019" lon="6.30659">
        <ele>795</ele>
        <time>2016-08-04T12:50:12Z</time>
      </trkpt>
      <trkpt lat="45.7002" lon="6.30662">
        <ele>794</ele>
        <time>2016-08-04T12:50:27Z</time>
      </trkpt>
      <trkpt lat="45.7002" lon="6.30663">
        <ele>793</ele>
        <time>2016-08-04T12:50:28Z</time>
      </trkpt>
      <trkpt lat="45.70024" lon="6.30667">
        <ele>794</ele>
        <time>2016-08-04T12:50:44Z</time>
      </trkpt>
      <trkpt lat="45.70027" lon="6.30673">
        <ele>793</ele>
        <time>2016-08-04T12:50:50Z</time>
      </trkpt>
      <trkpt lat="45.70033" lon="6.30672">
        <ele>793</ele>
        <time>2016-08-04T12:50:55Z</time>
      </trkpt>
      <trkpt lat="45.70039" lon="6.30674">
        <ele>792</ele>
        <time>2016-08-04T12:51:01Z</time>
      </trkpt>
      <trkpt lat="45.70051" lon="6.30685">
        <ele>791</ele>
        <time>2016-08-04T12:51:06Z</time>
      </trkpt>
      <trkpt lat="45.70075" lon="6.30699">
        <ele>789</ele>
        <time>2016-08-04T12:51:11Z</time>
      </trkpt>
      <trkpt lat="45.70093" lon="6.307">
        <ele>787</ele>
        <time>2016-08-04T12:51:16Z</time>
      </trkpt>
      <trkpt lat="45.70118" lon="6.30701">
        <ele>785</ele>
        <time>2016-08-04T12:51:21Z</time>
      </trkpt>
      <trkpt lat="45.70142" lon="6.30707">
        <ele>782</ele>
        <time>2016-08-04T12:51:26Z</time>
      </trkpt>
      <trkpt lat="45.70155" lon="6.30719">
        <ele>779</ele>
        <time>2016-08-04T12:51:31Z</time>
      </trkpt>
      <trkpt lat="45.70181" lon="6.30739">
        <ele>776</ele>
        <time>2016-08-04T12:51:36Z</time>
      </trkpt>
      <trkpt lat="45.70203" lon="6.30742">
        <ele>774</ele>
        <time>2016-08-04T12:51:41Z</time>
      </trkpt>
      <trkpt lat="45.70218" lon="6.30749">
        <ele>772</ele>
        <time>2016-08-04T12:51:46Z</time>
      </trkpt>
      <trkpt lat="45.70246" lon="6.30747">
        <ele>771</ele>
        <time>2016-08-04T12:51:51Z</time>
      </trkpt>
      <trkpt lat="45.70277" lon="6.3072">
        <ele>770</ele>
        <time>2016-08-04T12:51:56Z</time>
      </trkpt>
      <trkpt lat="45.70306" lon="6.30712">
        <ele>770</ele>
        <time>2016-08-04T12:52:01Z</time>
      </trkpt>
      <trkpt lat="45.70326" lon="6.30713">
        <ele>769</ele>
        <time>2016-08-04T12:52:06Z</time>
      </trkpt>
      <trkpt lat="45.70347" lon="6.30716">
        <ele>768</ele>
        <time>2016-08-04T12:52:11Z</time>
      </trkpt>
      <trkpt lat="45.70377" lon="6.30718">
        <ele>768</ele>
        <time>2016-08-04T12:52:16Z</time>
      </trkpt>
      <trkpt lat="45.70417" lon="6.30724">
        <ele>768</ele>
        <time>2016-08-04T12:52:21Z</time>
      </trkpt>
      <trkpt lat="45.70453" lon="6.3072">
        <ele>768</ele>
        <time>2016-08-04T12:52:26Z</time>
      </trkpt>
      <trkpt lat="45.70484" lon="6.30698">
        <ele>768</ele>
        <time>2016-08-04T12:52:31Z</time>
      </trkpt>
      <trkpt lat="45.70507" lon="6.30662">
        <ele>768</ele>
        <time>2016-08-04T12:52:36Z</time>
      </trkpt>
      <trkpt lat="45.70521" lon="6.30628">
        <ele>767</ele>
        <time>2016-08-04T12:52:41Z</time>
      </trkpt>
      <trkpt lat="45.70538" lon="6.30611">
        <ele>767</ele>
        <time>2016-08-04T12:52:46Z</time>
      </trkpt>
      <trkpt lat="45.70552" lon="6.30602">
        <ele>777</ele>
        <time>2016-08-04T12:52:51Z</time>
      </trkpt>
      <trkpt lat="45.70561" lon="6.30599">
        <ele>779</ele>
        <time>2016-08-04T12:52:56Z</time>
      </trkpt>
      <trkpt lat="45.70561" lon="6.30592">
        <ele>779</ele>
        <time>2016-08-04T12:53:06Z</time>
      </trkpt>
      <trkpt lat="45.7056" lon="6.30591">
        <ele>779</ele>
        <time>2016-08-04T12:53:27Z</time>
      </trkpt>
      <trkpt lat="45.7056" lon="6.30591">
        <ele>779</ele>
        <time>2016-08-04T12:53:28Z</time>
      </trkpt>
      <trkpt lat="45.70563" lon="6.30586">
        <ele>768</ele>
        <time>2016-08-04T12:53:51Z</time>
      </trkpt>
      <trkpt lat="45.70573" lon="6.30581">
        <ele>765</ele>
        <time>2016-08-04T12:53:56Z</time>
      </trkpt>
      <trkpt lat="45.70583" lon="6.30578">
        <ele>764</ele>
        <time>2016-08-04T12:54:01Z</time>
      </trkpt>
      <trkpt lat="45.70594" lon="6.30576">
        <ele>763</ele>
        <time>2016-08-04T12:54:06Z</time>
      </trkpt>
      <trkpt lat="45.70605" lon="6.30574">
        <ele>763</ele>
        <time>2016-08-04T12:54:11Z</time>
      </trkpt>
      <trkpt lat="45.70615" lon="6.3057">
        <ele>763</ele>
        <time>2016-08-04T12:54:16Z</time>
      </trkpt>
      <trkpt lat="45.70623" lon="6.30569">
        <ele>764</ele>
        <time>2016-08-04T12:54:21Z</time>
      </trkpt>
      <trkpt lat="45.7063" lon="6.30569">
        <ele>764</ele>
        <time>2016-08-04T12:54:26Z</time>
      </trkpt>
      <trkpt lat="45.70637" lon="6.30563">
        <ele>765</ele>
        <time>2016-08-04T12:54:31Z</time>
      </trkpt>
      <trkpt lat="45.70647" lon="6.30558">
        <ele>767</ele>
        <time>2016-08-04T12:54:36Z</time>
      </trkpt>
      <trkpt lat="45.70657" lon="6.30553">
        <ele>768</ele>
        <time>2016-08-04T12:54:41Z</time>
      </trkpt>
      <trkpt lat="45.70667" lon="6.3055">
        <ele>770</ele>
        <time>2016-08-04T12:54:46Z</time>
      </trkpt>
      <trkpt lat="45.70674" lon="6.3055">
        <ele>771</ele>
        <time>2016-08-04T12:54:51Z</time>
      </trkpt>
      <trkpt lat="45.70683" lon="6.30549">
        <ele>773</ele>
        <time>2016-08-04T12:54:56Z</time>
      </trkpt>
      <trkpt lat="45.70693" lon="6.30543">
        <ele>774</ele>
        <time>2016-08-04T12:55:01Z</time>
      </trkpt>
      <trkpt lat="45.70702" lon="6.30533">
        <ele>774</ele>
        <time>2016-08-04T12:55:06Z</time>
      </trkpt>
      <trkpt lat="45.7071" lon="6.30527">
        <ele>775</ele>
        <time>2016-08-04T12:55:11Z</time>
      </trkpt>
      <trkpt lat="45.7072" lon="6.30522">
        <ele>775</ele>
        <time>2016-08-04T12:55:16Z</time>
      </trkpt>
      <trkpt lat="45.70729" lon="6.30518">
        <ele>776</ele>
        <time>2016-08-04T12:55:21Z</time>
      </trkpt>
      <trkpt lat="45.70741" lon="6.30511">
        <ele>777</ele>
        <time>2016-08-04T12:55:26Z</time>
      </trkpt>
      <trkpt lat="45.70752" lon="6.30502">
        <ele>778</ele>
        <time>2016-08-04T12:55:31Z</time>
      </trkpt>
      <trkpt lat="45.70763" lon="6.3049">
        <ele>779</ele>
        <time>2016-08-04T12:55:36Z</time>
      </trkpt>
      <trkpt lat="45.7078" lon="6.30468">
        <ele>780</ele>
        <time>2016-08-04T12:55:41Z</time>
      </trkpt>
      <trkpt lat="45.70799" lon="6.30469">
        <ele>781</ele>
        <time>2016-08-04T12:55:46Z</time>
      </trkpt>
      <trkpt lat="45.70822" lon="6.30468">
        <ele>781</ele>
        <time>2016-08-04T12:55:51Z</time>
      </trkpt>
      <trkpt lat="45.70845" lon="6.30462">
        <ele>780</ele>
        <time>2016-08-04T12:55:56Z</time>
      </trkpt>
      <trkpt lat="45.70858" lon="6.30457">
        <ele>779</ele>
        <time>2016-08-04T12:56:01Z</time>
      </trkpt>
      <trkpt lat="45.70878" lon="6.30442">
        <ele>778</ele>
        <time>2016-08-04T12:56:06Z</time>
      </trkpt>
      <trkpt lat="45.70902" lon="6.30431">
        <ele>776</ele>
        <time>2016-08-04T12:56:11Z</time>
      </trkpt>
      <trkpt lat="45.70926" lon="6.30414">
        <ele>774</ele>
        <time>2016-08-04T12:56:16Z</time>
      </trkpt>
      <trkpt lat="45.70952" lon="6.3041">
        <ele>773</ele>
        <time>2016-08-04T12:56:21Z</time>
      </trkpt>
      <trkpt lat="45.70974" lon="6.30404">
        <ele>773</ele>
        <time>2016-08-04T12:56:26Z</time>
      </trkpt>
      <trkpt lat="45.70997" lon="6.30398">
        <ele>773</ele>
        <time>2016-08-04T12:56:31Z</time>
      </trkpt>
      <trkpt lat="45.71018" lon="6.30406">
        <ele>773</ele>
        <time>2016-08-04T12:56:36Z</time>
      </trkpt>
      <trkpt lat="45.71045" lon="6.30405">
        <ele>775</ele>
        <time>2016-08-04T12:56:41Z</time>
      </trkpt>
      <trkpt lat="45.71083" lon="6.3039">
        <ele>774</ele>
        <time>2016-08-04T12:56:46Z</time>
      </trkpt>
      <trkpt lat="45.71113" lon="6.30373">
        <ele>774</ele>
        <time>2016-08-04T12:56:51Z</time>
      </trkpt>
      <trkpt lat="45.71143" lon="6.30353">
        <ele>773</ele>
        <time>2016-08-04T12:56:56Z</time>
      </trkpt>
      <trkpt lat="45.71174" lon="6.30324">
        <ele>772</ele>
        <time>2016-08-04T12:57:01Z</time>
      </trkpt>
      <trkpt lat="45.71207" lon="6.30316">
        <ele>771</ele>
        <time>2016-08-04T12:57:06Z</time>
      </trkpt>
      <trkpt lat="45.71234" lon="6.30316">
        <ele>772</ele>
        <time>2016-08-04T12:57:11Z</time>
      </trkpt>
      <trkpt lat="45.71256" lon="6.30319">
        <ele>773</ele>
        <time>2016-08-04T12:57:16Z</time>
      </trkpt>
      <trkpt lat="45.7127" lon="6.3032">
        <ele>775</ele>
        <time>2016-08-04T12:57:21Z</time>
      </trkpt>
      <trkpt lat="45.71288" lon="6.30315">
        <ele>778</ele>
        <time>2016-08-04T12:57:26Z</time>
      </trkpt>
      <trkpt lat="45.71306" lon="6.30308">
        <ele>781</ele>
        <time>2016-08-04T12:57:31Z</time>
      </trkpt>
      <trkpt lat="45.71324" lon="6.30308">
        <ele>784</ele>
        <time>2016-08-04T12:57:36Z</time>
      </trkpt>
      <trkpt lat="45.7134" lon="6.30311">
        <ele>786</ele>
        <time>2016-08-04T12:57:41Z</time>
      </trkpt>
      <trkpt lat="45.71357" lon="6.30309">
        <ele>787</ele>
        <time>2016-08-04T12:57:46Z</time>
      </trkpt>
      <trkpt lat="45.71372" lon="6.30308">
        <ele>787</ele>
        <time>2016-08-04T12:57:51Z</time>
      </trkpt>
      <trkpt lat="45.7139" lon="6.30308">
        <ele>787</ele>
        <time>2016-08-04T12:57:56Z</time>
      </trkpt>
      <trkpt lat="45.71409" lon="6.30293">
        <ele>786</ele>
        <time>2016-08-04T12:58:01Z</time>
      </trkpt>
      <trkpt lat="45.71431" lon="6.30278">
        <ele>784</ele>
        <time>2016-08-04T12:58:06Z</time>
      </trkpt>
      <trkpt lat="45.71455" lon="6.30257">
        <ele>784</ele>
        <time>2016-08-04T12:58:11Z</time>
      </trkpt>
      <trkpt lat="45.71481" lon="6.30231">
        <ele>783</ele>
        <time>2016-08-04T12:58:16Z</time>
      </trkpt>
      <trkpt lat="45.71504" lon="6.30201">
        <ele>781</ele>
        <time>2016-08-04T12:58:21Z</time>
      </trkpt>
      <trkpt lat="45.71521" lon="6.30168">
        <ele>781</ele>
        <time>2016-08-04T12:58:26Z</time>
      </trkpt>
      <trkpt lat="45.71539" lon="6.30138">
        <ele>780</ele>
        <time>2016-08-04T12:58:31Z</time>
      </trkpt>
      <trkpt lat="45.71564" lon="6.30136">
        <ele>779</ele>
        <time>2016-08-04T12:58:36Z</time>
      </trkpt>
      <trkpt lat="45.71588" lon="6.30148">
        <ele>779</ele>
        <time>2016-08-04T12:58:41Z</time>
      </trkpt>
      <trkpt lat="45.71607" lon="6.30158">
        <ele>778</ele>
        <time>2016-08-04T12:58:46Z</time>
      </trkpt>
      <trkpt lat="45.71626" lon="6.30165">
        <ele>777</ele>
        <time>2016-08-04T12:58:51Z</time>
      </trkpt>
      <trkpt lat="45.71647" lon="6.30166">
        <ele>777</ele>
        <time>2016-08-04T12:58:56Z</time>
      </trkpt>
      <trkpt lat="45.7167" lon="6.30163">
        <ele>777</ele>
        <time>2016-08-04T12:59:01Z</time>
      </trkpt>
      <trkpt lat="45.717" lon="6.3016">
        <ele>776</ele>
        <time>2016-08-04T12:59:06Z</time>
      </trkpt>
      <trkpt lat="45.71729" lon="6.30155">
        <ele>776</ele>
        <time>2016-08-04T12:59:11Z</time>
      </trkpt>
      <trkpt lat="45.71756" lon="6.30132">
        <ele>775</ele>
        <time>2016-08-04T12:59:16Z</time>
      </trkpt>
      <trkpt lat="45.71768" lon="6.30089">
        <ele>775</ele>
        <time>2016-08-04T12:59:21Z</time>
      </trkpt>
      <trkpt lat="45.71772" lon="6.3004">
        <ele>774</ele>
        <time>2016-08-04T12:59:26Z</time>
      </trkpt>
      <trkpt lat="45.71777" lon="6.29987">
        <ele>772</ele>
        <time>2016-08-04T12:59:31Z</time>
      </trkpt>
      <trkpt lat="45.71801" lon="6.29938">
        <ele>770</ele>
        <time>2016-08-04T12:59:36Z</time>
      </trkpt>
      <trkpt lat="45.71844" lon="6.29913">
        <ele>769</ele>
        <time>2016-08-04T12:59:41Z</time>
      </trkpt>
      <trkpt lat="45.71882" lon="6.29891">
        <ele>768</ele>
        <time>2016-08-04T12:59:46Z</time>
      </trkpt>
      <trkpt lat="45.71917" lon="6.29868">
        <ele>766</ele>
        <time>2016-08-04T12:59:51Z</time>
      </trkpt>
      <trkpt lat="45.71951" lon="6.29879">
        <ele>764</ele>
        <time>2016-08-04T12:59:56Z</time>
      </trkpt>
      <trkpt lat="45.71983" lon="6.29887">
        <ele>763</ele>
        <time>2016-08-04T13:00:01Z</time>
      </trkpt>
      <trkpt lat="45.72018" lon="6.29879">
        <ele>761</ele>
        <time>2016-08-04T13:00:06Z</time>
      </trkpt>
      <trkpt lat="45.72052" lon="6.29875">
        <ele>759</ele>
        <time>2016-08-04T13:00:11Z</time>
      </trkpt>
      <trkpt lat="45.72083" lon="6.29876">
        <ele>757</ele>
        <time>2016-08-04T13:00:16Z</time>
      </trkpt>
      <trkpt lat="45.72113" lon="6.29895">
        <ele>756</ele>
        <time>2016-08-04T13:00:21Z</time>
      </trkpt>
      <trkpt lat="45.72144" lon="6.29926">
        <ele>757</ele>
        <time>2016-08-04T13:00:26Z</time>
      </trkpt>
      <trkpt lat="45.72191" lon="6.2997">
        <ele>756</ele>
        <time>2016-08-04T13:00:31Z</time>
      </trkpt>
      <trkpt lat="45.72236" lon="6.29973">
        <ele>756</ele>
        <time>2016-08-04T13:00:36Z</time>
      </trkpt>
      <trkpt lat="45.7228" lon="6.29971">
        <ele>755</ele>
        <time>2016-08-04T13:00:41Z</time>
      </trkpt>
      <trkpt lat="45.72323" lon="6.29955">
        <ele>753</ele>
        <time>2016-08-04T13:00:46Z</time>
      </trkpt>
      <trkpt lat="45.72362" lon="6.2994">
        <ele>750</ele>
        <time>2016-08-04T13:00:51Z</time>
      </trkpt>
      <trkpt lat="45.72405" lon="6.29927">
        <ele>748</ele>
        <time>2016-08-04T13:00:56Z</time>
      </trkpt>
      <trkpt lat="45.72443" lon="6.29923">
        <ele>746</ele>
        <time>2016-08-04T13:01:01Z</time>
      </trkpt>
      <trkpt lat="45.72475" lon="6.29922">
        <ele>743</ele>
        <time>2016-08-04T13:01:06Z</time>
      </trkpt>
      <trkpt lat="45.72504" lon="6.29923">
        <ele>741</ele>
        <time>2016-08-04T13:01:11Z</time>
      </trkpt>
      <trkpt lat="45.72527" lon="6.29929">
        <ele>740</ele>
        <time>2016-08-04T13:01:16Z</time>
      </trkpt>
      <trkpt lat="45.72551" lon="6.29919">
        <ele>739</ele>
        <time>2016-08-04T13:01:21Z</time>
      </trkpt>
      <trkpt lat="45.72572" lon="6.29931">
        <ele>738</ele>
        <time>2016-08-04T13:01:26Z</time>
      </trkpt>
      <trkpt lat="45.72596" lon="6.29951">
        <ele>738</ele>
        <time>2016-08-04T13:01:31Z</time>
      </trkpt>
      <trkpt lat="45.72621" lon="6.29958">
        <ele>738</ele>
        <time>2016-08-04T13:01:36Z</time>
      </trkpt>
      <trkpt lat="45.72652" lon="6.29953">
        <ele>737</ele>
        <time>2016-08-04T13:01:41Z</time>
      </trkpt>
      <trkpt lat="45.72679" lon="6.29944">
        <ele>736</ele>
        <time>2016-08-04T13:01:46Z</time>
      </trkpt>
      <trkpt lat="45.72693" lon="6.29948">
        <ele>735</ele>
        <time>2016-08-04T13:01:51Z</time>
      </trkpt>
      <trkpt lat="45.72714" lon="6.29953">
        <ele>735</ele>
        <time>2016-08-04T13:01:56Z</time>
      </trkpt>
      <trkpt lat="45.72754" lon="6.29939">
        <ele>733.6</ele>
        <time>2016-08-04T13:02:58Z</time>
      </trkpt>
      <trkpt lat="45.72788" lon="6.29938">
        <ele>730</ele>
        <time>2016-08-04T13:02:58Z</time>
      </trkpt>
      <trkpt lat="45.72813" lon="6.29929">
        <ele>726.6</ele>
        <time>2016-08-04T13:02:58Z</time>
      </trkpt>
      <trkpt lat="45.72837" lon="6.29918">
        <ele>723.4</ele>
        <time>2016-08-04T13:02:58Z</time>
      </trkpt>
      <trkpt lat="45.7287" lon="6.29915">
        <ele>720</ele>
        <time>2016-08-04T13:02:58Z</time>
      </trkpt>
      <trkpt lat="45.72894" lon="6.29905">
        <ele>711.9</ele>
        <time>2016-08-04T13:02:58Z</time>
      </trkpt>
      <trkpt lat="45.72901" lon="6.29877">
        <ele>708.3</ele>
        <time>2016-08-04T13:02:58Z</time>
      </trkpt>
      <trkpt lat="45.72906" lon="6.29847">
        <ele>704.1</ele>
        <time>2016-08-04T13:02:58Z</time>
      </trkpt>
      <trkpt lat="45.72917" lon="6.29823">
        <ele>698.2</ele>
        <time>2016-08-04T13:02:58Z</time>
      </trkpt>
      <trkpt lat="45.72934" lon="6.29805">
        <ele>691.1</ele>
        <time>2016-08-04T13:02:58Z</time>
      </trkpt>
      <trkpt lat="45.72947" lon="6.29783">
        <ele>685</ele>
        <time>2016-08-04T13:02:58Z</time>
      </trkpt>
      <trkpt lat="45.72969" lon="6.29766">
        <ele>680.2</ele>
        <time>2016-08-04T13:02:58Z</time>
      </trkpt>
      <trkpt lat="45.72987" lon="6.29749">
        <ele>680.2</ele>
        <time>2016-08-04T13:02:58Z</time>
      </trkpt>
      <trkpt lat="45.73021" lon="6.29748">
        <ele>680.8</ele>
        <time>2016-08-04T13:02:58Z</time>
      </trkpt>
      <trkpt lat="45.73039" lon="6.29764">
        <ele>677</ele>
        <time>2016-08-04T13:02:58Z</time>
      </trkpt>
      <trkpt lat="45.73052" lon="6.29787">
        <ele>669.4</ele>
        <time>2016-08-04T13:02:58Z</time>
      </trkpt>
      <trkpt lat="45.73063" lon="6.29812">
        <ele>661.3</ele>
        <time>2016-08-04T13:02:58Z</time>
      </trkpt>
      <trkpt lat="45.7307" lon="6.2984">
        <ele>652.2</ele>
        <time>2016-08-04T13:02:58Z</time>
      </trkpt>
      <trkpt lat="45.7308" lon="6.29865">
        <ele>642.2</ele>
        <time>2016-08-04T13:02:58Z</time>
      </trkpt>
      <trkpt lat="45.73093" lon="6.29888">
        <ele>633.5</ele>
        <time>2016-08-04T13:02:58Z</time>
      </trkpt>
      <trkpt lat="45.73106" lon="6.2991">
        <ele>626.2</ele>
        <time>2016-08-04T13:02:58Z</time>
      </trkpt>
      <trkpt lat="45.73126" lon="6.29924">
        <ele>616.9</ele>
        <time>2016-08-04T13:02:58Z</time>
      </trkpt>
      <trkpt lat="45.73148" lon="6.29938">
        <ele>612.5</ele>
        <time>2016-08-04T13:02:58Z</time>
      </trkpt>
      <trkpt lat="45.73171" lon="6.29927">
        <ele>611.2</ele>
        <time>2016-08-04T13:02:58Z</time>
      </trkpt>
      <trkpt lat="45.73194" lon="6.29914">
        <ele>610.6</ele>
        <time>2016-08-04T13:02:58Z</time>
      </trkpt>
      <trkpt lat="45.73218" lon="6.29903">
        <ele>609.9</ele>
        <time>2016-08-04T13:02:58Z</time>
      </trkpt>
      <trkpt lat="45.73251" lon="6.29902">
        <ele>606.4</ele>
        <time>2016-08-04T13:02:58Z</time>
      </trkpt>
      <trkpt lat="45.73268" lon="6.2992">
        <ele>601.5</ele>
        <time>2016-08-04T13:02:58Z</time>
      </trkpt>
      <trkpt lat="45.73286" lon="6.29937">
        <ele>596.9</ele>
        <time>2016-08-04T13:02:58Z</time>
      </trkpt>
      <trkpt lat="45.73305" lon="6.29952">
        <ele>592.9</ele>
        <time>2016-08-04T13:02:58Z</time>
      </trkpt>
      <trkpt lat="45.73322" lon="6.2997">
        <ele>589.7</ele>
        <time>2016-08-04T13:02:58Z</time>
      </trkpt>
      <trkpt lat="45.7334" lon="6.29988">
        <ele>586.5</ele>
        <time>2016-08-04T13:02:58Z</time>
      </trkpt>
      <trkpt lat="45.7336" lon="6.30003">
        <ele>583.1</ele>
        <time>2016-08-04T13:02:58Z</time>
      </trkpt>
      <trkpt lat="45.73383" lon="6.30013">
        <ele>579.3</ele>
        <time>2016-08-04T13:02:58Z</time>
      </trkpt>
      <trkpt lat="45.73416" lon="6.30016">
        <ele>574.3</ele>
        <time>2016-08-04T13:02:58Z</time>
      </trkpt>
      <trkpt lat="45.73449" lon="6.30017">
        <ele>569.3</ele>
        <time>2016-08-04T13:02:58Z</time>
      </trkpt>
      <trkpt lat="45.73476" lon="6.30009">
        <ele>567.5</ele>
        <time>2016-08-04T13:02:58Z</time>
      </trkpt>
      <trkpt lat="45.73508" lon="6.30005">
        <ele>565.5</ele>
        <time>2016-08-04T13:02:58Z</time>
      </trkpt>
      <trkpt lat="45.73532" lon="6.29994">
        <ele>565.1</ele>
        <time>2016-08-04T13:02:58Z</time>
      </trkpt>
      <trkpt lat="45.73553" lon="6.30008">
        <ele>561.8</ele>
        <time>2016-08-04T13:02:58Z</time>
      </trkpt>
      <trkpt lat="45.73578" lon="6.30018">
        <ele>559.1</ele>
        <time>2016-08-04T13:02:58Z</time>
      </trkpt>
      <trkpt lat="45.7361" lon="6.30014">
        <ele>557.5</ele>
        <time>2016-08-04T13:02:58Z</time>
      </trkpt>
      <trkpt lat="45.73637" lon="6.30006">
        <ele>556.8</ele>
        <time>2016-08-04T13:02:58Z</time>
      </trkpt>
    </trkseg>
  </trk>
</gpx>